GFSCGP_prec_precacc24_021.txt.gz
Total_Precipitation_Accumulation
0.00 0.00 0.00 0.00 0.00 0.00 0.00 0.00 0.00 0.00 0.00 0.00 0.00 0.00 0.00 0.00 0.00 0.02 0.02 0.06 0.01 0.00 0.03 0.05 0.07 0.09 0.06 0.05 0.15 0.38 0.46 0.59 0.29 0.08 0.04 0.04 0.04 0.04 0.04 0.01 0.00 0.00 0.00 0.00
0.00 0.00 0.00 0.00 0.00 0.00 0.00 0.00 0.00 0.00 0.00 0.00 0.00 0.00 0.00 0.00 0.00 0.00 0.01 0.11 0.03 0.00 0.01 0.02 0.03 0.03 0.04 0.10 0.33 0.41 0.21 0.12 0.01 0.01 0.01 0.03 0.05 0.02 0.00 0.00 0.00 0.00 0.00 0.00
0.00 0.00 0.00 0.00 0.00 0.00 0.00 0.00 0.00 0.00 0.00 0.00 0.00 0.00 0.00 0.00 0.00 0.00 0.00 0.00 0.00 0.00 0.02 0.03 0.03 0.03 0.01 0.02 0.14 0.12 0.02 0.01 0.00 0.01 0.02 0.01 0.00 0.00 0.00 0.00 0.00 0.00 0.00 0.00
0.00 0.00 0.00 0.00 0.00 0.00 0.00 0.00 0.00 0.00 0.00 0.00 0.00 0.00 0.00 0.00 0.00 0.00 0.00 0.00 0.00 0.00 0.00 0.00 0.00 0.00 0.01 0.01 0.07 0.04 0.00 0.00 0.00 0.00 0.00 0.00 0.00 0.00 0.00 0.00 0.00 0.00 0.00 0.00
0.01 0.00 0.00 0.00 0.00 0.00 0.00 0.00 0.00 0.00 0.00 0.04 0.02 0.00 0.03 0.05 0.00 0.00 0.00 0.00 0.00 0.00 0.00 0.00 0.00 0.00 0.00 0.00 0.00 0.02 0.00 0.00 0.00 0.00 0.00 0.00 0.00 0.00 0.00 0.00 0.00 0.00 0.00 0.00
0.01 0.00 0.00 0.00 0.00 0.00 0.00 0.00 0.00 0.00 0.00 0.01 0.01 0.01 0.00 0.00 0.00 0.01 0.00 0.00 0.00 0.00 0.00 0.00 0.00 0.01 0.00 0.00 0.00 0.00 0.00 0.00 0.00 0.00 0.00 0.00 0.00 0.00 0.00 0.00 0.00 0.00 0.00 0.00
0.00 0.00 0.00 0.00 0.00 0.00 0.00 0.00 0.00 0.03 0.00 0.00 0.00 0.01 0.01 0.01 0.04 0.08 0.10 0.00 0.00 0.00 0.00 0.00 0.02 0.02 0.00 0.00 0.00 0.00 0.00 0.00 0.00 0.00 0.00 0.00 0.00 0.00 0.00 0.00 0.00 0.00 0.00 0.00
0.01 0.00 0.00 0.00 0.00 0.00 0.00 0.00 0.00 0.06 0.06 0.01 0.02 0.01 0.00 0.00 0.00 0.00 0.00 0.00 0.00 0.00 0.00 0.00 0.00 0.00 0.00 0.00 0.00 0.00 0.00 0.00 0.00 0.00 0.00 0.00 0.00 0.00 0.00 0.00 0.00 0.00 0.00 0.00
0.03 0.01 0.02 0.00 0.00 0.00 0.00 0.00 0.00 0.01 0.04 0.01 0.01 0.00 0.00 0.00 0.00 0.00 0.00 0.00 0.00 0.00 0.00 0.00 0.00 0.00 0.00 0.00 0.00 0.00 0.00 0.00 0.00 0.00 0.00 0.00 0.00 0.00 0.00 0.00 0.00 0.00 0.00 0.00
0.04 0.08 0.02 0.01 0.00 0.00 0.00 0.00 0.00 0.00 0.00 0.00 0.00 0.00 0.00 0.00 0.00 0.00 0.00 0.00 0.00 0.00 0.00 0.00 0.00 0.00 0.00 0.00 0.00 0.00 0.00 0.00 0.00 0.00 0.00 0.00 0.00 0.00 0.00 0.00 0.00 0.00 0.00 0.00
0.00 0.03 0.04 0.00 0.00 0.00 0.00 0.00 0.00 0.00 0.00 0.00 0.00 0.00 0.00 0.00 0.00 0.00 0.00 0.00 0.00 0.00 0.00 0.00 0.00 0.00 0.00 0.00 0.00 0.00 0.00 0.00 0.00 0.00 0.00 0.00 0.00 0.00 0.00 0.00 0.00 0.00 0.00 0.00
0.00 0.00 0.00 0.00 0.00 0.00 0.00 0.01 0.02 0.00 0.00 0.00 0.00 0.00 0.00 0.00 0.00 0.00 0.00 0.00 0.00 0.00 0.00 0.00 0.00 0.00 0.00 0.00 0.00 0.00 0.00 0.00 0.00 0.00 0.00 0.00 0.00 0.00 0.00 0.00 0.00 0.00 0.00 0.00
0.00 0.00 0.00 0.00 0.00 0.00 0.00 0.00 0.00 0.00 0.00 0.00 0.00 0.00 0.00 0.00 0.00 0.00 0.00 0.00 0.00 0.00 0.00 0.00 0.00 0.00 0.00 0.00 0.00 0.00 0.00 0.00 0.00 0.00 0.00 0.00 0.00 0.00 0.00 0.00 0.00 0.00 0.00 0.00
0.00 0.00 0.00 0.00 0.00 0.00 0.00 0.00 0.00 0.00 0.00 0.00 0.00 0.00 0.00 0.00 0.00 0.00 0.00 0.00 0.00 0.00 0.00 0.00 0.00 0.00 0.00 0.00 0.00 0.00 0.00 0.00 0.00 0.00 0.00 0.00 0.00 0.00 0.00 0.00 0.00 0.00 0.00 0.00
0.00 0.00 0.00 0.00 0.00 0.00 0.00 0.00 0.00 0.00 0.00 0.00 0.00 0.00 0.00 0.00 0.00 0.00 0.00 0.00 0.00 0.00 0.00 0.00 0.00 0.00 0.00 0.00 0.00 0.00 0.00 0.00 0.00 0.00 0.00 0.00 0.00 0.00 0.00 0.00 0.00 0.00 0.00 0.00
0.00 0.00 0.00 0.00 0.00 0.00 0.00 0.00 0.00 0.00 0.00 0.00 0.00 0.00 0.00 0.00 0.00 0.00 0.00 0.00 0.00 0.00 0.00 0.00 0.00 0.00 0.00 0.00 0.00 0.00 0.00 0.00 0.00 0.00 0.00 0.00 0.00 0.00 0.00 0.00 0.00 0.00 0.00 0.00
0.00 0.00 0.00 0.00 0.00 0.00 0.00 0.00 0.00 0.00 0.00 0.00 0.00 0.00 0.00 0.00 0.00 0.00 0.00 0.00 0.00 0.00 0.00 0.00 0.00 0.00 0.00 0.00 0.00 0.00 0.00 0.00 0.00 0.00 0.00 0.00 0.00 0.00 0.00 0.00 0.00 0.00 0.00 0.00
0.02 0.00 0.00 0.00 0.00 0.00 0.00 0.00 0.00 0.00 0.00 0.00 0.00 0.00 0.00 0.00 0.00 0.00 0.00 0.00 0.00 0.00 0.00 0.00 0.00 0.00 0.00 0.00 0.00 0.00 0.00 0.00 0.00 0.00 0.00 0.00 0.00 0.00 0.00 0.00 0.00 0.01 0.00 0.00
0.03 0.00 0.00 0.00 0.00 0.00 0.00 0.00 0.00 0.00 0.00 0.00 0.00 0.00 0.00 0.00 0.00 0.00 0.00 0.00 0.00 0.00 0.00 0.00 0.00 0.00 0.00 0.00 0.00 0.00 0.00 0.00 0.00 0.00 0.00 0.00 0.00 0.00 0.00 0.00 0.00 0.00 0.00 0.00
0.00 0.00 0.00 0.00 0.00 0.00 0.00 0.00 0.00 0.00 0.00 0.00 0.00 0.00 0.00 0.00 0.00 0.00 0.00 0.00 0.00 0.00 0.00 0.00 0.00 0.00 0.00 0.00 0.00 0.00 0.00 0.00 0.00 0.00 0.00 0.00 0.00 0.01 0.00 0.00 0.00 0.00 0.00 0.00
0.00 0.00 0.00 0.00 0.00 0.00 0.00 0.00 0.00 0.00 0.00 0.00 0.00 0.00 0.00 0.00 0.00 0.00 0.00 0.00 0.00 0.00 0.00 0.00 0.00 0.00 0.00 0.00 0.00 0.00 0.00 0.00 0.00 0.01 0.02 0.01 0.01 0.01 0.00 0.00 0.00 0.00 0.00 0.00
0.00 0.00 0.00 0.00 0.00 0.00 0.00 0.00 0.00 0.00 0.00 0.00 0.00 0.00 0.00 0.00 0.00 0.00 0.00 0.00 0.00 0.00 0.00 0.00 0.00 0.00 0.00 0.00 0.00 0.01 0.01 0.01 0.02 0.02 0.01 0.01 0.01 0.00 0.00 0.00 0.00 0.00 0.00 0.00
0.00 0.00 0.00 0.00 0.00 0.00 0.00 0.00 0.00 0.00 0.00 0.00 0.00 0.00 0.00 0.00 0.00 0.00 0.00 0.00 0.00 0.00 0.00 0.00 0.00 0.00 0.01 0.01 0.01 0.02 0.02 0.02 0.02 0.02 0.01 0.01 0.00 0.00 0.00 0.00 0.00 0.00 0.00 0.00
0.00 0.00 0.00 0.00 0.00 0.00 0.00 0.00 0.00 0.00 0.00 0.00 0.00 0.00 0.00 0.00 0.00 0.00 0.00 0.00 0.00 0.00 0.00 0.00 0.01 0.02 0.02 0.02 0.02 0.01 0.00 0.01 0.01 0.00 0.00 0.00 0.00 0.00 0.00 0.00 0.00 0.00 0.00 0.00
0.00 0.00 0.00 0.00 0.00 0.00 0.00 0.00 0.00 0.00 0.00 0.00 0.00 0.00 0.00 0.00 0.00 0.00 0.00 0.00 0.00 0.02 0.03 0.03 0.03 0.03 0.03 0.01 0.01 0.01 0.01 0.00 0.00 0.00 0.00 0.00 0.00 0.00 0.00 0.00 0.00 0.00 0.00 0.00
0.00 0.00 0.00 0.00 0.00 0.00 0.00 0.00 0.00 0.00 0.00 0.00 0.00 0.00 0.00 0.00 0.00 0.00 0.00 0.01 0.04 0.05 0.05 0.05 0.03 0.02 0.01 0.01 0.01 0.00 0.00 0.00 0.00 0.00 0.00 0.01 0.02 0.02 0.01 0.00 0.00 0.00 0.00 0.00

GFSCGP_prec_precacc24_027.txt.gz
Total_Precipitation_Accumulation
0.00 0.00 0.00 0.00 0.00 0.00 0.00 0.00 0.00 0.00 0.00 0.00 0.00 0.00 0.00 0.00 0.00 0.02 0.03 0.07 0.02 0.00 0.03 0.04 0.05 0.07 0.07 0.06 0.11 0.25 0.29 0.51 0.25 0.05 0.03 0.01 0.01 0.02 0.03 0.01 0.00 0.00 0.00 0.00
0.00 0.00 0.00 0.00 0.00 0.00 0.00 0.00 0.00 0.00 0.00 0.00 0.00 0.00 0.00 0.00 0.00 0.01 0.01 0.11 0.03 0.00 0.00 0.01 0.02 0.01 0.03 0.09 0.32 0.37 0.17 0.11 0.01 0.01 0.00 0.01 0.02 0.01 0.00 0.00 0.00 0.00 0.00 0.00
0.00 0.00 0.00 0.00 0.00 0.00 0.00 0.00 0.00 0.00 0.00 0.00 0.00 0.00 0.00 0.00 0.00 0.01 0.00 0.00 0.00 0.00 0.00 0.01 0.00 0.00 0.01 0.02 0.17 0.17 0.06 0.05 0.02 0.00 0.00 0.02 0.02 0.00 0.00 0.00 0.00 0.00 0.00 0.00
0.00 0.00 0.00 0.00 0.00 0.00 0.00 0.00 0.00 0.00 0.00 0.00 0.00 0.00 0.00 0.00 0.00 0.00 0.00 0.00 0.00 0.00 0.00 0.00 0.00 0.00 0.01 0.06 0.25 0.11 0.09 0.09 0.05 0.04 0.04 0.04 0.08 0.01 0.00 0.00 0.00 0.00 0.00 0.00
0.01 0.00 0.00 0.00 0.00 0.00 0.00 0.00 0.00 0.00 0.00 0.04 0.02 0.00 0.03 0.05 0.00 0.00 0.00 0.00 0.00 0.00 0.00 0.00 0.00 0.00 0.02 0.07 0.20 0.14 0.10 0.14 0.08 0.08 0.14 0.05 0.05 0.00 0.00 0.00 0.00 0.00 0.00 0.00
0.01 0.00 0.00 0.00 0.00 0.00 0.00 0.00 0.00 0.00 0.00 0.01 0.01 0.01 0.00 0.00 0.00 0.01 0.00 0.00 0.00 0.00 0.00 0.00 0.00 0.01 0.03 0.11 0.16 0.11 0.11 0.12 0.04 0.07 0.11 0.03 0.01 0.00 0.00 0.00 0.00 0.00 0.00 0.00
0.00 0.00 0.00 0.00 0.00 0.00 0.00 0.00 0.00 0.03 0.00 0.00 0.00 0.01 0.01 0.01 0.04 0.08 0.10 0.00 0.00 0.00 0.00 0.00 0.02 0.04 0.04 0.08 0.13 0.05 0.02 0.04 0.02 0.01 0.03 0.01 0.00 0.00 0.00 0.00 0.00 0.00 0.00 0.00
0.01 0.00 0.00 0.00 0.00 0.00 0.00 0.00 0.00 0.06 0.06 0.01 0.03 0.01 0.00 0.00 0.00 0.00 0.00 0.00 0.00 0.00 0.00 0.00 0.01 0.02 0.05 0.10 0.06 0.02 0.01 0.04 0.00 0.00 0.01 0.00 0.00 0.00 0.00 0.00 0.00 0.00 0.00 0.00
0.03 0.01 0.02 0.00 0.00 0.00 0.00 0.00 0.00 0.01 0.04 0.01 0.01 0.00 0.00 0.00 0.00 0.00 0.00 0.00 0.00 0.00 0.00 0.00 0.00 0.01 0.04 0.06 0.03 0.01 0.00 0.00 0.00 0.00 0.00 0.00 0.00 0.00 0.00 0.00 0.00 0.00 0.00 0.00
0.04 0.08 0.02 0.01 0.00 0.00 0.00 0.00 0.00 0.00 0.00 0.00 0.00 0.00 0.00 0.00 0.00 0.00 0.00 0.00 0.00 0.00 0.00 0.00 0.00 0.00 0.01 0.01 0.00 0.00 0.00 0.00 0.00 0.00 0.00 0.00 0.00 0.00 0.00 0.00 0.00 0.00 0.00 0.00
0.00 0.03 0.04 0.00 0.00 0.00 0.00 0.00 0.00 0.00 0.00 0.00 0.00 0.00 0.00 0.00 0.00 0.00 0.00 0.00 0.00 0.00 0.00 0.00 0.00 0.00 0.00 0.00 0.00 0.00 0.00 0.00 0.00 0.00 0.00 0.00 0.00 0.00 0.00 0.00 0.00 0.00 0.00 0.00
0.00 0.00 0.00 0.00 0.00 0.00 0.00 0.01 0.04 0.00 0.00 0.00 0.00 0.00 0.00 0.00 0.00 0.00 0.00 0.00 0.00 0.00 0.00 0.00 0.00 0.00 0.00 0.00 0.00 0.00 0.00 0.00 0.00 0.00 0.00 0.00 0.00 0.00 0.00 0.00 0.00 0.00 0.00 0.00
0.00 0.00 0.00 0.00 0.00 0.01 0.00 0.00 0.00 0.00 0.00 0.00 0.00 0.00 0.00 0.00 0.00 0.00 0.00 0.00 0.00 0.00 0.00 0.00 0.00 0.00 0.00 0.00 0.00 0.00 0.00 0.00 0.00 0.00 0.00 0.00 0.00 0.00 0.00 0.00 0.00 0.00 0.00 0.00
0.00 0.00 0.00 0.00 0.00 0.00 0.00 0.00 0.00 0.00 0.00 0.00 0.00 0.00 0.00 0.00 0.00 0.00 0.00 0.00 0.00 0.00 0.00 0.00 0.00 0.00 0.00 0.00 0.00 0.01 0.01 0.01 0.01 0.00 0.00 0.00 0.00 0.00 0.00 0.00 0.00 0.00 0.00 0.00
0.00 0.00 0.00 0.00 0.00 0.00 0.00 0.00 0.00 0.00 0.00 0.00 0.00 0.00 0.00 0.00 0.00 0.00 0.00 0.00 0.00 0.00 0.00 0.00 0.00 0.00 0.00 0.01 0.00 0.01 0.01 0.01 0.00 0.00 0.00 0.00 0.00 0.00 0.00 0.00 0.00 0.00 0.00 0.00
0.00 0.00 0.00 0.00 0.00 0.00 0.00 0.00 0.00 0.00 0.00 0.00 0.00 0.00 0.00 0.00 0.00 0.00 0.00 0.00 0.00 0.00 0.00 0.00 0.00 0.01 0.00 0.01 0.01 0.01 0.01 0.00 0.00 0.00 0.00 0.00 0.00 0.00 0.00 0.00 0.00 0.00 0.00 0.00
0.00 0.00 0.00 0.00 0.00 0.00 0.00 0.00 0.00 0.00 0.00 0.00 0.00 0.00 0.00 0.00 0.00 0.00 0.00 0.00 0.00 0.00 0.00 0.00 0.00 0.00 0.00 0.00 0.00 0.00 0.00 0.00 0.00 0.00 0.00 0.00 0.00 0.00 0.00 0.00 0.00 0.00 0.00 0.00
0.02 0.00 0.00 0.00 0.00 0.00 0.00 0.00 0.00 0.00 0.00 0.00 0.00 0.00 0.00 0.00 0.00 0.00 0.00 0.00 0.00 0.00 0.00 0.00 0.00 0.00 0.00 0.00 0.00 0.00 0.00 0.00 0.00 0.00 0.00 0.00 0.00 0.00 0.00 0.00 0.00 0.01 0.02 0.02
0.05 0.02 0.00 0.00 0.00 0.00 0.00 0.00 0.00 0.00 0.00 0.00 0.00 0.00 0.00 0.00 0.00 0.00 0.00 0.00 0.00 0.00 0.00 0.00 0.00 0.00 0.00 0.00 0.00 0.00 0.00 0.00 0.00 0.00 0.00 0.00 0.00 0.00 0.00 0.02 0.06 0.08 0.05 0.01
0.01 0.03 0.01 0.00 0.00 0.00 0.00 0.00 0.00 0.00 0.00 0.00 0.00 0.00 0.00 0.00 0.00 0.00 0.00 0.00 0.00 0.00 0.00 0.00 0.00 0.00 0.00 0.00 0.00 0.00 0.00 0.00 0.00 0.00 0.00 0.00 0.01 0.04 0.10 0.13 0.10 0.04 0.00 0.00
0.00 0.00 0.00 0.00 0.00 0.00 0.00 0.00 0.00 0.00 0.00 0.00 0.00 0.00 0.00 0.00 0.00 0.00 0.00 0.00 0.00 0.00 0.00 0.00 0.00 0.00 0.00 0.00 0.00 0.00 0.00 0.00 0.00 0.02 0.06 0.11 0.16 0.19 0.14 0.06 0.02 0.00 0.00 0.00
0.00 0.00 0.00 0.00 0.00 0.00 0.00 0.00 0.00 0.00 0.00 0.00 0.00 0.00 0.00 0.00 0.00 0.00 0.00 0.00 0.00 0.00 0.00 0.00 0.00 0.00 0.00 0.00 0.00 0.01 0.01 0.02 0.05 0.08 0.12 0.15 0.14 0.06 0.02 0.00 0.00 0.00 0.00 0.00
0.00 0.00 0.00 0.00 0.00 0.00 0.00 0.00 0.00 0.00 0.00 0.00 0.00 0.00 0.00 0.00 0.00 0.00 0.00 0.00 0.00 0.00 0.00 0.00 0.00 0.00 0.01 0.01 0.01 0.02 0.02 0.03 0.04 0.06 0.04 0.01 0.00 0.00 0.00 0.00 0.00 0.00 0.00 0.00
0.00 0.00 0.00 0.00 0.00 0.00 0.00 0.00 0.00 0.00 0.00 0.00 0.00 0.00 0.00 0.00 0.00 0.00 0.00 0.00 0.00 0.00 0.00 0.00 0.01 0.02 0.02 0.02 0.02 0.01 0.00 0.01 0.01 0.00 0.00 0.00 0.00 0.00 0.00 0.00 0.00 0.00 0.00 0.00
0.00 0.00 0.00 0.00 0.00 0.00 0.00 0.00 0.00 0.00 0.00 0.00 0.00 0.00 0.00 0.00 0.00 0.00 0.00 0.00 0.00 0.02 0.03 0.03 0.03 0.03 0.03 0.01 0.01 0.01 0.01 0.00 0.00 0.00 0.00 0.00 0.00 0.00 0.00 0.00 0.00 0.00 0.00 0.00
0.00 0.00 0.00 0.00 0.00 0.00 0.00 0.00 0.00 0.00 0.00 0.00 0.00 0.00 0.00 0.00 0.00 0.00 0.00 0.01 0.04 0.05 0.05 0.05 0.03 0.02 0.01 0.01 0.01 0.00 0.00 0.00 0.00 0.00 0.00 0.00 0.01 0.02 0.01 0.00 0.00 0.00 0.00 0.00

GFSCGP_prec_precacc24_030.txt.gz
Total_Precipitation_Accumulation
0.00 0.00 0.00 0.00 0.00 0.00 0.00 0.00 0.00 0.00 0.00 0.00 0.00 0.00 0.00 0.00 0.00 0.03 0.05 0.07 0.02 0.00 0.01 0.02 0.03 0.04 0.04 0.06 0.08 0.13 0.09 0.24 0.12 0.02 0.01 0.01 0.02 0.02 0.01 0.00 0.00 0.00 0.00 0.00
0.00 0.00 0.00 0.00 0.00 0.00 0.00 0.00 0.00 0.00 0.00 0.00 0.00 0.00 0.00 0.00 0.00 0.01 0.01 0.11 0.03 0.00 0.00 0.01 0.01 0.01 0.03 0.07 0.21 0.24 0.08 0.07 0.01 0.00 0.00 0.00 0.00 0.00 0.00 0.00 0.00 0.00 0.00 0.00
0.00 0.00 0.00 0.00 0.00 0.00 0.00 0.00 0.00 0.00 0.00 0.00 0.00 0.00 0.00 0.00 0.00 0.01 0.00 0.00 0.00 0.00 0.00 0.00 0.00 0.00 0.01 0.01 0.15 0.17 0.06 0.05 0.02 0.01 0.00 0.01 0.03 0.01 0.00 0.00 0.00 0.00 0.00 0.00
0.00 0.00 0.00 0.00 0.00 0.00 0.00 0.00 0.00 0.00 0.00 0.00 0.00 0.00 0.00 0.00 0.00 0.00 0.00 0.00 0.00 0.00 0.00 0.00 0.00 0.00 0.01 0.06 0.25 0.11 0.10 0.10 0.06 0.04 0.04 0.04 0.10 0.06 0.02 0.00 0.00 0.00 0.00 0.00
0.01 0.00 0.00 0.00 0.00 0.00 0.00 0.00 0.00 0.00 0.00 0.04 0.02 0.00 0.03 0.05 0.00 0.00 0.00 0.00 0.00 0.00 0.00 0.00 0.00 0.00 0.02 0.07 0.20 0.15 0.12 0.16 0.09 0.10 0.16 0.11 0.15 0.11 0.03 0.00 0.00 0.00 0.00 0.00
0.01 0.00 0.00 0.00 0.00 0.00 0.00 0.00 0.00 0.00 0.00 0.01 0.01 0.01 0.00 0.00 0.00 0.01 0.00 0.00 0.00 0.00 0.00 0.00 0.00 0.01 0.03 0.11 0.17 0.29 0.28 0.16 0.10 0.13 0.18 0.13 0.11 0.08 0.02 0.01 0.00 0.00 0.00 0.00
0.00 0.00 0.00 0.00 0.00 0.00 0.00 0.00 0.00 0.03 0.00 0.00 0.00 0.01 0.01 0.01 0.04 0.08 0.10 0.00 0.00 0.00 0.00 0.00 0.02 0.04 0.04 0.08 0.13 0.18 0.24 0.17 0.10 0.09 0.10 0.06 0.03 0.02 0.01 0.00 0.00 0.00 0.00 0.00
0.01 0.00 0.00 0.00 0.00 0.00 0.00 0.00 0.00 0.06 0.06 0.01 0.03 0.01 0.00 0.00 0.00 0.00 0.00 0.00 0.00 0.00 0.00 0.00 0.01 0.02 0.05 0.11 0.08 0.06 0.19 0.18 0.08 0.08 0.04 0.01 0.01 0.01 0.00 0.00 0.00 0.00 0.00 0.00
0.03 0.01 0.02 0.00 0.00 0.00 0.00 0.00 0.00 0.01 0.04 0.01 0.01 0.00 0.00 0.00 0.00 0.00 0.00 0.00 0.00 0.00 0.00 0.00 0.00 0.01 0.04 0.07 0.04 0.09 0.08 0.06 0.02 0.01 0.00 0.00 0.01 0.02 0.03 0.03 0.00 0.00 0.00 0.00
0.04 0.08 0.02 0.01 0.00 0.00 0.00 0.00 0.00 0.00 0.00 0.00 0.00 0.00 0.00 0.00 0.00 0.00 0.00 0.00 0.00 0.00 0.00 0.00 0.00 0.00 0.01 0.01 0.01 0.04 0.02 0.00 0.00 0.00 0.00 0.01 0.03 0.03 0.02 0.01 0.01 0.01 0.00 0.00
0.00 0.03 0.04 0.00 0.00 0.00 0.00 0.00 0.00 0.00 0.00 0.00 0.00 0.00 0.00 0.00 0.00 0.00 0.00 0.00 0.00 0.00 0.00 0.00 0.00 0.00 0.00 0.00 0.00 0.00 0.00 0.00 0.00 0.00 0.00 0.02 0.03 0.02 0.02 0.01 0.01 0.00 0.00 0.00
0.00 0.00 0.00 0.00 0.00 0.00 0.00 0.01 0.04 0.00 0.00 0.00 0.00 0.00 0.00 0.00 0.00 0.00 0.00 0.00 0.00 0.00 0.00 0.00 0.00 0.00 0.00 0.00 0.00 0.01 0.01 0.00 0.00 0.02 0.03 0.03 0.02 0.01 0.00 0.00 0.00 0.00 0.00 0.00
0.00 0.00 0.00 0.00 0.00 0.01 0.00 0.00 0.00 0.00 0.00 0.00 0.00 0.00 0.00 0.00 0.00 0.00 0.00 0.00 0.00 0.00 0.00 0.00 0.00 0.00 0.00 0.00 0.02 0.06 0.04 0.03 0.04 0.03 0.03 0.01 0.00 0.00 0.00 0.00 0.00 0.00 0.00 0.00
0.00 0.00 0.00 0.00 0.00 0.00 0.00 0.00 0.00 0.00 0.00 0.00 0.00 0.00 0.00 0.00 0.00 0.00 0.00 0.00 0.00 0.00 0.00 0.00 0.00 0.00 0.00 0.04 0.09 0.06 0.04 0.03 0.05 0.02 0.01 0.00 0.00 0.00 0.00 0.00 0.00 0.00 0.00 0.00
0.00 0.00 0.00 0.00 0.00 0.00 0.00 0.00 0.00 0.00 0.00 0.00 0.00 0.00 0.00 0.00 0.00 0.00 0.00 0.00 0.00 0.00 0.00 0.00 0.00 0.00 0.01 0.05 0.04 0.03 0.02 0.02 0.01 0.01 0.00 0.00 0.00 0.00 0.00 0.00 0.00 0.00 0.00 0.00
0.00 0.00 0.00 0.00 0.00 0.00 0.00 0.00 0.00 0.00 0.00 0.00 0.00 0.00 0.00 0.00 0.00 0.00 0.00 0.00 0.00 0.00 0.00 0.00 0.00 0.01 0.01 0.01 0.02 0.02 0.01 0.01 0.01 0.00 0.00 0.00 0.00 0.00 0.00 0.00 0.00 0.00 0.00 0.00
0.00 0.00 0.00 0.00 0.00 0.00 0.00 0.00 0.00 0.00 0.00 0.00 0.00 0.00 0.00 0.00 0.00 0.00 0.00 0.00 0.00 0.00 0.00 0.00 0.00 0.00 0.00 0.00 0.00 0.00 0.00 0.00 0.00 0.00 0.00 0.00 0.01 0.00 0.00 0.00 0.00 0.00 0.00 0.00
0.02 0.00 0.00 0.00 0.00 0.00 0.00 0.00 0.00 0.00 0.00 0.00 0.00 0.00 0.00 0.00 0.00 0.00 0.00 0.00 0.00 0.00 0.00 0.00 0.00 0.00 0.00 0.00 0.00 0.00 0.00 0.00 0.00 0.00 0.00 0.00 0.01 0.00 0.00 0.00 0.00 0.01 0.03 0.05
0.05 0.03 0.00 0.00 0.00 0.00 0.00 0.00 0.00 0.00 0.00 0.00 0.00 0.00 0.00 0.00 0.00 0.00 0.00 0.00 0.00 0.00 0.00 0.00 0.00 0.00 0.00 0.00 0.00 0.00 0.00 0.00 0.00 0.00 0.00 0.00 0.00 0.00 0.01 0.02 0.06 0.10 0.11 0.08
0.01 0.03 0.02 0.00 0.00 0.00 0.00 0.00 0.00 0.00 0.00 0.00 0.00 0.00 0.00 0.00 0.00 0.00 0.00 0.00 0.00 0.00 0.00 0.00 0.00 0.00 0.00 0.00 0.00 0.00 0.00 0.00 0.00 0.00 0.00 0.00 0.01 0.05 0.10 0.16 0.17 0.13 0.06 0.01
0.01 0.01 0.00 0.00 0.00 0.00 0.00 0.00 0.00 0.00 0.00 0.00 0.00 0.00 0.00 0.00 0.00 0.00 0.00 0.00 0.00 0.00 0.00 0.00 0.00 0.00 0.00 0.00 0.00 0.00 0.00 0.00 0.00 0.02 0.06 0.11 0.16 0.22 0.18 0.11 0.05 0.03 0.01 0.00
0.00 0.00 0.00 0.00 0.00 0.00 0.00 0.00 0.00 0.00 0.00 0.00 0.00 0.00 0.00 0.00 0.00 0.00 0.00 0.00 0.00 0.00 0.00 0.00 0.00 0.00 0.00 0.00 0.00 0.01 0.01 0.02 0.05 0.09 0.13 0.16 0.15 0.08 0.04 0.01 0.00 0.00 0.00 0.00
0.00 0.00 0.00 0.00 0.00 0.00 0.00 0.00 0.00 0.00 0.00 0.00 0.00 0.00 0.00 0.00 0.00 0.00 0.00 0.00 0.00 0.00 0.00 0.00 0.00 0.00 0.01 0.01 0.01 0.02 0.02 0.03 0.04 0.06 0.04 0.01 0.00 0.00 0.00 0.00 0.00 0.00 0.00 0.00
0.00 0.00 0.00 0.00 0.00 0.00 0.00 0.00 0.00 0.00 0.00 0.00 0.00 0.00 0.00 0.00 0.00 0.00 0.00 0.00 0.00 0.00 0.00 0.00 0.01 0.02 0.02 0.02 0.02 0.01 0.00 0.01 0.01 0.00 0.00 0.00 0.00 0.00 0.00 0.00 0.00 0.00 0.00 0.00
0.00 0.00 0.00 0.00 0.00 0.00 0.00 0.00 0.00 0.00 0.00 0.00 0.00 0.00 0.00 0.00 0.00 0.00 0.00 0.00 0.00 0.02 0.03 0.03 0.03 0.03 0.03 0.01 0.01 0.01 0.01 0.00 0.00 0.00 0.00 0.00 0.00 0.00 0.00 0.00 0.00 0.00 0.00 0.00
0.00 0.00 0.00 0.00 0.00 0.00 0.00 0.00 0.00 0.00 0.00 0.00 0.00 0.00 0.00 0.00 0.00 0.00 0.00 0.00 0.04 0.05 0.05 0.05 0.03 0.02 0.01 0.01 0.01 0.00 0.00 0.00 0.00 0.00 0.00 0.00 0.00 0.00 0.00 0.00 0.00 0.00 0.00 0.00

GFSCGP_prec_precacc24_033.txt.gz
Total_Precipitation_Accumulation
0.00 0.00 0.00 0.00 0.00 0.00 0.00 0.00 0.00 0.00 0.00 0.00 0.00 0.00 0.00 0.00 0.00 0.03 0.05 0.07 0.02 0.00 0.00 0.00 0.00 0.00 0.02 0.06 0.07 0.10 0.05 0.18 0.08 0.02 0.01 0.01 0.06 0.07 0.03 0.00 0.00 0.00 0.00 0.00
0.00 0.00 0.00 0.00 0.00 0.00 0.00 0.00 0.00 0.00 0.00 0.00 0.00 0.00 0.00 0.00 0.00 0.01 0.01 0.11 0.03 0.00 0.00 0.00 0.00 0.00 0.01 0.02 0.16 0.22 0.07 0.07 0.01 0.00 0.00 0.00 0.02 0.04 0.01 0.00 0.00 0.00 0.00 0.00
0.00 0.00 0.00 0.00 0.00 0.00 0.00 0.00 0.00 0.00 0.00 0.00 0.00 0.00 0.00 0.00 0.00 0.01 0.00 0.00 0.00 0.00 0.00 0.00 0.00 0.00 0.00 0.01 0.15 0.17 0.06 0.05 0.02 0.01 0.00 0.02 0.08 0.08 0.02 0.00 0.00 0.00 0.00 0.00
0.00 0.00 0.00 0.00 0.00 0.00 0.00 0.00 0.00 0.00 0.00 0.00 0.00 0.00 0.00 0.00 0.00 0.00 0.00 0.00 0.00 0.00 0.00 0.00 0.00 0.00 0.01 0.06 0.25 0.11 0.10 0.10 0.09 0.08 0.06 0.06 0.13 0.08 0.05 0.02 0.01 0.00 0.00 0.00
0.01 0.00 0.00 0.00 0.00 0.00 0.00 0.00 0.00 0.00 0.00 0.04 0.02 0.00 0.03 0.05 0.00 0.00 0.00 0.00 0.00 0.00 0.00 0.00 0.00 0.00 0.02 0.07 0.20 0.15 0.12 0.20 0.14 0.21 0.23 0.17 0.19 0.16 0.08 0.02 0.01 0.00 0.00 0.00
0.01 0.00 0.00 0.00 0.00 0.00 0.00 0.00 0.00 0.00 0.00 0.01 0.01 0.01 0.00 0.00 0.00 0.01 0.00 0.00 0.00 0.00 0.00 0.00 0.00 0.01 0.03 0.11 0.17 0.29 0.31 0.20 0.15 0.21 0.20 0.15 0.13 0.10 0.04 0.03 0.01 0.01 0.01 0.00
0.00 0.00 0.00 0.00 0.00 0.00 0.00 0.00 0.00 0.03 0.00 0.00 0.00 0.01 0.01 0.01 0.04 0.08 0.10 0.00 0.00 0.00 0.00 0.00 0.02 0.04 0.04 0.08 0.13 0.18 0.32 0.35 0.20 0.18 0.14 0.09 0.06 0.04 0.02 0.01 0.04 0.03 0.01 0.00
0.01 0.00 0.00 0.00 0.00 0.00 0.00 0.00 0.00 0.06 0.06 0.01 0.03 0.01 0.00 0.00 0.00 0.00 0.00 0.00 0.00 0.00 0.00 0.00 0.01 0.02 0.05 0.11 0.08 0.06 0.29 0.37 0.35 0.19 0.11 0.07 0.03 0.02 0.01 0.02 0.05 0.03 0.00 0.00
0.03 0.01 0.02 0.00 0.00 0.00 0.00 0.00 0.00 0.01 0.04 0.01 0.01 0.00 0.00 0.00 0.00 0.00 0.00 0.00 0.00 0.00 0.00 0.00 0.00 0.01 0.04 0.07 0.05 0.09 0.09 0.19 0.16 0.05 0.03 0.02 0.02 0.04 0.06 0.07 0.04 0.01 0.00 0.00
0.04 0.08 0.02 0.01 0.00 0.00 0.00 0.00 0.00 0.00 0.00 0.00 0.00 0.00 0.00 0.00 0.00 0.00 0.00 0.00 0.00 0.00 0.00 0.00 0.00 0.00 0.01 0.01 0.01 0.06 0.04 0.02 0.02 0.02 0.01 0.02 0.04 0.05 0.05 0.06 0.06 0.03 0.01 0.00
0.00 0.03 0.04 0.00 0.00 0.00 0.00 0.00 0.00 0.00 0.00 0.00 0.00 0.00 0.00 0.00 0.00 0.00 0.00 0.00 0.00 0.00 0.00 0.00 0.00 0.00 0.00 0.00 0.00 0.00 0.00 0.01 0.01 0.01 0.02 0.04 0.07 0.08 0.10 0.08 0.07 0.03 0.01 0.00
0.00 0.00 0.00 0.00 0.00 0.00 0.00 0.01 0.04 0.00 0.00 0.00 0.00 0.00 0.00 0.00 0.00 0.00 0.00 0.00 0.00 0.00 0.00 0.00 0.00 0.00 0.00 0.00 0.00 0.01 0.03 0.02 0.04 0.05 0.06 0.08 0.08 0.10 0.08 0.06 0.03 0.01 0.00 0.00
0.00 0.00 0.00 0.00 0.00 0.01 0.00 0.00 0.00 0.00 0.00 0.00 0.00 0.00 0.00 0.00 0.00 0.00 0.00 0.00 0.00 0.00 0.00 0.00 0.00 0.00 0.00 0.00 0.02 0.09 0.08 0.11 0.10 0.10 0.09 0.07 0.06 0.06 0.04 0.02 0.01 0.00 0.00 0.00
0.00 0.00 0.00 0.00 0.00 0.00 0.00 0.00 0.00 0.00 0.00 0.00 0.00 0.00 0.00 0.00 0.00 0.00 0.00 0.00 0.00 0.00 0.00 0.00 0.00 0.00 0.00 0.04 0.11 0.08 0.08 0.09 0.13 0.08 0.05 0.04 0.03 0.02 0.01 0.00 0.00 0.00 0.00 0.00
0.00 0.00 0.00 0.00 0.00 0.00 0.00 0.00 0.00 0.00 0.00 0.00 0.00 0.00 0.00 0.00 0.00 0.00 0.00 0.00 0.00 0.00 0.00 0.00 0.00 0.00 0.01 0.05 0.05 0.03 0.04 0.03 0.05 0.02 0.02 0.01 0.01 0.00 0.00 0.00 0.00 0.00 0.00 0.00
0.00 0.00 0.00 0.00 0.00 0.00 0.00 0.00 0.00 0.00 0.00 0.00 0.00 0.00 0.00 0.00 0.00 0.00 0.00 0.00 0.00 0.00 0.00 0.00 0.00 0.01 0.01 0.01 0.02 0.02 0.01 0.01 0.01 0.01 0.00 0.01 0.01 0.00 0.00 0.00 0.00 0.00 0.00 0.00
0.00 0.00 0.00 0.00 0.01 0.01 0.00 0.00 0.00 0.00 0.00 0.00 0.00 0.00 0.00 0.00 0.00 0.00 0.00 0.00 0.00 0.00 0.00 0.00 0.00 0.00 0.00 0.00 0.00 0.00 0.00 0.00 0.00 0.00 0.00 0.00 0.01 0.01 0.00 0.00 0.00 0.00 0.00 0.00
0.02 0.00 0.00 0.00 0.00 0.00 0.00 0.00 0.00 0.00 0.00 0.00 0.00 0.00 0.00 0.00 0.00 0.00 0.00 0.00 0.00 0.00 0.00 0.00 0.00 0.00 0.00 0.00 0.00 0.00 0.00 0.00 0.00 0.00 0.00 0.00 0.01 0.00 0.00 0.00 0.01 0.02 0.05 0.09
0.05 0.03 0.00 0.00 0.00 0.00 0.00 0.00 0.00 0.00 0.00 0.00 0.00 0.00 0.00 0.00 0.00 0.00 0.00 0.00 0.00 0.00 0.00 0.00 0.00 0.00 0.00 0.00 0.00 0.00 0.00 0.00 0.00 0.00 0.00 0.00 0.00 0.00 0.01 0.03 0.07 0.13 0.17 0.17
0.01 0.03 0.02 0.00 0.00 0.00 0.00 0.00 0.00 0.00 0.00 0.00 0.00 0.00 0.00 0.00 0.00 0.00 0.00 0.00 0.00 0.00 0.00 0.00 0.00 0.00 0.00 0.00 0.00 0.00 0.00 0.00 0.00 0.00 0.00 0.00 0.01 0.05 0.11 0.17 0.19 0.15 0.08 0.03
0.01 0.01 0.00 0.00 0.00 0.00 0.00 0.00 0.00 0.00 0.00 0.00 0.00 0.00 0.00 0.00 0.00 0.00 0.00 0.00 0.00 0.00 0.00 0.00 0.00 0.00 0.00 0.00 0.00 0.00 0.00 0.00 0.00 0.02 0.06 0.11 0.16 0.22 0.19 0.12 0.06 0.04 0.02 0.01
0.00 0.00 0.00 0.00 0.00 0.00 0.00 0.00 0.00 0.00 0.00 0.00 0.00 0.00 0.00 0.00 0.00 0.00 0.00 0.00 0.00 0.00 0.00 0.00 0.00 0.00 0.00 0.00 0.00 0.01 0.01 0.02 0.05 0.09 0.13 0.16 0.16 0.09 0.04 0.01 0.00 0.00 0.00 0.00
0.00 0.00 0.00 0.00 0.00 0.00 0.00 0.00 0.00 0.00 0.00 0.00 0.00 0.00 0.00 0.00 0.00 0.00 0.00 0.00 0.00 0.00 0.00 0.00 0.00 0.00 0.01 0.01 0.01 0.02 0.02 0.03 0.04 0.06 0.04 0.01 0.00 0.00 0.00 0.00 0.00 0.00 0.00 0.00
0.00 0.00 0.00 0.00 0.00 0.00 0.00 0.00 0.00 0.00 0.00 0.00 0.00 0.00 0.00 0.00 0.00 0.00 0.00 0.00 0.00 0.00 0.00 0.00 0.01 0.02 0.02 0.02 0.02 0.01 0.00 0.01 0.01 0.00 0.00 0.00 0.00 0.00 0.00 0.00 0.00 0.00 0.00 0.00
0.00 0.00 0.00 0.00 0.00 0.00 0.00 0.00 0.00 0.00 0.00 0.00 0.00 0.00 0.00 0.00 0.00 0.00 0.00 0.00 0.00 0.00 0.01 0.03 0.03 0.03 0.03 0.01 0.01 0.01 0.01 0.00 0.00 0.00 0.00 0.00 0.00 0.00 0.00 0.00 0.00 0.00 0.00 0.00
0.00 0.00 0.00 0.00 0.00 0.00 0.00 0.00 0.00 0.00 0.00 0.00 0.00 0.00 0.00 0.00 0.00 0.00 0.00 0.00 0.00 0.03 0.05 0.05 0.03 0.02 0.01 0.01 0.01 0.00 0.00 0.00 0.00 0.00 0.00 0.00 0.00 0.00 0.00 0.00 0.00 0.00 0.00 0.00

GFSCGP_prec_precacc24_036.txt.gz
Total_Precipitation_Accumulation
0.00 0.00 0.00 0.00 0.00 0.00 0.00 0.00 0.00 0.00 0.00 0.00 0.00 0.00 0.00 0.00 0.00 0.03 0.05 0.07 0.02 0.00 0.00 0.00 0.00 0.00 0.02 0.05 0.07 0.10 0.05 0.18 0.09 0.02 0.01 0.01 0.06 0.07 0.03 0.01 0.00 0.00 0.00 0.00
0.00 0.00 0.00 0.00 0.00 0.00 0.00 0.00 0.00 0.00 0.00 0.00 0.00 0.00 0.00 0.00 0.00 0.01 0.01 0.11 0.03 0.00 0.00 0.00 0.00 0.00 0.00 0.02 0.16 0.22 0.07 0.08 0.02 0.00 0.00 0.00 0.02 0.05 0.03 0.00 0.00 0.00 0.00 0.00
0.00 0.00 0.00 0.00 0.00 0.00 0.00 0.00 0.00 0.00 0.00 0.00 0.00 0.00 0.00 0.00 0.00 0.01 0.00 0.00 0.00 0.00 0.00 0.00 0.00 0.00 0.00 0.01 0.15 0.17 0.06 0.05 0.02 0.01 0.00 0.02 0.08 0.12 0.05 0.01 0.00 0.00 0.00 0.00
0.00 0.00 0.00 0.00 0.00 0.00 0.00 0.00 0.00 0.00 0.00 0.00 0.00 0.00 0.00 0.00 0.00 0.00 0.00 0.00 0.00 0.00 0.00 0.00 0.00 0.00 0.01 0.06 0.25 0.11 0.10 0.10 0.09 0.08 0.06 0.06 0.13 0.13 0.12 0.08 0.03 0.02 0.01 0.00
0.01 0.00 0.00 0.00 0.00 0.00 0.00 0.00 0.00 0.00 0.00 0.04 0.02 0.00 0.03 0.05 0.00 0.00 0.00 0.00 0.00 0.00 0.00 0.00 0.00 0.00 0.02 0.07 0.20 0.15 0.12 0.20 0.14 0.22 0.25 0.18 0.21 0.20 0.11 0.04 0.03 0.03 0.03 0.01
0.01 0.00 0.00 0.00 0.00 0.00 0.00 0.00 0.00 0.00 0.00 0.01 0.01 0.01 0.00 0.00 0.00 0.01 0.00 0.00 0.00 0.00 0.00 0.00 0.00 0.01 0.03 0.11 0.17 0.29 0.31 0.21 0.19 0.32 0.36 0.20 0.17 0.14 0.10 0.06 0.03 0.02 0.02 0.02
0.00 0.00 0.00 0.00 0.00 0.00 0.00 0.00 0.00 0.03 0.00 0.00 0.00 0.01 0.01 0.01 0.04 0.08 0.10 0.00 0.00 0.00 0.00 0.00 0.02 0.04 0.04 0.08 0.13 0.18 0.32 0.41 0.26 0.23 0.19 0.12 0.11 0.12 0.09 0.06 0.07 0.06 0.05 0.04
0.01 0.00 0.00 0.00 0.00 0.00 0.00 0.00 0.00 0.06 0.06 0.01 0.03 0.01 0.00 0.00 0.00 0.00 0.00 0.00 0.00 0.00 0.00 0.00 0.01 0.02 0.05 0.11 0.08 0.06 0.29 0.41 0.47 0.29 0.13 0.09 0.06 0.04 0.03 0.03 0.06 0.04 0.03 0.01
0.03 0.01 0.02 0.00 0.00 0.00 0.00 0.00 0.00 0.01 0.04 0.01 0.01 0.00 0.00 0.00 0.00 0.00 0.00 0.00 0.00 0.00 0.00 0.00 0.00 0.01 0.04 0.07 0.05 0.09 0.09 0.25 0.37 0.21 0.07 0.03 0.02 0.04 0.06 0.08 0.05 0.04 0.03 0.01
0.04 0.08 0.02 0.01 0.00 0.00 0.00 0.00 0.00 0.00 0.00 0.00 0.00 0.00 0.00 0.00 0.00 0.00 0.00 0.00 0.00 0.00 0.00 0.00 0.00 0.00 0.01 0.01 0.01 0.06 0.04 0.02 0.09 0.15 0.10 0.03 0.04 0.06 0.07 0.08 0.10 0.08 0.04 0.01
0.00 0.03 0.04 0.00 0.00 0.00 0.00 0.00 0.00 0.00 0.00 0.00 0.00 0.00 0.00 0.00 0.00 0.00 0.00 0.00 0.00 0.00 0.00 0.00 0.00 0.00 0.00 0.00 0.00 0.00 0.00 0.01 0.01 0.01 0.02 0.05 0.09 0.11 0.13 0.13 0.14 0.10 0.04 0.01
0.00 0.00 0.00 0.00 0.00 0.00 0.00 0.01 0.04 0.00 0.00 0.00 0.00 0.00 0.00 0.00 0.00 0.00 0.00 0.00 0.00 0.00 0.00 0.00 0.00 0.00 0.00 0.00 0.00 0.01 0.03 0.03 0.04 0.05 0.08 0.12 0.14 0.16 0.12 0.10 0.08 0.06 0.03 0.02
0.00 0.00 0.00 0.00 0.00 0.01 0.00 0.00 0.00 0.00 0.00 0.00 0.00 0.00 0.00 0.00 0.00 0.00 0.00 0.00 0.00 0.00 0.00 0.00 0.00 0.00 0.00 0.00 0.02 0.09 0.08 0.12 0.13 0.15 0.14 0.12 0.09 0.08 0.08 0.08 0.05 0.03 0.02 0.01
0.00 0.00 0.00 0.00 0.00 0.00 0.00 0.00 0.00 0.00 0.00 0.00 0.00 0.00 0.00 0.00 0.00 0.00 0.00 0.00 0.00 0.00 0.00 0.00 0.00 0.00 0.00 0.04 0.11 0.08 0.10 0.12 0.18 0.13 0.09 0.06 0.05 0.04 0.04 0.03 0.02 0.02 0.01 0.00
0.00 0.00 0.00 0.00 0.00 0.00 0.00 0.00 0.00 0.00 0.00 0.00 0.00 0.00 0.00 0.00 0.00 0.00 0.00 0.00 0.00 0.00 0.00 0.00 0.00 0.00 0.01 0.05 0.05 0.04 0.06 0.06 0.09 0.06 0.05 0.05 0.04 0.03 0.02 0.01 0.01 0.00 0.00 0.00
0.00 0.00 0.00 0.00 0.00 0.00 0.00 0.00 0.00 0.00 0.00 0.00 0.00 0.00 0.00 0.00 0.00 0.00 0.00 0.00 0.00 0.00 0.00 0.00 0.00 0.01 0.01 0.01 0.02 0.03 0.03 0.02 0.01 0.01 0.00 0.01 0.01 0.01 0.00 0.00 0.00 0.00 0.00 0.00
0.00 0.00 0.00 0.00 0.01 0.01 0.00 0.00 0.00 0.00 0.00 0.00 0.00 0.00 0.00 0.00 0.00 0.00 0.00 0.00 0.00 0.00 0.00 0.00 0.00 0.00 0.00 0.00 0.00 0.00 0.00 0.00 0.00 0.00 0.00 0.00 0.01 0.01 0.00 0.00 0.00 0.00 0.00 0.01
0.02 0.00 0.00 0.00 0.00 0.00 0.00 0.00 0.00 0.00 0.00 0.00 0.00 0.00 0.00 0.00 0.00 0.00 0.00 0.00 0.00 0.00 0.00 0.00 0.00 0.00 0.00 0.00 0.00 0.00 0.00 0.00 0.00 0.00 0.00 0.00 0.01 0.00 0.00 0.00 0.01 0.02 0.05 0.10
0.05 0.03 0.00 0.00 0.00 0.00 0.00 0.00 0.00 0.00 0.00 0.00 0.00 0.00 0.00 0.00 0.00 0.00 0.00 0.00 0.00 0.00 0.00 0.00 0.00 0.00 0.00 0.00 0.00 0.00 0.00 0.00 0.00 0.00 0.00 0.00 0.00 0.00 0.01 0.03 0.07 0.13 0.17 0.18
0.01 0.03 0.02 0.00 0.00 0.00 0.00 0.00 0.00 0.00 0.00 0.00 0.00 0.00 0.00 0.00 0.00 0.00 0.00 0.00 0.00 0.00 0.00 0.00 0.00 0.00 0.00 0.00 0.00 0.00 0.00 0.00 0.00 0.00 0.00 0.00 0.01 0.05 0.11 0.17 0.19 0.15 0.08 0.03
0.01 0.01 0.00 0.00 0.00 0.00 0.00 0.00 0.00 0.00 0.00 0.00 0.00 0.00 0.00 0.00 0.00 0.00 0.00 0.00 0.00 0.00 0.00 0.00 0.00 0.00 0.00 0.00 0.00 0.00 0.00 0.00 0.00 0.02 0.06 0.11 0.16 0.22 0.19 0.12 0.06 0.04 0.02 0.01
0.00 0.00 0.00 0.00 0.00 0.00 0.00 0.00 0.00 0.00 0.00 0.00 0.00 0.00 0.00 0.00 0.00 0.00 0.00 0.00 0.00 0.00 0.00 0.00 0.00 0.00 0.00 0.00 0.00 0.01 0.01 0.02 0.05 0.09 0.13 0.16 0.16 0.09 0.04 0.01 0.00 0.00 0.00 0.00
0.00 0.00 0.00 0.00 0.00 0.00 0.00 0.00 0.00 0.00 0.00 0.00 0.00 0.00 0.00 0.00 0.00 0.00 0.00 0.00 0.00 0.00 0.00 0.00 0.00 0.00 0.00 0.01 0.01 0.02 0.02 0.03 0.04 0.06 0.04 0.01 0.00 0.00 0.00 0.00 0.00 0.00 0.00 0.00
0.00 0.00 0.00 0.00 0.00 0.00 0.00 0.00 0.00 0.00 0.00 0.00 0.00 0.00 0.00 0.00 0.00 0.00 0.00 0.00 0.00 0.00 0.00 0.00 0.00 0.01 0.02 0.02 0.02 0.01 0.00 0.01 0.01 0.00 0.00 0.00 0.00 0.00 0.00 0.00 0.00 0.00 0.00 0.00
0.00 0.01 0.00 0.00 0.00 0.00 0.00 0.00 0.00 0.00 0.00 0.00 0.00 0.00 0.00 0.00 0.00 0.00 0.00 0.00 0.00 0.00 0.00 0.00 0.01 0.03 0.03 0.01 0.01 0.01 0.01 0.00 0.00 0.00 0.00 0.00 0.00 0.00 0.00 0.00 0.00 0.00 0.00 0.00
0.00 0.00 0.00 0.00 0.00 0.00 0.00 0.00 0.00 0.00 0.00 0.00 0.00 0.00 0.00 0.00 0.00 0.00 0.00 0.00 0.00 0.00 0.00 0.02 0.02 0.01 0.01 0.01 0.01 0.00 0.00 0.00 0.00 0.00 0.00 0.00 0.00 0.00 0.00 0.00 0.00 0.00 0.00 0.00

GFSCGP_prec_precacc24_039.txt.gz
Total_Precipitation_Accumulation
0.00 0.00 0.00 0.00 0.00 0.00 0.00 0.00 0.00 0.00 0.00 0.00 0.00 0.00 0.00 0.00 0.00 0.03 0.05 0.07 0.02 0.00 0.00 0.00 0.00 0.00 0.02 0.05 0.07 0.08 0.05 0.19 0.14 0.05 0.01 0.01 0.06 0.09 0.07 0.09 0.08 0.02 0.00 0.00
0.00 0.00 0.00 0.00 0.00 0.00 0.00 0.00 0.00 0.00 0.00 0.00 0.00 0.00 0.00 0.00 0.00 0.01 0.01 0.11 0.03 0.00 0.00 0.00 0.00 0.00 0.00 0.02 0.16 0.20 0.06 0.07 0.06 0.01 0.00 0.00 0.02 0.05 0.04 0.04 0.04 0.01 0.00 0.00
0.00 0.00 0.00 0.00 0.00 0.00 0.00 0.00 0.00 0.00 0.00 0.00 0.00 0.00 0.00 0.00 0.00 0.01 0.00 0.00 0.00 0.00 0.00 0.00 0.00 0.00 0.00 0.01 0.15 0.17 0.06 0.05 0.06 0.01 0.00 0.02 0.09 0.13 0.07 0.03 0.01 0.01 0.00 0.00
0.00 0.00 0.00 0.00 0.00 0.00 0.00 0.00 0.00 0.00 0.00 0.00 0.00 0.00 0.00 0.00 0.00 0.00 0.00 0.00 0.00 0.00 0.00 0.00 0.00 0.00 0.01 0.06 0.25 0.11 0.10 0.10 0.10 0.09 0.06 0.06 0.13 0.14 0.13 0.09 0.04 0.03 0.03 0.01
0.01 0.00 0.00 0.00 0.00 0.00 0.00 0.00 0.00 0.00 0.00 0.04 0.02 0.00 0.02 0.04 0.00 0.00 0.00 0.00 0.00 0.00 0.00 0.00 0.00 0.00 0.02 0.07 0.20 0.15 0.12 0.20 0.14 0.24 0.25 0.18 0.21 0.20 0.16 0.05 0.03 0.04 0.05 0.04
0.01 0.00 0.00 0.00 0.00 0.00 0.00 0.00 0.00 0.00 0.00 0.01 0.01 0.01 0.00 0.00 0.00 0.01 0.00 0.00 0.00 0.00 0.00 0.00 0.00 0.01 0.03 0.11 0.17 0.29 0.31 0.21 0.19 0.34 0.38 0.21 0.18 0.17 0.20 0.11 0.05 0.05 0.03 0.04
0.00 0.00 0.00 0.00 0.00 0.00 0.00 0.00 0.00 0.04 0.00 0.00 0.00 0.01 0.01 0.01 0.04 0.08 0.10 0.00 0.00 0.00 0.00 0.00 0.02 0.04 0.04 0.08 0.13 0.18 0.32 0.41 0.27 0.25 0.22 0.19 0.15 0.14 0.12 0.11 0.13 0.11 0.08 0.06
0.01 0.00 0.00 0.00 0.00 0.00 0.00 0.00 0.01 0.08 0.06 0.01 0.03 0.01 0.00 0.00 0.00 0.00 0.00 0.00 0.00 0.00 0.00 0.00 0.01 0.02 0.05 0.11 0.08 0.06 0.29 0.41 0.48 0.33 0.15 0.10 0.07 0.05 0.06 0.13 0.14 0.08 0.05 0.03
0.03 0.01 0.02 0.00 0.00 0.00 0.00 0.00 0.00 0.01 0.04 0.01 0.01 0.00 0.00 0.00 0.00 0.00 0.00 0.00 0.00 0.00 0.00 0.00 0.00 0.01 0.04 0.07 0.05 0.09 0.09 0.25 0.37 0.24 0.11 0.06 0.02 0.04 0.06 0.08 0.06 0.06 0.04 0.02
0.04 0.08 0.02 0.01 0.00 0.00 0.00 0.00 0.00 0.00 0.01 0.01 0.00 0.00 0.00 0.00 0.00 0.00 0.00 0.00 0.00 0.00 0.00 0.00 0.00 0.00 0.01 0.01 0.01 0.06 0.04 0.02 0.11 0.22 0.23 0.07 0.04 0.06 0.07 0.09 0.14 0.11 0.07 0.04
0.00 0.03 0.04 0.00 0.00 0.00 0.00 0.00 0.00 0.00 0.00 0.00 0.00 0.00 0.00 0.00 0.00 0.00 0.00 0.00 0.00 0.00 0.00 0.00 0.00 0.00 0.00 0.00 0.00 0.00 0.00 0.01 0.01 0.02 0.10 0.07 0.09 0.12 0.14 0.14 0.15 0.11 0.05 0.03
0.00 0.00 0.00 0.00 0.00 0.00 0.00 0.01 0.04 0.00 0.00 0.00 0.00 0.00 0.00 0.00 0.00 0.00 0.00 0.00 0.00 0.00 0.00 0.00 0.00 0.00 0.00 0.00 0.00 0.01 0.03 0.03 0.04 0.06 0.09 0.12 0.14 0.17 0.14 0.11 0.09 0.07 0.04 0.02
0.00 0.00 0.00 0.00 0.00 0.01 0.00 0.00 0.00 0.00 0.00 0.00 0.01 0.00 0.00 0.00 0.00 0.00 0.00 0.00 0.00 0.00 0.00 0.00 0.00 0.00 0.00 0.00 0.02 0.09 0.08 0.12 0.13 0.15 0.15 0.12 0.10 0.10 0.09 0.10 0.06 0.04 0.03 0.02
0.00 0.00 0.00 0.00 0.00 0.00 0.00 0.00 0.00 0.00 0.00 0.00 0.00 0.00 0.00 0.00 0.00 0.00 0.00 0.00 0.00 0.00 0.00 0.00 0.00 0.00 0.00 0.04 0.11 0.08 0.10 0.12 0.18 0.13 0.10 0.08 0.10 0.09 0.07 0.04 0.04 0.04 0.03 0.02
0.00 0.00 0.00 0.00 0.00 0.00 0.00 0.00 0.00 0.00 0.00 0.00 0.00 0.00 0.00 0.00 0.00 0.00 0.00 0.00 0.00 0.00 0.00 0.00 0.00 0.00 0.01 0.05 0.05 0.04 0.06 0.07 0.12 0.09 0.10 0.08 0.10 0.05 0.05 0.03 0.02 0.01 0.00 0.00
0.00 0.00 0.00 0.00 0.00 0.00 0.00 0.00 0.00 0.00 0.00 0.00 0.00 0.00 0.00 0.00 0.00 0.00 0.00 0.00 0.00 0.00 0.00 0.00 0.00 0.01 0.01 0.01 0.02 0.03 0.05 0.05 0.05 0.03 0.01 0.01 0.02 0.01 0.00 0.00 0.00 0.00 0.00 0.00
0.00 0.00 0.00 0.00 0.01 0.01 0.00 0.00 0.00 0.00 0.00 0.00 0.00 0.00 0.00 0.00 0.00 0.00 0.00 0.00 0.00 0.00 0.00 0.00 0.00 0.00 0.00 0.00 0.00 0.00 0.01 0.01 0.00 0.00 0.00 0.00 0.01 0.01 0.00 0.00 0.00 0.00 0.00 0.01
0.02 0.00 0.00 0.00 0.00 0.00 0.00 0.00 0.00 0.00 0.00 0.00 0.00 0.00 0.00 0.00 0.00 0.00 0.00 0.00 0.00 0.00 0.00 0.00 0.00 0.00 0.00 0.00 0.00 0.00 0.00 0.00 0.00 0.00 0.00 0.00 0.01 0.00 0.00 0.00 0.01 0.02 0.05 0.10
0.05 0.03 0.01 0.00 0.00 0.00 0.00 0.00 0.00 0.00 0.00 0.00 0.00 0.00 0.00 0.00 0.00 0.00 0.00 0.00 0.00 0.00 0.00 0.00 0.00 0.00 0.00 0.00 0.00 0.00 0.00 0.00 0.00 0.00 0.00 0.00 0.00 0.00 0.01 0.03 0.07 0.13 0.17 0.18
0.02 0.04 0.04 0.01 0.00 0.00 0.00 0.00 0.00 0.00 0.00 0.00 0.00 0.00 0.00 0.00 0.00 0.00 0.00 0.00 0.00 0.00 0.00 0.00 0.00 0.00 0.00 0.00 0.00 0.00 0.00 0.00 0.00 0.00 0.00 0.00 0.01 0.05 0.11 0.17 0.19 0.15 0.08 0.03
0.03 0.01 0.01 0.02 0.00 0.00 0.00 0.00 0.00 0.00 0.00 0.00 0.00 0.00 0.00 0.00 0.00 0.00 0.00 0.00 0.00 0.00 0.00 0.00 0.00 0.00 0.00 0.00 0.00 0.00 0.00 0.00 0.00 0.02 0.06 0.11 0.16 0.22 0.19 0.12 0.06 0.04 0.02 0.01
0.04 0.02 0.02 0.02 0.01 0.00 0.00 0.00 0.00 0.00 0.00 0.00 0.00 0.00 0.00 0.00 0.00 0.00 0.00 0.00 0.00 0.00 0.00 0.00 0.00 0.00 0.00 0.00 0.00 0.00 0.01 0.02 0.05 0.09 0.13 0.16 0.16 0.09 0.04 0.01 0.00 0.00 0.00 0.00
0.01 0.04 0.04 0.01 0.00 0.00 0.00 0.00 0.00 0.00 0.00 0.00 0.00 0.00 0.00 0.00 0.00 0.00 0.00 0.00 0.00 0.00 0.00 0.00 0.00 0.00 0.00 0.00 0.00 0.01 0.02 0.03 0.04 0.06 0.04 0.01 0.00 0.00 0.00 0.00 0.00 0.00 0.00 0.00
0.00 0.00 0.00 0.00 0.00 0.00 0.00 0.00 0.00 0.00 0.00 0.00 0.00 0.00 0.00 0.00 0.00 0.00 0.00 0.00 0.00 0.00 0.00 0.00 0.00 0.00 0.00 0.01 0.01 0.01 0.00 0.00 0.01 0.00 0.00 0.00 0.00 0.00 0.00 0.00 0.00 0.00 0.00 0.00
0.00 0.01 0.00 0.00 0.00 0.00 0.00 0.00 0.00 0.00 0.00 0.00 0.00 0.00 0.00 0.00 0.00 0.00 0.00 0.00 0.00 0.00 0.00 0.00 0.00 0.00 0.01 0.01 0.00 0.00 0.00 0.00 0.00 0.00 0.00 0.00 0.00 0.00 0.00 0.00 0.00 0.00 0.00 0.00
0.00 0.00 0.00 0.00 0.00 0.00 0.00 0.01 0.00 0.00 0.00 0.00 0.00 0.00 0.00 0.00 0.00 0.00 0.00 0.00 0.00 0.00 0.00 0.00 0.00 0.00 0.00 0.00 0.00 0.00 0.00 0.00 0.00 0.00 0.00 0.00 0.00 0.00 0.00 0.00 0.00 0.00 0.00 0.00

GFSCGP_prec_precacc24_042.txt.gz
Total_Precipitation_Accumulation
0.00 0.00 0.00 0.00 0.00 0.00 0.00 0.00 0.00 0.00 0.00 0.00 0.00 0.00 0.01 0.00 0.00 0.03 0.05 0.07 0.02 0.00 0.00 0.00 0.00 0.00 0.02 0.05 0.06 0.08 0.02 0.05 0.11 0.06 0.01 0.01 0.06 0.09 0.07 0.13 0.15 0.11 0.02 0.00
0.00 0.00 0.00 0.00 0.00 0.00 0.00 0.00 0.00 0.00 0.00 0.00 0.00 0.00 0.00 0.00 0.00 0.01 0.01 0.11 0.03 0.00 0.00 0.00 0.00 0.00 0.00 0.02 0.15 0.15 0.04 0.03 0.06 0.01 0.00 0.00 0.02 0.05 0.04 0.05 0.06 0.04 0.06 0.02
0.00 0.00 0.00 0.00 0.00 0.00 0.00 0.00 0.00 0.00 0.00 0.00 0.00 0.00 0.00 0.00 0.00 0.01 0.00 0.00 0.00 0.00 0.00 0.00 0.00 0.00 0.00 0.00 0.13 0.14 0.05 0.05 0.08 0.01 0.00 0.02 0.09 0.13 0.07 0.04 0.10 0.06 0.07 0.04
0.00 0.00 0.00 0.00 0.00 0.00 0.00 0.00 0.00 0.00 0.00 0.00 0.00 0.00 0.00 0.00 0.00 0.00 0.00 0.00 0.00 0.00 0.00 0.00 0.00 0.00 0.01 0.05 0.25 0.11 0.10 0.10 0.11 0.09 0.06 0.06 0.13 0.14 0.13 0.10 0.05 0.06 0.03 0.03
0.00 0.00 0.00 0.00 0.00 0.00 0.00 0.00 0.00 0.00 0.00 0.00 0.00 0.00 0.00 0.00 0.00 0.00 0.00 0.00 0.00 0.00 0.00 0.00 0.00 0.00 0.02 0.07 0.20 0.15 0.12 0.20 0.14 0.25 0.27 0.19 0.21 0.20 0.19 0.09 0.04 0.04 0.05 0.06
0.00 0.00 0.00 0.00 0.00 0.00 0.00 0.00 0.00 0.00 0.00 0.00 0.00 0.00 0.00 0.00 0.00 0.00 0.00 0.00 0.00 0.00 0.00 0.00 0.00 0.01 0.03 0.11 0.17 0.29 0.31 0.21 0.19 0.34 0.40 0.23 0.21 0.17 0.27 0.25 0.10 0.08 0.05 0.04
0.00 0.00 0.00 0.00 0.00 0.00 0.00 0.00 0.00 0.01 0.00 0.00 0.00 0.01 0.00 0.01 0.01 0.00 0.05 0.00 0.00 0.00 0.00 0.00 0.02 0.04 0.04 0.08 0.13 0.18 0.32 0.41 0.27 0.25 0.23 0.21 0.17 0.18 0.15 0.16 0.20 0.18 0.11 0.10
0.00 0.00 0.00 0.00 0.00 0.00 0.00 0.00 0.01 0.10 0.05 0.03 0.04 0.01 0.00 0.00 0.00 0.00 0.00 0.00 0.00 0.00 0.00 0.00 0.01 0.02 0.05 0.11 0.08 0.06 0.29 0.41 0.48 0.33 0.16 0.14 0.08 0.06 0.07 0.13 0.18 0.12 0.09 0.08
0.00 0.00 0.01 0.00 0.00 0.00 0.00 0.00 0.00 0.03 0.07 0.04 0.03 0.00 0.00 0.00 0.00 0.00 0.00 0.00 0.00 0.00 0.00 0.00 0.00 0.01 0.04 0.07 0.05 0.09 0.09 0.25 0.37 0.24 0.12 0.06 0.03 0.04 0.06 0.08 0.07 0.06 0.05 0.05
0.00 0.05 0.02 0.01 0.00 0.00 0.00 0.00 0.00 0.00 0.03 0.03 0.00 0.00 0.01 0.01 0.00 0.00 0.00 0.00 0.00 0.00 0.00 0.00 0.00 0.00 0.01 0.01 0.01 0.06 0.04 0.03 0.12 0.23 0.23 0.07 0.05 0.07 0.08 0.09 0.14 0.11 0.08 0.06
0.00 0.03 0.04 0.00 0.00 0.00 0.00 0.00 0.00 0.00 0.00 0.01 0.02 0.00 0.00 0.00 0.00 0.00 0.00 0.00 0.00 0.00 0.00 0.00 0.00 0.00 0.00 0.00 0.00 0.00 0.00 0.10 0.06 0.05 0.10 0.09 0.10 0.12 0.14 0.14 0.15 0.11 0.06 0.03
0.00 0.00 0.00 0.00 0.00 0.00 0.00 0.01 0.04 0.01 0.00 0.00 0.01 0.00 0.00 0.00 0.00 0.00 0.00 0.00 0.00 0.00 0.00 0.00 0.00 0.00 0.00 0.00 0.00 0.01 0.03 0.11 0.09 0.07 0.12 0.22 0.19 0.18 0.14 0.13 0.10 0.07 0.04 0.02
0.00 0.00 0.00 0.00 0.00 0.01 0.00 0.00 0.00 0.00 0.00 0.00 0.03 0.00 0.00 0.00 0.00 0.00 0.00 0.00 0.00 0.00 0.00 0.00 0.00 0.00 0.00 0.00 0.02 0.09 0.08 0.14 0.23 0.25 0.27 0.27 0.13 0.13 0.14 0.15 0.08 0.04 0.03 0.02
0.00 0.00 0.00 0.00 0.00 0.00 0.00 0.00 0.00 0.00 0.00 0.00 0.00 0.00 0.00 0.00 0.00 0.00 0.00 0.00 0.00 0.00 0.00 0.00 0.00 0.00 0.00 0.04 0.11 0.08 0.10 0.12 0.23 0.27 0.35 0.13 0.21 0.16 0.09 0.07 0.06 0.05 0.04 0.03
0.00 0.00 0.00 0.00 0.00 0.00 0.00 0.00 0.00 0.00 0.00 0.00 0.00 0.00 0.00 0.00 0.00 0.00 0.00 0.00 0.00 0.00 0.00 0.00 0.00 0.00 0.01 0.05 0.05 0.04 0.06 0.09 0.16 0.20 0.17 0.11 0.19 0.15 0.09 0.05 0.04 0.02 0.01 0.01
0.00 0.00 0.00 0.00 0.00 0.00 0.00 0.00 0.00 0.00 0.00 0.00 0.00 0.00 0.00 0.00 0.00 0.00 0.00 0.00 0.00 0.00 0.00 0.00 0.00 0.01 0.01 0.01 0.02 0.03 0.05 0.08 0.07 0.06 0.02 0.04 0.05 0.03 0.04 0.01 0.01 0.00 0.00 0.00
0.00 0.00 0.00 0.00 0.01 0.01 0.00 0.00 0.00 0.00 0.00 0.00 0.00 0.00 0.00 0.00 0.00 0.00 0.00 0.00 0.00 0.00 0.00 0.00 0.00 0.00 0.00 0.00 0.00 0.00 0.02 0.01 0.01 0.01 0.01 0.01 0.02 0.01 0.01 0.00 0.00 0.00 0.00 0.01
0.02 0.00 0.00 0.00 0.00 0.00 0.00 0.00 0.00 0.00 0.00 0.00 0.00 0.00 0.00 0.00 0.00 0.00 0.00 0.00 0.00 0.00 0.00 0.00 0.00 0.00 0.00 0.00 0.00 0.00 0.00 0.00 0.00 0.01 0.00 0.00 0.01 0.00 0.00 0.00 0.01 0.02 0.05 0.10
0.05 0.04 0.04 0.02 0.00 0.00 0.00 0.00 0.00 0.00 0.00 0.00 0.00 0.00 0.00 0.00 0.00 0.00 0.00 0.00 0.00 0.00 0.00 0.00 0.00 0.00 0.00 0.00 0.00 0.00 0.00 0.00 0.00 0.00 0.00 0.00 0.00 0.00 0.01 0.03 0.07 0.13 0.17 0.18
0.02 0.04 0.08 0.04 0.01 0.00 0.00 0.00 0.00 0.00 0.00 0.00 0.00 0.00 0.00 0.00 0.00 0.00 0.00 0.00 0.00 0.00 0.00 0.00 0.00 0.00 0.00 0.00 0.00 0.00 0.00 0.00 0.00 0.00 0.00 0.00 0.01 0.04 0.11 0.17 0.19 0.15 0.08 0.03
0.06 0.03 0.03 0.06 0.03 0.00 0.00 0.00 0.00 0.00 0.00 0.00 0.00 0.00 0.00 0.00 0.00 0.00 0.00 0.00 0.00 0.00 0.00 0.00 0.00 0.00 0.00 0.00 0.00 0.00 0.00 0.00 0.00 0.01 0.05 0.11 0.16 0.22 0.19 0.12 0.06 0.04 0.02 0.01
0.10 0.13 0.05 0.04 0.04 0.00 0.00 0.00 0.00 0.00 0.00 0.00 0.00 0.00 0.00 0.00 0.00 0.00 0.00 0.00 0.00 0.00 0.00 0.00 0.00 0.00 0.00 0.00 0.00 0.00 0.00 0.01 0.04 0.08 0.12 0.16 0.15 0.09 0.04 0.01 0.00 0.00 0.00 0.00
0.02 0.09 0.10 0.05 0.01 0.00 0.00 0.00 0.00 0.00 0.00 0.00 0.00 0.00 0.00 0.00 0.00 0.00 0.00 0.00 0.00 0.00 0.00 0.00 0.00 0.00 0.00 0.00 0.00 0.00 0.00 0.01 0.04 0.06 0.04 0.01 0.00 0.00 0.00 0.00 0.00 0.00 0.00 0.00
0.00 0.00 0.02 0.04 0.02 0.02 0.01 0.00 0.00 0.00 0.00 0.00 0.00 0.00 0.00 0.00 0.00 0.00 0.00 0.00 0.00 0.00 0.00 0.00 0.00 0.00 0.00 0.00 0.00 0.00 0.00 0.00 0.00 0.00 0.00 0.00 0.00 0.00 0.00 0.00 0.00 0.00 0.00 0.00
0.00 0.01 0.00 0.00 0.00 0.00 0.01 0.01 0.01 0.00 0.00 0.00 0.00 0.00 0.00 0.00 0.00 0.00 0.00 0.00 0.00 0.00 0.00 0.00 0.00 0.00 0.00 0.00 0.00 0.00 0.00 0.00 0.00 0.00 0.00 0.00 0.00 0.00 0.00 0.00 0.00 0.00 0.00 0.00
0.00 0.00 0.00 0.00 0.00 0.00 0.00 0.01 0.00 0.00 0.00 0.00 0.00 0.00 0.00 0.00 0.00 0.00 0.00 0.00 0.00 0.00 0.00 0.00 0.00 0.00 0.00 0.00 0.00 0.00 0.00 0.00 0.00 0.00 0.00 0.00 0.00 0.00 0.00 0.00 0.00 0.00 0.00 0.00

GFSCGP_prec_precacc24_045.txt.gz
Total_Precipitation_Accumulation
0.00 0.00 0.00 0.00 0.00 0.00 0.00 0.00 0.00 0.00 0.01 0.00 0.00 0.01 0.01 0.00 0.00 0.01 0.03 0.01 0.01 0.00 0.00 0.00 0.00 0.00 0.01 0.03 0.03 0.00 0.01 0.02 0.08 0.04 0.00 0.01 0.06 0.09 0.07 0.13 0.20 0.18 0.06 0.07
0.00 0.00 0.00 0.00 0.00 0.00 0.00 0.00 0.00 0.00 0.00 0.00 0.00 0.00 0.00 0.00 0.00 0.01 0.00 0.00 0.00 0.00 0.00 0.00 0.00 0.00 0.00 0.01 0.02 0.02 0.02 0.03 0.06 0.01 0.00 0.00 0.02 0.05 0.04 0.06 0.10 0.09 0.09 0.08
0.00 0.00 0.00 0.00 0.00 0.00 0.00 0.00 0.00 0.00 0.00 0.00 0.00 0.00 0.00 0.01 0.01 0.01 0.00 0.00 0.00 0.00 0.00 0.00 0.00 0.00 0.00 0.00 0.04 0.06 0.04 0.04 0.08 0.01 0.00 0.02 0.09 0.13 0.07 0.04 0.10 0.07 0.08 0.06
0.00 0.00 0.00 0.00 0.00 0.00 0.00 0.00 0.00 0.00 0.00 0.00 0.00 0.00 0.00 0.00 0.01 0.00 0.00 0.00 0.00 0.00 0.00 0.00 0.00 0.00 0.00 0.05 0.18 0.07 0.09 0.10 0.10 0.09 0.06 0.06 0.13 0.14 0.13 0.10 0.05 0.07 0.04 0.06
0.00 0.00 0.00 0.00 0.00 0.00 0.00 0.00 0.00 0.00 0.00 0.00 0.00 0.00 0.00 0.00 0.01 0.00 0.00 0.00 0.00 0.00 0.00 0.00 0.00 0.00 0.02 0.06 0.19 0.14 0.12 0.20 0.14 0.25 0.27 0.21 0.21 0.20 0.19 0.10 0.07 0.07 0.06 0.08
0.00 0.00 0.00 0.00 0.00 0.00 0.00 0.00 0.00 0.00 0.00 0.00 0.00 0.00 0.00 0.00 0.00 0.00 0.00 0.00 0.00 0.00 0.00 0.00 0.00 0.00 0.03 0.11 0.17 0.29 0.31 0.21 0.19 0.34 0.41 0.26 0.21 0.17 0.27 0.26 0.13 0.15 0.12 0.13
0.00 0.00 0.00 0.00 0.00 0.00 0.00 0.00 0.00 0.01 0.00 0.00 0.00 0.00 0.00 0.00 0.00 0.00 0.00 0.00 0.00 0.00 0.00 0.00 0.00 0.02 0.04 0.08 0.13 0.18 0.32 0.41 0.27 0.25 0.23 0.21 0.18 0.21 0.16 0.16 0.20 0.23 0.19 0.17
0.00 0.00 0.00 0.00 0.00 0.00 0.00 0.00 0.01 0.09 0.03 0.02 0.03 0.00 0.00 0.00 0.00 0.00 0.00 0.00 0.00 0.00 0.00 0.00 0.01 0.02 0.05 0.11 0.08 0.06 0.29 0.41 0.48 0.33 0.16 0.14 0.08 0.06 0.07 0.13 0.18 0.13 0.11 0.09
0.00 0.00 0.00 0.00 0.00 0.00 0.00 0.00 0.00 0.02 0.05 0.04 0.05 0.01 0.00 0.00 0.00 0.00 0.00 0.00 0.00 0.00 0.00 0.00 0.00 0.01 0.04 0.07 0.05 0.09 0.09 0.27 0.37 0.24 0.12 0.06 0.03 0.04 0.06 0.08 0.07 0.06 0.05 0.05
0.00 0.00 0.00 0.00 0.00 0.00 0.00 0.00 0.00 0.00 0.03 0.05 0.00 0.01 0.01 0.00 0.00 0.00 0.00 0.00 0.00 0.00 0.00 0.00 0.01 0.06 0.02 0.02 0.02 0.09 0.07 0.08 0.15 0.24 0.23 0.07 0.07 0.07 0.08 0.09 0.14 0.11 0.08 0.07
0.00 0.00 0.00 0.00 0.00 0.00 0.00 0.00 0.00 0.00 0.00 0.01 0.02 0.00 0.00 0.00 0.00 0.00 0.00 0.00 0.00 0.00 0.00 0.00 0.01 0.04 0.05 0.10 0.07 0.04 0.11 0.33 0.24 0.19 0.11 0.10 0.13 0.14 0.20 0.14 0.16 0.12 0.06 0.03
0.00 0.00 0.00 0.00 0.00 0.00 0.00 0.00 0.02 0.01 0.00 0.00 0.02 0.00 0.00 0.00 0.00 0.00 0.00 0.00 0.00 0.00 0.00 0.00 0.00 0.00 0.01 0.02 0.01 0.01 0.04 0.15 0.22 0.20 0.15 0.32 0.54 0.43 0.41 0.20 0.11 0.08 0.04 0.02
0.00 0.00 0.00 0.00 0.00 0.00 0.00 0.00 0.00 0.00 0.00 0.00 0.03 0.00 0.00 0.00 0.00 0.00 0.00 0.00 0.00 0.00 0.00 0.00 0.00 0.00 0.00 0.00 0.02 0.09 0.09 0.20 0.40 0.35 0.45 0.61 0.42 0.44 0.36 0.24 0.12 0.07 0.04 0.02
0.00 0.00 0.00 0.00 0.00 0.00 0.00 0.00 0.00 0.00 0.00 0.00 0.00 0.00 0.00 0.00 0.00 0.00 0.00 0.00 0.00 0.00 0.00 0.00 0.00 0.00 0.00 0.04 0.11 0.09 0.16 0.19 0.40 0.40 0.52 0.23 0.33 0.22 0.15 0.08 0.07 0.07 0.05 0.03
0.00 0.00 0.00 0.00 0.00 0.00 0.00 0.00 0.00 0.00 0.00 0.00 0.00 0.00 0.00 0.00 0.00 0.00 0.00 0.00 0.00 0.00 0.00 0.00 0.00 0.00 0.01 0.05 0.05 0.04 0.06 0.10 0.19 0.22 0.18 0.13 0.27 0.17 0.09 0.05 0.04 0.03 0.02 0.02
0.00 0.00 0.00 0.00 0.00 0.00 0.00 0.00 0.00 0.00 0.00 0.00 0.00 0.00 0.00 0.00 0.00 0.00 0.00 0.00 0.00 0.00 0.00 0.00 0.00 0.00 0.01 0.01 0.02 0.03 0.06 0.10 0.11 0.07 0.02 0.05 0.06 0.05 0.06 0.03 0.03 0.01 0.01 0.00
0.00 0.00 0.00 0.00 0.01 0.01 0.00 0.00 0.00 0.00 0.00 0.00 0.00 0.00 0.00 0.00 0.00 0.00 0.00 0.00 0.00 0.00 0.00 0.00 0.00 0.00 0.00 0.00 0.00 0.01 0.06 0.05 0.02 0.02 0.03 0.02 0.03 0.04 0.03 0.01 0.00 0.00 0.00 0.01
0.04 0.00 0.00 0.00 0.01 0.01 0.00 0.00 0.00 0.00 0.00 0.00 0.00 0.00 0.00 0.00 0.00 0.00 0.00 0.00 0.00 0.00 0.00 0.00 0.00 0.00 0.00 0.00 0.00 0.01 0.02 0.01 0.00 0.01 0.02 0.02 0.03 0.02 0.01 0.00 0.01 0.02 0.05 0.10
0.18 0.11 0.06 0.03 0.01 0.00 0.00 0.00 0.00 0.00 0.00 0.00 0.00 0.00 0.00 0.00 0.00 0.00 0.00 0.00 0.00 0.00 0.00 0.00 0.00 0.00 0.00 0.00 0.00 0.01 0.01 0.00 0.00 0.00 0.01 0.01 0.01 0.00 0.01 0.02 0.07 0.12 0.17 0.18
0.23 0.26 0.14 0.05 0.02 0.00 0.00 0.00 0.00 0.00 0.00 0.00 0.00 0.00 0.00 0.00 0.00 0.00 0.00 0.00 0.00 0.00 0.00 0.00 0.00 0.00 0.00 0.00 0.00 0.00 0.00 0.00 0.00 0.00 0.00 0.00 0.00 0.04 0.10 0.16 0.19 0.15 0.08 0.03
0.11 0.23 0.10 0.07 0.05 0.00 0.00 0.00 0.00 0.00 0.00 0.00 0.00 0.00 0.00 0.00 0.00 0.00 0.00 0.00 0.00 0.00 0.00 0.00 0.00 0.00 0.00 0.00 0.00 0.00 0.00 0.00 0.00 0.01 0.04 0.09 0.16 0.21 0.18 0.12 0.06 0.04 0.02 0.01
0.10 0.18 0.15 0.08 0.06 0.01 0.00 0.00 0.00 0.00 0.00 0.00 0.00 0.00 0.00 0.00 0.00 0.00 0.00 0.00 0.00 0.00 0.00 0.00 0.00 0.00 0.00 0.00 0.00 0.00 0.00 0.01 0.03 0.07 0.11 0.15 0.14 0.08 0.04 0.01 0.00 0.00 0.00 0.00
0.03 0.09 0.11 0.11 0.03 0.02 0.02 0.00 0.00 0.00 0.00 0.00 0.00 0.00 0.00 0.00 0.00 0.00 0.00 0.00 0.00 0.00 0.00 0.00 0.00 0.00 0.00 0.00 0.00 0.00 0.00 0.00 0.02 0.04 0.03 0.00 0.00 0.00 0.00 0.00 0.00 0.00 0.00 0.00
0.00 0.00 0.02 0.04 0.02 0.02 0.04 0.07 0.01 0.01 0.00 0.00 0.01 0.01 0.01 0.01 0.00 0.00 0.00 0.00 0.00 0.00 0.00 0.00 0.00 0.00 0.00 0.00 0.00 0.00 0.00 0.00 0.00 0.00 0.00 0.00 0.00 0.00 0.00 0.00 0.00 0.00 0.00 0.00
0.00 0.01 0.00 0.00 0.00 0.00 0.02 0.08 0.08 0.03 0.01 0.02 0.02 0.02 0.01 0.01 0.00 0.00 0.00 0.00 0.00 0.00 0.00 0.00 0.00 0.00 0.00 0.00 0.00 0.00 0.00 0.00 0.00 0.00 0.00 0.00 0.00 0.00 0.00 0.00 0.00 0.00 0.00 0.00
0.00 0.00 0.00 0.00 0.00 0.00 0.00 0.01 0.00 0.01 0.01 0.01 0.01 0.00 0.00 0.00 0.00 0.00 0.00 0.00 0.00 0.00 0.00 0.00 0.00 0.00 0.00 0.00 0.00 0.00 0.00 0.00 0.00 0.00 0.00 0.00 0.00 0.00 0.00 0.00 0.00 0.00 0.00 0.00

GFSCGP_prec_precacc24_048.txt.gz
Total_Precipitation_Accumulation
0.00 0.00 0.00 0.00 0.00 0.00 0.00 0.00 0.00 0.00 0.01 0.00 0.00 0.01 0.01 0.00 0.00 0.01 0.03 0.01 0.00 0.00 0.00 0.00 0.00 0.00 0.00 0.00 0.00 0.00 0.00 0.03 0.08 0.04 0.00 0.01 0.06 0.09 0.07 0.13 0.20 0.18 0.06 0.07
0.00 0.00 0.00 0.00 0.00 0.00 0.00 0.00 0.00 0.00 0.00 0.00 0.00 0.00 0.00 0.00 0.00 0.00 0.00 0.00 0.00 0.00 0.00 0.00 0.00 0.00 0.00 0.00 0.00 0.00 0.00 0.02 0.06 0.01 0.00 0.00 0.02 0.05 0.04 0.06 0.10 0.09 0.09 0.08
0.00 0.00 0.00 0.00 0.00 0.00 0.00 0.00 0.00 0.00 0.00 0.00 0.00 0.00 0.00 0.01 0.01 0.01 0.00 0.00 0.00 0.00 0.00 0.00 0.00 0.00 0.00 0.00 0.00 0.02 0.02 0.03 0.08 0.01 0.00 0.02 0.09 0.13 0.07 0.04 0.10 0.07 0.08 0.06
0.00 0.00 0.00 0.00 0.00 0.00 0.00 0.00 0.00 0.00 0.00 0.00 0.00 0.00 0.00 0.00 0.01 0.00 0.00 0.00 0.00 0.00 0.00 0.00 0.00 0.00 0.00 0.00 0.03 0.04 0.04 0.08 0.10 0.07 0.06 0.06 0.13 0.14 0.13 0.10 0.05 0.07 0.04 0.07
0.00 0.00 0.00 0.00 0.00 0.00 0.00 0.00 0.00 0.00 0.00 0.00 0.00 0.00 0.00 0.00 0.02 0.00 0.00 0.00 0.00 0.00 0.00 0.00 0.00 0.00 0.00 0.02 0.07 0.09 0.10 0.18 0.12 0.24 0.27 0.21 0.21 0.20 0.19 0.10 0.07 0.07 0.06 0.09
0.00 0.00 0.00 0.00 0.00 0.00 0.00 0.00 0.00 0.00 0.00 0.00 0.00 0.00 0.00 0.00 0.01 0.00 0.00 0.00 0.00 0.00 0.00 0.00 0.00 0.00 0.01 0.03 0.08 0.28 0.31 0.21 0.19 0.34 0.41 0.26 0.21 0.17 0.27 0.26 0.13 0.15 0.12 0.16
0.00 0.00 0.00 0.00 0.00 0.00 0.00 0.00 0.00 0.01 0.00 0.00 0.00 0.00 0.00 0.00 0.00 0.00 0.00 0.00 0.00 0.00 0.00 0.00 0.00 0.00 0.00 0.03 0.09 0.18 0.32 0.41 0.27 0.25 0.23 0.21 0.18 0.21 0.16 0.16 0.20 0.23 0.19 0.22
0.00 0.00 0.00 0.00 0.00 0.00 0.00 0.00 0.01 0.09 0.03 0.02 0.03 0.00 0.00 0.00 0.00 0.00 0.00 0.00 0.00 0.00 0.00 0.00 0.00 0.00 0.01 0.06 0.06 0.06 0.29 0.41 0.48 0.33 0.16 0.14 0.08 0.06 0.07 0.14 0.19 0.13 0.12 0.10
0.00 0.00 0.00 0.00 0.00 0.00 0.00 0.00 0.00 0.02 0.05 0.04 0.05 0.01 0.00 0.00 0.00 0.00 0.00 0.00 0.00 0.00 0.00 0.00 0.00 0.00 0.02 0.05 0.04 0.08 0.10 0.27 0.37 0.24 0.12 0.06 0.03 0.04 0.07 0.09 0.08 0.07 0.06 0.09
0.00 0.00 0.00 0.00 0.00 0.00 0.00 0.00 0.00 0.00 0.03 0.05 0.00 0.01 0.01 0.00 0.00 0.00 0.00 0.00 0.00 0.00 0.00 0.00 0.01 0.06 0.02 0.03 0.02 0.11 0.10 0.10 0.22 0.27 0.23 0.07 0.07 0.09 0.11 0.11 0.17 0.15 0.10 0.08
0.00 0.00 0.00 0.00 0.00 0.00 0.00 0.00 0.00 0.00 0.00 0.01 0.02 0.00 0.00 0.00 0.00 0.00 0.00 0.00 0.00 0.00 0.00 0.00 0.01 0.04 0.05 0.10 0.07 0.05 0.12 0.35 0.31 0.27 0.14 0.10 0.13 0.26 0.35 0.22 0.25 0.24 0.15 0.10
0.00 0.00 0.00 0.00 0.00 0.00 0.00 0.00 0.00 0.00 0.00 0.00 0.02 0.00 0.00 0.00 0.00 0.00 0.00 0.00 0.00 0.00 0.00 0.00 0.00 0.00 0.02 0.02 0.01 0.01 0.05 0.16 0.24 0.24 0.16 0.33 0.58 0.54 0.67 0.60 0.54 0.37 0.16 0.11
0.00 0.00 0.00 0.00 0.00 0.00 0.00 0.00 0.00 0.00 0.00 0.00 0.03 0.00 0.00 0.00 0.00 0.00 0.00 0.00 0.00 0.00 0.00 0.00 0.00 0.00 0.00 0.00 0.02 0.09 0.09 0.21 0.44 0.44 0.48 0.66 0.55 0.60 0.56 0.56 0.39 0.21 0.07 0.08
0.00 0.00 0.00 0.00 0.00 0.00 0.00 0.00 0.00 0.00 0.00 0.00 0.00 0.00 0.00 0.00 0.00 0.00 0.00 0.00 0.00 0.00 0.00 0.00 0.00 0.00 0.00 0.04 0.11 0.09 0.17 0.22 0.44 0.45 0.58 0.36 0.45 0.37 0.32 0.22 0.14 0.10 0.07 0.09
0.01 0.00 0.00 0.00 0.00 0.00 0.00 0.00 0.00 0.00 0.00 0.00 0.00 0.00 0.00 0.00 0.00 0.00 0.00 0.00 0.00 0.00 0.00 0.00 0.00 0.00 0.01 0.05 0.05 0.03 0.06 0.11 0.22 0.27 0.22 0.19 0.35 0.32 0.19 0.07 0.07 0.06 0.04 0.05
0.04 0.01 0.00 0.00 0.00 0.00 0.00 0.00 0.00 0.00 0.00 0.00 0.00 0.00 0.00 0.00 0.00 0.00 0.00 0.00 0.00 0.00 0.00 0.00 0.00 0.00 0.01 0.01 0.01 0.02 0.05 0.12 0.15 0.12 0.06 0.11 0.14 0.18 0.12 0.05 0.03 0.03 0.03 0.03
0.04 0.05 0.00 0.00 0.01 0.01 0.00 0.00 0.00 0.00 0.00 0.00 0.00 0.00 0.00 0.00 0.00 0.00 0.00 0.00 0.00 0.00 0.00 0.00 0.00 0.00 0.00 0.00 0.00 0.01 0.06 0.05 0.05 0.07 0.10 0.09 0.10 0.10 0.06 0.02 0.01 0.02 0.04 0.03
0.13 0.07 0.05 0.01 0.01 0.02 0.00 0.00 0.00 0.00 0.00 0.00 0.00 0.00 0.00 0.00 0.00 0.00 0.00 0.00 0.00 0.00 0.00 0.00 0.00 0.00 0.00 0.00 0.00 0.01 0.02 0.02 0.03 0.04 0.05 0.06 0.07 0.06 0.04 0.04 0.03 0.03 0.08 0.12
0.20 0.26 0.23 0.09 0.02 0.00 0.00 0.00 0.00 0.00 0.00 0.00 0.00 0.00 0.00 0.00 0.00 0.00 0.00 0.00 0.00 0.00 0.00 0.00 0.00 0.00 0.00 0.00 0.00 0.01 0.02 0.01 0.01 0.03 0.04 0.06 0.06 0.06 0.05 0.06 0.09 0.14 0.18 0.18
0.21 0.29 0.35 0.21 0.11 0.04 0.00 0.00 0.00 0.00 0.00 0.00 0.00 0.00 0.00 0.00 0.00 0.00 0.00 0.00 0.00 0.00 0.00 0.00 0.00 0.00 0.00 0.00 0.00 0.00 0.01 0.00 0.00 0.00 0.01 0.03 0.03 0.04 0.06 0.13 0.18 0.15 0.08 0.03
0.12 0.25 0.24 0.22 0.19 0.05 0.00 0.00 0.00 0.00 0.00 0.00 0.00 0.00 0.00 0.00 0.00 0.00 0.00 0.00 0.00 0.00 0.00 0.00 0.00 0.00 0.00 0.00 0.00 0.00 0.00 0.00 0.00 0.00 0.02 0.04 0.07 0.12 0.13 0.11 0.06 0.04 0.02 0.01
0.11 0.18 0.18 0.13 0.17 0.09 0.02 0.00 0.00 0.00 0.00 0.00 0.00 0.00 0.00 0.00 0.00 0.00 0.00 0.00 0.00 0.00 0.00 0.00 0.00 0.00 0.00 0.00 0.00 0.00 0.00 0.00 0.01 0.02 0.03 0.06 0.09 0.07 0.04 0.01 0.00 0.00 0.00 0.00
0.04 0.10 0.11 0.12 0.05 0.02 0.03 0.01 0.00 0.00 0.00 0.00 0.00 0.00 0.00 0.00 0.00 0.00 0.00 0.00 0.00 0.00 0.00 0.00 0.00 0.00 0.00 0.00 0.00 0.00 0.00 0.00 0.01 0.01 0.01 0.00 0.00 0.00 0.00 0.00 0.00 0.00 0.00 0.00
0.00 0.00 0.02 0.04 0.02 0.02 0.04 0.07 0.02 0.01 0.00 0.01 0.01 0.01 0.01 0.01 0.01 0.01 0.00 0.00 0.00 0.00 0.00 0.00 0.00 0.00 0.00 0.00 0.00 0.00 0.00 0.00 0.00 0.00 0.00 0.00 0.00 0.00 0.00 0.00 0.00 0.00 0.00 0.00
0.01 0.02 0.01 0.00 0.00 0.00 0.02 0.08 0.08 0.03 0.01 0.02 0.02 0.02 0.02 0.02 0.00 0.00 0.00 0.00 0.00 0.00 0.00 0.00 0.00 0.00 0.00 0.00 0.00 0.00 0.00 0.00 0.00 0.00 0.00 0.00 0.00 0.00 0.00 0.00 0.00 0.00 0.00 0.00
0.02 0.06 0.07 0.02 0.02 0.00 0.00 0.01 0.00 0.01 0.01 0.01 0.01 0.00 0.00 0.00 0.00 0.00 0.00 0.00 0.00 0.00 0.00 0.00 0.00 0.00 0.00 0.00 0.00 0.00 0.00 0.00 0.00 0.00 0.00 0.00 0.00 0.00 0.00 0.00 0.00 0.00 0.00 0.00

GFSCGP_prec_precacc24_051.txt.gz
Total_Precipitation_Accumulation
0.00 0.00 0.00 0.00 0.00 0.00 0.00 0.00 0.00 0.00 0.01 0.00 0.00 0.01 0.01 0.00 0.00 0.00 0.02 0.00 0.00 0.00 0.00 0.00 0.00 0.00 0.00 0.00 0.00 0.02 0.14 0.12 0.11 0.07 0.01 0.07 0.12 0.10 0.07 0.13 0.20 0.18 0.06 0.08
0.00 0.00 0.00 0.00 0.00 0.00 0.00 0.00 0.00 0.00 0.00 0.00 0.00 0.00 0.00 0.00 0.00 0.00 0.00 0.00 0.00 0.00 0.00 0.00 0.00 0.00 0.00 0.00 0.00 0.00 0.00 0.02 0.06 0.02 0.01 0.01 0.05 0.06 0.04 0.06 0.10 0.09 0.09 0.08
0.00 0.00 0.00 0.00 0.00 0.00 0.00 0.00 0.00 0.00 0.00 0.00 0.00 0.00 0.00 0.01 0.01 0.01 0.00 0.00 0.00 0.00 0.00 0.00 0.00 0.00 0.00 0.00 0.00 0.00 0.00 0.00 0.06 0.01 0.00 0.01 0.08 0.13 0.07 0.04 0.10 0.07 0.08 0.06
0.00 0.00 0.00 0.00 0.00 0.00 0.00 0.00 0.00 0.00 0.00 0.00 0.00 0.00 0.00 0.00 0.01 0.00 0.00 0.00 0.00 0.00 0.00 0.00 0.00 0.00 0.00 0.00 0.00 0.00 0.00 0.01 0.05 0.05 0.02 0.02 0.05 0.13 0.13 0.10 0.05 0.07 0.04 0.07
0.00 0.00 0.00 0.00 0.00 0.00 0.00 0.00 0.00 0.00 0.00 0.00 0.00 0.00 0.00 0.00 0.02 0.00 0.00 0.00 0.00 0.00 0.00 0.00 0.00 0.00 0.00 0.00 0.00 0.01 0.02 0.06 0.06 0.16 0.13 0.16 0.16 0.20 0.19 0.10 0.07 0.07 0.06 0.09
0.00 0.00 0.00 0.00 0.00 0.00 0.00 0.00 0.00 0.00 0.00 0.00 0.00 0.00 0.00 0.00 0.01 0.00 0.00 0.00 0.00 0.00 0.00 0.00 0.00 0.00 0.00 0.00 0.01 0.18 0.20 0.09 0.16 0.28 0.30 0.23 0.21 0.17 0.27 0.26 0.13 0.15 0.12 0.16
0.00 0.00 0.00 0.00 0.00 0.00 0.00 0.00 0.00 0.01 0.00 0.00 0.00 0.00 0.00 0.00 0.00 0.00 0.00 0.00 0.00 0.00 0.00 0.00 0.00 0.00 0.00 0.00 0.00 0.13 0.30 0.37 0.25 0.24 0.20 0.20 0.18 0.21 0.16 0.16 0.20 0.23 0.19 0.22
0.00 0.00 0.00 0.00 0.00 0.00 0.00 0.00 0.01 0.09 0.03 0.02 0.03 0.00 0.00 0.00 0.00 0.00 0.00 0.00 0.00 0.00 0.00 0.00 0.00 0.00 0.00 0.01 0.01 0.04 0.28 0.36 0.48 0.33 0.15 0.14 0.08 0.06 0.07 0.14 0.19 0.13 0.12 0.10
0.00 0.00 0.00 0.00 0.00 0.00 0.00 0.00 0.00 0.02 0.05 0.04 0.05 0.01 0.00 0.00 0.00 0.00 0.00 0.00 0.00 0.00 0.00 0.00 0.00 0.00 0.00 0.01 0.02 0.07 0.10 0.26 0.37 0.24 0.12 0.06 0.03 0.04 0.07 0.09 0.08 0.07 0.06 0.09
0.00 0.00 0.00 0.00 0.00 0.00 0.00 0.00 0.00 0.00 0.03 0.05 0.00 0.01 0.01 0.00 0.00 0.00 0.00 0.00 0.00 0.00 0.00 0.00 0.01 0.06 0.01 0.02 0.04 0.14 0.11 0.11 0.24 0.27 0.23 0.07 0.07 0.09 0.11 0.11 0.17 0.17 0.16 0.16
0.00 0.00 0.00 0.00 0.00 0.00 0.00 0.00 0.00 0.00 0.00 0.01 0.02 0.00 0.00 0.00 0.00 0.00 0.00 0.00 0.00 0.00 0.00 0.00 0.01 0.04 0.05 0.12 0.10 0.07 0.15 0.44 0.34 0.30 0.15 0.10 0.13 0.26 0.35 0.25 0.30 0.28 0.28 0.26
0.00 0.00 0.00 0.00 0.00 0.00 0.00 0.00 0.00 0.00 0.00 0.00 0.02 0.00 0.00 0.00 0.00 0.00 0.00 0.00 0.00 0.00 0.00 0.00 0.00 0.00 0.02 0.02 0.02 0.02 0.08 0.18 0.24 0.27 0.24 0.42 0.60 0.54 0.68 0.64 0.62 0.58 0.36 0.28
0.00 0.00 0.00 0.00 0.00 0.00 0.00 0.00 0.00 0.00 0.00 0.00 0.03 0.00 0.00 0.00 0.00 0.00 0.00 0.00 0.00 0.00 0.00 0.00 0.00 0.00 0.00 0.00 0.02 0.09 0.10 0.22 0.44 0.45 0.49 0.74 0.61 0.63 0.58 0.59 0.48 0.36 0.23 0.19
0.00 0.00 0.00 0.00 0.00 0.00 0.00 0.00 0.00 0.00 0.00 0.00 0.00 0.00 0.00 0.00 0.00 0.00 0.00 0.00 0.00 0.00 0.00 0.00 0.00 0.00 0.00 0.04 0.11 0.08 0.16 0.21 0.43 0.45 0.58 0.37 0.47 0.39 0.34 0.25 0.21 0.15 0.09 0.10
0.02 0.00 0.00 0.00 0.00 0.00 0.00 0.00 0.00 0.00 0.00 0.00 0.00 0.00 0.00 0.00 0.00 0.00 0.00 0.00 0.00 0.00 0.00 0.00 0.00 0.00 0.00 0.04 0.04 0.02 0.05 0.10 0.22 0.27 0.22 0.20 0.39 0.34 0.24 0.12 0.09 0.08 0.06 0.11
0.04 0.03 0.00 0.00 0.00 0.00 0.00 0.00 0.00 0.00 0.00 0.00 0.00 0.00 0.00 0.00 0.00 0.00 0.00 0.00 0.00 0.00 0.00 0.00 0.00 0.00 0.00 0.00 0.01 0.02 0.05 0.12 0.15 0.12 0.06 0.12 0.17 0.22 0.15 0.10 0.07 0.09 0.11 0.12
0.04 0.07 0.04 0.02 0.01 0.01 0.00 0.00 0.00 0.00 0.00 0.00 0.00 0.00 0.00 0.00 0.00 0.00 0.00 0.00 0.00 0.00 0.00 0.00 0.00 0.00 0.00 0.00 0.00 0.01 0.06 0.05 0.05 0.07 0.10 0.10 0.13 0.15 0.10 0.08 0.07 0.08 0.12 0.10
0.13 0.07 0.09 0.08 0.04 0.04 0.00 0.00 0.00 0.00 0.00 0.00 0.00 0.00 0.00 0.00 0.00 0.00 0.00 0.00 0.00 0.00 0.00 0.00 0.00 0.00 0.00 0.00 0.00 0.01 0.02 0.02 0.03 0.04 0.05 0.06 0.09 0.10 0.11 0.10 0.07 0.08 0.15 0.15
0.20 0.26 0.24 0.13 0.09 0.05 0.00 0.00 0.00 0.00 0.00 0.00 0.00 0.00 0.00 0.00 0.00 0.00 0.00 0.00 0.00 0.00 0.00 0.00 0.00 0.00 0.00 0.00 0.00 0.01 0.02 0.01 0.02 0.03 0.05 0.07 0.08 0.10 0.09 0.09 0.08 0.09 0.15 0.19
0.22 0.28 0.34 0.22 0.15 0.08 0.00 0.00 0.00 0.00 0.00 0.00 0.00 0.00 0.00 0.00 0.00 0.00 0.00 0.00 0.00 0.00 0.00 0.00 0.00 0.00 0.00 0.00 0.00 0.00 0.01 0.01 0.01 0.03 0.04 0.06 0.05 0.07 0.07 0.11 0.14 0.14 0.08 0.04
0.12 0.26 0.25 0.23 0.20 0.05 0.00 0.00 0.00 0.01 0.01 0.00 0.00 0.00 0.00 0.00 0.00 0.00 0.00 0.00 0.00 0.00 0.00 0.00 0.00 0.00 0.00 0.00 0.00 0.00 0.00 0.00 0.01 0.01 0.02 0.02 0.02 0.04 0.07 0.07 0.06 0.05 0.03 0.01
0.11 0.19 0.18 0.14 0.17 0.09 0.05 0.08 0.06 0.02 0.00 0.00 0.00 0.00 0.00 0.00 0.00 0.00 0.00 0.00 0.00 0.00 0.00 0.00 0.00 0.00 0.00 0.00 0.00 0.00 0.00 0.00 0.00 0.00 0.00 0.01 0.02 0.02 0.02 0.01 0.00 0.00 0.00 0.00
0.04 0.10 0.13 0.14 0.05 0.02 0.04 0.05 0.03 0.02 0.02 0.01 0.01 0.00 0.00 0.00 0.00 0.00 0.00 0.00 0.00 0.00 0.00 0.00 0.00 0.00 0.00 0.00 0.00 0.00 0.01 0.00 0.00 0.00 0.00 0.00 0.00 0.00 0.00 0.00 0.00 0.00 0.00 0.00
0.00 0.00 0.03 0.05 0.02 0.02 0.04 0.07 0.02 0.01 0.01 0.01 0.01 0.01 0.01 0.01 0.01 0.01 0.00 0.00 0.00 0.00 0.00 0.00 0.00 0.00 0.00 0.00 0.00 0.00 0.00 0.00 0.00 0.00 0.00 0.00 0.00 0.00 0.00 0.00 0.00 0.00 0.00 0.00
0.01 0.03 0.02 0.01 0.00 0.00 0.02 0.08 0.08 0.03 0.01 0.02 0.02 0.02 0.03 0.03 0.02 0.01 0.01 0.00 0.00 0.00 0.00 0.00 0.00 0.00 0.00 0.00 0.00 0.00 0.00 0.00 0.00 0.00 0.00 0.00 0.00 0.00 0.00 0.00 0.00 0.00 0.00 0.00
0.02 0.07 0.08 0.04 0.06 0.01 0.01 0.02 0.00 0.01 0.01 0.01 0.01 0.00 0.00 0.00 0.00 0.00 0.00 0.00 0.00 0.00 0.00 0.00 0.00 0.00 0.00 0.00 0.00 0.00 0.00 0.00 0.00 0.00 0.00 0.00 0.00 0.00 0.00 0.00 0.00 0.00 0.00 0.00

GFSCGP_prec_precacc24_057.txt.gz
Total_Precipitation_Accumulation
0.00 0.00 0.00 0.00 0.00 0.00 0.00 0.00 0.00 0.00 0.01 0.00 0.00 0.01 0.01 0.00 0.00 0.00 0.00 0.00 0.00 0.00 0.00 0.00 0.00 0.00 0.00 0.00 0.00 0.03 0.31 0.52 0.32 0.25 0.15 0.22 0.22 0.08 0.06 0.13 0.21 0.18 0.06 0.09
0.00 0.00 0.00 0.00 0.00 0.00 0.00 0.00 0.00 0.00 0.00 0.00 0.00 0.00 0.00 0.00 0.00 0.00 0.00 0.00 0.00 0.00 0.00 0.00 0.00 0.00 0.00 0.00 0.00 0.00 0.09 0.20 0.21 0.23 0.16 0.09 0.14 0.17 0.09 0.08 0.11 0.09 0.10 0.08
0.00 0.00 0.00 0.00 0.00 0.00 0.00 0.00 0.00 0.00 0.00 0.00 0.00 0.00 0.00 0.01 0.01 0.01 0.00 0.00 0.00 0.00 0.00 0.00 0.00 0.00 0.00 0.00 0.00 0.00 0.00 0.02 0.08 0.08 0.15 0.12 0.13 0.14 0.13 0.07 0.10 0.08 0.09 0.07
0.00 0.00 0.00 0.00 0.00 0.00 0.00 0.00 0.00 0.00 0.00 0.00 0.00 0.00 0.00 0.00 0.01 0.00 0.00 0.00 0.00 0.00 0.00 0.00 0.00 0.00 0.00 0.00 0.00 0.00 0.00 0.00 0.02 0.01 0.02 0.06 0.12 0.10 0.09 0.09 0.05 0.07 0.04 0.07
0.00 0.00 0.00 0.00 0.00 0.00 0.00 0.00 0.00 0.00 0.00 0.00 0.00 0.00 0.00 0.00 0.02 0.00 0.00 0.00 0.00 0.00 0.00 0.00 0.00 0.00 0.00 0.00 0.00 0.00 0.00 0.00 0.00 0.04 0.04 0.04 0.03 0.08 0.12 0.08 0.06 0.07 0.06 0.08
0.00 0.00 0.00 0.00 0.00 0.00 0.00 0.00 0.00 0.00 0.00 0.00 0.00 0.00 0.00 0.00 0.01 0.00 0.00 0.00 0.00 0.00 0.00 0.00 0.00 0.00 0.00 0.00 0.00 0.00 0.00 0.00 0.04 0.13 0.20 0.11 0.09 0.08 0.23 0.23 0.12 0.14 0.11 0.16
0.00 0.00 0.00 0.00 0.00 0.00 0.00 0.00 0.00 0.01 0.00 0.00 0.00 0.00 0.00 0.00 0.00 0.00 0.00 0.00 0.00 0.00 0.00 0.00 0.00 0.00 0.00 0.00 0.00 0.00 0.00 0.07 0.07 0.07 0.09 0.13 0.12 0.17 0.14 0.14 0.16 0.20 0.18 0.21
0.00 0.00 0.00 0.00 0.00 0.00 0.00 0.00 0.01 0.09 0.03 0.02 0.03 0.00 0.00 0.00 0.00 0.00 0.00 0.00 0.00 0.00 0.00 0.00 0.00 0.00 0.00 0.00 0.00 0.00 0.00 0.04 0.13 0.15 0.05 0.07 0.05 0.04 0.06 0.11 0.14 0.10 0.12 0.09
0.00 0.00 0.00 0.00 0.00 0.00 0.00 0.00 0.00 0.02 0.05 0.04 0.05 0.01 0.00 0.00 0.00 0.00 0.00 0.00 0.00 0.00 0.00 0.00 0.00 0.00 0.00 0.00 0.00 0.00 0.00 0.08 0.22 0.19 0.09 0.04 0.01 0.00 0.01 0.01 0.04 0.06 0.06 0.09
0.00 0.00 0.00 0.00 0.00 0.00 0.00 0.00 0.00 0.00 0.03 0.05 0.00 0.01 0.01 0.00 0.00 0.00 0.00 0.00 0.00 0.00 0.00 0.00 0.01 0.06 0.01 0.03 0.04 0.10 0.08 0.09 0.22 0.26 0.22 0.06 0.03 0.04 0.06 0.05 0.11 0.14 0.16 0.16
0.00 0.00 0.00 0.00 0.00 0.00 0.00 0.00 0.00 0.00 0.00 0.01 0.02 0.00 0.00 0.00 0.00 0.00 0.00 0.00 0.00 0.00 0.00 0.00 0.01 0.04 0.05 0.12 0.11 0.08 0.19 0.46 0.34 0.29 0.14 0.07 0.06 0.18 0.25 0.16 0.22 0.25 0.27 0.27
0.00 0.00 0.00 0.00 0.00 0.00 0.00 0.00 0.00 0.00 0.00 0.00 0.02 0.00 0.00 0.00 0.00 0.00 0.00 0.00 0.00 0.00 0.00 0.00 0.00 0.00 0.02 0.02 0.02 0.01 0.06 0.16 0.22 0.27 0.22 0.36 0.53 0.45 0.60 0.58 0.59 0.57 0.37 0.29
0.00 0.00 0.00 0.00 0.00 0.00 0.00 0.00 0.00 0.00 0.00 0.00 0.03 0.00 0.00 0.00 0.00 0.00 0.00 0.00 0.00 0.00 0.00 0.00 0.00 0.00 0.00 0.00 0.00 0.00 0.02 0.11 0.35 0.39 0.43 0.71 0.61 0.63 0.55 0.57 0.47 0.36 0.24 0.21
0.00 0.00 0.00 0.00 0.00 0.00 0.00 0.00 0.00 0.00 0.00 0.00 0.00 0.00 0.00 0.00 0.00 0.00 0.00 0.00 0.00 0.00 0.00 0.00 0.00 0.00 0.00 0.00 0.00 0.01 0.09 0.13 0.31 0.37 0.54 0.33 0.45 0.43 0.41 0.30 0.25 0.18 0.11 0.12
0.02 0.00 0.00 0.00 0.00 0.00 0.00 0.00 0.00 0.00 0.00 0.00 0.00 0.00 0.00 0.00 0.00 0.00 0.00 0.00 0.00 0.00 0.00 0.00 0.00 0.00 0.00 0.00 0.00 0.00 0.03 0.08 0.17 0.24 0.20 0.19 0.38 0.35 0.26 0.18 0.20 0.18 0.13 0.18
0.04 0.03 0.00 0.00 0.00 0.00 0.00 0.00 0.00 0.00 0.00 0.00 0.00 0.00 0.00 0.00 0.00 0.00 0.00 0.00 0.00 0.00 0.00 0.00 0.00 0.00 0.00 0.00 0.00 0.00 0.04 0.11 0.14 0.11 0.06 0.11 0.16 0.22 0.16 0.10 0.11 0.15 0.19 0.22
0.04 0.07 0.04 0.02 0.00 0.00 0.00 0.00 0.00 0.00 0.00 0.00 0.00 0.00 0.00 0.00 0.00 0.00 0.00 0.00 0.00 0.00 0.00 0.00 0.00 0.00 0.00 0.00 0.00 0.01 0.06 0.05 0.05 0.07 0.10 0.09 0.12 0.15 0.10 0.11 0.10 0.12 0.19 0.22
0.14 0.07 0.09 0.08 0.04 0.06 0.01 0.00 0.00 0.00 0.00 0.00 0.00 0.00 0.00 0.00 0.00 0.00 0.00 0.00 0.00 0.00 0.00 0.00 0.00 0.00 0.00 0.00 0.00 0.01 0.02 0.02 0.03 0.04 0.05 0.06 0.09 0.10 0.12 0.12 0.12 0.16 0.23 0.17
0.21 0.26 0.25 0.14 0.09 0.05 0.00 0.00 0.00 0.00 0.00 0.00 0.00 0.00 0.00 0.00 0.00 0.00 0.00 0.00 0.00 0.00 0.00 0.00 0.00 0.00 0.00 0.00 0.00 0.01 0.02 0.01 0.02 0.03 0.04 0.07 0.07 0.10 0.09 0.11 0.12 0.09 0.12 0.14
0.22 0.28 0.35 0.23 0.16 0.08 0.00 0.00 0.00 0.00 0.01 0.00 0.00 0.00 0.00 0.00 0.00 0.00 0.00 0.00 0.00 0.00 0.00 0.00 0.00 0.00 0.00 0.00 0.00 0.00 0.01 0.01 0.01 0.03 0.04 0.07 0.08 0.09 0.07 0.11 0.10 0.07 0.07 0.08
0.12 0.25 0.27 0.25 0.23 0.05 0.00 0.00 0.00 0.02 0.01 0.00 0.00 0.00 0.00 0.00 0.00 0.00 0.00 0.00 0.00 0.00 0.00 0.00 0.00 0.00 0.00 0.00 0.00 0.00 0.00 0.00 0.01 0.02 0.03 0.06 0.08 0.06 0.06 0.05 0.04 0.04 0.04 0.05
0.12 0.18 0.18 0.15 0.18 0.09 0.05 0.08 0.07 0.02 0.00 0.00 0.00 0.00 0.00 0.00 0.00 0.00 0.00 0.00 0.00 0.00 0.00 0.00 0.00 0.00 0.00 0.00 0.00 0.00 0.00 0.00 0.02 0.04 0.06 0.04 0.06 0.05 0.03 0.03 0.04 0.04 0.03 0.03
0.04 0.10 0.13 0.14 0.05 0.02 0.04 0.05 0.03 0.02 0.02 0.01 0.01 0.00 0.00 0.00 0.00 0.00 0.00 0.00 0.00 0.00 0.00 0.00 0.00 0.00 0.00 0.00 0.00 0.00 0.01 0.02 0.03 0.02 0.02 0.04 0.02 0.03 0.03 0.03 0.03 0.04 0.06 0.06
0.00 0.00 0.03 0.05 0.02 0.02 0.04 0.07 0.02 0.01 0.01 0.01 0.01 0.01 0.01 0.02 0.01 0.01 0.01 0.00 0.00 0.00 0.00 0.00 0.00 0.00 0.00 0.00 0.00 0.01 0.04 0.04 0.03 0.03 0.02 0.01 0.00 0.00 0.00 0.01 0.03 0.03 0.04 0.06
0.01 0.03 0.02 0.01 0.00 0.00 0.02 0.08 0.09 0.04 0.01 0.02 0.02 0.03 0.03 0.03 0.02 0.01 0.02 0.02 0.01 0.01 0.01 0.00 0.00 0.00 0.01 0.01 0.01 0.02 0.02 0.01 0.00 0.00 0.00 0.00 0.00 0.00 0.00 0.00 0.02 0.02 0.03 0.04
0.02 0.07 0.08 0.04 0.06 0.02 0.02 0.03 0.02 0.05 0.03 0.02 0.02 0.02 0.01 0.00 0.01 0.01 0.01 0.02 0.02 0.02 0.01 0.00 0.00 0.00 0.01 0.01 0.01 0.00 0.00 0.00 0.00 0.00 0.00 0.00 0.00 0.00 0.00 0.00 0.00 0.01 0.01 0.01

GFSCGP_prec_precacc24_060.txt.gz
Total_Precipitation_Accumulation
0.00 0.00 0.00 0.00 0.00 0.00 0.00 0.00 0.00 0.00 0.01 0.00 0.00 0.01 0.01 0.00 0.00 0.00 0.00 0.00 0.00 0.00 0.00 0.00 0.00 0.00 0.00 0.00 0.00 0.04 0.34 0.54 0.31 0.27 0.16 0.23 0.22 0.09 0.08 0.14 0.22 0.19 0.06 0.09
0.00 0.00 0.00 0.00 0.00 0.00 0.00 0.00 0.00 0.00 0.00 0.00 0.00 0.00 0.00 0.00 0.00 0.00 0.00 0.00 0.00 0.00 0.00 0.00 0.00 0.00 0.00 0.00 0.00 0.00 0.15 0.27 0.28 0.25 0.16 0.10 0.14 0.17 0.08 0.09 0.11 0.09 0.10 0.08
0.00 0.00 0.00 0.00 0.00 0.00 0.00 0.00 0.00 0.00 0.00 0.00 0.00 0.00 0.00 0.01 0.01 0.01 0.00 0.00 0.00 0.00 0.00 0.00 0.00 0.00 0.00 0.00 0.00 0.00 0.01 0.06 0.11 0.10 0.19 0.16 0.17 0.16 0.18 0.09 0.10 0.08 0.09 0.07
0.00 0.00 0.00 0.00 0.00 0.00 0.00 0.00 0.00 0.00 0.00 0.00 0.00 0.00 0.00 0.00 0.01 0.00 0.00 0.00 0.00 0.00 0.00 0.00 0.00 0.00 0.00 0.00 0.00 0.00 0.00 0.00 0.02 0.02 0.07 0.11 0.13 0.06 0.03 0.05 0.03 0.05 0.03 0.07
0.00 0.00 0.00 0.00 0.00 0.00 0.00 0.00 0.00 0.00 0.00 0.00 0.00 0.00 0.00 0.00 0.02 0.00 0.00 0.00 0.00 0.00 0.00 0.00 0.00 0.00 0.00 0.00 0.00 0.00 0.00 0.00 0.01 0.04 0.03 0.04 0.03 0.05 0.10 0.07 0.05 0.04 0.03 0.07
0.00 0.00 0.00 0.00 0.00 0.00 0.00 0.00 0.00 0.00 0.00 0.00 0.00 0.00 0.00 0.00 0.01 0.00 0.00 0.00 0.00 0.00 0.00 0.00 0.00 0.00 0.00 0.00 0.00 0.00 0.00 0.00 0.00 0.03 0.05 0.06 0.04 0.04 0.19 0.21 0.12 0.13 0.10 0.14
0.00 0.00 0.00 0.00 0.00 0.00 0.00 0.00 0.00 0.01 0.00 0.00 0.00 0.00 0.00 0.00 0.00 0.00 0.00 0.00 0.00 0.00 0.00 0.00 0.00 0.00 0.00 0.00 0.00 0.00 0.00 0.00 0.01 0.03 0.04 0.09 0.07 0.10 0.07 0.10 0.13 0.17 0.14 0.18
0.01 0.01 0.00 0.00 0.00 0.00 0.00 0.00 0.01 0.09 0.03 0.02 0.03 0.00 0.00 0.00 0.00 0.00 0.00 0.00 0.00 0.00 0.00 0.00 0.00 0.00 0.00 0.00 0.00 0.00 0.00 0.00 0.01 0.04 0.03 0.05 0.02 0.01 0.03 0.10 0.13 0.08 0.09 0.08
0.00 0.00 0.00 0.00 0.00 0.00 0.00 0.00 0.00 0.02 0.05 0.04 0.05 0.01 0.00 0.00 0.00 0.00 0.00 0.00 0.00 0.00 0.00 0.00 0.00 0.00 0.00 0.00 0.00 0.00 0.00 0.01 0.00 0.02 0.05 0.03 0.01 0.00 0.00 0.01 0.03 0.02 0.03 0.08
0.00 0.00 0.00 0.00 0.00 0.00 0.00 0.00 0.00 0.00 0.03 0.05 0.00 0.01 0.01 0.00 0.00 0.00 0.00 0.00 0.00 0.00 0.00 0.00 0.01 0.06 0.01 0.03 0.04 0.10 0.08 0.09 0.15 0.12 0.13 0.04 0.03 0.03 0.04 0.03 0.07 0.09 0.13 0.15
0.00 0.00 0.00 0.00 0.00 0.00 0.00 0.00 0.00 0.00 0.00 0.01 0.02 0.00 0.00 0.00 0.00 0.00 0.00 0.00 0.00 0.00 0.00 0.00 0.01 0.04 0.05 0.12 0.11 0.08 0.19 0.46 0.34 0.29 0.13 0.06 0.04 0.15 0.21 0.12 0.16 0.18 0.24 0.26
0.00 0.00 0.00 0.00 0.00 0.00 0.00 0.00 0.00 0.00 0.00 0.00 0.02 0.00 0.00 0.00 0.00 0.00 0.00 0.00 0.00 0.00 0.00 0.00 0.00 0.00 0.02 0.02 0.02 0.01 0.06 0.16 0.22 0.26 0.20 0.32 0.47 0.39 0.56 0.54 0.54 0.52 0.34 0.27
0.00 0.00 0.00 0.00 0.00 0.00 0.00 0.00 0.00 0.00 0.00 0.00 0.03 0.00 0.00 0.00 0.00 0.00 0.00 0.00 0.00 0.00 0.00 0.00 0.00 0.00 0.00 0.00 0.00 0.00 0.02 0.09 0.33 0.35 0.39 0.67 0.58 0.61 0.52 0.51 0.43 0.32 0.22 0.20
0.00 0.01 0.00 0.00 0.00 0.00 0.00 0.00 0.00 0.00 0.00 0.00 0.00 0.00 0.00 0.00 0.00 0.00 0.00 0.00 0.00 0.00 0.00 0.00 0.00 0.00 0.00 0.00 0.00 0.01 0.07 0.10 0.26 0.32 0.50 0.31 0.44 0.41 0.38 0.27 0.22 0.16 0.10 0.11
0.02 0.01 0.00 0.00 0.00 0.00 0.00 0.00 0.00 0.00 0.00 0.00 0.00 0.00 0.00 0.00 0.00 0.00 0.00 0.00 0.00 0.00 0.00 0.00 0.00 0.00 0.00 0.00 0.00 0.00 0.00 0.06 0.13 0.21 0.17 0.15 0.34 0.33 0.25 0.17 0.19 0.18 0.13 0.18
0.04 0.03 0.00 0.00 0.00 0.00 0.00 0.00 0.00 0.00 0.00 0.00 0.00 0.00 0.00 0.00 0.00 0.00 0.00 0.00 0.00 0.00 0.00 0.00 0.00 0.00 0.00 0.00 0.00 0.00 0.02 0.10 0.14 0.11 0.06 0.11 0.16 0.21 0.16 0.10 0.11 0.15 0.19 0.22
0.04 0.07 0.04 0.02 0.00 0.00 0.00 0.00 0.00 0.00 0.00 0.00 0.00 0.00 0.00 0.00 0.00 0.00 0.00 0.00 0.00 0.00 0.00 0.00 0.00 0.00 0.00 0.00 0.00 0.01 0.06 0.05 0.05 0.07 0.10 0.09 0.12 0.15 0.10 0.11 0.10 0.12 0.19 0.22
0.14 0.08 0.09 0.08 0.04 0.06 0.01 0.00 0.00 0.00 0.00 0.00 0.00 0.00 0.00 0.00 0.00 0.00 0.00 0.00 0.00 0.00 0.00 0.00 0.00 0.00 0.00 0.00 0.00 0.01 0.02 0.02 0.03 0.04 0.05 0.06 0.09 0.10 0.12 0.12 0.12 0.16 0.22 0.16
0.21 0.26 0.26 0.14 0.09 0.05 0.00 0.00 0.00 0.00 0.00 0.00 0.00 0.00 0.00 0.00 0.00 0.00 0.00 0.00 0.00 0.00 0.00 0.00 0.00 0.00 0.00 0.00 0.00 0.01 0.02 0.01 0.02 0.03 0.04 0.07 0.07 0.10 0.09 0.11 0.12 0.10 0.13 0.14
0.22 0.28 0.37 0.24 0.16 0.08 0.00 0.00 0.00 0.00 0.01 0.00 0.00 0.00 0.00 0.00 0.00 0.00 0.00 0.00 0.00 0.00 0.00 0.00 0.00 0.00 0.00 0.00 0.00 0.00 0.01 0.01 0.01 0.03 0.04 0.07 0.08 0.09 0.07 0.11 0.10 0.08 0.08 0.10
0.12 0.26 0.27 0.26 0.24 0.05 0.00 0.00 0.00 0.02 0.01 0.00 0.00 0.00 0.00 0.00 0.00 0.00 0.00 0.00 0.00 0.00 0.00 0.00 0.00 0.00 0.00 0.00 0.00 0.00 0.00 0.00 0.01 0.02 0.03 0.06 0.08 0.06 0.06 0.05 0.04 0.05 0.05 0.05
0.12 0.19 0.19 0.15 0.19 0.09 0.05 0.08 0.07 0.02 0.00 0.00 0.00 0.00 0.00 0.00 0.00 0.00 0.00 0.00 0.00 0.00 0.00 0.00 0.00 0.00 0.00 0.00 0.00 0.00 0.00 0.00 0.02 0.04 0.06 0.04 0.06 0.06 0.04 0.04 0.07 0.06 0.05 0.04
0.05 0.10 0.14 0.14 0.05 0.02 0.04 0.06 0.03 0.02 0.02 0.01 0.01 0.00 0.00 0.00 0.00 0.00 0.00 0.00 0.00 0.00 0.00 0.00 0.00 0.00 0.00 0.00 0.00 0.00 0.01 0.02 0.03 0.03 0.03 0.06 0.04 0.07 0.07 0.06 0.05 0.05 0.06 0.07
0.00 0.00 0.03 0.05 0.02 0.02 0.04 0.07 0.02 0.01 0.01 0.01 0.01 0.01 0.01 0.02 0.01 0.01 0.01 0.00 0.00 0.00 0.00 0.00 0.00 0.00 0.02 0.01 0.01 0.02 0.05 0.06 0.06 0.06 0.05 0.04 0.03 0.03 0.01 0.02 0.03 0.03 0.04 0.06
0.01 0.02 0.02 0.00 0.00 0.00 0.02 0.08 0.09 0.04 0.01 0.02 0.02 0.03 0.03 0.03 0.02 0.01 0.02 0.02 0.01 0.01 0.01 0.01 0.01 0.01 0.02 0.02 0.02 0.04 0.03 0.02 0.02 0.02 0.02 0.01 0.00 0.00 0.00 0.01 0.03 0.04 0.06 0.08
0.02 0.06 0.07 0.04 0.05 0.01 0.02 0.03 0.02 0.05 0.03 0.02 0.02 0.02 0.01 0.00 0.01 0.02 0.03 0.03 0.04 0.04 0.02 0.01 0.01 0.03 0.04 0.04 0.05 0.04 0.01 0.01 0.01 0.01 0.01 0.01 0.01 0.01 0.01 0.01 0.02 0.04 0.05 0.06

GFSCGP_prec_precacc24_063.txt.gz
Total_Precipitation_Accumulation
0.00 0.00 0.00 0.00 0.00 0.00 0.00 0.00 0.00 0.00 0.00 0.00 0.00 0.01 0.01 0.00 0.00 0.00 0.00 0.00 0.00 0.00 0.00 0.00 0.00 0.00 0.00 0.00 0.01 0.04 0.34 0.53 0.27 0.25 0.16 0.24 0.23 0.15 0.09 0.13 0.21 0.18 0.06 0.09
0.00 0.00 0.00 0.00 0.00 0.00 0.00 0.00 0.00 0.00 0.00 0.00 0.00 0.00 0.00 0.00 0.00 0.00 0.00 0.00 0.00 0.00 0.00 0.00 0.00 0.00 0.00 0.00 0.00 0.01 0.15 0.28 0.32 0.27 0.18 0.10 0.15 0.20 0.10 0.09 0.10 0.11 0.11 0.08
0.00 0.00 0.00 0.00 0.00 0.00 0.00 0.00 0.00 0.00 0.00 0.00 0.00 0.00 0.00 0.01 0.01 0.01 0.00 0.00 0.00 0.00 0.00 0.00 0.00 0.00 0.00 0.00 0.00 0.01 0.01 0.06 0.13 0.23 0.22 0.18 0.19 0.17 0.23 0.13 0.13 0.09 0.10 0.08
0.00 0.00 0.00 0.00 0.00 0.00 0.00 0.00 0.00 0.00 0.00 0.00 0.00 0.00 0.00 0.00 0.01 0.00 0.00 0.00 0.00 0.00 0.00 0.00 0.00 0.00 0.00 0.00 0.00 0.00 0.01 0.01 0.01 0.03 0.08 0.11 0.14 0.06 0.03 0.05 0.04 0.05 0.03 0.10
0.00 0.00 0.00 0.00 0.00 0.00 0.00 0.00 0.00 0.00 0.00 0.00 0.00 0.00 0.00 0.00 0.02 0.00 0.00 0.00 0.00 0.00 0.00 0.00 0.00 0.00 0.00 0.00 0.00 0.00 0.00 0.01 0.01 0.01 0.03 0.04 0.04 0.05 0.06 0.07 0.06 0.04 0.02 0.07
0.00 0.00 0.00 0.00 0.00 0.00 0.00 0.00 0.00 0.00 0.00 0.00 0.00 0.00 0.00 0.00 0.01 0.00 0.00 0.00 0.00 0.00 0.00 0.00 0.00 0.00 0.00 0.00 0.00 0.00 0.00 0.00 0.01 0.01 0.03 0.05 0.03 0.03 0.10 0.17 0.10 0.11 0.09 0.13
0.00 0.00 0.00 0.00 0.00 0.00 0.00 0.00 0.00 0.01 0.00 0.00 0.00 0.00 0.00 0.00 0.00 0.00 0.00 0.00 0.00 0.00 0.00 0.00 0.00 0.00 0.00 0.00 0.00 0.00 0.00 0.00 0.00 0.01 0.01 0.02 0.03 0.07 0.04 0.05 0.08 0.12 0.12 0.16
0.01 0.02 0.00 0.00 0.00 0.00 0.00 0.00 0.00 0.07 0.03 0.01 0.03 0.00 0.00 0.00 0.00 0.00 0.00 0.00 0.00 0.00 0.00 0.00 0.00 0.00 0.00 0.00 0.00 0.00 0.00 0.00 0.00 0.00 0.01 0.03 0.01 0.01 0.01 0.01 0.05 0.05 0.07 0.06
0.00 0.00 0.00 0.00 0.00 0.00 0.00 0.00 0.00 0.02 0.05 0.04 0.05 0.01 0.00 0.00 0.00 0.00 0.00 0.00 0.00 0.00 0.00 0.00 0.00 0.00 0.00 0.00 0.00 0.00 0.00 0.01 0.00 0.00 0.01 0.01 0.01 0.00 0.00 0.01 0.02 0.01 0.03 0.07
0.00 0.00 0.00 0.00 0.00 0.00 0.00 0.00 0.00 0.00 0.03 0.04 0.00 0.01 0.01 0.00 0.00 0.00 0.00 0.00 0.00 0.00 0.00 0.00 0.01 0.06 0.01 0.03 0.04 0.10 0.08 0.09 0.13 0.05 0.00 0.00 0.03 0.03 0.05 0.02 0.03 0.06 0.09 0.12
0.00 0.00 0.00 0.00 0.00 0.00 0.00 0.00 0.00 0.00 0.00 0.01 0.02 0.00 0.00 0.00 0.00 0.00 0.00 0.00 0.00 0.00 0.00 0.00 0.01 0.04 0.05 0.12 0.11 0.08 0.19 0.46 0.34 0.28 0.06 0.03 0.04 0.15 0.21 0.11 0.15 0.17 0.23 0.24
0.00 0.00 0.00 0.00 0.00 0.00 0.00 0.00 0.00 0.00 0.00 0.00 0.02 0.00 0.00 0.00 0.00 0.00 0.00 0.00 0.00 0.00 0.00 0.00 0.00 0.00 0.02 0.02 0.02 0.01 0.06 0.16 0.22 0.26 0.19 0.32 0.47 0.38 0.54 0.53 0.54 0.51 0.33 0.26
0.01 0.00 0.00 0.01 0.01 0.00 0.00 0.00 0.00 0.00 0.00 0.00 0.04 0.00 0.00 0.00 0.00 0.00 0.00 0.00 0.00 0.00 0.00 0.00 0.00 0.00 0.00 0.00 0.00 0.00 0.02 0.09 0.33 0.34 0.38 0.66 0.56 0.58 0.50 0.49 0.42 0.32 0.21 0.19
0.01 0.02 0.00 0.00 0.00 0.00 0.00 0.00 0.00 0.00 0.00 0.00 0.00 0.00 0.00 0.00 0.00 0.00 0.00 0.00 0.00 0.00 0.00 0.00 0.00 0.00 0.00 0.00 0.00 0.01 0.07 0.10 0.26 0.32 0.49 0.30 0.38 0.35 0.35 0.26 0.20 0.14 0.08 0.10
0.03 0.04 0.02 0.01 0.00 0.00 0.00 0.00 0.00 0.00 0.00 0.00 0.00 0.00 0.00 0.00 0.00 0.00 0.00 0.00 0.00 0.00 0.00 0.00 0.00 0.00 0.00 0.00 0.00 0.00 0.00 0.05 0.11 0.17 0.12 0.13 0.29 0.31 0.21 0.15 0.18 0.17 0.12 0.18
0.04 0.06 0.04 0.00 0.00 0.00 0.00 0.00 0.00 0.00 0.00 0.00 0.00 0.00 0.00 0.00 0.00 0.00 0.00 0.00 0.00 0.00 0.00 0.00 0.00 0.00 0.00 0.00 0.00 0.00 0.01 0.07 0.10 0.09 0.05 0.10 0.16 0.21 0.16 0.10 0.11 0.15 0.19 0.22
0.04 0.07 0.06 0.05 0.00 0.00 0.00 0.00 0.00 0.00 0.00 0.00 0.00 0.00 0.00 0.00 0.00 0.00 0.00 0.00 0.00 0.00 0.00 0.00 0.00 0.00 0.00 0.00 0.00 0.01 0.04 0.05 0.05 0.07 0.10 0.09 0.12 0.15 0.10 0.11 0.10 0.12 0.19 0.22
0.14 0.08 0.09 0.08 0.04 0.06 0.01 0.00 0.00 0.00 0.00 0.00 0.00 0.00 0.00 0.00 0.00 0.00 0.00 0.00 0.00 0.00 0.00 0.00 0.00 0.00 0.00 0.00 0.00 0.01 0.02 0.02 0.03 0.04 0.05 0.06 0.09 0.10 0.12 0.12 0.12 0.16 0.22 0.16
0.21 0.26 0.26 0.14 0.09 0.05 0.00 0.00 0.00 0.00 0.00 0.00 0.00 0.00 0.00 0.00 0.00 0.00 0.00 0.00 0.00 0.00 0.00 0.00 0.00 0.00 0.00 0.00 0.00 0.01 0.02 0.01 0.02 0.03 0.04 0.07 0.07 0.10 0.09 0.11 0.12 0.10 0.13 0.14
0.22 0.28 0.35 0.24 0.16 0.08 0.00 0.00 0.00 0.00 0.01 0.00 0.00 0.00 0.00 0.00 0.00 0.00 0.00 0.00 0.00 0.00 0.00 0.00 0.00 0.00 0.00 0.00 0.00 0.00 0.01 0.01 0.01 0.03 0.04 0.07 0.08 0.09 0.07 0.11 0.10 0.08 0.08 0.10
0.11 0.26 0.27 0.24 0.24 0.06 0.00 0.00 0.00 0.02 0.02 0.00 0.00 0.00 0.00 0.00 0.00 0.00 0.00 0.00 0.00 0.00 0.00 0.00 0.00 0.00 0.00 0.00 0.00 0.00 0.00 0.00 0.01 0.02 0.03 0.06 0.08 0.06 0.06 0.05 0.04 0.05 0.06 0.07
0.08 0.17 0.18 0.14 0.19 0.10 0.05 0.09 0.09 0.03 0.00 0.00 0.00 0.00 0.00 0.00 0.00 0.00 0.00 0.00 0.00 0.00 0.00 0.00 0.00 0.00 0.00 0.00 0.00 0.00 0.00 0.00 0.02 0.04 0.06 0.04 0.06 0.06 0.04 0.04 0.07 0.06 0.06 0.07
0.06 0.06 0.10 0.14 0.06 0.05 0.06 0.08 0.04 0.02 0.02 0.01 0.01 0.00 0.00 0.00 0.00 0.00 0.00 0.00 0.00 0.00 0.00 0.00 0.00 0.00 0.00 0.00 0.00 0.01 0.01 0.03 0.04 0.03 0.03 0.06 0.04 0.07 0.08 0.09 0.10 0.10 0.10 0.12
0.02 0.00 0.08 0.09 0.02 0.04 0.08 0.08 0.02 0.01 0.01 0.01 0.01 0.01 0.01 0.02 0.01 0.01 0.01 0.00 0.00 0.00 0.00 0.00 0.00 0.00 0.02 0.01 0.02 0.05 0.09 0.10 0.11 0.11 0.09 0.07 0.08 0.09 0.07 0.07 0.08 0.07 0.08 0.10
0.02 0.03 0.03 0.02 0.01 0.02 0.02 0.08 0.09 0.04 0.01 0.02 0.02 0.03 0.03 0.03 0.02 0.01 0.02 0.02 0.01 0.01 0.01 0.01 0.01 0.01 0.03 0.04 0.06 0.09 0.08 0.06 0.06 0.06 0.06 0.06 0.06 0.05 0.06 0.05 0.07 0.08 0.09 0.11
0.02 0.08 0.09 0.07 0.08 0.04 0.04 0.02 0.02 0.05 0.03 0.02 0.02 0.02 0.01 0.00 0.01 0.02 0.03 0.03 0.04 0.04 0.03 0.02 0.01 0.03 0.06 0.10 0.17 0.23 0.24 0.14 0.06 0.05 0.04 0.04 0.03 0.03 0.03 0.03 0.05 0.09 0.10 0.11

GFSCGP_prec_precacc24_069.txt.gz
Total_Precipitation_Accumulation
0.00 0.00 0.00 0.00 0.00 0.00 0.00 0.00 0.00 0.00 0.00 0.00 0.00 0.00 0.00 0.00 0.00 0.00 0.00 0.00 0.00 0.00 0.00 0.00 0.00 0.00 0.00 0.00 0.01 0.05 0.35 0.53 0.26 0.23 0.16 0.24 0.24 0.19 0.17 0.16 0.15 0.09 0.02 0.03
0.02 0.01 0.00 0.00 0.00 0.00 0.00 0.00 0.00 0.00 0.00 0.00 0.00 0.00 0.00 0.00 0.00 0.00 0.00 0.00 0.00 0.00 0.00 0.00 0.00 0.00 0.00 0.00 0.00 0.01 0.17 0.29 0.32 0.27 0.18 0.10 0.16 0.22 0.13 0.11 0.09 0.07 0.03 0.01
0.02 0.00 0.00 0.01 0.00 0.00 0.00 0.00 0.00 0.00 0.00 0.00 0.00 0.00 0.00 0.00 0.00 0.00 0.00 0.00 0.00 0.00 0.00 0.00 0.00 0.00 0.00 0.00 0.00 0.01 0.03 0.07 0.12 0.27 0.24 0.21 0.20 0.20 0.26 0.15 0.07 0.03 0.04 0.02
0.07 0.00 0.02 0.00 0.00 0.00 0.00 0.00 0.00 0.00 0.00 0.00 0.00 0.00 0.00 0.00 0.00 0.00 0.00 0.00 0.00 0.00 0.00 0.00 0.00 0.00 0.00 0.00 0.00 0.00 0.02 0.02 0.01 0.04 0.08 0.12 0.14 0.08 0.04 0.04 0.04 0.01 0.01 0.07
0.08 0.03 0.04 0.01 0.00 0.00 0.00 0.00 0.00 0.00 0.00 0.00 0.00 0.00 0.00 0.00 0.01 0.00 0.00 0.00 0.00 0.00 0.00 0.00 0.00 0.00 0.00 0.00 0.00 0.00 0.01 0.02 0.01 0.01 0.00 0.01 0.03 0.05 0.02 0.02 0.02 0.01 0.01 0.04
0.00 0.02 0.06 0.03 0.00 0.00 0.00 0.01 0.00 0.00 0.00 0.00 0.00 0.00 0.00 0.00 0.00 0.00 0.00 0.00 0.00 0.00 0.00 0.00 0.00 0.00 0.00 0.00 0.00 0.00 0.00 0.01 0.01 0.01 0.00 0.00 0.00 0.02 0.03 0.02 0.02 0.01 0.01 0.03
0.00 0.00 0.00 0.00 0.00 0.00 0.00 0.03 0.04 0.02 0.00 0.00 0.00 0.00 0.00 0.00 0.00 0.00 0.00 0.00 0.00 0.00 0.00 0.00 0.00 0.00 0.00 0.00 0.00 0.00 0.00 0.00 0.01 0.01 0.00 0.00 0.00 0.00 0.00 0.00 0.01 0.00 0.00 0.04
0.02 0.02 0.00 0.00 0.00 0.00 0.00 0.01 0.03 0.03 0.01 0.00 0.00 0.00 0.00 0.00 0.00 0.00 0.00 0.00 0.00 0.00 0.00 0.00 0.00 0.00 0.00 0.00 0.00 0.00 0.00 0.00 0.00 0.01 0.01 0.00 0.00 0.00 0.00 0.00 0.00 0.00 0.01 0.01
0.00 0.00 0.00 0.00 0.00 0.02 0.03 0.02 0.00 0.06 0.02 0.01 0.00 0.00 0.00 0.00 0.00 0.00 0.00 0.00 0.00 0.00 0.00 0.00 0.00 0.00 0.00 0.00 0.00 0.00 0.00 0.00 0.00 0.00 0.00 0.00 0.00 0.00 0.00 0.01 0.01 0.00 0.01 0.04
0.00 0.00 0.00 0.00 0.00 0.00 0.01 0.01 0.13 0.19 0.04 0.01 0.00 0.00 0.00 0.00 0.00 0.00 0.00 0.00 0.00 0.00 0.00 0.00 0.00 0.00 0.00 0.01 0.03 0.07 0.05 0.03 0.09 0.03 0.00 0.00 0.00 0.03 0.03 0.02 0.03 0.06 0.08 0.09
0.00 0.00 0.00 0.00 0.00 0.00 0.00 0.03 0.11 0.06 0.01 0.00 0.01 0.01 0.01 0.00 0.00 0.00 0.00 0.00 0.00 0.00 0.00 0.00 0.00 0.00 0.00 0.02 0.04 0.04 0.09 0.14 0.12 0.11 0.04 0.01 0.00 0.13 0.16 0.11 0.13 0.16 0.22 0.24
0.01 0.00 0.00 0.00 0.00 0.01 0.00 0.00 0.02 0.11 0.06 0.00 0.00 0.01 0.00 0.00 0.00 0.00 0.00 0.00 0.00 0.00 0.00 0.00 0.00 0.00 0.00 0.00 0.00 0.00 0.04 0.03 0.04 0.11 0.14 0.12 0.07 0.12 0.27 0.45 0.52 0.51 0.33 0.26
0.01 0.00 0.00 0.02 0.05 0.01 0.00 0.00 0.01 0.04 0.16 0.10 0.03 0.00 0.00 0.00 0.00 0.00 0.00 0.00 0.00 0.00 0.00 0.00 0.00 0.01 0.00 0.00 0.00 0.00 0.01 0.02 0.06 0.14 0.08 0.17 0.24 0.25 0.23 0.34 0.36 0.29 0.20 0.19
0.01 0.02 0.00 0.01 0.03 0.04 0.02 0.00 0.01 0.06 0.20 0.09 0.05 0.01 0.05 0.00 0.00 0.00 0.00 0.00 0.00 0.00 0.00 0.00 0.01 0.04 0.07 0.05 0.03 0.02 0.01 0.03 0.05 0.06 0.07 0.15 0.16 0.23 0.27 0.22 0.17 0.11 0.06 0.09
0.04 0.06 0.04 0.02 0.00 0.01 0.01 0.01 0.00 0.06 0.08 0.10 0.02 0.01 0.06 0.04 0.00 0.00 0.00 0.00 0.00 0.00 0.00 0.00 0.00 0.00 0.04 0.10 0.09 0.07 0.04 0.02 0.05 0.05 0.04 0.07 0.12 0.19 0.17 0.13 0.16 0.15 0.11 0.16
0.04 0.07 0.07 0.02 0.00 0.00 0.00 0.00 0.00 0.01 0.03 0.04 0.02 0.02 0.06 0.02 0.01 0.02 0.00 0.00 0.00 0.00 0.00 0.00 0.00 0.00 0.00 0.00 0.03 0.04 0.06 0.09 0.09 0.11 0.07 0.08 0.11 0.17 0.10 0.07 0.08 0.14 0.18 0.22
0.05 0.07 0.10 0.13 0.02 0.00 0.00 0.00 0.00 0.01 0.04 0.03 0.04 0.04 0.03 0.03 0.05 0.01 0.00 0.00 0.00 0.00 0.00 0.00 0.00 0.00 0.00 0.00 0.00 0.00 0.00 0.01 0.04 0.08 0.12 0.12 0.14 0.12 0.08 0.10 0.10 0.12 0.19 0.22
0.10 0.08 0.14 0.13 0.08 0.09 0.01 0.00 0.00 0.00 0.01 0.03 0.02 0.02 0.01 0.06 0.05 0.00 0.00 0.00 0.00 0.00 0.00 0.00 0.00 0.00 0.00 0.00 0.00 0.00 0.00 0.00 0.03 0.03 0.04 0.05 0.11 0.12 0.13 0.12 0.12 0.16 0.22 0.16
0.05 0.18 0.25 0.17 0.14 0.08 0.01 0.00 0.00 0.01 0.05 0.04 0.06 0.02 0.01 0.01 0.01 0.01 0.00 0.00 0.00 0.00 0.00 0.00 0.00 0.00 0.00 0.00 0.00 0.00 0.01 0.01 0.02 0.02 0.04 0.06 0.07 0.12 0.16 0.14 0.12 0.10 0.13 0.14
0.01 0.05 0.26 0.23 0.23 0.11 0.01 0.00 0.00 0.01 0.10 0.03 0.02 0.02 0.02 0.01 0.01 0.02 0.00 0.00 0.00 0.00 0.00 0.00 0.00 0.00 0.00 0.00 0.00 0.00 0.01 0.01 0.01 0.03 0.04 0.07 0.08 0.09 0.10 0.15 0.13 0.13 0.12 0.12
0.02 0.05 0.19 0.21 0.22 0.07 0.00 0.00 0.00 0.05 0.11 0.01 0.00 0.00 0.00 0.00 0.00 0.00 0.00 0.00 0.00 0.00 0.00 0.00 0.00 0.00 0.00 0.00 0.00 0.00 0.00 0.00 0.01 0.02 0.03 0.06 0.08 0.06 0.07 0.08 0.08 0.10 0.14 0.13
0.05 0.04 0.07 0.09 0.16 0.10 0.05 0.09 0.11 0.07 0.01 0.00 0.00 0.00 0.00 0.00 0.00 0.00 0.00 0.00 0.00 0.00 0.00 0.00 0.00 0.00 0.00 0.00 0.00 0.00 0.00 0.00 0.02 0.04 0.06 0.04 0.06 0.06 0.06 0.08 0.13 0.12 0.10 0.10
0.16 0.01 0.05 0.04 0.02 0.08 0.08 0.10 0.06 0.04 0.02 0.00 0.00 0.00 0.00 0.00 0.00 0.00 0.00 0.00 0.00 0.00 0.00 0.00 0.00 0.00 0.00 0.00 0.00 0.01 0.01 0.03 0.05 0.04 0.03 0.06 0.04 0.07 0.09 0.12 0.15 0.14 0.15 0.16
0.12 0.03 0.10 0.09 0.03 0.16 0.25 0.04 0.00 0.00 0.01 0.01 0.00 0.00 0.00 0.01 0.01 0.01 0.01 0.00 0.00 0.00 0.00 0.00 0.00 0.00 0.02 0.01 0.02 0.05 0.09 0.11 0.12 0.14 0.14 0.11 0.11 0.13 0.08 0.09 0.11 0.12 0.16 0.23
0.45 0.14 0.12 0.15 0.32 0.35 0.19 0.02 0.00 0.01 0.00 0.00 0.00 0.00 0.02 0.03 0.02 0.01 0.02 0.02 0.01 0.01 0.01 0.01 0.01 0.01 0.04 0.04 0.06 0.09 0.09 0.09 0.10 0.11 0.12 0.15 0.17 0.16 0.19 0.22 0.27 0.26 0.35 0.40
0.42 0.34 0.23 0.29 0.64 0.70 0.37 0.08 0.02 0.04 0.02 0.02 0.01 0.02 0.01 0.00 0.01 0.02 0.03 0.03 0.04 0.04 0.03 0.02 0.01 0.03 0.06 0.11 0.17 0.24 0.27 0.28 0.31 0.34 0.33 0.33 0.32 0.37 0.43 0.47 0.54 0.64 0.66 0.66

GFSCGP_prec_precacc24_072.txt.gz
Total_Precipitation_Accumulation
0.00 0.00 0.00 0.00 0.00 0.00 0.00 0.00 0.00 0.00 0.00 0.00 0.00 0.00 0.00 0.00 0.00 0.00 0.00 0.00 0.00 0.00 0.00 0.00 0.00 0.00 0.00 0.00 0.01 0.04 0.35 0.53 0.26 0.23 0.17 0.24 0.25 0.19 0.17 0.16 0.19 0.12 0.04 0.03
0.02 0.01 0.00 0.00 0.00 0.00 0.00 0.00 0.00 0.00 0.00 0.00 0.00 0.00 0.00 0.00 0.00 0.00 0.00 0.00 0.00 0.00 0.00 0.00 0.00 0.00 0.00 0.00 0.00 0.01 0.17 0.29 0.32 0.27 0.18 0.11 0.16 0.23 0.14 0.12 0.14 0.15 0.06 0.02
0.02 0.00 0.00 0.01 0.00 0.00 0.00 0.00 0.00 0.00 0.00 0.00 0.00 0.00 0.00 0.00 0.00 0.00 0.00 0.00 0.00 0.00 0.00 0.00 0.00 0.00 0.00 0.00 0.00 0.01 0.03 0.07 0.13 0.27 0.24 0.21 0.21 0.21 0.28 0.18 0.14 0.16 0.09 0.04
0.07 0.00 0.02 0.00 0.00 0.00 0.00 0.00 0.00 0.00 0.00 0.00 0.00 0.00 0.00 0.00 0.00 0.00 0.00 0.00 0.00 0.00 0.00 0.00 0.00 0.00 0.00 0.00 0.00 0.00 0.02 0.02 0.01 0.05 0.08 0.12 0.14 0.08 0.04 0.05 0.06 0.05 0.06 0.09
0.08 0.03 0.04 0.02 0.00 0.00 0.00 0.00 0.00 0.00 0.00 0.00 0.00 0.00 0.00 0.00 0.00 0.00 0.00 0.00 0.00 0.00 0.00 0.00 0.00 0.00 0.00 0.00 0.00 0.00 0.01 0.02 0.01 0.01 0.00 0.01 0.04 0.05 0.02 0.02 0.03 0.03 0.05 0.05
0.00 0.02 0.06 0.03 0.00 0.00 0.00 0.01 0.00 0.00 0.00 0.00 0.00 0.00 0.00 0.00 0.00 0.00 0.00 0.00 0.00 0.00 0.00 0.00 0.00 0.00 0.00 0.00 0.00 0.00 0.00 0.01 0.01 0.01 0.00 0.00 0.00 0.02 0.03 0.02 0.02 0.01 0.01 0.02
0.00 0.00 0.00 0.00 0.00 0.00 0.00 0.05 0.05 0.03 0.00 0.00 0.00 0.00 0.00 0.00 0.00 0.00 0.00 0.00 0.00 0.00 0.00 0.00 0.00 0.00 0.00 0.00 0.00 0.00 0.00 0.00 0.01 0.01 0.00 0.00 0.00 0.00 0.00 0.00 0.01 0.00 0.00 0.00
0.02 0.02 0.00 0.00 0.00 0.00 0.00 0.02 0.05 0.05 0.02 0.00 0.00 0.00 0.00 0.00 0.00 0.00 0.00 0.00 0.00 0.00 0.00 0.00 0.00 0.00 0.00 0.00 0.00 0.00 0.00 0.00 0.00 0.01 0.01 0.00 0.00 0.00 0.00 0.00 0.00 0.00 0.00 0.00
0.00 0.00 0.00 0.00 0.00 0.02 0.04 0.04 0.01 0.11 0.05 0.02 0.00 0.00 0.00 0.00 0.00 0.00 0.00 0.00 0.00 0.00 0.00 0.00 0.00 0.00 0.00 0.00 0.00 0.00 0.00 0.00 0.00 0.00 0.00 0.01 0.00 0.00 0.00 0.00 0.00 0.00 0.00 0.00
0.00 0.00 0.00 0.00 0.00 0.00 0.01 0.03 0.18 0.30 0.12 0.04 0.00 0.01 0.00 0.00 0.00 0.00 0.00 0.00 0.00 0.00 0.00 0.00 0.00 0.00 0.00 0.01 0.03 0.04 0.02 0.01 0.02 0.00 0.00 0.00 0.00 0.00 0.00 0.00 0.00 0.02 0.07 0.08
0.00 0.00 0.00 0.00 0.00 0.00 0.01 0.14 0.16 0.10 0.02 0.04 0.02 0.06 0.01 0.00 0.00 0.00 0.00 0.00 0.00 0.00 0.00 0.00 0.00 0.00 0.00 0.02 0.04 0.04 0.08 0.12 0.05 0.03 0.02 0.01 0.00 0.01 0.01 0.02 0.05 0.04 0.13 0.18
0.01 0.00 0.00 0.00 0.00 0.01 0.00 0.01 0.10 0.18 0.10 0.01 0.02 0.13 0.07 0.02 0.00 0.00 0.00 0.00 0.00 0.00 0.00 0.00 0.00 0.00 0.00 0.00 0.00 0.00 0.04 0.02 0.01 0.08 0.12 0.11 0.03 0.01 0.02 0.04 0.09 0.22 0.22 0.18
0.01 0.00 0.00 0.02 0.05 0.01 0.00 0.00 0.04 0.07 0.20 0.14 0.08 0.10 0.16 0.07 0.00 0.00 0.00 0.00 0.00 0.00 0.00 0.00 0.00 0.01 0.00 0.00 0.01 0.01 0.02 0.01 0.02 0.06 0.05 0.12 0.12 0.09 0.04 0.03 0.09 0.15 0.17 0.13
0.01 0.02 0.01 0.01 0.04 0.06 0.04 0.01 0.03 0.11 0.26 0.11 0.06 0.04 0.23 0.15 0.04 0.00 0.00 0.00 0.00 0.00 0.00 0.02 0.04 0.09 0.15 0.13 0.07 0.03 0.01 0.01 0.01 0.00 0.01 0.02 0.04 0.08 0.10 0.08 0.11 0.08 0.04 0.03
0.02 0.05 0.04 0.02 0.00 0.01 0.03 0.04 0.04 0.13 0.11 0.13 0.03 0.04 0.11 0.18 0.23 0.09 0.00 0.00 0.00 0.00 0.00 0.01 0.02 0.03 0.10 0.20 0.18 0.13 0.09 0.05 0.04 0.01 0.01 0.04 0.06 0.06 0.09 0.12 0.13 0.12 0.09 0.13
0.00 0.06 0.07 0.02 0.00 0.00 0.00 0.02 0.03 0.05 0.05 0.07 0.05 0.07 0.10 0.12 0.14 0.15 0.03 0.00 0.00 0.00 0.00 0.00 0.00 0.00 0.00 0.01 0.05 0.07 0.08 0.09 0.07 0.07 0.04 0.03 0.05 0.06 0.07 0.08 0.09 0.12 0.16 0.20
0.02 0.02 0.10 0.13 0.02 0.00 0.00 0.00 0.01 0.03 0.07 0.07 0.11 0.09 0.09 0.15 0.16 0.05 0.02 0.00 0.00 0.00 0.00 0.00 0.00 0.00 0.00 0.00 0.00 0.00 0.00 0.00 0.01 0.04 0.06 0.06 0.08 0.08 0.06 0.11 0.11 0.11 0.17 0.21
0.02 0.02 0.09 0.13 0.08 0.08 0.00 0.00 0.00 0.01 0.06 0.12 0.09 0.09 0.06 0.16 0.21 0.01 0.00 0.00 0.00 0.00 0.00 0.00 0.00 0.00 0.00 0.00 0.00 0.00 0.00 0.00 0.00 0.00 0.00 0.02 0.08 0.09 0.09 0.09 0.10 0.14 0.21 0.16
0.01 0.01 0.08 0.10 0.13 0.08 0.01 0.00 0.00 0.03 0.10 0.10 0.11 0.18 0.15 0.06 0.10 0.02 0.00 0.00 0.00 0.00 0.00 0.00 0.00 0.00 0.00 0.00 0.00 0.00 0.00 0.00 0.00 0.00 0.00 0.01 0.03 0.07 0.13 0.11 0.09 0.09 0.13 0.16
0.01 0.01 0.05 0.07 0.13 0.08 0.01 0.00 0.00 0.03 0.16 0.10 0.03 0.05 0.08 0.04 0.02 0.03 0.00 0.00 0.00 0.00 0.00 0.00 0.00 0.00 0.00 0.00 0.00 0.00 0.00 0.00 0.01 0.03 0.03 0.04 0.05 0.07 0.10 0.15 0.14 0.16 0.15 0.17
0.03 0.03 0.05 0.05 0.09 0.02 0.00 0.00 0.00 0.07 0.17 0.04 0.01 0.02 0.00 0.00 0.00 0.00 0.00 0.00 0.00 0.00 0.00 0.00 0.00 0.00 0.00 0.00 0.00 0.00 0.00 0.00 0.01 0.02 0.03 0.06 0.08 0.06 0.07 0.08 0.08 0.11 0.17 0.18
0.05 0.05 0.04 0.04 0.06 0.02 0.03 0.09 0.12 0.10 0.04 0.03 0.01 0.03 0.03 0.00 0.00 0.00 0.00 0.00 0.00 0.00 0.00 0.00 0.00 0.00 0.00 0.00 0.00 0.00 0.00 0.00 0.02 0.04 0.06 0.04 0.06 0.06 0.06 0.08 0.13 0.12 0.11 0.12
0.31 0.09 0.05 0.03 0.01 0.09 0.08 0.10 0.07 0.05 0.07 0.09 0.01 0.01 0.01 0.01 0.00 0.00 0.00 0.00 0.00 0.00 0.00 0.00 0.00 0.00 0.00 0.00 0.00 0.01 0.01 0.03 0.05 0.04 0.03 0.06 0.04 0.07 0.09 0.12 0.15 0.15 0.16 0.19
0.16 0.08 0.14 0.11 0.04 0.20 0.31 0.08 0.01 0.01 0.02 0.04 0.01 0.00 0.00 0.01 0.01 0.00 0.00 0.00 0.00 0.00 0.00 0.00 0.00 0.00 0.02 0.01 0.02 0.05 0.09 0.11 0.12 0.14 0.14 0.11 0.11 0.13 0.09 0.09 0.11 0.12 0.17 0.26
0.47 0.24 0.16 0.18 0.45 0.36 0.21 0.07 0.02 0.02 0.01 0.00 0.00 0.00 0.00 0.01 0.01 0.01 0.01 0.01 0.01 0.01 0.01 0.01 0.01 0.01 0.04 0.04 0.07 0.09 0.09 0.09 0.10 0.11 0.12 0.15 0.17 0.16 0.19 0.23 0.28 0.27 0.39 0.44
0.67 0.60 0.29 0.33 1.07 0.83 0.42 0.16 0.07 0.05 0.02 0.01 0.01 0.01 0.01 0.00 0.01 0.02 0.03 0.03 0.04 0.04 0.03 0.02 0.01 0.03 0.07 0.11 0.18 0.24 0.27 0.28 0.31 0.34 0.34 0.34 0.32 0.38 0.43 0.47 0.54 0.66 0.70 0.72

GFSCGP_prec_precacc24_075.txt.gz
Total_Precipitation_Accumulation
0.00 0.00 0.00 0.00 0.00 0.00 0.00 0.00 0.00 0.00 0.00 0.00 0.00 0.00 0.00 0.00 0.00 0.00 0.00 0.00 0.00 0.00 0.00 0.00 0.00 0.00 0.00 0.00 0.01 0.03 0.22 0.44 0.23 0.21 0.16 0.19 0.19 0.19 0.18 0.22 0.36 0.49 0.37 0.12
0.02 0.01 0.00 0.00 0.00 0.00 0.00 0.00 0.00 0.00 0.00 0.00 0.00 0.00 0.00 0.00 0.00 0.00 0.00 0.00 0.00 0.00 0.00 0.00 0.00 0.00 0.00 0.00 0.00 0.01 0.16 0.28 0.32 0.26 0.17 0.10 0.14 0.23 0.15 0.12 0.18 0.25 0.19 0.14
0.02 0.00 0.00 0.01 0.00 0.00 0.00 0.00 0.00 0.00 0.00 0.00 0.00 0.00 0.00 0.00 0.00 0.00 0.00 0.00 0.00 0.00 0.00 0.00 0.00 0.00 0.00 0.00 0.00 0.01 0.03 0.07 0.13 0.27 0.24 0.21 0.20 0.21 0.28 0.18 0.16 0.21 0.12 0.09
0.07 0.00 0.02 0.00 0.00 0.00 0.00 0.00 0.00 0.00 0.00 0.00 0.00 0.00 0.00 0.00 0.00 0.00 0.00 0.00 0.00 0.00 0.00 0.00 0.00 0.00 0.00 0.00 0.00 0.00 0.02 0.02 0.01 0.05 0.08 0.12 0.14 0.09 0.04 0.05 0.07 0.23 0.14 0.14
0.08 0.03 0.04 0.02 0.00 0.00 0.00 0.00 0.00 0.00 0.00 0.00 0.00 0.00 0.00 0.00 0.00 0.00 0.00 0.00 0.00 0.00 0.00 0.00 0.00 0.00 0.00 0.00 0.00 0.00 0.01 0.02 0.01 0.01 0.00 0.01 0.04 0.05 0.02 0.02 0.03 0.12 0.24 0.12
0.00 0.02 0.06 0.03 0.00 0.00 0.00 0.02 0.00 0.00 0.00 0.01 0.00 0.00 0.00 0.00 0.00 0.00 0.00 0.00 0.00 0.00 0.00 0.00 0.00 0.00 0.00 0.00 0.00 0.00 0.00 0.01 0.01 0.01 0.00 0.00 0.00 0.02 0.03 0.02 0.02 0.02 0.10 0.14
0.00 0.00 0.00 0.00 0.00 0.00 0.01 0.06 0.07 0.05 0.02 0.01 0.00 0.00 0.00 0.00 0.00 0.00 0.00 0.00 0.00 0.00 0.00 0.00 0.00 0.00 0.00 0.00 0.00 0.00 0.00 0.00 0.01 0.01 0.00 0.00 0.00 0.00 0.00 0.00 0.01 0.00 0.00 0.01
0.02 0.02 0.00 0.00 0.00 0.00 0.00 0.03 0.09 0.07 0.02 0.00 0.00 0.00 0.00 0.00 0.00 0.00 0.00 0.00 0.00 0.00 0.00 0.00 0.00 0.00 0.00 0.00 0.00 0.00 0.00 0.00 0.00 0.01 0.01 0.00 0.00 0.00 0.00 0.00 0.00 0.00 0.00 0.00
0.00 0.00 0.00 0.00 0.00 0.02 0.06 0.05 0.03 0.18 0.06 0.02 0.00 0.00 0.00 0.00 0.00 0.00 0.00 0.00 0.00 0.00 0.00 0.00 0.00 0.00 0.00 0.00 0.00 0.00 0.00 0.00 0.00 0.00 0.00 0.01 0.00 0.00 0.00 0.00 0.00 0.00 0.00 0.00
0.00 0.00 0.00 0.00 0.00 0.00 0.02 0.04 0.19 0.33 0.15 0.05 0.00 0.01 0.00 0.00 0.00 0.00 0.00 0.00 0.00 0.00 0.00 0.00 0.00 0.00 0.00 0.00 0.01 0.02 0.01 0.00 0.00 0.00 0.00 0.00 0.00 0.00 0.00 0.00 0.00 0.00 0.00 0.00
0.00 0.00 0.00 0.00 0.00 0.00 0.02 0.15 0.18 0.11 0.03 0.06 0.05 0.09 0.01 0.01 0.00 0.00 0.00 0.00 0.00 0.00 0.00 0.00 0.00 0.00 0.00 0.00 0.01 0.02 0.05 0.03 0.01 0.00 0.00 0.00 0.00 0.01 0.01 0.00 0.00 0.00 0.00 0.01
0.01 0.00 0.00 0.00 0.00 0.01 0.00 0.01 0.12 0.27 0.14 0.02 0.06 0.18 0.08 0.05 0.03 0.00 0.00 0.00 0.00 0.00 0.00 0.00 0.00 0.00 0.00 0.00 0.00 0.00 0.02 0.00 0.01 0.04 0.03 0.03 0.01 0.00 0.01 0.00 0.00 0.00 0.01 0.01
0.01 0.00 0.00 0.02 0.05 0.01 0.01 0.00 0.04 0.10 0.29 0.19 0.14 0.14 0.29 0.14 0.05 0.01 0.00 0.01 0.00 0.00 0.00 0.00 0.00 0.01 0.00 0.02 0.03 0.02 0.01 0.01 0.01 0.04 0.03 0.05 0.06 0.05 0.01 0.00 0.00 0.00 0.01 0.02
0.01 0.02 0.01 0.01 0.04 0.07 0.04 0.02 0.05 0.16 0.37 0.14 0.08 0.05 0.49 0.45 0.23 0.06 0.00 0.00 0.02 0.01 0.01 0.02 0.05 0.11 0.17 0.19 0.14 0.08 0.05 0.05 0.03 0.01 0.01 0.01 0.02 0.06 0.08 0.06 0.03 0.03 0.02 0.02
0.01 0.05 0.04 0.02 0.00 0.01 0.03 0.04 0.06 0.18 0.14 0.15 0.04 0.04 0.17 0.44 0.55 0.31 0.06 0.00 0.00 0.01 0.02 0.05 0.07 0.09 0.17 0.27 0.27 0.21 0.14 0.08 0.06 0.03 0.03 0.04 0.03 0.05 0.05 0.07 0.11 0.11 0.07 0.07
0.00 0.04 0.07 0.02 0.00 0.00 0.00 0.02 0.04 0.06 0.07 0.09 0.06 0.07 0.14 0.31 0.35 0.51 0.21 0.05 0.01 0.00 0.00 0.00 0.00 0.01 0.01 0.03 0.08 0.08 0.09 0.10 0.08 0.08 0.04 0.03 0.02 0.03 0.05 0.04 0.06 0.07 0.09 0.12
0.01 0.00 0.06 0.11 0.02 0.00 0.00 0.00 0.01 0.04 0.08 0.08 0.12 0.11 0.12 0.26 0.34 0.26 0.32 0.16 0.03 0.01 0.00 0.00 0.00 0.00 0.00 0.00 0.00 0.00 0.00 0.00 0.01 0.04 0.06 0.06 0.05 0.03 0.02 0.06 0.07 0.07 0.12 0.15
0.01 0.01 0.05 0.06 0.05 0.05 0.00 0.00 0.00 0.01 0.06 0.12 0.10 0.12 0.21 0.20 0.29 0.11 0.15 0.22 0.14 0.03 0.00 0.00 0.00 0.00 0.00 0.00 0.00 0.00 0.00 0.00 0.00 0.00 0.00 0.01 0.05 0.05 0.02 0.02 0.06 0.10 0.13 0.12
0.00 0.01 0.07 0.06 0.07 0.03 0.00 0.00 0.01 0.04 0.11 0.12 0.12 0.28 0.31 0.11 0.13 0.10 0.10 0.08 0.06 0.05 0.02 0.00 0.00 0.00 0.00 0.00 0.00 0.00 0.00 0.00 0.00 0.00 0.00 0.00 0.01 0.04 0.10 0.07 0.05 0.06 0.12 0.15
0.00 0.01 0.05 0.06 0.10 0.04 0.00 0.00 0.00 0.03 0.16 0.13 0.07 0.15 0.17 0.14 0.10 0.17 0.17 0.05 0.00 0.00 0.00 0.00 0.00 0.00 0.00 0.00 0.00 0.00 0.00 0.00 0.00 0.00 0.00 0.01 0.03 0.02 0.05 0.09 0.09 0.13 0.14 0.15
0.03 0.03 0.04 0.05 0.08 0.01 0.00 0.00 0.00 0.09 0.17 0.05 0.08 0.05 0.06 0.04 0.08 0.13 0.11 0.02 0.00 0.00 0.00 0.00 0.00 0.00 0.00 0.00 0.00 0.00 0.00 0.00 0.00 0.00 0.01 0.03 0.07 0.04 0.05 0.07 0.07 0.10 0.16 0.17
0.05 0.04 0.04 0.04 0.06 0.02 0.00 0.01 0.06 0.10 0.06 0.07 0.09 0.06 0.05 0.11 0.07 0.02 0.00 0.00 0.00 0.00 0.00 0.00 0.00 0.00 0.00 0.00 0.00 0.00 0.00 0.00 0.02 0.04 0.06 0.04 0.06 0.06 0.06 0.08 0.12 0.12 0.11 0.12
0.32 0.09 0.04 0.01 0.01 0.09 0.07 0.06 0.04 0.03 0.08 0.21 0.19 0.32 0.12 0.10 0.10 0.07 0.00 0.00 0.00 0.00 0.00 0.00 0.00 0.00 0.00 0.00 0.00 0.01 0.01 0.03 0.05 0.04 0.03 0.06 0.04 0.07 0.09 0.12 0.15 0.15 0.16 0.19
0.16 0.09 0.20 0.15 0.05 0.20 0.31 0.08 0.03 0.01 0.02 0.11 0.38 0.27 0.23 0.09 0.03 0.01 0.00 0.00 0.00 0.00 0.00 0.00 0.00 0.00 0.03 0.01 0.02 0.06 0.09 0.11 0.12 0.14 0.14 0.11 0.11 0.13 0.09 0.09 0.11 0.12 0.17 0.26
0.48 0.23 0.16 0.23 0.49 0.36 0.21 0.08 0.09 0.10 0.02 0.01 0.01 0.01 0.00 0.00 0.00 0.00 0.01 0.01 0.01 0.01 0.01 0.01 0.01 0.01 0.05 0.04 0.07 0.10 0.09 0.09 0.10 0.11 0.12 0.15 0.17 0.17 0.19 0.24 0.29 0.28 0.41 0.45
0.72 0.67 0.33 0.42 1.12 0.89 0.42 0.16 0.25 0.27 0.12 0.03 0.02 0.01 0.01 0.00 0.00 0.02 0.03 0.03 0.04 0.04 0.04 0.02 0.02 0.03 0.08 0.12 0.18 0.25 0.27 0.28 0.31 0.34 0.34 0.34 0.32 0.38 0.43 0.47 0.55 0.66 0.71 0.72

GFSCGP_prec_precacc24_078.txt.gz
Total_Precipitation_Accumulation
0.00 0.00 0.00 0.00 0.00 0.00 0.00 0.00 0.00 0.00 0.00 0.00 0.00 0.00 0.00 0.00 0.00 0.00 0.00 0.00 0.00 0.00 0.00 0.00 0.00 0.00 0.00 0.00 0.01 0.02 0.10 0.14 0.12 0.08 0.11 0.11 0.13 0.18 0.19 0.25 0.46 0.74 0.64 0.38
0.02 0.01 0.00 0.00 0.00 0.00 0.00 0.00 0.00 0.00 0.00 0.00 0.00 0.00 0.00 0.00 0.00 0.00 0.00 0.00 0.00 0.00 0.00 0.00 0.00 0.00 0.00 0.00 0.00 0.01 0.13 0.18 0.27 0.20 0.15 0.08 0.11 0.21 0.12 0.14 0.24 0.56 0.66 0.52
0.02 0.00 0.00 0.01 0.00 0.00 0.00 0.00 0.00 0.00 0.00 0.00 0.00 0.00 0.00 0.00 0.00 0.00 0.00 0.00 0.00 0.00 0.00 0.00 0.00 0.00 0.00 0.00 0.00 0.01 0.03 0.06 0.12 0.27 0.23 0.17 0.15 0.19 0.29 0.21 0.18 0.30 0.39 0.38
0.07 0.00 0.02 0.00 0.00 0.00 0.00 0.00 0.00 0.00 0.00 0.00 0.00 0.00 0.00 0.00 0.00 0.00 0.00 0.00 0.00 0.00 0.00 0.00 0.00 0.00 0.00 0.00 0.00 0.00 0.02 0.02 0.01 0.05 0.08 0.10 0.08 0.06 0.04 0.07 0.09 0.23 0.19 0.23
0.08 0.03 0.04 0.02 0.00 0.00 0.00 0.00 0.00 0.00 0.00 0.00 0.00 0.00 0.00 0.00 0.00 0.00 0.00 0.00 0.00 0.00 0.00 0.00 0.00 0.00 0.00 0.00 0.00 0.00 0.01 0.02 0.01 0.01 0.00 0.01 0.03 0.05 0.03 0.03 0.06 0.14 0.27 0.16
0.00 0.02 0.06 0.03 0.00 0.00 0.00 0.02 0.00 0.00 0.01 0.04 0.00 0.00 0.00 0.00 0.00 0.00 0.00 0.00 0.00 0.00 0.00 0.00 0.00 0.00 0.00 0.00 0.00 0.00 0.00 0.01 0.01 0.01 0.00 0.00 0.00 0.02 0.03 0.02 0.02 0.03 0.15 0.24
0.00 0.00 0.00 0.00 0.00 0.00 0.01 0.07 0.08 0.07 0.05 0.02 0.00 0.00 0.00 0.00 0.00 0.00 0.00 0.00 0.00 0.00 0.00 0.00 0.00 0.00 0.00 0.00 0.00 0.00 0.00 0.00 0.01 0.01 0.00 0.00 0.00 0.00 0.00 0.00 0.01 0.01 0.02 0.11
0.02 0.02 0.00 0.00 0.00 0.00 0.01 0.04 0.09 0.09 0.03 0.00 0.00 0.00 0.00 0.00 0.00 0.00 0.00 0.00 0.00 0.00 0.00 0.00 0.00 0.00 0.00 0.00 0.00 0.00 0.00 0.00 0.00 0.01 0.01 0.00 0.00 0.00 0.00 0.00 0.00 0.00 0.01 0.03
0.00 0.00 0.00 0.00 0.00 0.02 0.07 0.07 0.04 0.23 0.09 0.03 0.00 0.00 0.00 0.00 0.00 0.00 0.00 0.00 0.00 0.00 0.00 0.00 0.00 0.00 0.00 0.00 0.00 0.00 0.00 0.00 0.00 0.00 0.01 0.01 0.00 0.00 0.00 0.00 0.00 0.00 0.00 0.01
0.00 0.00 0.00 0.00 0.00 0.00 0.03 0.05 0.21 0.38 0.18 0.07 0.00 0.01 0.01 0.00 0.00 0.00 0.00 0.00 0.00 0.00 0.00 0.00 0.00 0.00 0.00 0.00 0.00 0.00 0.00 0.00 0.00 0.00 0.00 0.01 0.01 0.00 0.00 0.00 0.00 0.00 0.00 0.00
0.00 0.00 0.00 0.00 0.00 0.00 0.02 0.16 0.19 0.14 0.04 0.07 0.05 0.10 0.02 0.01 0.01 0.00 0.00 0.00 0.00 0.00 0.00 0.00 0.00 0.00 0.00 0.00 0.00 0.01 0.03 0.01 0.01 0.00 0.00 0.01 0.00 0.01 0.01 0.00 0.00 0.00 0.00 0.00
0.01 0.00 0.00 0.00 0.00 0.01 0.01 0.02 0.13 0.33 0.17 0.04 0.07 0.20 0.12 0.07 0.03 0.00 0.00 0.00 0.00 0.00 0.00 0.00 0.00 0.00 0.00 0.00 0.02 0.03 0.02 0.00 0.00 0.01 0.01 0.00 0.00 0.00 0.01 0.00 0.00 0.00 0.00 0.00
0.01 0.00 0.00 0.02 0.06 0.02 0.03 0.02 0.05 0.12 0.34 0.23 0.18 0.15 0.36 0.23 0.05 0.01 0.00 0.01 0.00 0.00 0.00 0.00 0.00 0.01 0.00 0.02 0.04 0.04 0.04 0.01 0.00 0.01 0.00 0.00 0.00 0.00 0.00 0.00 0.00 0.00 0.00 0.00
0.01 0.02 0.01 0.01 0.04 0.08 0.05 0.02 0.07 0.27 0.47 0.17 0.09 0.06 0.57 0.65 0.35 0.09 0.04 0.04 0.04 0.02 0.01 0.02 0.05 0.11 0.17 0.20 0.16 0.12 0.11 0.10 0.05 0.01 0.01 0.01 0.00 0.00 0.00 0.02 0.02 0.00 0.00 0.00
0.01 0.05 0.04 0.02 0.00 0.01 0.03 0.04 0.06 0.22 0.22 0.24 0.05 0.05 0.20 0.51 0.68 0.51 0.17 0.03 0.03 0.03 0.04 0.07 0.08 0.12 0.21 0.32 0.31 0.27 0.21 0.14 0.09 0.04 0.04 0.05 0.05 0.05 0.02 0.02 0.01 0.02 0.01 0.01
0.00 0.04 0.07 0.02 0.00 0.00 0.00 0.02 0.04 0.06 0.07 0.09 0.06 0.07 0.15 0.38 0.42 0.66 0.46 0.14 0.02 0.01 0.00 0.00 0.01 0.03 0.05 0.07 0.11 0.10 0.10 0.10 0.08 0.08 0.05 0.04 0.03 0.04 0.04 0.04 0.02 0.01 0.03 0.06
0.01 0.00 0.06 0.11 0.02 0.00 0.00 0.00 0.01 0.04 0.08 0.08 0.12 0.11 0.13 0.29 0.39 0.36 0.50 0.35 0.14 0.03 0.00 0.00 0.00 0.00 0.00 0.00 0.00 0.02 0.03 0.02 0.02 0.04 0.06 0.06 0.05 0.02 0.02 0.03 0.04 0.04 0.05 0.05
0.00 0.01 0.05 0.06 0.05 0.04 0.00 0.00 0.00 0.01 0.06 0.12 0.10 0.13 0.24 0.22 0.33 0.19 0.28 0.38 0.27 0.14 0.04 0.00 0.00 0.00 0.00 0.00 0.00 0.00 0.01 0.01 0.00 0.00 0.00 0.01 0.05 0.05 0.02 0.00 0.00 0.01 0.03 0.04
0.00 0.01 0.07 0.06 0.07 0.03 0.00 0.00 0.01 0.04 0.12 0.12 0.13 0.29 0.31 0.12 0.16 0.19 0.20 0.20 0.23 0.20 0.14 0.07 0.01 0.00 0.00 0.00 0.00 0.00 0.00 0.00 0.00 0.00 0.00 0.00 0.01 0.04 0.09 0.04 0.01 0.01 0.04 0.07
0.00 0.00 0.05 0.06 0.09 0.04 0.00 0.00 0.00 0.03 0.16 0.13 0.09 0.16 0.20 0.20 0.27 0.35 0.31 0.16 0.09 0.07 0.06 0.07 0.06 0.02 0.00 0.00 0.00 0.00 0.00 0.00 0.00 0.00 0.00 0.00 0.02 0.01 0.04 0.06 0.06 0.10 0.10 0.12
0.02 0.02 0.04 0.04 0.07 0.01 0.00 0.00 0.00 0.09 0.17 0.05 0.09 0.10 0.22 0.30 0.35 0.46 0.31 0.11 0.02 0.00 0.00 0.00 0.00 0.00 0.00 0.00 0.00 0.00 0.00 0.00 0.00 0.00 0.00 0.02 0.06 0.04 0.04 0.06 0.06 0.09 0.14 0.14
0.05 0.04 0.04 0.04 0.06 0.02 0.00 0.01 0.05 0.10 0.06 0.07 0.13 0.16 0.13 0.22 0.28 0.32 0.09 0.04 0.00 0.00 0.00 0.00 0.00 0.00 0.00 0.00 0.00 0.00 0.00 0.00 0.00 0.01 0.03 0.03 0.06 0.06 0.06 0.06 0.10 0.09 0.08 0.09
0.33 0.10 0.05 0.01 0.01 0.09 0.07 0.06 0.04 0.03 0.08 0.21 0.29 0.61 0.38 0.32 0.43 0.40 0.13 0.02 0.00 0.00 0.00 0.00 0.00 0.00 0.00 0.00 0.00 0.00 0.00 0.01 0.02 0.03 0.03 0.06 0.04 0.07 0.08 0.09 0.12 0.11 0.12 0.16
0.20 0.10 0.20 0.16 0.06 0.20 0.31 0.08 0.03 0.01 0.03 0.13 0.47 0.74 0.99 0.64 0.37 0.16 0.05 0.00 0.00 0.00 0.00 0.00 0.00 0.01 0.03 0.02 0.02 0.05 0.06 0.07 0.11 0.14 0.14 0.11 0.11 0.13 0.08 0.08 0.09 0.11 0.17 0.26
0.50 0.23 0.16 0.24 0.50 0.37 0.22 0.08 0.09 0.13 0.08 0.06 0.05 0.09 0.11 0.06 0.02 0.01 0.01 0.01 0.01 0.00 0.00 0.01 0.01 0.02 0.05 0.05 0.06 0.08 0.07 0.08 0.10 0.11 0.12 0.16 0.17 0.17 0.19 0.25 0.30 0.29 0.42 0.45
0.75 0.69 0.35 0.44 1.17 0.94 0.45 0.17 0.25 0.34 0.33 0.16 0.05 0.05 0.03 0.01 0.00 0.02 0.03 0.03 0.04 0.05 0.03 0.02 0.02 0.03 0.08 0.12 0.18 0.25 0.27 0.28 0.31 0.34 0.34 0.34 0.33 0.38 0.43 0.47 0.55 0.67 0.71 0.72

GFSCGP_prec_precacc24_081.txt.gz
Total_Precipitation_Accumulation
0.00 0.00 0.00 0.00 0.00 0.00 0.00 0.00 0.00 0.00 0.00 0.00 0.00 0.00 0.00 0.00 0.00 0.00 0.00 0.00 0.00 0.00 0.00 0.00 0.00 0.00 0.00 0.00 0.01 0.02 0.04 0.03 0.02 0.03 0.02 0.04 0.04 0.16 0.19 0.25 0.47 0.75 0.67 0.44
0.02 0.01 0.00 0.00 0.00 0.00 0.00 0.00 0.00 0.00 0.00 0.00 0.00 0.00 0.00 0.00 0.00 0.00 0.00 0.00 0.00 0.00 0.00 0.00 0.00 0.00 0.00 0.00 0.00 0.01 0.08 0.10 0.17 0.05 0.02 0.02 0.03 0.09 0.11 0.13 0.24 0.59 0.76 0.70
0.02 0.00 0.00 0.01 0.00 0.00 0.00 0.00 0.00 0.00 0.00 0.00 0.00 0.00 0.00 0.00 0.00 0.00 0.00 0.00 0.00 0.00 0.00 0.00 0.00 0.00 0.00 0.00 0.00 0.01 0.02 0.06 0.11 0.19 0.10 0.10 0.09 0.14 0.25 0.19 0.18 0.33 0.60 0.79
0.07 0.00 0.02 0.00 0.00 0.00 0.00 0.00 0.00 0.00 0.00 0.00 0.00 0.00 0.00 0.00 0.00 0.00 0.00 0.00 0.00 0.00 0.00 0.00 0.00 0.00 0.00 0.00 0.00 0.00 0.02 0.02 0.01 0.04 0.06 0.05 0.03 0.04 0.05 0.08 0.09 0.24 0.28 0.48
0.08 0.03 0.04 0.02 0.00 0.00 0.00 0.00 0.00 0.00 0.00 0.01 0.00 0.00 0.00 0.00 0.00 0.00 0.00 0.00 0.00 0.00 0.00 0.00 0.00 0.00 0.00 0.00 0.00 0.00 0.01 0.02 0.01 0.01 0.00 0.01 0.02 0.02 0.03 0.05 0.09 0.16 0.29 0.20
0.00 0.02 0.06 0.03 0.00 0.00 0.00 0.02 0.00 0.00 0.01 0.04 0.00 0.00 0.00 0.00 0.00 0.00 0.00 0.00 0.00 0.00 0.00 0.00 0.00 0.00 0.00 0.00 0.00 0.00 0.00 0.01 0.02 0.01 0.00 0.00 0.00 0.02 0.03 0.03 0.04 0.07 0.21 0.27
0.00 0.00 0.00 0.00 0.00 0.00 0.01 0.08 0.08 0.07 0.06 0.03 0.00 0.00 0.00 0.00 0.00 0.00 0.00 0.00 0.00 0.00 0.00 0.00 0.00 0.00 0.00 0.00 0.00 0.00 0.00 0.00 0.01 0.02 0.01 0.00 0.00 0.00 0.00 0.01 0.01 0.01 0.04 0.18
0.02 0.02 0.00 0.00 0.00 0.00 0.01 0.04 0.09 0.10 0.04 0.00 0.00 0.00 0.00 0.00 0.00 0.00 0.00 0.00 0.00 0.00 0.00 0.00 0.00 0.00 0.00 0.00 0.00 0.00 0.00 0.00 0.01 0.02 0.01 0.00 0.00 0.00 0.00 0.00 0.00 0.00 0.01 0.04
0.00 0.00 0.00 0.00 0.00 0.02 0.07 0.08 0.05 0.25 0.10 0.04 0.00 0.00 0.00 0.00 0.00 0.00 0.00 0.00 0.00 0.00 0.00 0.00 0.00 0.00 0.00 0.00 0.00 0.00 0.00 0.00 0.00 0.00 0.01 0.01 0.00 0.00 0.00 0.00 0.00 0.00 0.01 0.01
0.00 0.00 0.00 0.00 0.00 0.00 0.03 0.06 0.24 0.40 0.20 0.08 0.00 0.01 0.01 0.00 0.00 0.00 0.00 0.00 0.00 0.00 0.00 0.00 0.00 0.00 0.00 0.00 0.00 0.00 0.01 0.00 0.00 0.00 0.01 0.01 0.01 0.00 0.00 0.00 0.00 0.00 0.00 0.00
0.00 0.00 0.00 0.00 0.00 0.00 0.03 0.18 0.20 0.17 0.06 0.07 0.05 0.11 0.04 0.02 0.03 0.01 0.00 0.00 0.00 0.00 0.00 0.00 0.00 0.00 0.00 0.00 0.00 0.02 0.03 0.01 0.00 0.00 0.00 0.01 0.01 0.01 0.01 0.00 0.00 0.00 0.00 0.00
0.01 0.00 0.00 0.00 0.00 0.01 0.02 0.04 0.13 0.35 0.21 0.08 0.08 0.20 0.15 0.09 0.06 0.03 0.00 0.00 0.01 0.01 0.01 0.01 0.00 0.00 0.01 0.01 0.02 0.04 0.05 0.01 0.00 0.00 0.00 0.00 0.00 0.01 0.01 0.00 0.00 0.00 0.00 0.00
0.01 0.01 0.01 0.03 0.07 0.03 0.05 0.04 0.07 0.13 0.37 0.24 0.19 0.16 0.41 0.30 0.19 0.05 0.02 0.02 0.02 0.02 0.01 0.01 0.02 0.03 0.03 0.05 0.05 0.05 0.05 0.02 0.00 0.00 0.01 0.00 0.00 0.00 0.00 0.00 0.00 0.00 0.00 0.00
0.03 0.03 0.01 0.02 0.05 0.08 0.05 0.02 0.07 0.32 0.60 0.26 0.10 0.06 0.58 0.68 0.43 0.14 0.07 0.05 0.06 0.05 0.04 0.04 0.06 0.13 0.21 0.24 0.20 0.17 0.16 0.14 0.06 0.02 0.01 0.01 0.01 0.01 0.00 0.00 0.00 0.00 0.00 0.00
0.05 0.09 0.05 0.02 0.00 0.01 0.03 0.04 0.06 0.22 0.22 0.25 0.05 0.05 0.20 0.52 0.70 0.56 0.24 0.11 0.09 0.08 0.08 0.09 0.11 0.14 0.24 0.35 0.36 0.32 0.26 0.19 0.11 0.06 0.05 0.05 0.05 0.05 0.02 0.02 0.00 0.00 0.00 0.00
0.05 0.09 0.08 0.02 0.00 0.00 0.00 0.02 0.04 0.06 0.07 0.09 0.06 0.07 0.15 0.38 0.42 0.66 0.51 0.27 0.14 0.11 0.06 0.03 0.04 0.06 0.06 0.09 0.14 0.13 0.12 0.12 0.09 0.09 0.06 0.04 0.03 0.04 0.04 0.04 0.02 0.03 0.03 0.03
0.03 0.02 0.07 0.11 0.02 0.00 0.00 0.00 0.01 0.04 0.08 0.08 0.12 0.11 0.13 0.30 0.41 0.37 0.52 0.44 0.32 0.13 0.07 0.05 0.03 0.03 0.01 0.00 0.01 0.03 0.04 0.03 0.03 0.05 0.08 0.07 0.05 0.03 0.02 0.03 0.04 0.06 0.06 0.05
0.02 0.02 0.05 0.06 0.05 0.04 0.00 0.00 0.00 0.01 0.06 0.12 0.10 0.13 0.25 0.23 0.38 0.23 0.31 0.45 0.45 0.30 0.07 0.02 0.02 0.02 0.02 0.00 0.00 0.01 0.04 0.09 0.12 0.08 0.03 0.02 0.05 0.05 0.02 0.00 0.00 0.01 0.03 0.04
0.00 0.01 0.07 0.06 0.07 0.03 0.00 0.00 0.01 0.04 0.12 0.14 0.16 0.30 0.31 0.14 0.22 0.25 0.23 0.24 0.32 0.34 0.31 0.14 0.02 0.00 0.00 0.00 0.00 0.00 0.00 0.00 0.04 0.04 0.03 0.00 0.01 0.03 0.08 0.04 0.01 0.01 0.02 0.03
0.00 0.00 0.03 0.04 0.09 0.04 0.00 0.00 0.00 0.03 0.16 0.14 0.11 0.17 0.21 0.25 0.37 0.48 0.43 0.24 0.19 0.18 0.21 0.23 0.18 0.04 0.01 0.00 0.00 0.00 0.00 0.00 0.00 0.00 0.00 0.00 0.00 0.00 0.03 0.05 0.05 0.08 0.08 0.09
0.02 0.02 0.02 0.02 0.05 0.01 0.00 0.00 0.00 0.09 0.18 0.05 0.09 0.10 0.23 0.41 0.52 0.74 0.58 0.35 0.14 0.06 0.03 0.02 0.03 0.07 0.06 0.02 0.00 0.00 0.00 0.00 0.00 0.00 0.00 0.00 0.00 0.00 0.01 0.03 0.05 0.07 0.13 0.13
0.05 0.04 0.03 0.03 0.05 0.02 0.00 0.01 0.05 0.10 0.07 0.07 0.13 0.18 0.21 0.50 0.63 0.68 0.41 0.18 0.01 0.00 0.00 0.00 0.00 0.00 0.00 0.01 0.01 0.01 0.00 0.00 0.00 0.00 0.00 0.00 0.00 0.01 0.03 0.05 0.08 0.08 0.08 0.09
0.33 0.10 0.05 0.01 0.01 0.09 0.07 0.06 0.04 0.04 0.08 0.21 0.30 0.68 0.62 0.67 0.86 0.84 0.46 0.17 0.03 0.00 0.00 0.00 0.00 0.00 0.00 0.00 0.00 0.01 0.01 0.01 0.02 0.02 0.01 0.03 0.02 0.04 0.06 0.09 0.12 0.10 0.10 0.13
0.21 0.11 0.22 0.16 0.06 0.20 0.31 0.08 0.03 0.02 0.04 0.14 0.50 0.85 1.26 1.07 0.88 0.54 0.20 0.04 0.00 0.00 0.00 0.00 0.00 0.01 0.03 0.02 0.03 0.05 0.06 0.07 0.09 0.11 0.12 0.11 0.11 0.13 0.08 0.07 0.08 0.09 0.14 0.21
0.51 0.24 0.16 0.24 0.51 0.38 0.22 0.09 0.11 0.16 0.09 0.09 0.15 0.25 0.29 0.24 0.14 0.09 0.02 0.00 0.01 0.01 0.01 0.01 0.01 0.02 0.04 0.04 0.06 0.08 0.07 0.08 0.09 0.10 0.12 0.16 0.17 0.17 0.20 0.25 0.29 0.27 0.40 0.42
0.78 0.71 0.36 0.46 1.19 0.99 0.50 0.24 0.31 0.38 0.38 0.25 0.17 0.16 0.17 0.09 0.06 0.04 0.03 0.02 0.02 0.03 0.03 0.01 0.02 0.03 0.07 0.11 0.18 0.25 0.27 0.28 0.31 0.34 0.34 0.34 0.33 0.38 0.43 0.47 0.56 0.67 0.71 0.71

GFSCGP_prec_precacc24_084.txt.gz
Total_Precipitation_Accumulation
0.00 0.00 0.00 0.00 0.00 0.00 0.00 0.00 0.00 0.00 0.00 0.00 0.00 0.00 0.00 0.00 0.00 0.00 0.00 0.00 0.00 0.00 0.00 0.00 0.00 0.00 0.00 0.00 0.01 0.01 0.02 0.01 0.00 0.01 0.02 0.03 0.04 0.16 0.17 0.24 0.45 0.74 0.67 0.46
0.02 0.01 0.00 0.00 0.00 0.00 0.00 0.00 0.00 0.00 0.00 0.00 0.00 0.00 0.00 0.00 0.00 0.00 0.00 0.00 0.00 0.00 0.00 0.00 0.00 0.00 0.00 0.00 0.00 0.01 0.02 0.02 0.09 0.03 0.02 0.01 0.02 0.08 0.10 0.14 0.25 0.60 0.77 0.72
0.02 0.00 0.00 0.01 0.00 0.00 0.00 0.00 0.00 0.00 0.00 0.00 0.00 0.00 0.00 0.00 0.00 0.00 0.00 0.00 0.00 0.00 0.00 0.00 0.00 0.00 0.00 0.00 0.00 0.01 0.02 0.02 0.07 0.17 0.05 0.05 0.06 0.09 0.17 0.18 0.19 0.34 0.62 0.89
0.07 0.00 0.02 0.00 0.00 0.00 0.00 0.00 0.00 0.00 0.00 0.00 0.00 0.00 0.00 0.00 0.00 0.00 0.00 0.00 0.00 0.00 0.00 0.00 0.00 0.00 0.00 0.00 0.00 0.00 0.01 0.02 0.01 0.04 0.02 0.01 0.01 0.03 0.04 0.07 0.09 0.25 0.28 0.59
0.08 0.03 0.04 0.02 0.00 0.00 0.00 0.00 0.00 0.00 0.00 0.01 0.00 0.00 0.00 0.00 0.00 0.00 0.00 0.00 0.00 0.00 0.00 0.00 0.00 0.00 0.00 0.00 0.00 0.00 0.00 0.01 0.01 0.01 0.00 0.00 0.01 0.01 0.02 0.05 0.08 0.16 0.29 0.22
0.00 0.02 0.06 0.03 0.00 0.00 0.00 0.02 0.00 0.00 0.01 0.05 0.00 0.00 0.00 0.00 0.00 0.00 0.00 0.00 0.00 0.00 0.00 0.00 0.00 0.00 0.00 0.00 0.00 0.00 0.00 0.01 0.01 0.01 0.00 0.00 0.00 0.02 0.02 0.03 0.04 0.08 0.22 0.28
0.00 0.00 0.00 0.00 0.00 0.00 0.01 0.08 0.08 0.08 0.07 0.03 0.00 0.00 0.00 0.00 0.00 0.00 0.00 0.00 0.00 0.00 0.00 0.00 0.00 0.00 0.00 0.00 0.00 0.00 0.00 0.00 0.01 0.02 0.01 0.00 0.00 0.00 0.00 0.01 0.01 0.03 0.08 0.22
0.01 0.01 0.00 0.00 0.00 0.00 0.01 0.04 0.09 0.10 0.04 0.00 0.00 0.00 0.00 0.00 0.00 0.00 0.00 0.00 0.00 0.00 0.00 0.00 0.00 0.00 0.00 0.00 0.00 0.01 0.00 0.00 0.01 0.02 0.01 0.00 0.00 0.00 0.00 0.00 0.00 0.00 0.01 0.05
0.00 0.00 0.00 0.00 0.00 0.02 0.07 0.08 0.05 0.25 0.10 0.05 0.00 0.00 0.00 0.00 0.00 0.00 0.00 0.00 0.00 0.00 0.00 0.00 0.00 0.00 0.00 0.00 0.00 0.00 0.00 0.00 0.00 0.01 0.01 0.01 0.00 0.00 0.00 0.00 0.00 0.00 0.01 0.02
0.00 0.00 0.00 0.00 0.01 0.01 0.04 0.07 0.25 0.41 0.21 0.08 0.01 0.02 0.02 0.00 0.00 0.00 0.00 0.00 0.00 0.00 0.00 0.00 0.00 0.00 0.00 0.00 0.00 0.00 0.01 0.00 0.01 0.00 0.01 0.01 0.01 0.01 0.00 0.00 0.00 0.00 0.00 0.01
0.00 0.00 0.03 0.04 0.02 0.01 0.04 0.20 0.21 0.19 0.07 0.09 0.05 0.13 0.06 0.02 0.03 0.01 0.00 0.00 0.01 0.00 0.00 0.00 0.00 0.00 0.00 0.00 0.01 0.02 0.03 0.02 0.02 0.01 0.00 0.01 0.01 0.01 0.01 0.00 0.00 0.00 0.00 0.00
0.01 0.02 0.01 0.02 0.03 0.01 0.03 0.05 0.15 0.37 0.23 0.11 0.11 0.22 0.20 0.14 0.10 0.03 0.00 0.00 0.02 0.02 0.02 0.02 0.01 0.01 0.01 0.01 0.03 0.05 0.05 0.04 0.03 0.01 0.00 0.00 0.00 0.01 0.01 0.00 0.00 0.00 0.00 0.00
0.09 0.04 0.03 0.06 0.11 0.06 0.07 0.06 0.09 0.15 0.39 0.26 0.22 0.18 0.47 0.32 0.19 0.06 0.02 0.02 0.03 0.04 0.04 0.03 0.03 0.05 0.05 0.06 0.06 0.06 0.07 0.05 0.01 0.00 0.00 0.00 0.00 0.00 0.00 0.00 0.00 0.00 0.00 0.00
0.16 0.06 0.03 0.04 0.07 0.09 0.05 0.03 0.07 0.32 0.61 0.28 0.12 0.06 0.58 0.68 0.43 0.15 0.08 0.06 0.06 0.07 0.07 0.06 0.08 0.15 0.23 0.27 0.23 0.21 0.19 0.16 0.09 0.03 0.01 0.01 0.01 0.01 0.00 0.00 0.01 0.00 0.00 0.00
0.16 0.15 0.06 0.02 0.00 0.01 0.03 0.04 0.06 0.22 0.22 0.25 0.05 0.05 0.20 0.52 0.70 0.56 0.25 0.12 0.10 0.11 0.14 0.14 0.15 0.17 0.27 0.38 0.40 0.37 0.32 0.23 0.14 0.07 0.05 0.05 0.05 0.05 0.03 0.02 0.01 0.01 0.00 0.00
0.17 0.20 0.19 0.05 0.00 0.00 0.00 0.02 0.04 0.06 0.07 0.09 0.06 0.07 0.15 0.38 0.43 0.66 0.52 0.31 0.17 0.14 0.13 0.10 0.07 0.10 0.11 0.13 0.18 0.19 0.16 0.14 0.11 0.10 0.06 0.04 0.03 0.04 0.04 0.04 0.03 0.03 0.03 0.04
0.15 0.05 0.09 0.13 0.02 0.00 0.00 0.00 0.01 0.04 0.08 0.08 0.12 0.11 0.13 0.30 0.43 0.39 0.53 0.47 0.45 0.22 0.15 0.15 0.08 0.09 0.05 0.05 0.05 0.06 0.06 0.05 0.05 0.05 0.08 0.07 0.06 0.03 0.02 0.03 0.05 0.07 0.07 0.06
0.09 0.04 0.05 0.06 0.05 0.04 0.00 0.00 0.00 0.01 0.06 0.13 0.11 0.15 0.26 0.24 0.39 0.29 0.36 0.53 0.62 0.67 0.22 0.14 0.13 0.10 0.10 0.07 0.04 0.05 0.07 0.11 0.14 0.09 0.04 0.03 0.06 0.05 0.02 0.01 0.01 0.02 0.04 0.05
0.01 0.03 0.06 0.05 0.07 0.03 0.00 0.00 0.01 0.04 0.12 0.15 0.16 0.31 0.31 0.15 0.25 0.32 0.31 0.35 0.42 0.70 0.78 0.34 0.10 0.06 0.06 0.06 0.07 0.10 0.11 0.11 0.11 0.17 0.19 0.14 0.06 0.05 0.09 0.04 0.01 0.01 0.01 0.04
0.00 0.01 0.03 0.03 0.08 0.04 0.00 0.00 0.00 0.03 0.16 0.14 0.11 0.17 0.21 0.26 0.43 0.63 0.57 0.32 0.26 0.33 0.41 0.67 0.40 0.09 0.03 0.02 0.01 0.03 0.03 0.04 0.13 0.15 0.11 0.12 0.15 0.08 0.04 0.05 0.05 0.07 0.06 0.07
0.01 0.02 0.02 0.02 0.05 0.01 0.00 0.00 0.00 0.09 0.18 0.05 0.09 0.10 0.24 0.42 0.57 0.94 0.79 0.56 0.34 0.25 0.13 0.14 0.30 0.30 0.16 0.04 0.01 0.01 0.01 0.01 0.01 0.04 0.03 0.00 0.01 0.01 0.01 0.03 0.04 0.06 0.11 0.13
0.06 0.05 0.03 0.03 0.05 0.02 0.00 0.01 0.05 0.10 0.07 0.07 0.13 0.18 0.21 0.55 0.77 0.92 0.71 0.44 0.16 0.05 0.01 0.00 0.00 0.01 0.04 0.06 0.04 0.03 0.01 0.00 0.00 0.00 0.00 0.00 0.00 0.00 0.02 0.04 0.06 0.06 0.06 0.08
0.35 0.11 0.08 0.02 0.01 0.10 0.07 0.06 0.04 0.04 0.08 0.22 0.30 0.69 0.65 0.83 1.10 1.07 0.70 0.33 0.12 0.04 0.01 0.00 0.00 0.00 0.00 0.00 0.00 0.02 0.03 0.02 0.02 0.02 0.01 0.00 0.00 0.00 0.02 0.06 0.10 0.09 0.09 0.13
0.22 0.12 0.25 0.18 0.08 0.21 0.32 0.08 0.03 0.02 0.05 0.15 0.51 0.88 1.35 1.22 1.10 0.80 0.42 0.18 0.07 0.02 0.00 0.00 0.00 0.00 0.01 0.01 0.02 0.04 0.04 0.05 0.07 0.08 0.09 0.07 0.08 0.10 0.08 0.07 0.08 0.10 0.14 0.20
0.51 0.24 0.17 0.24 0.52 0.39 0.23 0.10 0.12 0.17 0.11 0.12 0.21 0.37 0.42 0.38 0.28 0.20 0.08 0.02 0.01 0.00 0.00 0.00 0.00 0.01 0.04 0.03 0.05 0.07 0.06 0.07 0.08 0.09 0.10 0.15 0.17 0.17 0.20 0.25 0.28 0.26 0.38 0.38
0.79 0.73 0.36 0.47 1.20 1.00 0.50 0.24 0.31 0.39 0.40 0.28 0.23 0.26 0.28 0.19 0.15 0.09 0.06 0.05 0.03 0.02 0.02 0.01 0.01 0.01 0.04 0.08 0.14 0.21 0.26 0.27 0.29 0.33 0.33 0.33 0.32 0.37 0.42 0.47 0.55 0.65 0.68 0.68

GFSCGP_prec_precacc24_087.txt.gz
Total_Precipitation_Accumulation
0.00 0.00 0.00 0.00 0.00 0.00 0.00 0.00 0.00 0.00 0.00 0.00 0.00 0.00 0.00 0.00 0.00 0.00 0.00 0.00 0.00 0.00 0.00 0.00 0.00 0.00 0.00 0.00 0.00 0.01 0.01 0.01 0.00 0.00 0.01 0.03 0.04 0.09 0.13 0.17 0.39 0.73 0.68 0.46
0.02 0.01 0.00 0.00 0.00 0.00 0.00 0.00 0.00 0.00 0.00 0.00 0.00 0.00 0.00 0.00 0.00 0.00 0.00 0.00 0.00 0.00 0.00 0.00 0.00 0.00 0.00 0.00 0.00 0.01 0.02 0.01 0.01 0.00 0.00 0.01 0.01 0.06 0.07 0.10 0.22 0.59 0.77 0.74
0.01 0.00 0.00 0.01 0.00 0.00 0.00 0.00 0.00 0.00 0.00 0.00 0.00 0.00 0.00 0.00 0.00 0.00 0.00 0.00 0.00 0.00 0.00 0.00 0.00 0.00 0.00 0.00 0.00 0.00 0.01 0.01 0.01 0.04 0.03 0.03 0.02 0.07 0.11 0.13 0.16 0.35 0.64 0.93
0.06 0.00 0.02 0.00 0.00 0.00 0.00 0.00 0.00 0.00 0.00 0.00 0.00 0.00 0.00 0.00 0.00 0.00 0.00 0.00 0.00 0.00 0.00 0.00 0.00 0.00 0.00 0.00 0.00 0.00 0.00 0.01 0.01 0.02 0.01 0.01 0.01 0.03 0.04 0.07 0.08 0.25 0.27 0.56
0.08 0.03 0.04 0.02 0.00 0.00 0.00 0.00 0.00 0.00 0.00 0.01 0.00 0.00 0.00 0.00 0.00 0.00 0.00 0.00 0.00 0.00 0.00 0.00 0.00 0.00 0.00 0.00 0.00 0.00 0.00 0.00 0.00 0.00 0.00 0.00 0.00 0.01 0.02 0.06 0.09 0.16 0.29 0.20
0.00 0.02 0.06 0.03 0.00 0.00 0.00 0.02 0.00 0.00 0.01 0.05 0.00 0.00 0.00 0.00 0.00 0.00 0.00 0.00 0.00 0.00 0.00 0.00 0.00 0.00 0.00 0.00 0.00 0.00 0.00 0.00 0.01 0.01 0.00 0.00 0.00 0.00 0.02 0.03 0.04 0.07 0.22 0.27
0.00 0.00 0.00 0.00 0.00 0.00 0.01 0.08 0.08 0.08 0.07 0.03 0.00 0.00 0.00 0.00 0.00 0.00 0.00 0.00 0.00 0.00 0.00 0.00 0.00 0.00 0.00 0.00 0.00 0.00 0.00 0.00 0.01 0.01 0.00 0.00 0.00 0.00 0.00 0.02 0.01 0.02 0.08 0.23
0.00 0.00 0.00 0.00 0.00 0.01 0.01 0.04 0.10 0.10 0.05 0.01 0.01 0.00 0.00 0.00 0.00 0.00 0.00 0.00 0.00 0.00 0.00 0.00 0.00 0.00 0.00 0.00 0.00 0.01 0.01 0.00 0.01 0.01 0.01 0.00 0.00 0.00 0.00 0.01 0.01 0.01 0.02 0.05
0.03 0.02 0.00 0.00 0.00 0.02 0.07 0.08 0.05 0.26 0.11 0.05 0.01 0.00 0.01 0.00 0.00 0.00 0.00 0.00 0.00 0.00 0.00 0.00 0.00 0.00 0.00 0.00 0.00 0.00 0.01 0.00 0.00 0.00 0.01 0.01 0.00 0.00 0.00 0.01 0.01 0.01 0.02 0.03
0.00 0.03 0.00 0.00 0.03 0.01 0.06 0.10 0.29 0.44 0.23 0.10 0.01 0.02 0.07 0.02 0.00 0.00 0.00 0.00 0.00 0.00 0.00 0.00 0.00 0.00 0.00 0.00 0.00 0.01 0.01 0.00 0.01 0.00 0.01 0.01 0.00 0.00 0.00 0.00 0.00 0.01 0.01 0.02
0.01 0.05 0.06 0.08 0.05 0.04 0.06 0.23 0.24 0.23 0.09 0.12 0.07 0.18 0.13 0.03 0.03 0.01 0.00 0.00 0.01 0.00 0.00 0.00 0.00 0.00 0.00 0.00 0.01 0.02 0.03 0.02 0.02 0.01 0.02 0.01 0.01 0.01 0.00 0.00 0.01 0.00 0.00 0.01
0.08 0.10 0.04 0.05 0.03 0.01 0.09 0.10 0.21 0.42 0.27 0.13 0.13 0.30 0.26 0.15 0.10 0.03 0.00 0.00 0.02 0.02 0.02 0.03 0.03 0.03 0.02 0.02 0.04 0.06 0.06 0.04 0.03 0.02 0.01 0.00 0.00 0.01 0.01 0.00 0.00 0.01 0.01 0.01
0.15 0.10 0.10 0.09 0.14 0.07 0.10 0.12 0.15 0.20 0.43 0.30 0.24 0.26 0.51 0.32 0.19 0.06 0.02 0.02 0.03 0.04 0.04 0.05 0.07 0.09 0.09 0.09 0.07 0.08 0.07 0.05 0.04 0.03 0.01 0.00 0.01 0.01 0.00 0.00 0.01 0.01 0.01 0.01
0.31 0.10 0.06 0.08 0.12 0.13 0.07 0.05 0.11 0.39 0.66 0.33 0.14 0.07 0.58 0.68 0.43 0.15 0.08 0.06 0.06 0.07 0.08 0.07 0.12 0.19 0.27 0.30 0.27 0.25 0.22 0.19 0.12 0.05 0.02 0.01 0.01 0.01 0.01 0.00 0.02 0.01 0.00 0.00
0.38 0.26 0.08 0.05 0.01 0.04 0.07 0.08 0.09 0.24 0.24 0.26 0.05 0.05 0.20 0.52 0.70 0.56 0.25 0.12 0.10 0.11 0.14 0.15 0.16 0.21 0.31 0.42 0.43 0.41 0.39 0.30 0.16 0.09 0.06 0.06 0.05 0.05 0.03 0.02 0.01 0.02 0.01 0.00
0.39 0.49 0.29 0.08 0.01 0.00 0.00 0.02 0.04 0.06 0.07 0.09 0.06 0.08 0.16 0.39 0.44 0.67 0.52 0.31 0.18 0.14 0.13 0.12 0.09 0.14 0.15 0.17 0.22 0.24 0.23 0.20 0.15 0.12 0.06 0.04 0.03 0.04 0.04 0.04 0.03 0.04 0.04 0.04
0.29 0.37 0.23 0.14 0.02 0.00 0.00 0.00 0.01 0.04 0.09 0.08 0.13 0.14 0.14 0.32 0.44 0.39 0.53 0.48 0.47 0.27 0.17 0.18 0.12 0.13 0.09 0.08 0.10 0.12 0.13 0.11 0.08 0.06 0.08 0.08 0.06 0.03 0.02 0.04 0.05 0.07 0.08 0.07
0.16 0.25 0.18 0.07 0.06 0.04 0.00 0.00 0.00 0.01 0.07 0.13 0.11 0.16 0.27 0.24 0.39 0.30 0.40 0.57 0.73 0.87 0.31 0.20 0.20 0.16 0.17 0.15 0.12 0.15 0.17 0.18 0.17 0.12 0.06 0.04 0.08 0.06 0.02 0.01 0.02 0.02 0.06 0.07
0.04 0.11 0.12 0.06 0.09 0.04 0.00 0.00 0.01 0.04 0.13 0.15 0.16 0.31 0.31 0.15 0.26 0.35 0.38 0.44 0.62 0.89 1.00 0.54 0.29 0.18 0.19 0.15 0.26 0.24 0.31 0.28 0.22 0.25 0.23 0.18 0.12 0.11 0.15 0.08 0.02 0.01 0.03 0.05
0.00 0.03 0.07 0.03 0.08 0.04 0.02 0.00 0.00 0.03 0.17 0.15 0.11 0.17 0.21 0.26 0.43 0.63 0.63 0.40 0.37 0.48 0.62 0.97 0.72 0.30 0.25 0.17 0.14 0.23 0.21 0.31 0.34 0.32 0.25 0.23 0.28 0.22 0.17 0.16 0.11 0.11 0.08 0.08
0.01 0.03 0.04 0.03 0.05 0.02 0.00 0.00 0.00 0.11 0.19 0.06 0.09 0.10 0.24 0.43 0.58 0.96 0.85 0.67 0.49 0.43 0.33 0.32 0.68 0.81 0.41 0.22 0.14 0.08 0.08 0.13 0.23 0.21 0.20 0.14 0.11 0.16 0.21 0.18 0.12 0.11 0.13 0.12
0.08 0.07 0.05 0.04 0.04 0.01 0.00 0.01 0.04 0.10 0.08 0.07 0.13 0.18 0.22 0.56 0.80 0.97 0.81 0.54 0.29 0.16 0.10 0.07 0.10 0.27 0.47 0.43 0.26 0.12 0.05 0.07 0.07 0.09 0.04 0.06 0.05 0.05 0.06 0.08 0.09 0.08 0.06 0.05
0.37 0.14 0.12 0.06 0.04 0.08 0.05 0.04 0.03 0.04 0.09 0.22 0.30 0.69 0.65 0.84 1.13 1.13 0.79 0.44 0.21 0.13 0.06 0.02 0.01 0.02 0.03 0.08 0.17 0.20 0.12 0.05 0.05 0.03 0.01 0.01 0.01 0.01 0.01 0.03 0.06 0.05 0.05 0.07
0.23 0.11 0.21 0.19 0.09 0.19 0.28 0.08 0.03 0.02 0.05 0.15 0.52 0.89 1.36 1.24 1.15 0.88 0.50 0.25 0.14 0.08 0.04 0.02 0.01 0.02 0.02 0.01 0.01 0.03 0.04 0.05 0.06 0.06 0.06 0.05 0.04 0.04 0.02 0.02 0.04 0.05 0.11 0.17
0.52 0.24 0.16 0.26 0.53 0.37 0.23 0.10 0.12 0.17 0.12 0.12 0.22 0.41 0.46 0.43 0.35 0.28 0.14 0.06 0.03 0.01 0.01 0.01 0.01 0.01 0.03 0.01 0.01 0.01 0.01 0.03 0.04 0.05 0.07 0.11 0.12 0.12 0.14 0.21 0.24 0.22 0.35 0.35
0.81 0.72 0.35 0.46 1.18 0.98 0.49 0.24 0.31 0.40 0.41 0.29 0.24 0.30 0.33 0.24 0.22 0.17 0.15 0.12 0.09 0.05 0.03 0.01 0.01 0.01 0.03 0.02 0.02 0.02 0.03 0.14 0.25 0.29 0.30 0.30 0.30 0.35 0.40 0.45 0.52 0.59 0.63 0.62

GFSCGP_prec_precacc24_093.txt.gz
Total_Precipitation_Accumulation
0.00 0.00 0.00 0.00 0.00 0.00 0.00 0.00 0.00 0.00 0.00 0.00 0.00 0.00 0.00 0.00 0.00 0.00 0.00 0.00 0.00 0.00 0.00 0.00 0.00 0.00 0.00 0.00 0.00 0.00 0.00 0.00 0.00 0.00 0.01 0.02 0.02 0.04 0.05 0.11 0.32 0.68 0.66 0.46
0.00 0.00 0.00 0.00 0.00 0.00 0.00 0.00 0.00 0.00 0.00 0.00 0.00 0.00 0.00 0.00 0.00 0.00 0.00 0.00 0.00 0.00 0.00 0.00 0.00 0.00 0.00 0.00 0.00 0.00 0.00 0.00 0.01 0.00 0.00 0.01 0.01 0.03 0.04 0.06 0.17 0.55 0.77 0.74
0.00 0.00 0.00 0.00 0.00 0.00 0.00 0.00 0.00 0.00 0.00 0.00 0.00 0.00 0.00 0.00 0.00 0.00 0.00 0.00 0.00 0.00 0.00 0.00 0.00 0.00 0.00 0.00 0.00 0.00 0.00 0.00 0.00 0.00 0.01 0.01 0.01 0.03 0.08 0.10 0.14 0.34 0.64 0.93
0.00 0.00 0.00 0.00 0.00 0.00 0.00 0.00 0.00 0.00 0.00 0.00 0.00 0.00 0.00 0.00 0.00 0.00 0.00 0.00 0.00 0.00 0.00 0.00 0.00 0.00 0.00 0.00 0.00 0.00 0.00 0.01 0.01 0.00 0.00 0.00 0.00 0.01 0.04 0.07 0.07 0.25 0.29 0.56
0.00 0.00 0.00 0.00 0.00 0.00 0.00 0.00 0.00 0.00 0.00 0.01 0.00 0.00 0.00 0.00 0.00 0.00 0.01 0.00 0.00 0.00 0.00 0.00 0.00 0.00 0.00 0.00 0.00 0.00 0.00 0.00 0.00 0.00 0.00 0.00 0.00 0.00 0.02 0.06 0.09 0.17 0.30 0.21
0.00 0.00 0.00 0.00 0.00 0.00 0.00 0.01 0.00 0.00 0.01 0.05 0.00 0.00 0.00 0.00 0.01 0.02 0.05 0.03 0.01 0.00 0.00 0.00 0.00 0.00 0.00 0.00 0.00 0.00 0.00 0.00 0.00 0.01 0.00 0.00 0.00 0.00 0.01 0.03 0.04 0.08 0.22 0.27
0.00 0.00 0.00 0.00 0.00 0.00 0.01 0.05 0.05 0.07 0.08 0.03 0.00 0.00 0.00 0.00 0.03 0.06 0.06 0.02 0.02 0.00 0.00 0.00 0.00 0.00 0.00 0.00 0.00 0.02 0.01 0.01 0.00 0.02 0.00 0.00 0.00 0.01 0.00 0.02 0.02 0.03 0.08 0.23
0.00 0.00 0.00 0.00 0.00 0.01 0.01 0.04 0.08 0.08 0.05 0.03 0.07 0.04 0.02 0.07 0.09 0.05 0.01 0.00 0.00 0.00 0.00 0.00 0.00 0.00 0.00 0.00 0.00 0.02 0.06 0.09 0.05 0.08 0.02 0.01 0.01 0.01 0.00 0.01 0.01 0.01 0.02 0.05
0.05 0.03 0.00 0.00 0.01 0.00 0.04 0.07 0.06 0.26 0.10 0.05 0.05 0.03 0.11 0.35 0.33 0.25 0.01 0.00 0.00 0.00 0.00 0.00 0.00 0.01 0.00 0.01 0.10 0.11 0.14 0.05 0.17 0.09 0.01 0.02 0.01 0.00 0.00 0.01 0.01 0.01 0.02 0.03
0.01 0.05 0.01 0.02 0.04 0.01 0.05 0.09 0.23 0.33 0.24 0.10 0.01 0.02 0.16 0.33 0.41 0.23 0.00 0.00 0.00 0.00 0.00 0.00 0.00 0.05 0.05 0.09 0.29 0.47 0.45 0.28 0.20 0.11 0.05 0.04 0.04 0.03 0.01 0.00 0.01 0.01 0.02 0.03
0.02 0.08 0.07 0.11 0.12 0.07 0.09 0.23 0.19 0.25 0.12 0.16 0.10 0.31 0.52 0.47 0.51 0.18 0.01 0.00 0.01 0.00 0.00 0.01 0.00 0.05 0.04 0.08 0.10 0.17 0.31 0.23 0.21 0.13 0.05 0.07 0.04 0.03 0.01 0.01 0.01 0.01 0.01 0.02
0.09 0.12 0.05 0.07 0.06 0.05 0.16 0.20 0.27 0.39 0.26 0.16 0.15 0.40 0.83 0.63 0.26 0.32 0.02 0.00 0.02 0.02 0.02 0.03 0.04 0.05 0.06 0.07 0.09 0.11 0.11 0.09 0.13 0.11 0.10 0.11 0.05 0.03 0.01 0.01 0.01 0.02 0.02 0.01
0.17 0.16 0.13 0.09 0.11 0.13 0.20 0.28 0.29 0.28 0.38 0.30 0.33 0.46 0.78 0.40 0.34 0.11 0.02 0.02 0.03 0.04 0.04 0.05 0.08 0.12 0.12 0.12 0.14 0.14 0.15 0.10 0.09 0.12 0.13 0.15 0.10 0.08 0.03 0.01 0.01 0.02 0.02 0.02
0.32 0.11 0.08 0.09 0.13 0.16 0.18 0.13 0.21 0.54 0.73 0.42 0.20 0.21 0.81 0.83 0.71 0.27 0.08 0.06 0.06 0.07 0.08 0.07 0.12 0.20 0.25 0.29 0.33 0.35 0.36 0.31 0.23 0.17 0.17 0.12 0.09 0.06 0.02 0.01 0.03 0.02 0.01 0.01
0.41 0.26 0.07 0.04 0.05 0.11 0.12 0.18 0.25 0.35 0.26 0.32 0.30 0.25 0.26 0.52 0.76 0.57 0.25 0.12 0.10 0.11 0.14 0.15 0.17 0.25 0.34 0.39 0.39 0.45 0.49 0.40 0.24 0.22 0.18 0.16 0.11 0.08 0.05 0.04 0.04 0.03 0.01 0.00
0.44 0.52 0.27 0.08 0.02 0.07 0.13 0.08 0.18 0.27 0.22 0.16 0.10 0.25 0.18 0.38 0.44 0.65 0.52 0.31 0.18 0.15 0.14 0.12 0.09 0.17 0.21 0.24 0.29 0.27 0.29 0.29 0.20 0.14 0.14 0.13 0.09 0.08 0.07 0.06 0.07 0.07 0.05 0.05
0.30 0.39 0.29 0.31 0.03 0.05 0.11 0.09 0.05 0.10 0.19 0.16 0.15 0.15 0.12 0.29 0.39 0.39 0.54 0.48 0.47 0.27 0.18 0.20 0.13 0.17 0.16 0.16 0.19 0.22 0.22 0.22 0.21 0.14 0.11 0.08 0.06 0.07 0.05 0.06 0.09 0.11 0.10 0.08
0.17 0.29 0.33 0.22 0.18 0.14 0.09 0.02 0.04 0.08 0.10 0.10 0.09 0.14 0.26 0.19 0.35 0.31 0.40 0.58 0.74 0.91 0.37 0.25 0.26 0.24 0.29 0.26 0.23 0.26 0.29 0.32 0.31 0.25 0.16 0.12 0.11 0.07 0.05 0.05 0.06 0.07 0.09 0.10
0.04 0.19 0.39 0.24 0.23 0.19 0.13 0.03 0.02 0.05 0.11 0.10 0.11 0.29 0.30 0.14 0.25 0.34 0.39 0.45 0.66 0.99 1.08 0.63 0.38 0.32 0.35 0.30 0.41 0.36 0.47 0.45 0.45 0.44 0.44 0.37 0.23 0.17 0.15 0.10 0.07 0.07 0.08 0.09
0.00 0.06 0.33 0.36 0.27 0.24 0.27 0.01 0.00 0.02 0.13 0.13 0.09 0.15 0.18 0.25 0.42 0.63 0.66 0.44 0.43 0.56 0.72 1.09 0.86 0.49 0.43 0.41 0.35 0.55 0.49 0.64 0.66 0.68 0.62 0.57 0.58 0.44 0.29 0.26 0.23 0.17 0.13 0.14
0.02 0.08 0.17 0.21 0.24 0.18 0.06 0.00 0.00 0.09 0.16 0.05 0.09 0.10 0.24 0.44 0.60 1.01 0.91 0.72 0.57 0.51 0.41 0.41 0.82 1.01 0.70 0.55 0.41 0.39 0.59 0.53 0.80 0.80 0.82 0.77 0.62 0.61 0.55 0.42 0.31 0.26 0.23 0.21
0.11 0.11 0.10 0.10 0.13 0.11 0.00 0.00 0.03 0.10 0.08 0.07 0.13 0.18 0.22 0.57 0.83 1.02 0.87 0.60 0.35 0.24 0.17 0.14 0.18 0.38 0.69 0.70 0.60 0.45 0.36 0.48 0.45 0.62 0.66 0.65 0.71 0.67 0.62 0.55 0.46 0.39 0.34 0.32
0.70 0.26 0.28 0.20 0.17 0.09 0.02 0.01 0.01 0.02 0.09 0.23 0.30 0.69 0.66 0.84 1.15 1.16 0.83 0.51 0.28 0.19 0.12 0.06 0.04 0.06 0.14 0.24 0.37 0.52 0.52 0.38 0.38 0.34 0.37 0.49 0.50 0.52 0.55 0.50 0.43 0.35 0.29 0.27
0.28 0.13 0.30 0.27 0.14 0.05 0.07 0.05 0.03 0.03 0.06 0.16 0.52 0.90 1.36 1.25 1.17 0.92 0.54 0.30 0.18 0.13 0.10 0.05 0.05 0.06 0.09 0.11 0.14 0.18 0.27 0.33 0.33 0.31 0.29 0.27 0.29 0.33 0.35 0.37 0.43 0.44 0.42 0.35
0.11 0.14 0.10 0.18 0.27 0.07 0.04 0.08 0.12 0.17 0.12 0.13 0.23 0.43 0.48 0.45 0.39 0.32 0.20 0.12 0.09 0.06 0.05 0.04 0.04 0.04 0.05 0.04 0.04 0.06 0.05 0.05 0.07 0.09 0.12 0.14 0.14 0.15 0.16 0.19 0.19 0.21 0.29 0.27
0.42 0.48 0.24 0.31 0.66 0.35 0.19 0.18 0.31 0.41 0.42 0.30 0.25 0.33 0.38 0.27 0.28 0.23 0.22 0.21 0.18 0.14 0.11 0.08 0.07 0.05 0.05 0.04 0.04 0.02 0.01 0.00 0.00 0.01 0.01 0.01 0.01 0.01 0.01 0.02 0.04 0.05 0.08 0.08

GFSCGP_prec_precacc24_096.txt.gz
Total_Precipitation_Accumulation
0.00 0.00 0.00 0.00 0.00 0.00 0.00 0.00 0.00 0.00 0.00 0.00 0.00 0.00 0.00 0.00 0.00 0.00 0.00 0.00 0.00 0.00 0.00 0.00 0.00 0.00 0.00 0.00 0.00 0.00 0.00 0.01 0.03 0.01 0.03 0.03 0.02 0.04 0.04 0.10 0.28 0.64 0.64 0.45
0.00 0.00 0.00 0.00 0.00 0.00 0.00 0.00 0.00 0.00 0.00 0.00 0.00 0.00 0.00 0.00 0.00 0.00 0.00 0.00 0.00 0.00 0.00 0.00 0.00 0.00 0.00 0.00 0.00 0.00 0.00 0.01 0.01 0.01 0.03 0.05 0.02 0.03 0.04 0.05 0.13 0.47 0.73 0.73
0.00 0.00 0.00 0.00 0.00 0.00 0.00 0.00 0.00 0.00 0.00 0.00 0.00 0.00 0.00 0.00 0.00 0.00 0.00 0.00 0.00 0.00 0.00 0.00 0.00 0.00 0.00 0.00 0.00 0.00 0.00 0.00 0.02 0.03 0.05 0.05 0.06 0.04 0.06 0.07 0.07 0.22 0.59 0.91
0.00 0.00 0.00 0.00 0.00 0.00 0.00 0.00 0.00 0.00 0.00 0.00 0.00 0.00 0.00 0.00 0.00 0.00 0.00 0.00 0.00 0.00 0.00 0.00 0.00 0.00 0.00 0.00 0.00 0.00 0.00 0.01 0.00 0.00 0.01 0.01 0.01 0.01 0.03 0.06 0.05 0.21 0.24 0.54
0.00 0.00 0.00 0.00 0.00 0.00 0.00 0.00 0.00 0.00 0.00 0.01 0.00 0.00 0.00 0.00 0.00 0.00 0.01 0.01 0.01 0.01 0.00 0.00 0.00 0.00 0.00 0.00 0.00 0.00 0.00 0.00 0.01 0.01 0.01 0.00 0.01 0.00 0.02 0.06 0.09 0.15 0.26 0.19
0.00 0.00 0.00 0.00 0.00 0.00 0.00 0.01 0.00 0.00 0.01 0.05 0.00 0.00 0.00 0.00 0.01 0.02 0.09 0.09 0.06 0.05 0.02 0.01 0.00 0.00 0.00 0.00 0.03 0.01 0.00 0.00 0.00 0.01 0.00 0.00 0.00 0.00 0.01 0.03 0.04 0.07 0.21 0.26
0.00 0.00 0.00 0.00 0.00 0.00 0.00 0.03 0.04 0.07 0.08 0.03 0.00 0.00 0.00 0.00 0.04 0.09 0.11 0.06 0.05 0.03 0.03 0.03 0.01 0.00 0.00 0.00 0.01 0.09 0.09 0.05 0.03 0.06 0.04 0.02 0.01 0.01 0.00 0.02 0.02 0.03 0.08 0.23
0.00 0.00 0.00 0.00 0.00 0.01 0.01 0.02 0.07 0.06 0.04 0.03 0.07 0.05 0.02 0.09 0.13 0.12 0.05 0.03 0.02 0.02 0.01 0.00 0.01 0.00 0.00 0.00 0.00 0.04 0.11 0.17 0.19 0.21 0.13 0.07 0.06 0.01 0.00 0.01 0.01 0.01 0.02 0.05
0.05 0.03 0.00 0.00 0.01 0.00 0.04 0.06 0.05 0.24 0.11 0.07 0.05 0.03 0.11 0.35 0.34 0.51 0.52 0.22 0.06 0.00 0.00 0.00 0.00 0.01 0.00 0.03 0.12 0.19 0.25 0.17 0.23 0.19 0.12 0.10 0.04 0.01 0.00 0.01 0.01 0.01 0.02 0.03
0.01 0.05 0.01 0.02 0.03 0.01 0.05 0.08 0.19 0.25 0.22 0.10 0.01 0.02 0.18 0.34 0.46 0.58 0.44 0.16 0.02 0.00 0.00 0.00 0.00 0.05 0.06 0.12 0.34 0.58 0.67 0.60 0.50 0.32 0.20 0.16 0.08 0.04 0.01 0.01 0.01 0.01 0.02 0.03
0.02 0.08 0.07 0.11 0.12 0.07 0.09 0.15 0.16 0.24 0.12 0.14 0.09 0.29 0.65 0.51 0.78 0.57 0.09 0.01 0.01 0.00 0.00 0.01 0.00 0.05 0.05 0.10 0.15 0.27 0.47 0.60 0.91 0.78 0.40 0.20 0.11 0.05 0.03 0.02 0.02 0.01 0.01 0.02
0.09 0.12 0.05 0.07 0.06 0.05 0.16 0.21 0.28 0.54 0.30 0.17 0.16 0.29 0.77 0.64 0.34 0.61 0.07 0.01 0.02 0.02 0.02 0.03 0.04 0.05 0.06 0.07 0.11 0.18 0.16 0.16 0.32 0.41 0.36 0.26 0.11 0.07 0.06 0.09 0.08 0.03 0.02 0.01
0.17 0.16 0.13 0.09 0.11 0.13 0.20 0.30 0.37 0.47 0.46 0.29 0.30 0.39 0.70 0.58 0.58 0.54 0.13 0.02 0.03 0.04 0.04 0.05 0.08 0.12 0.12 0.12 0.13 0.14 0.15 0.15 0.15 0.24 0.23 0.23 0.15 0.11 0.13 0.10 0.05 0.03 0.02 0.03
0.32 0.11 0.07 0.09 0.13 0.15 0.16 0.12 0.21 0.62 0.81 0.44 0.21 0.32 0.84 1.01 0.89 0.42 0.09 0.06 0.06 0.07 0.07 0.05 0.08 0.14 0.18 0.21 0.29 0.34 0.36 0.33 0.27 0.26 0.26 0.19 0.12 0.09 0.09 0.05 0.04 0.03 0.02 0.02
0.41 0.26 0.07 0.04 0.05 0.11 0.10 0.16 0.21 0.31 0.32 0.44 0.37 0.47 0.52 0.49 0.56 0.49 0.24 0.12 0.10 0.11 0.14 0.14 0.14 0.22 0.28 0.30 0.31 0.40 0.46 0.46 0.35 0.30 0.25 0.23 0.13 0.09 0.08 0.05 0.04 0.03 0.02 0.01
0.44 0.52 0.27 0.08 0.02 0.07 0.13 0.07 0.15 0.24 0.31 0.30 0.19 0.35 0.24 0.29 0.31 0.51 0.48 0.31 0.18 0.15 0.14 0.12 0.09 0.17 0.22 0.25 0.29 0.27 0.33 0.42 0.37 0.32 0.26 0.23 0.13 0.11 0.08 0.06 0.06 0.06 0.05 0.06
0.30 0.39 0.29 0.32 0.03 0.05 0.11 0.09 0.04 0.14 0.45 0.37 0.42 0.22 0.08 0.18 0.29 0.34 0.52 0.48 0.47 0.28 0.18 0.20 0.13 0.17 0.18 0.18 0.22 0.26 0.29 0.37 0.41 0.26 0.27 0.21 0.12 0.12 0.10 0.10 0.12 0.12 0.08 0.07
0.17 0.29 0.34 0.22 0.19 0.16 0.17 0.03 0.10 0.21 0.24 0.15 0.13 0.11 0.21 0.09 0.19 0.30 0.40 0.58 0.74 0.91 0.37 0.25 0.26 0.25 0.33 0.33 0.27 0.31 0.33 0.40 0.45 0.47 0.30 0.23 0.17 0.12 0.16 0.23 0.19 0.14 0.10 0.09
0.04 0.19 0.40 0.27 0.25 0.29 0.44 0.33 0.30 0.24 0.14 0.05 0.05 0.12 0.16 0.09 0.16 0.34 0.40 0.46 0.67 0.99 1.08 0.64 0.38 0.33 0.40 0.42 0.49 0.46 0.53 0.55 0.54 0.53 0.62 0.52 0.35 0.29 0.27 0.26 0.18 0.10 0.10 0.09
0.00 0.06 0.36 0.40 0.37 0.56 0.45 0.08 0.03 0.04 0.08 0.06 0.08 0.12 0.12 0.23 0.42 0.64 0.67 0.45 0.45 0.57 0.73 1.09 0.86 0.50 0.46 0.52 0.48 0.65 0.66 0.75 0.83 0.85 0.73 0.65 0.66 0.62 0.49 0.39 0.31 0.20 0.13 0.12
0.01 0.11 0.21 0.28 0.39 0.43 0.12 0.00 0.00 0.07 0.12 0.02 0.08 0.09 0.23 0.44 0.61 1.03 0.93 0.74 0.59 0.52 0.42 0.42 0.82 1.02 0.73 0.61 0.54 0.52 0.73 0.72 0.94 0.93 1.01 0.93 0.75 0.71 0.73 0.69 0.56 0.39 0.30 0.23
0.13 0.14 0.26 0.31 0.35 0.23 0.02 0.00 0.03 0.09 0.05 0.04 0.12 0.16 0.19 0.58 0.84 1.04 0.88 0.61 0.36 0.24 0.18 0.14 0.18 0.39 0.71 0.73 0.65 0.52 0.43 0.61 0.62 0.74 0.73 0.74 0.83 0.83 0.81 0.76 0.72 0.66 0.56 0.48
0.85 0.41 0.33 0.27 0.23 0.13 0.01 0.02 0.01 0.01 0.04 0.15 0.30 0.69 0.65 0.84 1.15 1.17 0.84 0.51 0.29 0.19 0.12 0.06 0.04 0.07 0.16 0.28 0.41 0.55 0.58 0.44 0.45 0.43 0.46 0.57 0.57 0.62 0.70 0.71 0.68 0.58 0.51 0.45
0.36 0.15 0.31 0.29 0.19 0.02 0.02 0.01 0.02 0.03 0.06 0.14 0.52 0.90 1.37 1.26 1.18 0.93 0.55 0.31 0.19 0.14 0.10 0.06 0.05 0.07 0.10 0.14 0.17 0.23 0.32 0.37 0.37 0.34 0.32 0.32 0.36 0.41 0.43 0.47 0.57 0.61 0.59 0.52
0.08 0.03 0.06 0.16 0.16 0.07 0.03 0.04 0.11 0.16 0.13 0.14 0.25 0.44 0.49 0.45 0.40 0.33 0.20 0.13 0.10 0.07 0.06 0.04 0.04 0.05 0.06 0.05 0.06 0.09 0.08 0.07 0.09 0.10 0.12 0.14 0.16 0.17 0.20 0.24 0.26 0.29 0.37 0.35
0.16 0.18 0.13 0.26 0.22 0.22 0.16 0.12 0.29 0.41 0.44 0.31 0.26 0.34 0.38 0.28 0.29 0.23 0.23 0.22 0.18 0.15 0.12 0.09 0.08 0.06 0.07 0.05 0.04 0.02 0.01 0.00 0.00 0.01 0.01 0.01 0.01 0.01 0.01 0.02 0.05 0.05 0.07 0.06

GFSCGP_prec_precacc24_099.txt.gz
Total_Precipitation_Accumulation
0.00 0.00 0.00 0.00 0.00 0.00 0.00 0.00 0.00 0.00 0.00 0.00 0.00 0.00 0.00 0.00 0.00 0.00 0.00 0.00 0.00 0.00 0.00 0.00 0.00 0.00 0.00 0.00 0.00 0.00 0.00 0.01 0.03 0.01 0.03 0.03 0.02 0.04 0.07 0.05 0.11 0.27 0.31 0.36
0.00 0.00 0.00 0.00 0.00 0.00 0.00 0.00 0.00 0.00 0.00 0.00 0.00 0.00 0.00 0.00 0.00 0.00 0.00 0.00 0.00 0.00 0.00 0.00 0.00 0.00 0.00 0.00 0.00 0.00 0.00 0.01 0.01 0.01 0.03 0.05 0.05 0.11 0.12 0.17 0.16 0.36 0.61 0.61
0.00 0.00 0.00 0.00 0.00 0.00 0.00 0.00 0.00 0.00 0.00 0.00 0.00 0.00 0.00 0.00 0.00 0.00 0.00 0.00 0.00 0.00 0.00 0.00 0.00 0.00 0.00 0.00 0.00 0.00 0.00 0.00 0.02 0.03 0.05 0.06 0.10 0.12 0.11 0.09 0.05 0.17 0.56 0.87
0.00 0.00 0.00 0.00 0.00 0.00 0.00 0.00 0.00 0.00 0.00 0.00 0.00 0.00 0.00 0.00 0.00 0.00 0.00 0.00 0.00 0.00 0.00 0.00 0.00 0.00 0.00 0.00 0.00 0.00 0.00 0.01 0.00 0.00 0.01 0.01 0.01 0.00 0.03 0.06 0.04 0.04 0.16 0.49
0.00 0.00 0.00 0.00 0.00 0.00 0.00 0.00 0.00 0.00 0.00 0.01 0.00 0.00 0.00 0.00 0.00 0.00 0.01 0.01 0.01 0.01 0.00 0.00 0.00 0.00 0.00 0.00 0.00 0.00 0.00 0.00 0.01 0.01 0.01 0.00 0.01 0.00 0.02 0.06 0.12 0.07 0.07 0.12
0.00 0.00 0.00 0.00 0.00 0.00 0.00 0.00 0.00 0.00 0.01 0.03 0.00 0.00 0.00 0.00 0.01 0.02 0.09 0.09 0.07 0.06 0.04 0.03 0.02 0.01 0.01 0.00 0.03 0.01 0.00 0.00 0.00 0.01 0.00 0.00 0.00 0.00 0.01 0.04 0.07 0.08 0.13 0.15
0.00 0.00 0.00 0.00 0.00 0.00 0.00 0.02 0.02 0.04 0.06 0.02 0.00 0.00 0.00 0.01 0.04 0.10 0.12 0.07 0.05 0.04 0.07 0.07 0.03 0.02 0.02 0.01 0.01 0.10 0.09 0.05 0.05 0.08 0.05 0.03 0.03 0.03 0.03 0.05 0.05 0.05 0.08 0.21
0.00 0.00 0.00 0.00 0.00 0.01 0.00 0.01 0.03 0.04 0.04 0.03 0.07 0.05 0.02 0.10 0.14 0.12 0.05 0.04 0.03 0.04 0.03 0.02 0.02 0.01 0.00 0.03 0.02 0.04 0.16 0.23 0.21 0.25 0.19 0.15 0.15 0.11 0.08 0.06 0.02 0.02 0.02 0.05
0.05 0.03 0.00 0.00 0.01 0.00 0.02 0.05 0.03 0.17 0.10 0.08 0.05 0.03 0.11 0.36 0.34 0.51 0.52 0.24 0.17 0.07 0.02 0.02 0.02 0.01 0.01 0.05 0.15 0.20 0.36 0.27 0.36 0.30 0.22 0.20 0.15 0.08 0.05 0.04 0.03 0.02 0.02 0.03
0.01 0.05 0.01 0.02 0.03 0.01 0.04 0.08 0.19 0.23 0.21 0.09 0.01 0.01 0.19 0.35 0.46 0.59 0.50 0.31 0.15 0.08 0.02 0.01 0.01 0.05 0.07 0.16 0.39 0.67 0.78 0.70 0.65 0.49 0.35 0.29 0.22 0.17 0.11 0.06 0.04 0.04 0.02 0.03
0.02 0.08 0.07 0.11 0.12 0.07 0.08 0.14 0.16 0.27 0.15 0.15 0.07 0.26 0.65 0.51 0.78 0.61 0.16 0.12 0.09 0.03 0.00 0.01 0.00 0.05 0.06 0.13 0.22 0.34 0.55 0.71 1.11 1.02 0.79 0.44 0.30 0.24 0.15 0.08 0.07 0.05 0.02 0.02
0.09 0.12 0.05 0.07 0.06 0.05 0.16 0.21 0.26 0.48 0.34 0.23 0.17 0.26 0.76 0.62 0.32 0.67 0.29 0.15 0.03 0.02 0.02 0.03 0.04 0.05 0.06 0.08 0.13 0.23 0.20 0.24 0.40 0.53 0.86 1.02 0.61 0.32 0.18 0.15 0.12 0.07 0.06 0.02
0.17 0.16 0.13 0.09 0.11 0.12 0.19 0.29 0.37 0.45 0.40 0.27 0.32 0.40 0.57 0.52 0.63 0.89 0.41 0.03 0.02 0.04 0.04 0.05 0.08 0.12 0.12 0.10 0.11 0.14 0.18 0.20 0.17 0.25 0.28 0.45 0.55 0.64 0.28 0.15 0.08 0.08 0.06 0.04
0.32 0.11 0.07 0.09 0.12 0.14 0.16 0.12 0.19 0.57 0.72 0.42 0.21 0.32 0.63 0.79 0.89 0.47 0.14 0.05 0.04 0.05 0.06 0.05 0.08 0.13 0.15 0.15 0.22 0.29 0.32 0.30 0.27 0.29 0.31 0.26 0.24 0.29 0.20 0.10 0.06 0.05 0.03 0.03
0.41 0.26 0.07 0.04 0.05 0.11 0.10 0.16 0.19 0.26 0.29 0.42 0.38 0.52 0.56 0.37 0.34 0.32 0.19 0.12 0.10 0.10 0.12 0.10 0.10 0.16 0.21 0.23 0.23 0.32 0.41 0.45 0.35 0.31 0.30 0.29 0.20 0.20 0.16 0.08 0.06 0.04 0.03 0.02
0.44 0.52 0.27 0.08 0.02 0.07 0.13 0.07 0.15 0.23 0.30 0.28 0.22 0.51 0.35 0.20 0.14 0.16 0.31 0.26 0.17 0.15 0.14 0.12 0.09 0.16 0.20 0.23 0.26 0.27 0.34 0.43 0.44 0.47 0.34 0.34 0.21 0.17 0.11 0.08 0.06 0.06 0.05 0.05
0.30 0.39 0.29 0.32 0.03 0.05 0.12 0.11 0.05 0.14 0.45 0.37 0.55 0.38 0.16 0.15 0.12 0.14 0.22 0.32 0.45 0.27 0.19 0.20 0.13 0.17 0.18 0.19 0.23 0.27 0.31 0.42 0.55 0.44 0.52 0.32 0.31 0.19 0.14 0.10 0.10 0.09 0.06 0.07
0.17 0.29 0.34 0.22 0.19 0.17 0.33 0.15 0.13 0.22 0.29 0.25 0.24 0.19 0.13 0.08 0.12 0.21 0.26 0.36 0.61 0.89 0.37 0.26 0.27 0.25 0.34 0.35 0.30 0.32 0.35 0.49 0.60 0.73 0.53 0.59 0.38 0.22 0.21 0.24 0.20 0.17 0.11 0.08
0.04 0.19 0.40 0.27 0.26 0.34 0.61 0.59 0.48 0.33 0.25 0.14 0.08 0.04 0.01 0.05 0.13 0.26 0.30 0.39 0.62 0.96 1.08 0.65 0.40 0.34 0.41 0.43 0.54 0.48 0.57 0.58 0.63 0.71 0.94 0.97 0.75 0.60 0.39 0.31 0.31 0.30 0.29 0.20
0.00 0.06 0.36 0.41 0.43 0.69 0.71 0.27 0.17 0.16 0.18 0.06 0.04 0.02 0.04 0.15 0.35 0.50 0.52 0.42 0.46 0.58 0.74 1.10 0.88 0.50 0.47 0.53 0.51 0.66 0.71 0.81 0.96 1.05 0.87 0.92 1.14 1.07 0.77 0.53 0.47 0.44 0.39 0.37
0.02 0.12 0.21 0.31 0.45 0.48 0.26 0.25 0.15 0.13 0.13 0.02 0.01 0.05 0.18 0.42 0.54 0.92 0.84 0.74 0.60 0.54 0.43 0.42 0.83 1.03 0.74 0.61 0.55 0.55 0.74 0.78 1.07 1.10 1.21 1.10 0.91 0.93 0.95 0.85 0.75 0.62 0.53 0.47
0.19 0.19 0.37 0.45 0.41 0.28 0.07 0.13 0.07 0.10 0.04 0.01 0.04 0.13 0.18 0.48 0.79 1.03 0.90 0.63 0.38 0.26 0.19 0.16 0.19 0.40 0.72 0.73 0.65 0.53 0.46 0.65 0.68 0.82 0.82 0.83 0.95 0.95 0.95 0.90 0.86 0.79 0.73 0.68
0.93 0.52 0.44 0.32 0.27 0.21 0.05 0.07 0.05 0.02 0.02 0.03 0.12 0.38 0.54 0.76 1.07 1.12 0.86 0.54 0.31 0.21 0.14 0.07 0.05 0.07 0.16 0.28 0.42 0.55 0.60 0.46 0.47 0.45 0.50 0.62 0.62 0.68 0.76 0.78 0.78 0.69 0.62 0.55
0.48 0.22 0.31 0.27 0.22 0.04 0.03 0.02 0.02 0.03 0.06 0.07 0.15 0.63 1.15 1.18 1.17 0.93 0.56 0.32 0.21 0.16 0.12 0.07 0.05 0.07 0.11 0.14 0.17 0.24 0.33 0.38 0.38 0.35 0.34 0.34 0.37 0.43 0.46 0.51 0.61 0.66 0.66 0.61
0.10 0.05 0.06 0.13 0.14 0.09 0.04 0.05 0.05 0.10 0.12 0.13 0.24 0.44 0.50 0.46 0.41 0.34 0.22 0.14 0.12 0.09 0.07 0.05 0.04 0.05 0.06 0.05 0.06 0.09 0.08 0.08 0.09 0.10 0.12 0.15 0.16 0.18 0.21 0.25 0.28 0.30 0.40 0.39
0.12 0.12 0.08 0.16 0.15 0.17 0.16 0.13 0.11 0.20 0.35 0.29 0.26 0.35 0.40 0.28 0.30 0.24 0.24 0.23 0.19 0.15 0.12 0.09 0.07 0.05 0.06 0.04 0.04 0.02 0.01 0.00 0.00 0.01 0.01 0.01 0.01 0.01 0.01 0.02 0.05 0.05 0.07 0.06

GFSCGP_prec_precacc24_102.txt.gz
Total_Precipitation_Accumulation
0.00 0.00 0.00 0.00 0.00 0.00 0.00 0.00 0.00 0.00 0.00 0.00 0.00 0.00 0.00 0.00 0.00 0.00 0.00 0.00 0.00 0.00 0.00 0.00 0.00 0.00 0.00 0.00 0.00 0.00 0.00 0.01 0.03 0.01 0.04 0.04 0.01 0.03 0.06 0.03 0.02 0.03 0.05 0.08
0.00 0.00 0.00 0.00 0.00 0.00 0.00 0.00 0.00 0.00 0.00 0.00 0.00 0.00 0.00 0.00 0.00 0.00 0.00 0.00 0.00 0.00 0.00 0.00 0.00 0.00 0.00 0.00 0.00 0.00 0.00 0.01 0.01 0.01 0.03 0.05 0.05 0.10 0.11 0.16 0.13 0.07 0.13 0.22
0.00 0.00 0.00 0.00 0.00 0.00 0.00 0.00 0.00 0.00 0.00 0.00 0.00 0.00 0.00 0.00 0.00 0.00 0.00 0.00 0.00 0.00 0.00 0.00 0.00 0.00 0.00 0.00 0.00 0.00 0.00 0.00 0.02 0.03 0.05 0.07 0.12 0.16 0.11 0.07 0.05 0.10 0.31 0.58
0.00 0.00 0.00 0.00 0.00 0.00 0.00 0.00 0.00 0.00 0.00 0.00 0.00 0.00 0.00 0.00 0.00 0.00 0.00 0.00 0.00 0.00 0.00 0.00 0.00 0.00 0.00 0.00 0.00 0.00 0.00 0.01 0.00 0.00 0.01 0.01 0.01 0.00 0.02 0.03 0.03 0.07 0.14 0.43
0.00 0.00 0.00 0.00 0.00 0.00 0.00 0.00 0.00 0.00 0.00 0.00 0.00 0.00 0.00 0.00 0.00 0.00 0.01 0.01 0.01 0.01 0.00 0.00 0.00 0.00 0.00 0.00 0.00 0.00 0.00 0.00 0.01 0.01 0.01 0.00 0.01 0.00 0.02 0.05 0.08 0.06 0.05 0.09
0.00 0.00 0.00 0.00 0.00 0.00 0.00 0.00 0.00 0.00 0.00 0.01 0.00 0.00 0.00 0.00 0.01 0.02 0.09 0.09 0.07 0.06 0.04 0.03 0.02 0.01 0.01 0.00 0.03 0.01 0.00 0.00 0.00 0.01 0.00 0.00 0.00 0.00 0.01 0.04 0.06 0.08 0.08 0.06
0.00 0.00 0.00 0.00 0.00 0.00 0.00 0.01 0.01 0.02 0.03 0.01 0.00 0.00 0.00 0.01 0.04 0.10 0.12 0.07 0.05 0.04 0.07 0.07 0.03 0.02 0.02 0.01 0.01 0.10 0.09 0.05 0.05 0.08 0.05 0.04 0.04 0.03 0.03 0.05 0.05 0.05 0.07 0.12
0.00 0.00 0.00 0.00 0.00 0.01 0.00 0.01 0.02 0.02 0.03 0.03 0.07 0.05 0.02 0.10 0.14 0.12 0.05 0.04 0.03 0.04 0.03 0.02 0.02 0.01 0.00 0.03 0.03 0.05 0.18 0.25 0.22 0.25 0.19 0.16 0.16 0.12 0.12 0.11 0.05 0.02 0.01 0.02
0.05 0.03 0.00 0.00 0.01 0.00 0.01 0.03 0.03 0.12 0.08 0.07 0.05 0.03 0.11 0.36 0.34 0.51 0.52 0.24 0.17 0.07 0.03 0.03 0.02 0.01 0.01 0.06 0.15 0.23 0.42 0.31 0.40 0.34 0.23 0.23 0.17 0.11 0.10 0.12 0.12 0.10 0.10 0.08
0.01 0.05 0.01 0.02 0.03 0.01 0.03 0.06 0.17 0.19 0.18 0.08 0.00 0.01 0.19 0.35 0.46 0.59 0.50 0.31 0.15 0.09 0.03 0.03 0.03 0.06 0.07 0.16 0.41 0.69 0.87 0.81 0.73 0.56 0.41 0.35 0.26 0.22 0.18 0.16 0.12 0.14 0.13 0.11
0.02 0.08 0.07 0.11 0.12 0.07 0.07 0.13 0.15 0.24 0.15 0.18 0.09 0.25 0.65 0.51 0.77 0.61 0.16 0.12 0.11 0.05 0.02 0.01 0.00 0.06 0.07 0.14 0.24 0.37 0.60 0.85 1.24 1.14 0.89 0.57 0.37 0.35 0.30 0.21 0.19 0.17 0.14 0.11
0.09 0.12 0.05 0.07 0.06 0.05 0.15 0.20 0.25 0.42 0.31 0.22 0.17 0.26 0.73 0.60 0.32 0.66 0.31 0.22 0.07 0.02 0.02 0.03 0.04 0.05 0.06 0.08 0.13 0.23 0.25 0.31 0.47 0.62 1.03 1.22 0.73 0.44 0.34 0.26 0.23 0.20 0.17 0.09
0.16 0.16 0.13 0.08 0.11 0.12 0.17 0.28 0.36 0.44 0.36 0.24 0.29 0.41 0.52 0.43 0.63 0.90 0.45 0.07 0.03 0.04 0.04 0.05 0.08 0.12 0.12 0.10 0.11 0.13 0.20 0.27 0.22 0.31 0.36 0.53 0.63 0.86 0.54 0.36 0.21 0.16 0.15 0.06
0.32 0.11 0.07 0.08 0.12 0.13 0.15 0.11 0.17 0.46 0.61 0.39 0.20 0.32 0.56 0.61 0.79 0.49 0.14 0.07 0.05 0.05 0.06 0.05 0.08 0.13 0.15 0.14 0.20 0.26 0.27 0.26 0.31 0.32 0.31 0.26 0.25 0.44 0.72 0.47 0.36 0.18 0.07 0.04
0.41 0.26 0.07 0.04 0.05 0.11 0.10 0.16 0.19 0.22 0.21 0.33 0.37 0.52 0.53 0.32 0.28 0.18 0.15 0.14 0.08 0.08 0.10 0.09 0.09 0.14 0.16 0.18 0.18 0.26 0.34 0.38 0.33 0.31 0.31 0.30 0.20 0.24 0.56 0.52 0.47 0.26 0.06 0.03
0.44 0.52 0.27 0.08 0.02 0.07 0.13 0.07 0.15 0.23 0.30 0.28 0.22 0.51 0.34 0.15 0.16 0.09 0.11 0.20 0.16 0.14 0.14 0.11 0.08 0.14 0.16 0.19 0.23 0.26 0.33 0.43 0.44 0.48 0.35 0.38 0.27 0.22 0.23 0.32 0.28 0.16 0.06 0.06
0.29 0.39 0.29 0.32 0.03 0.05 0.12 0.13 0.08 0.15 0.45 0.37 0.55 0.38 0.16 0.14 0.10 0.06 0.05 0.14 0.35 0.25 0.19 0.21 0.14 0.19 0.20 0.21 0.24 0.30 0.31 0.42 0.55 0.46 0.55 0.39 0.44 0.40 0.33 0.26 0.21 0.13 0.08 0.09
0.17 0.29 0.34 0.22 0.19 0.17 0.34 0.19 0.23 0.24 0.31 0.29 0.28 0.23 0.14 0.08 0.10 0.14 0.13 0.21 0.50 0.79 0.34 0.26 0.27 0.26 0.36 0.38 0.35 0.40 0.37 0.50 0.64 0.83 0.67 0.73 0.52 0.48 0.41 0.49 0.33 0.20 0.15 0.10
0.04 0.19 0.40 0.27 0.26 0.34 0.63 0.70 0.62 0.46 0.34 0.24 0.21 0.11 0.04 0.04 0.10 0.18 0.21 0.28 0.47 0.82 0.97 0.60 0.40 0.36 0.42 0.45 0.58 0.55 0.59 0.59 0.69 0.87 1.12 1.21 1.18 0.95 0.70 0.55 0.52 0.39 0.31 0.21
0.00 0.06 0.36 0.41 0.44 0.71 0.78 0.35 0.25 0.32 0.41 0.19 0.07 0.04 0.02 0.09 0.19 0.33 0.39 0.33 0.40 0.53 0.69 1.05 0.84 0.49 0.47 0.55 0.53 0.67 0.72 0.81 0.98 1.09 1.03 1.07 1.37 1.50 1.57 1.16 0.75 0.58 0.48 0.45
0.03 0.12 0.22 0.31 0.47 0.48 0.31 0.41 0.31 0.31 0.32 0.09 0.01 0.02 0.04 0.18 0.30 0.61 0.66 0.67 0.61 0.55 0.45 0.44 0.84 1.03 0.75 0.62 0.56 0.55 0.74 0.80 1.11 1.13 1.24 1.15 0.98 1.02 1.18 1.32 1.25 0.94 0.70 0.59
0.25 0.23 0.43 0.49 0.45 0.31 0.23 0.36 0.25 0.20 0.08 0.02 0.01 0.04 0.11 0.38 0.59 0.74 0.82 0.61 0.39 0.27 0.20 0.16 0.20 0.41 0.73 0.74 0.66 0.54 0.47 0.67 0.69 0.82 0.82 0.85 0.99 1.01 1.02 0.99 1.04 1.01 0.97 0.88
0.96 0.60 0.51 0.38 0.32 0.29 0.17 0.17 0.13 0.05 0.04 0.04 0.03 0.10 0.29 0.54 0.75 0.80 0.75 0.52 0.32 0.22 0.15 0.08 0.06 0.08 0.17 0.29 0.42 0.56 0.61 0.46 0.47 0.45 0.50 0.63 0.63 0.69 0.78 0.80 0.81 0.73 0.68 0.63
0.52 0.27 0.35 0.31 0.27 0.09 0.07 0.05 0.05 0.05 0.06 0.07 0.08 0.17 0.39 0.64 0.83 0.78 0.53 0.33 0.22 0.16 0.13 0.08 0.05 0.07 0.11 0.14 0.18 0.25 0.33 0.38 0.38 0.35 0.34 0.34 0.38 0.43 0.47 0.51 0.62 0.66 0.67 0.62
0.11 0.08 0.08 0.14 0.15 0.09 0.03 0.05 0.07 0.08 0.07 0.10 0.22 0.37 0.40 0.40 0.40 0.33 0.22 0.15 0.12 0.10 0.08 0.05 0.05 0.05 0.06 0.04 0.06 0.08 0.08 0.08 0.09 0.10 0.12 0.14 0.16 0.18 0.21 0.25 0.28 0.30 0.40 0.39
0.10 0.13 0.07 0.15 0.11 0.12 0.13 0.12 0.10 0.09 0.13 0.16 0.22 0.32 0.37 0.28 0.30 0.25 0.25 0.24 0.20 0.16 0.12 0.09 0.07 0.05 0.06 0.04 0.04 0.02 0.01 0.00 0.00 0.01 0.01 0.01 0.01 0.01 0.01 0.02 0.05 0.05 0.07 0.06

GFSCGP_prec_precacc24_105.txt.gz
Total_Precipitation_Accumulation
0.00 0.00 0.00 0.00 0.00 0.00 0.00 0.00 0.00 0.00 0.00 0.00 0.00 0.00 0.00 0.00 0.00 0.00 0.00 0.00 0.00 0.00 0.00 0.00 0.00 0.00 0.00 0.00 0.00 0.00 0.00 0.01 0.03 0.01 0.04 0.04 0.01 0.02 0.06 0.02 0.02 0.02 0.01 0.02
0.00 0.00 0.00 0.00 0.00 0.00 0.00 0.00 0.00 0.00 0.00 0.00 0.00 0.00 0.00 0.00 0.00 0.00 0.00 0.00 0.00 0.00 0.00 0.00 0.00 0.00 0.00 0.00 0.00 0.00 0.00 0.01 0.01 0.01 0.03 0.05 0.04 0.09 0.11 0.16 0.15 0.07 0.05 0.03
0.00 0.00 0.00 0.00 0.00 0.00 0.00 0.00 0.00 0.00 0.00 0.00 0.00 0.00 0.00 0.00 0.00 0.00 0.00 0.00 0.00 0.00 0.00 0.00 0.00 0.00 0.00 0.00 0.00 0.00 0.00 0.00 0.02 0.03 0.05 0.07 0.12 0.17 0.11 0.07 0.05 0.07 0.11 0.18
0.00 0.00 0.00 0.00 0.00 0.00 0.00 0.00 0.00 0.00 0.00 0.00 0.00 0.00 0.00 0.00 0.00 0.00 0.00 0.00 0.00 0.00 0.00 0.00 0.00 0.00 0.00 0.00 0.00 0.00 0.00 0.00 0.00 0.00 0.01 0.01 0.01 0.00 0.01 0.01 0.02 0.06 0.05 0.19
0.00 0.00 0.00 0.00 0.00 0.00 0.00 0.00 0.00 0.00 0.00 0.00 0.00 0.00 0.00 0.00 0.00 0.00 0.01 0.01 0.01 0.01 0.00 0.00 0.00 0.00 0.00 0.00 0.00 0.00 0.00 0.00 0.01 0.01 0.02 0.01 0.01 0.00 0.01 0.03 0.05 0.04 0.03 0.06
0.00 0.00 0.00 0.00 0.00 0.00 0.00 0.00 0.00 0.00 0.00 0.00 0.00 0.00 0.00 0.00 0.01 0.02 0.09 0.09 0.07 0.06 0.04 0.03 0.02 0.01 0.01 0.00 0.03 0.01 0.00 0.00 0.00 0.01 0.01 0.01 0.01 0.00 0.01 0.03 0.04 0.04 0.02 0.05
0.00 0.00 0.00 0.00 0.00 0.00 0.00 0.00 0.01 0.02 0.02 0.00 0.00 0.00 0.00 0.01 0.04 0.10 0.12 0.07 0.05 0.04 0.07 0.07 0.03 0.02 0.02 0.01 0.01 0.10 0.09 0.05 0.05 0.07 0.05 0.04 0.04 0.03 0.03 0.05 0.04 0.04 0.06 0.07
0.00 0.00 0.00 0.00 0.00 0.01 0.00 0.01 0.02 0.02 0.02 0.03 0.07 0.05 0.02 0.10 0.14 0.12 0.05 0.04 0.03 0.04 0.03 0.02 0.02 0.01 0.00 0.03 0.03 0.05 0.18 0.25 0.22 0.25 0.19 0.16 0.16 0.13 0.12 0.11 0.05 0.02 0.01 0.01
0.05 0.03 0.00 0.00 0.01 0.00 0.01 0.02 0.02 0.10 0.06 0.05 0.05 0.03 0.11 0.36 0.34 0.51 0.52 0.24 0.17 0.07 0.03 0.03 0.02 0.02 0.02 0.06 0.16 0.23 0.42 0.31 0.41 0.38 0.24 0.25 0.19 0.14 0.12 0.13 0.13 0.11 0.11 0.11
0.01 0.05 0.01 0.02 0.03 0.01 0.03 0.05 0.14 0.16 0.16 0.07 0.00 0.01 0.18 0.34 0.46 0.59 0.50 0.31 0.15 0.09 0.03 0.03 0.03 0.06 0.09 0.17 0.42 0.69 0.87 0.81 0.74 0.61 0.50 0.40 0.31 0.29 0.25 0.19 0.14 0.16 0.18 0.18
0.02 0.08 0.07 0.11 0.12 0.07 0.07 0.10 0.14 0.21 0.14 0.18 0.09 0.24 0.63 0.50 0.75 0.60 0.16 0.11 0.10 0.05 0.02 0.01 0.00 0.06 0.07 0.15 0.26 0.39 0.60 0.86 1.30 1.20 1.04 0.70 0.45 0.47 0.42 0.32 0.28 0.28 0.22 0.19
0.09 0.12 0.05 0.07 0.06 0.05 0.14 0.19 0.25 0.40 0.28 0.18 0.16 0.25 0.71 0.58 0.29 0.63 0.30 0.21 0.06 0.01 0.01 0.02 0.04 0.05 0.06 0.08 0.13 0.24 0.25 0.32 0.52 0.70 1.20 1.46 0.97 0.61 0.43 0.34 0.30 0.27 0.23 0.14
0.16 0.15 0.12 0.08 0.10 0.11 0.15 0.26 0.35 0.42 0.33 0.22 0.27 0.40 0.47 0.36 0.50 0.86 0.44 0.07 0.03 0.03 0.03 0.04 0.06 0.10 0.10 0.08 0.10 0.13 0.21 0.30 0.24 0.35 0.47 0.74 0.91 1.08 0.68 0.48 0.32 0.26 0.25 0.14
0.30 0.10 0.07 0.08 0.12 0.13 0.15 0.11 0.17 0.41 0.48 0.30 0.19 0.31 0.55 0.58 0.71 0.44 0.11 0.07 0.06 0.06 0.05 0.03 0.07 0.11 0.11 0.10 0.16 0.21 0.22 0.24 0.34 0.35 0.36 0.33 0.34 0.51 0.78 0.55 0.44 0.30 0.19 0.14
0.37 0.23 0.06 0.04 0.05 0.11 0.10 0.16 0.19 0.22 0.21 0.32 0.37 0.52 0.53 0.31 0.26 0.14 0.08 0.07 0.05 0.05 0.06 0.06 0.06 0.12 0.14 0.16 0.14 0.22 0.29 0.33 0.33 0.35 0.36 0.31 0.23 0.27 0.58 0.60 0.62 0.54 0.36 0.34
0.39 0.48 0.26 0.08 0.02 0.07 0.13 0.07 0.15 0.23 0.30 0.28 0.22 0.51 0.34 0.14 0.16 0.10 0.09 0.11 0.09 0.07 0.08 0.09 0.06 0.12 0.16 0.18 0.21 0.24 0.33 0.41 0.43 0.48 0.39 0.44 0.31 0.25 0.23 0.53 0.63 0.89 0.55 0.53
0.28 0.38 0.29 0.32 0.03 0.05 0.12 0.13 0.08 0.16 0.45 0.38 0.55 0.38 0.16 0.14 0.11 0.08 0.06 0.07 0.17 0.16 0.13 0.16 0.12 0.17 0.21 0.23 0.27 0.32 0.34 0.43 0.55 0.46 0.56 0.39 0.49 0.50 0.38 0.34 0.55 0.65 0.62 0.45
0.16 0.28 0.34 0.22 0.19 0.17 0.34 0.19 0.23 0.28 0.33 0.31 0.29 0.24 0.16 0.11 0.10 0.14 0.14 0.16 0.33 0.63 0.32 0.25 0.26 0.25 0.36 0.40 0.36 0.42 0.40 0.45 0.53 0.76 0.66 0.74 0.56 0.59 0.67 0.78 0.55 0.37 0.33 0.26
0.04 0.18 0.40 0.27 0.26 0.34 0.63 0.71 0.66 0.52 0.37 0.25 0.23 0.17 0.11 0.10 0.10 0.16 0.20 0.25 0.40 0.70 0.81 0.55 0.42 0.39 0.44 0.46 0.59 0.56 0.60 0.60 0.65 0.85 1.13 1.27 1.24 1.06 0.84 0.92 1.16 0.72 0.51 0.36
0.00 0.07 0.36 0.41 0.44 0.71 0.79 0.35 0.28 0.41 0.48 0.26 0.15 0.14 0.13 0.13 0.13 0.22 0.29 0.26 0.31 0.44 0.55 0.91 0.74 0.49 0.47 0.55 0.53 0.67 0.72 0.81 0.99 1.12 1.10 1.18 1.50 1.67 1.88 1.46 1.23 1.31 0.94 0.57
0.06 0.14 0.22 0.31 0.47 0.48 0.32 0.42 0.37 0.39 0.46 0.23 0.11 0.10 0.10 0.10 0.14 0.34 0.40 0.46 0.52 0.51 0.44 0.44 0.83 0.98 0.72 0.61 0.56 0.54 0.74 0.82 1.14 1.16 1.26 1.16 1.01 1.14 1.39 1.67 1.69 1.43 1.20 0.88
0.27 0.25 0.45 0.50 0.46 0.32 0.26 0.39 0.32 0.32 0.22 0.11 0.06 0.07 0.06 0.12 0.26 0.40 0.52 0.50 0.40 0.29 0.22 0.18 0.21 0.43 0.75 0.73 0.64 0.53 0.48 0.70 0.70 0.83 0.83 0.85 1.00 1.03 1.06 1.05 1.20 1.31 1.31 1.13
0.97 0.65 0.53 0.41 0.35 0.35 0.26 0.29 0.25 0.12 0.09 0.08 0.05 0.06 0.06 0.21 0.33 0.38 0.44 0.40 0.31 0.23 0.16 0.09 0.06 0.09 0.17 0.29 0.42 0.56 0.62 0.47 0.48 0.45 0.50 0.63 0.63 0.69 0.78 0.80 0.82 0.77 0.74 0.72
0.54 0.31 0.36 0.34 0.32 0.13 0.14 0.12 0.10 0.06 0.09 0.09 0.08 0.09 0.14 0.22 0.35 0.43 0.39 0.31 0.23 0.18 0.14 0.08 0.05 0.07 0.11 0.13 0.18 0.24 0.33 0.38 0.38 0.35 0.34 0.34 0.38 0.43 0.47 0.51 0.62 0.66 0.66 0.62
0.13 0.10 0.09 0.17 0.19 0.10 0.04 0.07 0.06 0.07 0.08 0.10 0.14 0.24 0.23 0.24 0.29 0.28 0.22 0.16 0.14 0.11 0.08 0.05 0.04 0.05 0.06 0.04 0.05 0.08 0.08 0.08 0.09 0.10 0.12 0.14 0.15 0.18 0.21 0.25 0.28 0.30 0.40 0.39
0.08 0.12 0.07 0.14 0.10 0.08 0.08 0.07 0.06 0.06 0.10 0.09 0.11 0.21 0.24 0.20 0.25 0.22 0.25 0.25 0.21 0.16 0.12 0.09 0.07 0.05 0.05 0.03 0.03 0.02 0.01 0.00 0.00 0.01 0.01 0.01 0.01 0.01 0.01 0.02 0.05 0.05 0.07 0.06

GFSCGP_prec_precacc24_108.txt.gz
Total_Precipitation_Accumulation
0.00 0.00 0.00 0.00 0.00 0.00 0.00 0.00 0.00 0.00 0.00 0.00 0.00 0.00 0.00 0.00 0.00 0.00 0.00 0.00 0.00 0.00 0.00 0.00 0.00 0.00 0.00 0.00 0.00 0.00 0.00 0.01 0.02 0.01 0.04 0.04 0.01 0.02 0.05 0.02 0.01 0.02 0.01 0.01
0.00 0.00 0.00 0.00 0.00 0.00 0.00 0.00 0.00 0.00 0.00 0.00 0.00 0.00 0.00 0.00 0.00 0.00 0.00 0.00 0.00 0.00 0.00 0.00 0.00 0.00 0.00 0.00 0.00 0.00 0.00 0.00 0.01 0.01 0.03 0.05 0.04 0.09 0.11 0.16 0.14 0.06 0.04 0.01
0.00 0.00 0.00 0.00 0.00 0.00 0.00 0.00 0.00 0.00 0.00 0.00 0.00 0.00 0.00 0.00 0.00 0.00 0.00 0.00 0.00 0.00 0.00 0.00 0.00 0.00 0.00 0.00 0.00 0.00 0.00 0.00 0.02 0.03 0.05 0.07 0.12 0.16 0.11 0.07 0.05 0.06 0.10 0.08
0.00 0.00 0.00 0.00 0.00 0.00 0.00 0.00 0.00 0.00 0.00 0.00 0.00 0.00 0.00 0.00 0.00 0.00 0.00 0.00 0.00 0.00 0.00 0.00 0.00 0.00 0.00 0.00 0.00 0.00 0.00 0.00 0.00 0.00 0.01 0.01 0.01 0.00 0.00 0.01 0.02 0.06 0.05 0.08
0.00 0.00 0.00 0.00 0.00 0.00 0.00 0.00 0.00 0.00 0.00 0.00 0.00 0.00 0.00 0.00 0.00 0.00 0.01 0.01 0.01 0.01 0.00 0.00 0.00 0.00 0.00 0.00 0.00 0.00 0.00 0.00 0.01 0.01 0.02 0.01 0.01 0.00 0.00 0.02 0.05 0.04 0.03 0.04
0.00 0.00 0.00 0.00 0.00 0.00 0.00 0.00 0.00 0.00 0.00 0.00 0.00 0.00 0.00 0.00 0.01 0.02 0.09 0.09 0.07 0.06 0.04 0.03 0.02 0.01 0.01 0.00 0.03 0.01 0.00 0.00 0.00 0.01 0.01 0.01 0.01 0.00 0.01 0.02 0.04 0.03 0.02 0.06
0.00 0.00 0.00 0.00 0.00 0.00 0.00 0.00 0.01 0.02 0.01 0.00 0.00 0.00 0.00 0.01 0.04 0.10 0.12 0.07 0.05 0.04 0.07 0.07 0.03 0.02 0.02 0.01 0.01 0.09 0.09 0.05 0.05 0.07 0.05 0.04 0.04 0.03 0.03 0.05 0.04 0.03 0.03 0.03
0.00 0.00 0.00 0.00 0.00 0.01 0.00 0.01 0.02 0.02 0.02 0.02 0.07 0.05 0.02 0.10 0.14 0.12 0.05 0.04 0.03 0.04 0.03 0.02 0.02 0.01 0.00 0.03 0.02 0.05 0.17 0.25 0.22 0.25 0.19 0.16 0.16 0.13 0.13 0.11 0.06 0.03 0.01 0.01
0.05 0.03 0.00 0.00 0.01 0.00 0.01 0.02 0.02 0.10 0.06 0.04 0.05 0.03 0.11 0.36 0.34 0.51 0.52 0.24 0.17 0.07 0.03 0.03 0.02 0.02 0.02 0.06 0.15 0.23 0.42 0.31 0.41 0.39 0.28 0.27 0.20 0.14 0.13 0.14 0.13 0.11 0.10 0.10
0.02 0.06 0.00 0.02 0.03 0.01 0.02 0.04 0.13 0.15 0.16 0.06 0.00 0.01 0.17 0.34 0.47 0.59 0.50 0.31 0.15 0.09 0.03 0.03 0.03 0.06 0.09 0.17 0.43 0.73 0.91 0.83 0.74 0.64 0.57 0.46 0.36 0.32 0.26 0.21 0.16 0.18 0.19 0.18
0.02 0.08 0.04 0.07 0.10 0.06 0.06 0.08 0.12 0.19 0.13 0.17 0.08 0.23 0.62 0.50 0.75 0.59 0.16 0.11 0.10 0.05 0.02 0.01 0.00 0.06 0.07 0.15 0.27 0.41 0.64 0.91 1.32 1.23 1.13 0.85 0.57 0.68 0.55 0.37 0.33 0.31 0.24 0.21
0.09 0.10 0.04 0.04 0.03 0.05 0.13 0.17 0.23 0.38 0.25 0.15 0.14 0.23 0.65 0.53 0.26 0.63 0.30 0.21 0.06 0.00 0.00 0.01 0.03 0.05 0.05 0.08 0.15 0.29 0.33 0.40 0.52 0.71 1.23 1.53 1.06 0.81 0.63 0.43 0.37 0.33 0.26 0.18
0.09 0.12 0.10 0.04 0.06 0.08 0.13 0.23 0.32 0.41 0.31 0.20 0.25 0.38 0.42 0.34 0.49 0.85 0.44 0.07 0.02 0.01 0.01 0.02 0.05 0.08 0.07 0.07 0.09 0.13 0.23 0.32 0.26 0.35 0.48 0.76 0.97 1.25 0.84 0.61 0.49 0.39 0.35 0.26
0.17 0.06 0.05 0.06 0.10 0.12 0.15 0.11 0.17 0.41 0.47 0.28 0.17 0.31 0.55 0.58 0.71 0.43 0.11 0.06 0.06 0.04 0.02 0.01 0.04 0.09 0.10 0.07 0.13 0.18 0.21 0.26 0.38 0.37 0.39 0.44 0.45 0.79 1.04 0.63 0.55 0.48 0.43 0.36
0.26 0.17 0.04 0.04 0.05 0.11 0.10 0.16 0.19 0.22 0.20 0.32 0.37 0.52 0.53 0.31 0.26 0.14 0.08 0.06 0.04 0.03 0.01 0.01 0.02 0.09 0.11 0.13 0.11 0.17 0.25 0.30 0.32 0.41 0.45 0.42 0.31 0.39 0.94 0.75 0.66 0.56 0.48 0.54
0.27 0.36 0.15 0.06 0.02 0.07 0.13 0.07 0.15 0.23 0.30 0.28 0.22 0.51 0.34 0.14 0.16 0.10 0.08 0.07 0.06 0.05 0.04 0.03 0.03 0.08 0.12 0.15 0.18 0.21 0.32 0.43 0.41 0.49 0.56 0.93 0.43 0.34 0.34 0.63 0.67 0.95 0.62 0.59
0.16 0.34 0.27 0.30 0.03 0.05 0.12 0.13 0.08 0.16 0.45 0.38 0.56 0.38 0.16 0.14 0.09 0.06 0.05 0.04 0.07 0.10 0.07 0.08 0.08 0.12 0.18 0.21 0.26 0.33 0.38 0.46 0.55 0.48 0.57 0.50 0.71 0.74 0.52 0.39 0.59 0.82 1.04 0.87
0.09 0.25 0.33 0.22 0.19 0.17 0.34 0.19 0.23 0.29 0.34 0.31 0.28 0.23 0.15 0.11 0.10 0.10 0.11 0.12 0.20 0.29 0.19 0.16 0.17 0.18 0.31 0.36 0.35 0.42 0.40 0.48 0.57 0.78 0.68 0.75 0.56 0.62 0.76 0.92 0.70 0.59 0.73 0.82
0.03 0.16 0.39 0.27 0.26 0.34 0.63 0.71 0.67 0.54 0.40 0.28 0.24 0.19 0.13 0.10 0.08 0.13 0.17 0.19 0.34 0.37 0.38 0.37 0.36 0.35 0.41 0.41 0.55 0.48 0.50 0.50 0.60 0.74 0.99 1.16 1.19 1.07 0.87 1.05 1.51 1.05 0.82 0.66
0.01 0.06 0.35 0.41 0.44 0.71 0.80 0.35 0.28 0.45 0.53 0.28 0.16 0.16 0.17 0.18 0.15 0.15 0.19 0.21 0.29 0.32 0.38 0.48 0.55 0.47 0.46 0.56 0.53 0.64 0.69 0.77 0.88 1.00 1.04 1.09 1.38 1.63 1.93 1.56 1.38 1.58 1.33 1.00
0.07 0.15 0.23 0.32 0.48 0.49 0.32 0.42 0.40 0.45 0.48 0.26 0.16 0.16 0.18 0.17 0.14 0.17 0.21 0.28 0.35 0.36 0.36 0.35 0.59 0.76 0.63 0.60 0.55 0.54 0.74 0.84 1.18 1.15 1.24 1.17 1.02 1.17 1.49 1.78 1.90 1.69 1.63 1.37
0.26 0.25 0.45 0.51 0.47 0.33 0.26 0.39 0.35 0.36 0.27 0.17 0.13 0.14 0.11 0.12 0.15 0.20 0.25 0.28 0.29 0.27 0.23 0.19 0.22 0.42 0.72 0.69 0.62 0.51 0.48 0.72 0.71 0.83 0.83 0.85 1.01 1.05 1.09 1.09 1.27 1.45 1.58 1.52
0.96 0.65 0.53 0.42 0.37 0.37 0.29 0.32 0.31 0.17 0.13 0.12 0.10 0.11 0.08 0.11 0.15 0.19 0.24 0.27 0.25 0.22 0.17 0.09 0.06 0.08 0.17 0.29 0.42 0.54 0.59 0.45 0.47 0.45 0.50 0.63 0.63 0.69 0.78 0.80 0.83 0.78 0.78 0.82
0.55 0.31 0.34 0.34 0.32 0.16 0.16 0.16 0.15 0.11 0.12 0.13 0.11 0.10 0.10 0.13 0.16 0.21 0.20 0.20 0.18 0.17 0.14 0.08 0.05 0.07 0.10 0.13 0.18 0.24 0.33 0.38 0.38 0.35 0.34 0.34 0.38 0.43 0.47 0.52 0.62 0.66 0.67 0.62
0.13 0.11 0.11 0.19 0.21 0.11 0.07 0.11 0.11 0.10 0.10 0.11 0.13 0.16 0.13 0.13 0.18 0.19 0.19 0.16 0.14 0.11 0.08 0.05 0.04 0.05 0.05 0.04 0.05 0.08 0.08 0.08 0.09 0.10 0.12 0.14 0.15 0.18 0.21 0.25 0.28 0.31 0.41 0.39
0.07 0.12 0.09 0.16 0.12 0.08 0.09 0.09 0.07 0.07 0.10 0.09 0.08 0.14 0.17 0.12 0.17 0.18 0.22 0.22 0.19 0.15 0.12 0.09 0.07 0.05 0.05 0.03 0.03 0.01 0.01 0.00 0.00 0.01 0.01 0.00 0.00 0.00 0.01 0.02 0.04 0.05 0.07 0.06

GFSCGP_prec_precacc24_111.txt.gz
Total_Precipitation_Accumulation
0.00 0.00 0.00 0.00 0.00 0.00 0.00 0.00 0.00 0.00 0.00 0.00 0.00 0.00 0.00 0.00 0.00 0.00 0.00 0.00 0.00 0.00 0.00 0.00 0.00 0.00 0.00 0.00 0.00 0.00 0.00 0.01 0.02 0.01 0.04 0.04 0.00 0.01 0.04 0.01 0.01 0.02 0.01 0.00
0.00 0.00 0.00 0.00 0.00 0.00 0.00 0.00 0.00 0.00 0.00 0.00 0.00 0.00 0.00 0.00 0.00 0.00 0.00 0.00 0.00 0.00 0.00 0.00 0.00 0.00 0.00 0.00 0.00 0.00 0.00 0.00 0.01 0.01 0.03 0.05 0.04 0.09 0.11 0.15 0.14 0.05 0.02 0.00
0.00 0.00 0.00 0.00 0.00 0.00 0.00 0.00 0.00 0.00 0.00 0.00 0.00 0.00 0.00 0.00 0.00 0.00 0.00 0.00 0.00 0.00 0.00 0.00 0.00 0.00 0.00 0.00 0.00 0.00 0.00 0.00 0.02 0.03 0.05 0.07 0.12 0.16 0.11 0.06 0.03 0.03 0.05 0.03
0.00 0.00 0.00 0.00 0.00 0.00 0.00 0.00 0.00 0.00 0.00 0.00 0.00 0.00 0.00 0.00 0.00 0.00 0.00 0.00 0.00 0.00 0.00 0.00 0.00 0.00 0.00 0.00 0.00 0.00 0.00 0.00 0.00 0.00 0.01 0.01 0.01 0.00 0.00 0.00 0.01 0.05 0.05 0.08
0.00 0.00 0.00 0.00 0.00 0.00 0.00 0.00 0.00 0.00 0.00 0.00 0.00 0.00 0.00 0.00 0.00 0.00 0.01 0.01 0.01 0.01 0.00 0.00 0.00 0.00 0.00 0.00 0.00 0.00 0.00 0.00 0.01 0.01 0.02 0.01 0.01 0.00 0.00 0.01 0.04 0.03 0.03 0.04
0.00 0.00 0.00 0.00 0.00 0.00 0.00 0.00 0.00 0.00 0.00 0.00 0.00 0.00 0.00 0.00 0.01 0.02 0.09 0.09 0.07 0.06 0.04 0.03 0.02 0.01 0.01 0.00 0.03 0.01 0.00 0.00 0.00 0.01 0.01 0.01 0.01 0.00 0.00 0.01 0.03 0.03 0.02 0.06
0.00 0.00 0.00 0.00 0.00 0.00 0.00 0.00 0.01 0.01 0.01 0.00 0.00 0.00 0.00 0.01 0.04 0.10 0.12 0.07 0.05 0.04 0.07 0.07 0.03 0.02 0.02 0.01 0.01 0.09 0.09 0.05 0.05 0.07 0.05 0.04 0.04 0.03 0.03 0.04 0.05 0.05 0.05 0.04
0.02 0.02 0.00 0.00 0.00 0.00 0.00 0.01 0.02 0.03 0.01 0.02 0.06 0.05 0.02 0.10 0.14 0.12 0.05 0.04 0.03 0.04 0.03 0.02 0.02 0.01 0.00 0.03 0.02 0.05 0.17 0.25 0.22 0.25 0.19 0.16 0.16 0.13 0.13 0.10 0.05 0.05 0.03 0.02
0.04 0.03 0.00 0.00 0.01 0.00 0.00 0.01 0.02 0.09 0.06 0.04 0.05 0.03 0.11 0.36 0.34 0.51 0.52 0.24 0.17 0.07 0.03 0.03 0.02 0.02 0.02 0.06 0.15 0.23 0.42 0.31 0.41 0.39 0.28 0.27 0.20 0.14 0.13 0.14 0.13 0.11 0.12 0.13
0.02 0.05 0.00 0.01 0.01 0.00 0.00 0.02 0.09 0.13 0.14 0.05 0.00 0.01 0.15 0.34 0.47 0.59 0.50 0.31 0.15 0.09 0.03 0.03 0.03 0.06 0.09 0.17 0.43 0.72 0.90 0.84 0.75 0.65 0.57 0.46 0.37 0.34 0.27 0.22 0.17 0.20 0.19 0.20
0.01 0.03 0.01 0.03 0.07 0.03 0.04 0.05 0.10 0.15 0.10 0.14 0.07 0.18 0.57 0.51 0.75 0.59 0.16 0.11 0.10 0.05 0.02 0.00 0.00 0.05 0.07 0.15 0.27 0.41 0.63 0.92 1.34 1.24 1.12 0.86 0.61 0.79 0.72 0.54 0.45 0.40 0.31 0.27
0.02 0.02 0.01 0.01 0.03 0.04 0.07 0.13 0.17 0.32 0.21 0.13 0.11 0.16 0.60 0.53 0.26 0.63 0.30 0.21 0.06 0.00 0.00 0.00 0.01 0.02 0.04 0.08 0.14 0.28 0.33 0.49 0.75 0.89 1.28 1.55 1.09 0.88 0.84 0.79 0.67 0.60 0.43 0.36
0.02 0.07 0.04 0.01 0.02 0.07 0.10 0.17 0.26 0.35 0.27 0.17 0.22 0.31 0.38 0.34 0.49 0.85 0.44 0.07 0.02 0.01 0.00 0.00 0.01 0.04 0.04 0.04 0.08 0.12 0.24 0.38 0.40 0.51 0.52 0.79 0.99 1.29 0.92 0.85 1.02 0.73 0.55 0.39
0.01 0.01 0.02 0.01 0.05 0.08 0.13 0.08 0.13 0.34 0.42 0.23 0.14 0.31 0.55 0.58 0.71 0.43 0.11 0.06 0.06 0.04 0.01 0.00 0.01 0.04 0.06 0.04 0.10 0.14 0.18 0.24 0.40 0.45 0.45 0.52 0.59 0.91 1.16 0.75 0.69 0.71 0.52 0.44
0.03 0.02 0.00 0.00 0.03 0.08 0.06 0.11 0.16 0.19 0.19 0.31 0.37 0.52 0.53 0.31 0.26 0.14 0.08 0.06 0.04 0.03 0.00 0.00 0.01 0.05 0.07 0.09 0.08 0.14 0.19 0.24 0.31 0.41 0.55 0.63 0.51 0.59 1.14 0.95 0.72 0.60 0.57 0.63
0.04 0.04 0.02 0.02 0.02 0.07 0.13 0.07 0.15 0.23 0.30 0.28 0.22 0.51 0.34 0.14 0.14 0.09 0.08 0.07 0.06 0.05 0.04 0.01 0.01 0.05 0.08 0.11 0.15 0.18 0.28 0.42 0.43 0.49 0.61 1.15 0.71 0.61 0.51 0.90 0.90 0.98 0.63 0.63
0.02 0.02 0.11 0.26 0.03 0.05 0.12 0.13 0.08 0.16 0.45 0.38 0.55 0.35 0.16 0.13 0.08 0.06 0.05 0.04 0.05 0.06 0.07 0.07 0.08 0.11 0.16 0.19 0.24 0.30 0.36 0.45 0.57 0.52 0.62 0.57 0.92 0.97 0.78 0.61 0.84 1.02 1.12 0.94
0.01 0.05 0.21 0.21 0.18 0.16 0.33 0.19 0.23 0.29 0.34 0.31 0.29 0.22 0.15 0.12 0.09 0.08 0.08 0.09 0.10 0.11 0.13 0.16 0.15 0.15 0.27 0.32 0.30 0.36 0.36 0.46 0.60 0.84 0.75 0.78 0.62 0.74 0.85 1.12 0.88 0.72 0.87 1.03
0.00 0.09 0.33 0.26 0.24 0.32 0.63 0.71 0.68 0.54 0.40 0.28 0.24 0.20 0.13 0.10 0.08 0.11 0.11 0.13 0.18 0.22 0.20 0.24 0.23 0.27 0.31 0.35 0.38 0.37 0.33 0.36 0.52 0.70 0.98 1.16 1.18 1.04 0.83 1.04 1.57 1.20 0.98 0.92
0.01 0.04 0.31 0.41 0.45 0.72 0.80 0.36 0.28 0.47 0.55 0.29 0.17 0.17 0.19 0.21 0.19 0.17 0.19 0.18 0.23 0.22 0.23 0.24 0.27 0.30 0.26 0.42 0.41 0.45 0.51 0.50 0.69 0.89 0.96 1.03 1.28 1.50 1.84 1.49 1.38 1.74 1.56 1.32
0.08 0.15 0.21 0.31 0.49 0.50 0.33 0.42 0.42 0.47 0.50 0.26 0.17 0.19 0.21 0.21 0.20 0.21 0.21 0.23 0.25 0.23 0.21 0.20 0.23 0.26 0.38 0.43 0.43 0.47 0.67 0.75 1.00 1.00 1.09 1.04 0.94 1.05 1.33 1.66 1.86 1.73 1.77 1.61
0.25 0.24 0.45 0.53 0.50 0.36 0.27 0.40 0.39 0.40 0.29 0.19 0.17 0.19 0.14 0.15 0.19 0.18 0.20 0.23 0.21 0.19 0.16 0.13 0.12 0.16 0.29 0.32 0.40 0.41 0.45 0.66 0.64 0.74 0.79 0.80 0.95 1.00 1.05 1.07 1.28 1.48 1.64 1.64
0.94 0.65 0.53 0.40 0.38 0.38 0.29 0.34 0.33 0.21 0.16 0.16 0.13 0.15 0.12 0.14 0.17 0.19 0.21 0.22 0.20 0.16 0.12 0.08 0.06 0.07 0.14 0.21 0.25 0.36 0.50 0.42 0.44 0.43 0.49 0.62 0.63 0.69 0.78 0.80 0.83 0.79 0.79 0.85
0.53 0.32 0.34 0.31 0.32 0.17 0.18 0.17 0.18 0.14 0.15 0.16 0.15 0.13 0.13 0.15 0.17 0.19 0.18 0.18 0.13 0.12 0.10 0.06 0.04 0.06 0.10 0.13 0.17 0.22 0.30 0.34 0.33 0.31 0.32 0.33 0.37 0.43 0.47 0.52 0.62 0.66 0.67 0.62
0.13 0.11 0.12 0.18 0.20 0.12 0.08 0.13 0.13 0.14 0.13 0.14 0.17 0.16 0.13 0.13 0.16 0.16 0.17 0.15 0.13 0.10 0.08 0.05 0.04 0.04 0.05 0.04 0.05 0.08 0.08 0.08 0.09 0.10 0.12 0.14 0.15 0.17 0.21 0.25 0.28 0.31 0.41 0.39
0.05 0.11 0.11 0.16 0.11 0.09 0.11 0.11 0.09 0.09 0.13 0.13 0.11 0.15 0.16 0.10 0.13 0.13 0.15 0.15 0.13 0.12 0.10 0.08 0.07 0.05 0.05 0.03 0.03 0.01 0.01 0.00 0.00 0.01 0.01 0.00 0.00 0.00 0.01 0.02 0.04 0.05 0.07 0.06

GFSCGP_prec_precacc24_114.txt.gz
Total_Precipitation_Accumulation
0.00 0.00 0.00 0.00 0.00 0.00 0.00 0.00 0.00 0.00 0.00 0.00 0.00 0.00 0.00 0.00 0.00 0.00 0.00 0.00 0.00 0.00 0.00 0.00 0.00 0.00 0.00 0.00 0.00 0.00 0.00 0.01 0.02 0.01 0.04 0.04 0.00 0.01 0.04 0.01 0.01 0.01 0.00 0.00
0.00 0.00 0.00 0.00 0.00 0.00 0.00 0.00 0.00 0.00 0.00 0.00 0.00 0.00 0.00 0.00 0.00 0.00 0.00 0.00 0.00 0.00 0.00 0.00 0.00 0.00 0.00 0.00 0.00 0.00 0.00 0.00 0.01 0.01 0.03 0.05 0.04 0.09 0.11 0.15 0.14 0.04 0.03 0.01
0.00 0.00 0.00 0.00 0.00 0.00 0.00 0.00 0.00 0.00 0.00 0.00 0.00 0.00 0.00 0.00 0.00 0.00 0.00 0.00 0.00 0.00 0.00 0.00 0.00 0.00 0.00 0.00 0.00 0.00 0.00 0.00 0.02 0.03 0.04 0.07 0.12 0.16 0.11 0.06 0.03 0.03 0.05 0.05
0.00 0.00 0.00 0.00 0.00 0.00 0.00 0.00 0.00 0.00 0.00 0.00 0.00 0.00 0.00 0.00 0.00 0.00 0.00 0.00 0.00 0.00 0.00 0.00 0.00 0.00 0.00 0.00 0.00 0.00 0.00 0.00 0.00 0.00 0.01 0.01 0.01 0.00 0.00 0.00 0.01 0.05 0.04 0.07
0.00 0.00 0.00 0.00 0.00 0.00 0.00 0.00 0.00 0.00 0.00 0.00 0.00 0.00 0.00 0.00 0.00 0.00 0.01 0.01 0.01 0.01 0.00 0.00 0.00 0.00 0.00 0.00 0.00 0.00 0.00 0.00 0.01 0.01 0.02 0.01 0.01 0.00 0.00 0.01 0.04 0.03 0.02 0.04
0.00 0.00 0.00 0.00 0.00 0.00 0.00 0.00 0.00 0.00 0.00 0.00 0.00 0.00 0.00 0.00 0.00 0.02 0.09 0.09 0.07 0.06 0.04 0.03 0.02 0.01 0.01 0.00 0.03 0.01 0.00 0.00 0.00 0.01 0.01 0.01 0.01 0.00 0.00 0.01 0.03 0.03 0.02 0.06
0.00 0.00 0.00 0.00 0.00 0.00 0.00 0.01 0.02 0.03 0.00 0.00 0.00 0.00 0.00 0.01 0.04 0.10 0.12 0.07 0.05 0.04 0.07 0.07 0.03 0.02 0.02 0.01 0.01 0.09 0.09 0.05 0.05 0.07 0.05 0.04 0.04 0.03 0.03 0.03 0.04 0.05 0.05 0.07
0.03 0.03 0.00 0.00 0.00 0.00 0.00 0.01 0.05 0.06 0.03 0.02 0.03 0.04 0.06 0.11 0.16 0.16 0.06 0.04 0.03 0.04 0.03 0.02 0.01 0.01 0.00 0.03 0.02 0.05 0.17 0.25 0.22 0.25 0.19 0.16 0.16 0.13 0.13 0.10 0.05 0.05 0.03 0.02
0.02 0.03 0.00 0.00 0.01 0.00 0.00 0.01 0.02 0.11 0.07 0.05 0.01 0.04 0.10 0.31 0.34 0.51 0.52 0.24 0.17 0.07 0.03 0.03 0.02 0.01 0.02 0.06 0.14 0.19 0.38 0.31 0.40 0.39 0.28 0.27 0.20 0.14 0.13 0.14 0.12 0.11 0.12 0.14
0.02 0.05 0.01 0.00 0.00 0.00 0.00 0.01 0.09 0.15 0.16 0.06 0.00 0.01 0.16 0.21 0.45 0.59 0.50 0.31 0.15 0.09 0.03 0.03 0.03 0.02 0.05 0.16 0.38 0.64 0.84 0.83 0.74 0.64 0.57 0.46 0.37 0.33 0.28 0.22 0.17 0.19 0.19 0.21
0.01 0.03 0.02 0.00 0.00 0.02 0.04 0.04 0.05 0.12 0.10 0.12 0.05 0.12 0.33 0.43 0.69 0.61 0.16 0.11 0.10 0.05 0.02 0.00 0.00 0.01 0.04 0.12 0.25 0.40 0.55 0.89 1.33 1.23 1.10 0.84 0.60 0.78 0.73 0.55 0.47 0.42 0.31 0.29
0.01 0.01 0.01 0.00 0.00 0.02 0.05 0.12 0.15 0.28 0.18 0.11 0.10 0.09 0.26 0.42 0.24 0.63 0.30 0.21 0.06 0.00 0.00 0.00 0.00 0.02 0.02 0.04 0.12 0.27 0.31 0.48 0.72 0.85 1.26 1.53 1.08 0.88 0.85 0.80 0.69 0.66 0.50 0.46
0.01 0.04 0.04 0.02 0.00 0.02 0.07 0.15 0.23 0.30 0.20 0.10 0.15 0.25 0.33 0.33 0.49 0.85 0.44 0.07 0.02 0.01 0.00 0.00 0.00 0.02 0.02 0.02 0.04 0.08 0.19 0.35 0.36 0.50 0.56 0.82 1.03 1.31 0.94 0.87 1.05 0.93 0.77 0.59
0.00 0.00 0.01 0.02 0.01 0.02 0.02 0.05 0.10 0.27 0.27 0.17 0.10 0.28 0.47 0.56 0.70 0.42 0.11 0.06 0.06 0.04 0.01 0.00 0.00 0.02 0.04 0.02 0.04 0.08 0.13 0.20 0.38 0.41 0.46 0.54 0.64 1.01 1.28 0.89 0.83 0.93 0.99 0.84
0.00 0.00 0.00 0.00 0.00 0.00 0.00 0.06 0.12 0.14 0.15 0.25 0.34 0.50 0.49 0.28 0.20 0.12 0.08 0.06 0.04 0.03 0.00 0.00 0.01 0.03 0.03 0.05 0.06 0.10 0.16 0.22 0.30 0.38 0.53 0.65 0.63 0.77 1.30 1.11 0.99 0.92 0.92 1.12
0.03 0.02 0.00 0.00 0.00 0.00 0.00 0.04 0.10 0.18 0.27 0.27 0.21 0.46 0.31 0.13 0.13 0.09 0.08 0.07 0.06 0.05 0.03 0.01 0.01 0.03 0.06 0.09 0.11 0.15 0.30 0.42 0.44 0.50 0.62 1.18 0.73 0.66 0.67 1.07 1.04 1.15 0.74 0.72
0.01 0.01 0.01 0.01 0.00 0.01 0.05 0.12 0.08 0.15 0.44 0.36 0.53 0.33 0.15 0.13 0.09 0.06 0.05 0.04 0.05 0.05 0.06 0.06 0.09 0.13 0.18 0.21 0.23 0.29 0.37 0.46 0.55 0.55 0.69 0.66 0.96 1.02 0.91 0.70 0.92 1.15 1.28 1.03
0.00 0.01 0.04 0.01 0.02 0.11 0.32 0.19 0.23 0.27 0.33 0.31 0.29 0.22 0.15 0.12 0.09 0.08 0.07 0.08 0.10 0.08 0.09 0.14 0.18 0.19 0.30 0.32 0.29 0.37 0.37 0.44 0.55 0.81 0.80 0.88 0.66 0.79 0.90 1.19 1.03 0.88 1.08 1.20
0.00 0.00 0.05 0.09 0.16 0.31 0.63 0.71 0.68 0.53 0.38 0.28 0.25 0.20 0.13 0.10 0.08 0.11 0.11 0.13 0.16 0.16 0.18 0.24 0.25 0.29 0.33 0.34 0.37 0.37 0.30 0.30 0.40 0.60 0.92 1.18 1.23 1.05 0.81 1.04 1.59 1.30 1.11 1.09
0.00 0.01 0.14 0.30 0.43 0.70 0.72 0.35 0.28 0.47 0.53 0.28 0.17 0.17 0.19 0.21 0.23 0.20 0.19 0.18 0.22 0.22 0.24 0.23 0.23 0.22 0.20 0.32 0.32 0.24 0.32 0.25 0.48 0.70 0.81 0.92 1.22 1.45 1.81 1.43 1.32 1.75 1.60 1.41
0.08 0.14 0.17 0.28 0.50 0.47 0.29 0.42 0.42 0.46 0.47 0.26 0.17 0.20 0.23 0.22 0.21 0.21 0.21 0.24 0.26 0.26 0.24 0.19 0.15 0.11 0.16 0.17 0.23 0.24 0.29 0.47 0.61 0.64 0.74 0.78 0.75 0.91 1.26 1.58 1.77 1.65 1.73 1.60
0.23 0.22 0.44 0.51 0.52 0.38 0.27 0.40 0.39 0.39 0.29 0.19 0.20 0.23 0.14 0.16 0.19 0.18 0.21 0.24 0.24 0.21 0.15 0.10 0.07 0.08 0.11 0.10 0.12 0.19 0.27 0.42 0.40 0.34 0.38 0.51 0.70 0.77 0.85 0.89 1.13 1.36 1.55 1.56
0.88 0.64 0.53 0.38 0.37 0.38 0.29 0.34 0.34 0.21 0.17 0.17 0.17 0.18 0.13 0.15 0.18 0.20 0.23 0.24 0.22 0.15 0.09 0.06 0.04 0.05 0.07 0.09 0.10 0.11 0.23 0.25 0.30 0.29 0.30 0.33 0.36 0.45 0.55 0.61 0.69 0.70 0.74 0.81
0.47 0.31 0.31 0.28 0.31 0.17 0.18 0.18 0.18 0.15 0.16 0.18 0.17 0.15 0.15 0.16 0.19 0.21 0.20 0.20 0.14 0.09 0.07 0.04 0.02 0.03 0.06 0.08 0.10 0.13 0.13 0.13 0.15 0.16 0.19 0.22 0.28 0.33 0.37 0.41 0.50 0.55 0.60 0.59
0.13 0.12 0.12 0.16 0.19 0.12 0.09 0.13 0.14 0.15 0.15 0.16 0.19 0.17 0.14 0.14 0.18 0.17 0.18 0.15 0.10 0.07 0.05 0.03 0.03 0.03 0.04 0.03 0.04 0.07 0.07 0.06 0.05 0.04 0.06 0.08 0.10 0.12 0.16 0.22 0.26 0.29 0.38 0.37
0.05 0.11 0.11 0.16 0.11 0.09 0.11 0.12 0.10 0.11 0.15 0.14 0.12 0.15 0.15 0.10 0.13 0.12 0.13 0.09 0.06 0.06 0.04 0.04 0.04 0.03 0.04 0.03 0.03 0.01 0.00 0.00 0.00 0.00 0.00 0.00 0.00 0.00 0.00 0.02 0.04 0.04 0.06 0.05

GFSCGP_prec_precacc24_117.txt.gz
Total_Precipitation_Accumulation
0.00 0.00 0.00 0.00 0.00 0.00 0.00 0.00 0.00 0.00 0.00 0.00 0.00 0.00 0.00 0.00 0.00 0.00 0.00 0.00 0.00 0.00 0.00 0.00 0.00 0.00 0.00 0.00 0.00 0.00 0.00 0.01 0.02 0.01 0.04 0.04 0.00 0.01 0.04 0.03 0.09 0.12 0.11 0.08
0.00 0.00 0.00 0.00 0.00 0.00 0.00 0.00 0.00 0.00 0.00 0.00 0.00 0.00 0.00 0.00 0.00 0.00 0.00 0.00 0.00 0.00 0.00 0.00 0.00 0.00 0.00 0.00 0.00 0.00 0.00 0.00 0.01 0.01 0.03 0.05 0.04 0.09 0.11 0.15 0.17 0.10 0.09 0.22
0.00 0.00 0.00 0.00 0.00 0.00 0.00 0.00 0.00 0.00 0.00 0.00 0.00 0.00 0.00 0.00 0.00 0.00 0.00 0.00 0.00 0.00 0.00 0.00 0.00 0.00 0.00 0.00 0.00 0.00 0.00 0.00 0.02 0.03 0.04 0.07 0.12 0.16 0.11 0.06 0.03 0.02 0.06 0.10
0.00 0.00 0.00 0.00 0.00 0.00 0.00 0.00 0.00 0.00 0.00 0.00 0.00 0.00 0.00 0.00 0.00 0.00 0.00 0.00 0.00 0.01 0.00 0.00 0.00 0.00 0.00 0.00 0.00 0.00 0.00 0.00 0.00 0.00 0.01 0.01 0.01 0.00 0.00 0.00 0.01 0.05 0.04 0.07
0.00 0.00 0.00 0.00 0.00 0.00 0.00 0.00 0.00 0.00 0.00 0.00 0.00 0.00 0.00 0.00 0.00 0.00 0.00 0.01 0.01 0.02 0.00 0.00 0.00 0.00 0.00 0.00 0.00 0.00 0.00 0.00 0.01 0.01 0.02 0.01 0.01 0.00 0.00 0.01 0.04 0.03 0.02 0.03
0.00 0.00 0.00 0.00 0.00 0.00 0.00 0.00 0.00 0.00 0.00 0.01 0.00 0.00 0.00 0.00 0.00 0.02 0.07 0.07 0.06 0.06 0.04 0.03 0.02 0.01 0.01 0.00 0.03 0.01 0.00 0.00 0.00 0.01 0.01 0.01 0.01 0.00 0.00 0.01 0.03 0.03 0.01 0.06
0.00 0.00 0.00 0.00 0.01 0.00 0.01 0.01 0.02 0.04 0.01 0.01 0.00 0.00 0.00 0.03 0.07 0.08 0.08 0.05 0.03 0.03 0.07 0.07 0.03 0.02 0.02 0.01 0.01 0.08 0.08 0.05 0.05 0.06 0.05 0.04 0.04 0.03 0.03 0.03 0.04 0.05 0.05 0.07
0.03 0.03 0.00 0.01 0.00 0.01 0.01 0.01 0.05 0.07 0.03 0.02 0.02 0.03 0.15 0.22 0.18 0.26 0.09 0.04 0.03 0.04 0.03 0.02 0.01 0.01 0.00 0.03 0.02 0.04 0.12 0.16 0.18 0.17 0.18 0.16 0.16 0.13 0.13 0.10 0.05 0.05 0.03 0.02
0.02 0.03 0.00 0.01 0.01 0.00 0.00 0.00 0.00 0.10 0.07 0.05 0.01 0.07 0.47 0.66 0.22 0.54 0.74 0.34 0.21 0.09 0.04 0.04 0.02 0.01 0.02 0.05 0.05 0.12 0.29 0.27 0.24 0.31 0.27 0.25 0.19 0.14 0.13 0.14 0.12 0.11 0.12 0.14
0.02 0.05 0.01 0.00 0.00 0.00 0.00 0.01 0.04 0.11 0.16 0.07 0.00 0.02 0.22 0.30 0.24 0.46 0.58 0.37 0.18 0.10 0.03 0.03 0.03 0.01 0.04 0.08 0.14 0.26 0.47 0.56 0.56 0.55 0.53 0.43 0.34 0.31 0.27 0.22 0.17 0.19 0.19 0.21
0.01 0.03 0.03 0.00 0.00 0.00 0.01 0.02 0.04 0.08 0.10 0.13 0.05 0.07 0.23 0.16 0.33 0.45 0.16 0.12 0.10 0.05 0.02 0.00 0.00 0.00 0.03 0.07 0.17 0.26 0.36 0.71 1.15 1.13 1.09 0.80 0.57 0.77 0.72 0.54 0.47 0.43 0.32 0.29
0.01 0.01 0.02 0.00 0.00 0.00 0.00 0.02 0.10 0.25 0.16 0.10 0.09 0.06 0.09 0.10 0.11 0.34 0.29 0.21 0.06 0.00 0.00 0.00 0.00 0.01 0.01 0.02 0.08 0.23 0.28 0.44 0.65 0.81 1.23 1.47 1.05 0.86 0.84 0.79 0.69 0.68 0.51 0.48
0.00 0.03 0.04 0.03 0.01 0.00 0.00 0.02 0.11 0.23 0.16 0.07 0.11 0.12 0.15 0.28 0.34 0.80 0.44 0.07 0.02 0.01 0.00 0.00 0.00 0.00 0.00 0.01 0.02 0.06 0.16 0.33 0.34 0.46 0.51 0.73 0.95 1.26 0.93 0.88 1.06 0.93 0.77 0.59
0.00 0.00 0.02 0.03 0.02 0.01 0.00 0.00 0.01 0.13 0.16 0.05 0.04 0.15 0.28 0.45 0.44 0.31 0.11 0.06 0.06 0.04 0.01 0.00 0.00 0.00 0.00 0.00 0.01 0.02 0.05 0.13 0.29 0.36 0.38 0.47 0.59 0.97 1.28 0.91 0.87 0.94 1.02 0.87
0.00 0.00 0.00 0.00 0.00 0.00 0.00 0.00 0.00 0.03 0.08 0.15 0.10 0.31 0.41 0.27 0.20 0.12 0.08 0.06 0.04 0.03 0.00 0.00 0.00 0.01 0.00 0.02 0.03 0.04 0.08 0.15 0.24 0.31 0.47 0.61 0.62 0.78 1.31 1.11 1.03 0.97 1.06 1.35
0.00 0.00 0.00 0.00 0.00 0.00 0.00 0.00 0.00 0.02 0.12 0.17 0.16 0.31 0.25 0.13 0.13 0.09 0.08 0.07 0.06 0.05 0.03 0.01 0.01 0.01 0.03 0.07 0.08 0.14 0.23 0.36 0.43 0.53 0.63 1.17 0.76 0.68 0.67 1.06 1.04 1.18 0.81 0.93
0.00 0.00 0.00 0.00 0.00 0.00 0.00 0.04 0.04 0.09 0.30 0.27 0.48 0.30 0.15 0.13 0.09 0.06 0.05 0.04 0.05 0.05 0.05 0.06 0.09 0.11 0.16 0.20 0.22 0.26 0.38 0.47 0.56 0.58 0.77 0.74 1.01 1.03 0.94 0.71 0.93 1.17 1.33 1.15
0.00 0.00 0.01 0.01 0.01 0.04 0.25 0.17 0.19 0.22 0.30 0.31 0.29 0.22 0.15 0.12 0.09 0.08 0.07 0.08 0.10 0.08 0.09 0.14 0.16 0.17 0.26 0.33 0.28 0.38 0.41 0.50 0.62 0.87 0.85 0.89 0.69 0.85 0.92 1.19 1.03 0.92 1.14 1.30
0.00 0.00 0.01 0.02 0.03 0.15 0.51 0.68 0.66 0.52 0.37 0.28 0.25 0.20 0.13 0.10 0.08 0.12 0.11 0.12 0.15 0.15 0.17 0.24 0.28 0.29 0.30 0.32 0.37 0.42 0.36 0.36 0.41 0.65 0.94 1.14 1.21 1.07 0.82 1.05 1.60 1.34 1.13 1.14
0.00 0.00 0.04 0.06 0.19 0.49 0.57 0.34 0.28 0.47 0.51 0.28 0.17 0.18 0.20 0.21 0.23 0.20 0.18 0.17 0.21 0.21 0.25 0.26 0.26 0.20 0.16 0.25 0.26 0.18 0.28 0.21 0.42 0.63 0.73 0.82 1.09 1.38 1.81 1.46 1.34 1.75 1.59 1.42
0.07 0.09 0.07 0.14 0.29 0.37 0.28 0.42 0.42 0.46 0.46 0.26 0.17 0.20 0.26 0.23 0.20 0.19 0.19 0.24 0.27 0.28 0.29 0.22 0.11 0.07 0.10 0.10 0.16 0.16 0.16 0.35 0.44 0.43 0.49 0.44 0.45 0.64 1.07 1.46 1.69 1.61 1.68 1.53
0.21 0.20 0.40 0.47 0.45 0.32 0.27 0.40 0.39 0.39 0.29 0.19 0.20 0.25 0.16 0.16 0.19 0.18 0.21 0.25 0.26 0.24 0.16 0.08 0.05 0.05 0.07 0.05 0.05 0.09 0.14 0.26 0.27 0.22 0.16 0.21 0.30 0.38 0.48 0.57 0.86 1.12 1.35 1.39
0.50 0.56 0.51 0.30 0.30 0.33 0.29 0.34 0.34 0.21 0.17 0.18 0.18 0.22 0.16 0.17 0.20 0.22 0.25 0.25 0.25 0.16 0.09 0.05 0.03 0.02 0.03 0.05 0.05 0.04 0.10 0.09 0.10 0.11 0.13 0.14 0.14 0.17 0.24 0.30 0.41 0.45 0.51 0.61
0.37 0.28 0.21 0.20 0.27 0.17 0.18 0.18 0.18 0.15 0.16 0.19 0.20 0.18 0.18 0.19 0.21 0.23 0.23 0.23 0.17 0.09 0.07 0.03 0.01 0.01 0.03 0.03 0.05 0.07 0.06 0.05 0.04 0.03 0.05 0.07 0.10 0.11 0.13 0.15 0.20 0.23 0.28 0.31
0.12 0.12 0.10 0.13 0.16 0.10 0.09 0.13 0.14 0.15 0.15 0.18 0.22 0.19 0.17 0.16 0.20 0.19 0.20 0.17 0.09 0.06 0.04 0.02 0.01 0.01 0.02 0.01 0.02 0.03 0.03 0.03 0.02 0.00 0.00 0.01 0.02 0.04 0.07 0.10 0.13 0.14 0.21 0.19
0.04 0.10 0.10 0.15 0.09 0.07 0.09 0.11 0.10 0.11 0.15 0.15 0.14 0.18 0.18 0.11 0.14 0.13 0.14 0.09 0.04 0.03 0.01 0.01 0.01 0.01 0.02 0.01 0.01 0.00 0.00 0.00 0.00 0.00 0.00 0.00 0.00 0.00 0.00 0.01 0.03 0.04 0.06 0.05

GFSCGP_prec_precacc24_120.txt.gz
Total_Precipitation_Accumulation
0.00 0.00 0.00 0.00 0.00 0.00 0.00 0.00 0.00 0.00 0.00 0.00 0.00 0.00 0.00 0.00 0.00 0.00 0.00 0.00 0.00 0.00 0.00 0.00 0.00 0.00 0.00 0.00 0.00 0.00 0.00 0.00 0.00 0.01 0.02 0.02 0.00 0.01 0.05 0.04 0.10 0.15 0.27 0.39
0.00 0.00 0.00 0.00 0.00 0.00 0.00 0.00 0.00 0.00 0.00 0.00 0.00 0.00 0.00 0.00 0.00 0.00 0.00 0.00 0.00 0.00 0.00 0.00 0.00 0.00 0.00 0.00 0.00 0.00 0.00 0.00 0.00 0.00 0.00 0.00 0.03 0.08 0.10 0.15 0.17 0.10 0.09 0.25
0.00 0.00 0.00 0.00 0.00 0.00 0.00 0.00 0.00 0.00 0.00 0.00 0.00 0.00 0.00 0.00 0.00 0.00 0.00 0.00 0.00 0.00 0.00 0.00 0.00 0.00 0.00 0.00 0.00 0.00 0.00 0.00 0.00 0.00 0.00 0.02 0.07 0.14 0.10 0.06 0.03 0.02 0.06 0.10
0.00 0.00 0.00 0.00 0.00 0.00 0.00 0.00 0.00 0.00 0.00 0.00 0.00 0.00 0.00 0.00 0.00 0.00 0.00 0.00 0.00 0.02 0.01 0.00 0.00 0.00 0.00 0.00 0.00 0.00 0.00 0.00 0.00 0.00 0.00 0.00 0.00 0.00 0.00 0.00 0.01 0.05 0.03 0.07
0.00 0.00 0.00 0.00 0.00 0.00 0.00 0.00 0.00 0.00 0.00 0.00 0.00 0.00 0.00 0.00 0.00 0.00 0.01 0.01 0.01 0.02 0.01 0.01 0.00 0.00 0.00 0.00 0.00 0.00 0.00 0.00 0.00 0.00 0.00 0.00 0.00 0.00 0.00 0.01 0.04 0.03 0.02 0.02
0.00 0.00 0.00 0.00 0.00 0.00 0.00 0.00 0.00 0.00 0.00 0.01 0.00 0.00 0.00 0.00 0.01 0.03 0.05 0.03 0.02 0.02 0.02 0.02 0.02 0.01 0.01 0.00 0.00 0.00 0.00 0.00 0.00 0.00 0.00 0.01 0.00 0.00 0.00 0.01 0.03 0.03 0.01 0.06
0.00 0.00 0.00 0.00 0.01 0.00 0.01 0.03 0.06 0.04 0.01 0.01 0.00 0.00 0.00 0.04 0.08 0.11 0.11 0.07 0.02 0.01 0.04 0.04 0.03 0.02 0.02 0.01 0.00 0.00 0.00 0.00 0.02 0.02 0.02 0.02 0.03 0.03 0.03 0.03 0.04 0.05 0.05 0.07
0.03 0.03 0.00 0.01 0.00 0.01 0.01 0.02 0.09 0.07 0.03 0.02 0.02 0.03 0.15 0.27 0.26 0.32 0.23 0.14 0.08 0.05 0.02 0.04 0.03 0.01 0.00 0.03 0.02 0.02 0.07 0.07 0.03 0.04 0.07 0.09 0.10 0.12 0.13 0.10 0.05 0.05 0.03 0.02
0.02 0.03 0.00 0.01 0.01 0.00 0.00 0.01 0.01 0.07 0.03 0.01 0.01 0.07 0.47 0.69 0.45 0.69 0.73 0.45 0.45 0.33 0.13 0.07 0.04 0.02 0.02 0.03 0.04 0.04 0.17 0.15 0.18 0.21 0.17 0.17 0.16 0.13 0.13 0.14 0.12 0.11 0.12 0.14
0.02 0.05 0.01 0.00 0.00 0.00 0.00 0.00 0.03 0.08 0.11 0.03 0.00 0.02 0.20 0.31 0.26 0.21 0.21 0.31 0.30 0.23 0.16 0.13 0.09 0.05 0.04 0.06 0.09 0.15 0.24 0.24 0.27 0.33 0.38 0.30 0.30 0.31 0.27 0.22 0.17 0.19 0.19 0.21
0.01 0.03 0.03 0.00 0.00 0.00 0.00 0.00 0.01 0.06 0.09 0.11 0.05 0.04 0.10 0.12 0.08 0.06 0.08 0.11 0.10 0.05 0.02 0.00 0.00 0.00 0.02 0.05 0.13 0.16 0.20 0.34 0.45 0.47 0.74 0.67 0.50 0.74 0.69 0.54 0.46 0.43 0.32 0.29
0.01 0.01 0.02 0.00 0.00 0.00 0.00 0.00 0.00 0.04 0.09 0.08 0.07 0.04 0.09 0.09 0.04 0.07 0.24 0.21 0.06 0.00 0.00 0.00 0.00 0.01 0.01 0.02 0.07 0.16 0.22 0.36 0.47 0.51 0.97 1.31 0.99 0.82 0.79 0.72 0.63 0.67 0.51 0.48
0.00 0.03 0.04 0.03 0.01 0.00 0.00 0.00 0.00 0.01 0.04 0.04 0.10 0.09 0.07 0.05 0.11 0.38 0.33 0.07 0.02 0.01 0.00 0.00 0.00 0.00 0.00 0.01 0.02 0.05 0.15 0.28 0.29 0.35 0.41 0.65 0.91 1.23 0.83 0.79 1.03 0.93 0.77 0.58
0.00 0.00 0.02 0.03 0.02 0.00 0.00 0.00 0.00 0.00 0.02 0.02 0.01 0.01 0.07 0.14 0.22 0.16 0.09 0.06 0.06 0.04 0.01 0.00 0.00 0.00 0.00 0.00 0.01 0.02 0.04 0.11 0.24 0.28 0.29 0.41 0.56 0.95 1.23 0.88 0.86 0.93 1.01 0.85
0.00 0.00 0.00 0.00 0.00 0.00 0.01 0.00 0.00 0.00 0.00 0.01 0.01 0.06 0.10 0.17 0.17 0.12 0.08 0.06 0.04 0.03 0.00 0.00 0.00 0.00 0.00 0.01 0.02 0.03 0.06 0.06 0.11 0.23 0.40 0.54 0.62 0.78 1.33 1.14 1.05 0.97 1.07 1.35
0.00 0.00 0.00 0.00 0.00 0.00 0.00 0.00 0.00 0.00 0.00 0.00 0.04 0.17 0.16 0.12 0.13 0.09 0.08 0.07 0.06 0.05 0.04 0.01 0.01 0.01 0.03 0.05 0.07 0.11 0.17 0.20 0.25 0.35 0.54 1.13 0.78 0.77 0.79 1.15 1.10 1.21 0.84 0.97
0.00 0.00 0.00 0.00 0.00 0.00 0.00 0.04 0.04 0.02 0.02 0.02 0.15 0.18 0.13 0.12 0.09 0.06 0.04 0.04 0.05 0.05 0.06 0.06 0.09 0.11 0.14 0.18 0.20 0.24 0.34 0.33 0.40 0.51 0.68 0.76 1.10 1.13 1.02 0.77 0.96 1.22 1.41 1.20
0.00 0.00 0.00 0.00 0.00 0.01 0.16 0.16 0.14 0.08 0.12 0.17 0.17 0.18 0.15 0.12 0.09 0.08 0.07 0.08 0.09 0.08 0.09 0.14 0.17 0.17 0.23 0.27 0.26 0.35 0.38 0.44 0.52 0.71 0.79 0.90 0.74 0.93 0.94 1.10 0.98 0.97 1.25 1.40
0.00 0.00 0.00 0.00 0.00 0.05 0.20 0.38 0.38 0.31 0.30 0.27 0.25 0.20 0.13 0.10 0.08 0.12 0.11 0.12 0.15 0.15 0.17 0.24 0.28 0.29 0.26 0.22 0.30 0.33 0.31 0.28 0.35 0.61 0.83 1.06 1.18 1.05 0.77 0.98 1.57 1.42 1.22 1.23
0.00 0.00 0.01 0.03 0.08 0.17 0.39 0.28 0.25 0.43 0.50 0.28 0.17 0.18 0.20 0.20 0.23 0.19 0.16 0.16 0.20 0.20 0.24 0.27 0.28 0.20 0.13 0.14 0.13 0.08 0.11 0.11 0.26 0.47 0.62 0.74 1.01 1.20 1.63 1.35 1.30 1.76 1.63 1.47
0.07 0.05 0.02 0.06 0.14 0.11 0.22 0.41 0.42 0.46 0.44 0.26 0.17 0.20 0.26 0.22 0.19 0.17 0.17 0.22 0.26 0.28 0.30 0.24 0.12 0.07 0.08 0.05 0.03 0.02 0.02 0.16 0.31 0.30 0.30 0.28 0.33 0.54 0.89 1.19 1.45 1.47 1.58 1.46
0.18 0.15 0.23 0.25 0.22 0.20 0.25 0.40 0.38 0.38 0.28 0.19 0.20 0.24 0.16 0.18 0.19 0.17 0.20 0.25 0.27 0.26 0.19 0.10 0.05 0.04 0.04 0.01 0.00 0.01 0.07 0.13 0.09 0.09 0.10 0.12 0.18 0.23 0.29 0.36 0.60 0.85 1.11 1.21
0.19 0.33 0.46 0.23 0.23 0.27 0.29 0.32 0.33 0.21 0.16 0.17 0.18 0.22 0.18 0.20 0.22 0.23 0.26 0.27 0.26 0.18 0.10 0.05 0.03 0.03 0.02 0.01 0.01 0.01 0.04 0.02 0.03 0.03 0.04 0.06 0.07 0.07 0.09 0.09 0.16 0.21 0.28 0.41
0.25 0.21 0.16 0.17 0.20 0.16 0.18 0.17 0.17 0.14 0.15 0.18 0.19 0.18 0.19 0.20 0.22 0.25 0.25 0.25 0.19 0.11 0.08 0.03 0.02 0.01 0.01 0.01 0.01 0.02 0.01 0.01 0.01 0.01 0.01 0.02 0.02 0.03 0.04 0.04 0.06 0.07 0.09 0.11
0.12 0.11 0.09 0.11 0.14 0.09 0.08 0.12 0.13 0.14 0.14 0.16 0.22 0.19 0.17 0.17 0.22 0.21 0.23 0.20 0.12 0.07 0.04 0.02 0.01 0.01 0.01 0.00 0.00 0.00 0.00 0.00 0.00 0.00 0.00 0.00 0.00 0.01 0.02 0.04 0.05 0.05 0.09 0.06
0.03 0.08 0.09 0.14 0.08 0.06 0.07 0.10 0.08 0.10 0.14 0.15 0.14 0.19 0.20 0.13 0.16 0.16 0.16 0.11 0.05 0.03 0.01 0.00 0.00 0.00 0.00 0.00 0.00 0.00 0.00 0.00 0.00 0.00 0.00 0.00 0.00 0.00 0.00 0.00 0.02 0.02 0.02 0.01

GFSCGP_prec_precacc24_123.txt.gz
Total_Precipitation_Accumulation
0.00 0.00 0.00 0.00 0.00 0.00 0.00 0.00 0.00 0.00 0.00 0.00 0.00 0.00 0.00 0.00 0.00 0.00 0.00 0.00 0.00 0.00 0.00 0.00 0.00 0.00 0.00 0.00 0.00 0.00 0.00 0.00 0.00 0.00 0.02 0.01 0.00 0.00 0.01 0.03 0.10 0.15 0.27 0.45
0.00 0.00 0.00 0.00 0.00 0.00 0.00 0.00 0.00 0.00 0.00 0.00 0.00 0.00 0.00 0.00 0.00 0.00 0.00 0.00 0.00 0.00 0.00 0.00 0.00 0.00 0.00 0.00 0.00 0.00 0.00 0.00 0.00 0.00 0.00 0.00 0.00 0.00 0.01 0.03 0.10 0.10 0.09 0.25
0.00 0.00 0.00 0.00 0.00 0.00 0.00 0.00 0.00 0.00 0.00 0.00 0.00 0.00 0.00 0.00 0.00 0.00 0.00 0.00 0.00 0.00 0.00 0.00 0.00 0.00 0.00 0.00 0.00 0.00 0.00 0.00 0.00 0.00 0.00 0.01 0.03 0.06 0.05 0.03 0.03 0.02 0.06 0.10
0.00 0.00 0.00 0.00 0.00 0.00 0.00 0.00 0.00 0.00 0.00 0.00 0.00 0.00 0.00 0.00 0.00 0.00 0.00 0.00 0.00 0.02 0.01 0.00 0.00 0.00 0.00 0.00 0.00 0.00 0.00 0.00 0.00 0.00 0.00 0.00 0.00 0.00 0.00 0.00 0.01 0.04 0.03 0.07
0.00 0.00 0.00 0.00 0.00 0.00 0.00 0.00 0.00 0.00 0.00 0.00 0.00 0.00 0.00 0.00 0.00 0.00 0.01 0.00 0.01 0.02 0.01 0.02 0.02 0.01 0.01 0.00 0.00 0.00 0.00 0.00 0.00 0.00 0.00 0.00 0.00 0.00 0.00 0.00 0.00 0.01 0.02 0.02
0.00 0.00 0.00 0.00 0.00 0.00 0.00 0.00 0.00 0.00 0.00 0.01 0.00 0.00 0.00 0.00 0.01 0.03 0.05 0.02 0.01 0.01 0.01 0.01 0.02 0.01 0.01 0.00 0.00 0.00 0.00 0.00 0.00 0.00 0.00 0.01 0.00 0.00 0.00 0.00 0.01 0.01 0.01 0.06
0.00 0.00 0.00 0.00 0.01 0.00 0.01 0.03 0.08 0.05 0.01 0.01 0.00 0.00 0.00 0.04 0.07 0.11 0.11 0.07 0.03 0.02 0.01 0.01 0.01 0.00 0.00 0.00 0.00 0.00 0.00 0.00 0.00 0.00 0.01 0.01 0.01 0.01 0.00 0.00 0.01 0.03 0.05 0.07
0.03 0.03 0.00 0.01 0.00 0.01 0.01 0.03 0.12 0.09 0.03 0.02 0.02 0.03 0.15 0.26 0.24 0.31 0.27 0.20 0.16 0.18 0.20 0.18 0.12 0.06 0.02 0.01 0.01 0.01 0.02 0.02 0.01 0.01 0.01 0.01 0.01 0.02 0.05 0.06 0.04 0.03 0.03 0.02
0.02 0.03 0.00 0.01 0.01 0.00 0.00 0.01 0.02 0.09 0.03 0.01 0.01 0.07 0.47 0.69 0.45 0.71 0.81 0.57 0.50 0.48 0.40 0.24 0.14 0.09 0.07 0.04 0.03 0.04 0.07 0.05 0.05 0.10 0.06 0.07 0.06 0.06 0.08 0.11 0.11 0.10 0.12 0.14
0.02 0.05 0.01 0.00 0.00 0.00 0.00 0.00 0.02 0.07 0.10 0.03 0.00 0.02 0.20 0.31 0.26 0.20 0.16 0.18 0.19 0.17 0.15 0.13 0.10 0.06 0.04 0.03 0.05 0.07 0.14 0.16 0.12 0.16 0.23 0.18 0.16 0.17 0.17 0.16 0.14 0.17 0.18 0.21
0.01 0.03 0.03 0.00 0.00 0.00 0.00 0.00 0.00 0.01 0.05 0.08 0.04 0.04 0.10 0.11 0.07 0.02 0.00 0.00 0.02 0.02 0.02 0.00 0.00 0.00 0.01 0.02 0.06 0.09 0.12 0.23 0.25 0.24 0.35 0.43 0.31 0.56 0.58 0.47 0.40 0.39 0.31 0.29
0.01 0.02 0.02 0.00 0.00 0.00 0.00 0.00 0.00 0.01 0.01 0.00 0.02 0.02 0.08 0.09 0.04 0.00 0.01 0.07 0.04 0.00 0.00 0.00 0.00 0.01 0.01 0.02 0.04 0.11 0.18 0.29 0.39 0.39 0.47 0.55 0.49 0.58 0.68 0.66 0.58 0.62 0.47 0.47
0.02 0.04 0.05 0.03 0.01 0.00 0.00 0.00 0.00 0.00 0.01 0.01 0.01 0.04 0.08 0.05 0.01 0.02 0.05 0.05 0.02 0.01 0.00 0.00 0.00 0.00 0.00 0.01 0.02 0.04 0.12 0.23 0.27 0.33 0.37 0.43 0.51 0.71 0.69 0.75 1.01 0.88 0.73 0.58
0.01 0.00 0.02 0.03 0.02 0.00 0.00 0.00 0.00 0.01 0.03 0.02 0.00 0.00 0.01 0.06 0.04 0.05 0.04 0.06 0.06 0.04 0.01 0.00 0.00 0.00 0.00 0.00 0.01 0.02 0.04 0.10 0.23 0.24 0.24 0.33 0.44 0.76 1.12 0.84 0.84 0.92 1.00 0.85
0.01 0.00 0.00 0.00 0.00 0.00 0.01 0.00 0.00 0.00 0.00 0.01 0.00 0.00 0.00 0.02 0.07 0.07 0.07 0.06 0.04 0.03 0.00 0.00 0.00 0.00 0.00 0.01 0.02 0.03 0.06 0.05 0.09 0.20 0.32 0.47 0.54 0.68 1.25 1.14 1.07 1.01 1.08 1.35
0.00 0.00 0.00 0.00 0.00 0.00 0.00 0.00 0.00 0.00 0.00 0.00 0.00 0.00 0.00 0.01 0.09 0.08 0.08 0.06 0.06 0.05 0.03 0.01 0.01 0.02 0.03 0.05 0.06 0.11 0.16 0.19 0.18 0.21 0.48 1.03 0.73 0.74 0.81 1.22 1.18 1.27 0.87 0.99
0.00 0.00 0.01 0.02 0.00 0.00 0.00 0.01 0.04 0.01 0.00 0.01 0.01 0.01 0.02 0.04 0.07 0.05 0.04 0.03 0.04 0.05 0.05 0.06 0.09 0.12 0.15 0.18 0.19 0.22 0.31 0.29 0.26 0.34 0.43 0.67 0.97 1.09 1.05 0.83 1.01 1.27 1.47 1.27
0.00 0.00 0.02 0.01 0.00 0.00 0.00 0.04 0.11 0.07 0.06 0.07 0.06 0.07 0.08 0.08 0.08 0.08 0.07 0.07 0.09 0.08 0.08 0.15 0.17 0.17 0.22 0.24 0.23 0.33 0.36 0.35 0.37 0.46 0.58 0.55 0.56 0.88 0.96 1.15 1.05 1.02 1.36 1.52
0.00 0.00 0.01 0.00 0.00 0.00 0.03 0.13 0.20 0.21 0.17 0.17 0.21 0.18 0.12 0.10 0.08 0.11 0.10 0.11 0.14 0.14 0.17 0.24 0.27 0.28 0.25 0.20 0.25 0.31 0.27 0.26 0.26 0.44 0.52 0.63 0.78 0.74 0.68 0.96 1.50 1.29 1.10 1.20
0.01 0.00 0.01 0.01 0.03 0.04 0.14 0.09 0.11 0.31 0.39 0.25 0.17 0.17 0.20 0.19 0.22 0.19 0.16 0.14 0.19 0.20 0.25 0.27 0.28 0.20 0.12 0.13 0.10 0.07 0.06 0.05 0.13 0.28 0.48 0.47 0.53 0.76 1.35 1.22 1.13 1.52 1.38 1.25
0.07 0.05 0.02 0.03 0.07 0.07 0.08 0.16 0.26 0.37 0.41 0.25 0.17 0.19 0.25 0.21 0.18 0.16 0.16 0.21 0.25 0.28 0.31 0.25 0.12 0.06 0.06 0.04 0.01 0.00 0.01 0.11 0.18 0.13 0.10 0.11 0.16 0.32 0.67 1.03 1.25 1.24 1.35 1.23
0.11 0.10 0.12 0.12 0.15 0.15 0.20 0.28 0.34 0.35 0.27 0.18 0.20 0.24 0.16 0.17 0.18 0.17 0.19 0.24 0.27 0.28 0.22 0.12 0.05 0.03 0.04 0.01 0.00 0.00 0.04 0.09 0.04 0.01 0.01 0.03 0.06 0.10 0.15 0.22 0.46 0.72 0.94 1.00
0.11 0.22 0.34 0.17 0.20 0.19 0.24 0.27 0.29 0.20 0.16 0.16 0.18 0.22 0.18 0.21 0.24 0.24 0.26 0.28 0.27 0.19 0.13 0.06 0.03 0.03 0.02 0.02 0.01 0.01 0.02 0.00 0.01 0.00 0.00 0.01 0.01 0.01 0.03 0.02 0.06 0.10 0.17 0.30
0.12 0.13 0.10 0.15 0.16 0.14 0.16 0.16 0.16 0.13 0.14 0.17 0.19 0.18 0.18 0.21 0.23 0.25 0.26 0.27 0.20 0.14 0.10 0.05 0.03 0.02 0.01 0.00 0.00 0.00 0.00 0.00 0.00 0.00 0.00 0.00 0.01 0.00 0.01 0.01 0.01 0.01 0.02 0.03
0.09 0.09 0.08 0.10 0.11 0.07 0.08 0.11 0.12 0.13 0.13 0.16 0.21 0.18 0.16 0.16 0.22 0.20 0.23 0.21 0.13 0.09 0.06 0.02 0.01 0.01 0.00 0.00 0.00 0.00 0.00 0.00 0.00 0.00 0.00 0.00 0.00 0.00 0.01 0.02 0.03 0.02 0.04 0.03
0.02 0.07 0.08 0.13 0.06 0.04 0.06 0.08 0.07 0.09 0.14 0.14 0.14 0.19 0.19 0.12 0.16 0.16 0.17 0.13 0.06 0.03 0.01 0.00 0.00 0.00 0.00 0.00 0.00 0.00 0.00 0.00 0.00 0.00 0.00 0.00 0.00 0.00 0.00 0.00 0.02 0.01 0.02 0.01

GFSCGP_prec_precacc24_126.txt.gz
Total_Precipitation_Accumulation
0.00 0.00 0.00 0.00 0.00 0.00 0.00 0.00 0.00 0.00 0.00 0.00 0.00 0.00 0.00 0.00 0.00 0.00 0.00 0.00 0.00 0.00 0.00 0.00 0.00 0.00 0.00 0.00 0.00 0.00 0.00 0.00 0.00 0.00 0.00 0.00 0.00 0.00 0.00 0.02 0.09 0.14 0.27 0.45
0.00 0.00 0.00 0.00 0.00 0.00 0.00 0.00 0.00 0.00 0.00 0.00 0.00 0.00 0.00 0.00 0.00 0.00 0.00 0.00 0.00 0.00 0.00 0.00 0.00 0.00 0.00 0.00 0.00 0.00 0.00 0.00 0.00 0.00 0.00 0.00 0.00 0.00 0.01 0.01 0.06 0.08 0.09 0.25
0.00 0.00 0.00 0.00 0.00 0.00 0.00 0.00 0.00 0.00 0.00 0.00 0.00 0.00 0.00 0.00 0.00 0.00 0.00 0.00 0.00 0.00 0.00 0.00 0.00 0.00 0.00 0.00 0.00 0.00 0.00 0.00 0.00 0.00 0.00 0.00 0.00 0.01 0.02 0.01 0.01 0.00 0.03 0.09
0.00 0.00 0.00 0.00 0.00 0.00 0.00 0.00 0.00 0.00 0.00 0.00 0.00 0.00 0.00 0.00 0.00 0.00 0.00 0.00 0.00 0.02 0.01 0.00 0.00 0.00 0.00 0.00 0.00 0.00 0.00 0.00 0.00 0.00 0.00 0.00 0.00 0.00 0.00 0.00 0.00 0.00 0.01 0.03
0.00 0.00 0.00 0.00 0.00 0.00 0.00 0.00 0.00 0.00 0.00 0.00 0.00 0.00 0.00 0.00 0.00 0.00 0.01 0.00 0.01 0.02 0.01 0.02 0.02 0.01 0.01 0.00 0.00 0.00 0.00 0.00 0.00 0.00 0.00 0.00 0.00 0.00 0.00 0.00 0.00 0.00 0.00 0.01
0.00 0.00 0.00 0.00 0.00 0.00 0.00 0.00 0.00 0.00 0.00 0.01 0.00 0.00 0.00 0.00 0.01 0.03 0.05 0.02 0.01 0.01 0.01 0.01 0.02 0.01 0.01 0.00 0.00 0.00 0.00 0.00 0.00 0.00 0.00 0.01 0.00 0.00 0.00 0.00 0.01 0.01 0.01 0.04
0.00 0.00 0.00 0.00 0.01 0.00 0.01 0.03 0.08 0.05 0.01 0.01 0.00 0.00 0.00 0.04 0.07 0.11 0.11 0.07 0.03 0.03 0.04 0.06 0.09 0.05 0.03 0.02 0.01 0.00 0.00 0.00 0.00 0.00 0.00 0.00 0.00 0.01 0.00 0.00 0.01 0.03 0.04 0.07
0.03 0.03 0.00 0.01 0.00 0.01 0.01 0.03 0.13 0.10 0.03 0.02 0.02 0.03 0.15 0.26 0.24 0.31 0.27 0.20 0.16 0.19 0.24 0.25 0.18 0.10 0.08 0.05 0.03 0.01 0.00 0.00 0.00 0.00 0.00 0.01 0.01 0.01 0.01 0.01 0.01 0.03 0.03 0.02
0.02 0.03 0.00 0.01 0.01 0.00 0.00 0.01 0.03 0.10 0.03 0.01 0.01 0.07 0.47 0.69 0.45 0.71 0.81 0.57 0.50 0.48 0.40 0.24 0.13 0.09 0.07 0.04 0.02 0.02 0.02 0.01 0.01 0.06 0.05 0.04 0.04 0.04 0.03 0.03 0.02 0.02 0.05 0.08
0.02 0.05 0.01 0.00 0.00 0.00 0.00 0.00 0.02 0.07 0.09 0.03 0.00 0.02 0.20 0.31 0.26 0.20 0.16 0.18 0.18 0.16 0.14 0.11 0.08 0.06 0.04 0.03 0.03 0.04 0.05 0.05 0.05 0.10 0.17 0.12 0.12 0.12 0.09 0.07 0.06 0.07 0.07 0.13
0.01 0.03 0.03 0.00 0.00 0.00 0.00 0.00 0.00 0.02 0.04 0.04 0.02 0.04 0.09 0.11 0.07 0.02 0.00 0.00 0.00 0.00 0.00 0.00 0.00 0.00 0.00 0.01 0.04 0.05 0.05 0.09 0.11 0.11 0.25 0.30 0.23 0.44 0.43 0.34 0.29 0.28 0.20 0.20
0.02 0.02 0.02 0.00 0.00 0.00 0.00 0.00 0.00 0.01 0.01 0.00 0.01 0.01 0.07 0.08 0.04 0.01 0.00 0.00 0.00 0.00 0.00 0.00 0.00 0.01 0.00 0.01 0.03 0.07 0.12 0.22 0.31 0.30 0.31 0.35 0.37 0.45 0.52 0.55 0.48 0.50 0.37 0.41
0.05 0.08 0.07 0.04 0.01 0.00 0.00 0.00 0.00 0.00 0.01 0.01 0.01 0.03 0.07 0.06 0.02 0.01 0.00 0.00 0.02 0.01 0.00 0.00 0.00 0.00 0.00 0.00 0.01 0.03 0.07 0.16 0.21 0.28 0.28 0.35 0.43 0.49 0.42 0.54 0.88 0.80 0.65 0.55
0.03 0.01 0.03 0.04 0.02 0.00 0.00 0.00 0.00 0.01 0.03 0.02 0.00 0.00 0.01 0.04 0.01 0.00 0.00 0.01 0.03 0.04 0.01 0.00 0.00 0.00 0.00 0.00 0.00 0.02 0.04 0.09 0.17 0.20 0.23 0.33 0.43 0.61 0.62 0.47 0.55 0.79 0.96 0.84
0.03 0.01 0.00 0.00 0.00 0.00 0.01 0.00 0.00 0.00 0.00 0.02 0.00 0.00 0.00 0.00 0.00 0.00 0.01 0.02 0.03 0.03 0.00 0.00 0.00 0.00 0.00 0.01 0.01 0.03 0.06 0.05 0.08 0.18 0.31 0.46 0.54 0.64 0.85 0.70 0.67 0.79 1.05 1.34
0.01 0.01 0.00 0.00 0.00 0.00 0.00 0.00 0.00 0.00 0.00 0.00 0.00 0.00 0.00 0.00 0.00 0.01 0.02 0.04 0.05 0.05 0.03 0.01 0.01 0.02 0.03 0.05 0.06 0.09 0.16 0.19 0.17 0.19 0.47 0.99 0.68 0.70 0.71 1.00 1.00 1.19 0.86 0.99
0.04 0.04 0.06 0.07 0.00 0.00 0.01 0.00 0.00 0.00 0.00 0.01 0.01 0.00 0.00 0.01 0.04 0.03 0.03 0.03 0.04 0.04 0.05 0.06 0.08 0.11 0.14 0.16 0.17 0.19 0.29 0.28 0.26 0.32 0.41 0.61 0.83 0.89 0.87 0.71 0.92 1.23 1.47 1.25
0.01 0.03 0.07 0.07 0.01 0.02 0.00 0.00 0.00 0.05 0.04 0.03 0.02 0.03 0.04 0.06 0.06 0.07 0.06 0.07 0.08 0.07 0.08 0.14 0.17 0.16 0.20 0.22 0.18 0.26 0.33 0.32 0.33 0.36 0.44 0.41 0.43 0.62 0.76 0.91 0.92 1.00 1.34 1.52
0.01 0.03 0.06 0.04 0.02 0.00 0.01 0.02 0.06 0.08 0.08 0.06 0.07 0.10 0.09 0.09 0.08 0.11 0.09 0.10 0.12 0.13 0.16 0.23 0.26 0.26 0.24 0.19 0.21 0.24 0.26 0.24 0.20 0.28 0.34 0.39 0.35 0.39 0.37 0.72 1.29 1.20 1.09 1.19
0.05 0.06 0.08 0.07 0.03 0.02 0.06 0.01 0.03 0.15 0.16 0.11 0.12 0.15 0.19 0.19 0.21 0.17 0.14 0.13 0.17 0.19 0.24 0.27 0.27 0.20 0.12 0.11 0.09 0.07 0.06 0.05 0.12 0.23 0.32 0.32 0.31 0.33 0.54 0.59 0.85 1.39 1.29 1.17
0.12 0.12 0.08 0.04 0.05 0.06 0.02 0.01 0.11 0.19 0.22 0.18 0.16 0.18 0.24 0.19 0.16 0.15 0.14 0.19 0.22 0.26 0.30 0.25 0.14 0.08 0.07 0.04 0.01 0.01 0.01 0.10 0.14 0.09 0.07 0.06 0.10 0.23 0.45 0.57 0.76 0.92 1.18 1.10
0.07 0.08 0.10 0.10 0.13 0.12 0.04 0.04 0.16 0.25 0.23 0.17 0.20 0.23 0.14 0.16 0.17 0.16 0.18 0.23 0.26 0.27 0.22 0.13 0.08 0.06 0.05 0.02 0.01 0.01 0.05 0.07 0.03 0.01 0.00 0.01 0.01 0.04 0.08 0.12 0.28 0.50 0.71 0.80
0.07 0.14 0.26 0.12 0.15 0.11 0.12 0.17 0.22 0.17 0.14 0.15 0.17 0.21 0.17 0.20 0.24 0.25 0.27 0.28 0.28 0.20 0.13 0.09 0.07 0.09 0.07 0.03 0.02 0.02 0.01 0.00 0.00 0.00 0.00 0.00 0.00 0.00 0.01 0.00 0.03 0.06 0.11 0.22
0.05 0.06 0.05 0.10 0.10 0.10 0.13 0.13 0.14 0.11 0.12 0.15 0.18 0.17 0.18 0.20 0.23 0.27 0.27 0.28 0.21 0.15 0.13 0.09 0.07 0.05 0.02 0.01 0.00 0.00 0.00 0.00 0.00 0.00 0.00 0.00 0.00 0.00 0.00 0.00 0.00 0.01 0.01 0.02
0.05 0.05 0.06 0.09 0.09 0.06 0.07 0.10 0.10 0.12 0.12 0.15 0.20 0.17 0.16 0.16 0.22 0.21 0.23 0.22 0.14 0.11 0.08 0.03 0.01 0.01 0.00 0.00 0.00 0.00 0.00 0.00 0.00 0.00 0.00 0.00 0.00 0.00 0.00 0.01 0.02 0.02 0.03 0.01
0.02 0.04 0.08 0.13 0.05 0.04 0.05 0.07 0.06 0.08 0.12 0.14 0.13 0.19 0.19 0.12 0.16 0.15 0.17 0.12 0.07 0.03 0.01 0.00 0.00 0.00 0.00 0.00 0.00 0.00 0.00 0.00 0.00 0.00 0.00 0.00 0.00 0.00 0.00 0.00 0.01 0.01 0.01 0.00

GFSCGP_prec_precacc24_129.txt.gz
Total_Precipitation_Accumulation
0.00 0.00 0.00 0.00 0.00 0.00 0.00 0.00 0.00 0.00 0.00 0.00 0.00 0.00 0.00 0.00 0.00 0.00 0.00 0.00 0.00 0.00 0.00 0.00 0.00 0.00 0.00 0.00 0.00 0.00 0.00 0.00 0.00 0.00 0.00 0.00 0.00 0.00 0.00 0.02 0.09 0.13 0.27 0.45
0.00 0.00 0.00 0.00 0.00 0.00 0.00 0.00 0.00 0.00 0.00 0.00 0.00 0.00 0.00 0.00 0.00 0.00 0.00 0.00 0.00 0.00 0.00 0.00 0.00 0.00 0.00 0.00 0.00 0.00 0.00 0.00 0.00 0.00 0.00 0.00 0.00 0.00 0.00 0.00 0.04 0.06 0.08 0.25
0.00 0.00 0.00 0.00 0.00 0.00 0.00 0.00 0.00 0.00 0.00 0.00 0.00 0.00 0.00 0.00 0.00 0.00 0.00 0.00 0.00 0.00 0.00 0.00 0.00 0.00 0.00 0.00 0.00 0.00 0.00 0.00 0.00 0.00 0.00 0.00 0.00 0.00 0.00 0.00 0.00 0.00 0.02 0.08
0.00 0.00 0.00 0.00 0.00 0.00 0.00 0.00 0.00 0.00 0.00 0.00 0.00 0.00 0.00 0.00 0.00 0.00 0.00 0.00 0.00 0.02 0.01 0.00 0.00 0.00 0.00 0.00 0.00 0.00 0.00 0.00 0.00 0.00 0.00 0.00 0.00 0.00 0.00 0.00 0.00 0.00 0.00 0.02
0.00 0.00 0.00 0.00 0.00 0.00 0.00 0.00 0.00 0.00 0.00 0.00 0.00 0.00 0.00 0.00 0.00 0.00 0.01 0.00 0.01 0.02 0.01 0.02 0.02 0.01 0.01 0.00 0.00 0.00 0.00 0.00 0.00 0.00 0.00 0.00 0.00 0.00 0.00 0.00 0.00 0.00 0.00 0.00
0.00 0.00 0.00 0.00 0.00 0.00 0.00 0.00 0.00 0.00 0.00 0.01 0.00 0.00 0.00 0.00 0.01 0.03 0.05 0.02 0.01 0.01 0.01 0.01 0.02 0.02 0.01 0.00 0.00 0.00 0.00 0.00 0.00 0.00 0.00 0.00 0.00 0.00 0.00 0.00 0.01 0.00 0.00 0.02
0.00 0.00 0.00 0.00 0.01 0.00 0.01 0.03 0.08 0.05 0.01 0.01 0.00 0.00 0.00 0.04 0.07 0.11 0.11 0.07 0.03 0.03 0.04 0.06 0.09 0.06 0.03 0.02 0.01 0.00 0.00 0.00 0.00 0.00 0.00 0.00 0.00 0.00 0.00 0.00 0.01 0.02 0.03 0.05
0.03 0.03 0.00 0.01 0.00 0.01 0.01 0.03 0.13 0.10 0.03 0.02 0.02 0.03 0.15 0.26 0.24 0.31 0.27 0.20 0.16 0.19 0.24 0.25 0.18 0.10 0.08 0.05 0.03 0.01 0.00 0.00 0.00 0.00 0.00 0.00 0.00 0.00 0.01 0.00 0.01 0.03 0.03 0.02
0.02 0.03 0.00 0.01 0.01 0.00 0.00 0.01 0.03 0.11 0.03 0.01 0.01 0.07 0.47 0.69 0.45 0.71 0.81 0.57 0.50 0.48 0.40 0.24 0.13 0.08 0.06 0.03 0.02 0.02 0.02 0.01 0.00 0.01 0.04 0.02 0.02 0.01 0.01 0.02 0.01 0.01 0.03 0.05
0.01 0.05 0.01 0.00 0.00 0.00 0.00 0.00 0.02 0.08 0.10 0.03 0.00 0.02 0.20 0.31 0.26 0.20 0.16 0.18 0.18 0.16 0.14 0.11 0.08 0.05 0.02 0.01 0.02 0.04 0.05 0.04 0.03 0.04 0.08 0.07 0.07 0.05 0.03 0.03 0.04 0.04 0.02 0.05
0.00 0.03 0.03 0.00 0.00 0.00 0.00 0.00 0.00 0.04 0.05 0.05 0.02 0.04 0.09 0.11 0.07 0.02 0.00 0.00 0.00 0.00 0.00 0.00 0.00 0.00 0.00 0.00 0.01 0.02 0.04 0.06 0.05 0.05 0.10 0.16 0.16 0.32 0.31 0.24 0.19 0.17 0.12 0.12
0.02 0.02 0.02 0.00 0.00 0.00 0.00 0.00 0.01 0.04 0.02 0.01 0.01 0.02 0.07 0.08 0.04 0.01 0.00 0.00 0.00 0.00 0.00 0.00 0.00 0.00 0.00 0.00 0.02 0.05 0.09 0.20 0.26 0.21 0.13 0.11 0.13 0.28 0.43 0.47 0.41 0.43 0.31 0.36
0.06 0.09 0.08 0.05 0.01 0.00 0.01 0.00 0.00 0.00 0.02 0.02 0.04 0.03 0.07 0.06 0.02 0.01 0.00 0.00 0.00 0.00 0.00 0.00 0.00 0.00 0.00 0.00 0.00 0.01 0.05 0.12 0.19 0.24 0.18 0.14 0.16 0.27 0.29 0.43 0.77 0.70 0.55 0.48
0.05 0.02 0.05 0.05 0.02 0.01 0.00 0.00 0.00 0.01 0.03 0.02 0.00 0.00 0.01 0.04 0.01 0.00 0.00 0.00 0.00 0.00 0.00 0.00 0.00 0.00 0.00 0.00 0.00 0.01 0.03 0.07 0.12 0.17 0.18 0.26 0.35 0.55 0.56 0.40 0.47 0.68 0.84 0.75
0.04 0.02 0.01 0.00 0.01 0.01 0.01 0.00 0.00 0.00 0.00 0.02 0.00 0.00 0.00 0.00 0.00 0.00 0.00 0.00 0.00 0.00 0.00 0.00 0.00 0.00 0.00 0.00 0.01 0.02 0.06 0.05 0.06 0.14 0.26 0.44 0.51 0.61 0.84 0.62 0.53 0.54 0.76 1.04
0.01 0.02 0.00 0.00 0.00 0.01 0.00 0.00 0.00 0.00 0.00 0.00 0.00 0.00 0.00 0.00 0.00 0.00 0.00 0.00 0.01 0.01 0.02 0.01 0.01 0.02 0.03 0.05 0.06 0.09 0.13 0.18 0.17 0.18 0.42 0.93 0.64 0.68 0.72 0.81 0.68 0.49 0.38 0.54
0.04 0.05 0.08 0.09 0.02 0.04 0.05 0.00 0.00 0.00 0.00 0.00 0.00 0.00 0.00 0.01 0.01 0.00 0.00 0.01 0.03 0.04 0.05 0.05 0.07 0.10 0.12 0.14 0.14 0.15 0.24 0.26 0.24 0.31 0.38 0.59 0.78 0.79 0.81 0.62 0.58 0.70 0.93 0.92
0.02 0.04 0.13 0.12 0.05 0.07 0.01 0.00 0.00 0.01 0.02 0.01 0.01 0.02 0.01 0.02 0.01 0.02 0.03 0.05 0.06 0.06 0.08 0.13 0.16 0.16 0.18 0.20 0.16 0.22 0.27 0.30 0.32 0.35 0.42 0.40 0.38 0.51 0.50 0.62 0.70 0.83 1.15 1.35
0.01 0.05 0.11 0.09 0.04 0.01 0.00 0.00 0.01 0.02 0.04 0.03 0.02 0.04 0.03 0.02 0.02 0.08 0.08 0.09 0.10 0.11 0.15 0.22 0.24 0.24 0.22 0.18 0.19 0.23 0.25 0.23 0.20 0.25 0.31 0.33 0.29 0.29 0.22 0.35 0.65 0.87 0.88 1.03
0.06 0.07 0.13 0.13 0.05 0.02 0.05 0.00 0.00 0.06 0.09 0.03 0.02 0.04 0.08 0.10 0.17 0.16 0.13 0.11 0.15 0.17 0.23 0.26 0.24 0.17 0.12 0.10 0.09 0.07 0.06 0.05 0.11 0.21 0.25 0.21 0.17 0.16 0.24 0.28 0.38 0.65 0.84 1.05
0.13 0.18 0.15 0.08 0.08 0.06 0.01 0.00 0.04 0.11 0.09 0.04 0.06 0.09 0.16 0.16 0.15 0.14 0.12 0.16 0.19 0.24 0.28 0.24 0.12 0.07 0.05 0.03 0.01 0.01 0.01 0.08 0.11 0.07 0.05 0.05 0.06 0.12 0.23 0.21 0.32 0.42 0.69 0.81
0.08 0.13 0.16 0.18 0.18 0.13 0.01 0.01 0.09 0.13 0.08 0.08 0.15 0.18 0.12 0.14 0.16 0.14 0.16 0.20 0.25 0.27 0.22 0.13 0.08 0.07 0.07 0.03 0.01 0.02 0.04 0.05 0.01 0.00 0.00 0.00 0.01 0.02 0.04 0.06 0.12 0.20 0.36 0.56
0.05 0.10 0.24 0.10 0.13 0.05 0.03 0.06 0.10 0.10 0.09 0.11 0.14 0.18 0.16 0.19 0.23 0.24 0.26 0.28 0.28 0.19 0.13 0.10 0.09 0.12 0.11 0.03 0.02 0.02 0.01 0.00 0.00 0.00 0.00 0.00 0.00 0.00 0.00 0.00 0.02 0.03 0.05 0.13
0.02 0.01 0.03 0.06 0.06 0.05 0.06 0.06 0.09 0.09 0.09 0.12 0.15 0.14 0.16 0.18 0.21 0.26 0.27 0.27 0.21 0.14 0.13 0.10 0.09 0.08 0.04 0.01 0.01 0.00 0.00 0.00 0.00 0.00 0.00 0.00 0.00 0.00 0.00 0.00 0.00 0.01 0.01 0.01
0.03 0.03 0.04 0.05 0.05 0.04 0.06 0.07 0.08 0.10 0.10 0.12 0.17 0.15 0.14 0.15 0.20 0.19 0.22 0.20 0.13 0.10 0.08 0.04 0.03 0.02 0.00 0.00 0.00 0.00 0.00 0.00 0.00 0.00 0.00 0.00 0.00 0.00 0.00 0.01 0.01 0.01 0.01 0.01
0.01 0.03 0.06 0.12 0.04 0.03 0.04 0.05 0.05 0.07 0.11 0.11 0.11 0.17 0.18 0.12 0.15 0.15 0.16 0.12 0.06 0.04 0.02 0.00 0.00 0.00 0.00 0.00 0.00 0.00 0.00 0.00 0.00 0.00 0.00 0.00 0.00 0.00 0.00 0.00 0.00 0.00 0.00 0.00

GFSCGP_prec_precacc24_132.txt.gz
Total_Precipitation_Accumulation
0.00 0.00 0.00 0.00 0.00 0.00 0.00 0.00 0.00 0.00 0.00 0.00 0.00 0.00 0.00 0.00 0.00 0.00 0.00 0.00 0.00 0.00 0.00 0.00 0.00 0.00 0.00 0.00 0.00 0.00 0.00 0.00 0.00 0.00 0.00 0.00 0.00 0.00 0.00 0.02 0.09 0.13 0.27 0.45
0.00 0.00 0.00 0.00 0.00 0.00 0.00 0.00 0.00 0.00 0.00 0.00 0.00 0.00 0.00 0.00 0.00 0.00 0.00 0.00 0.00 0.00 0.00 0.00 0.00 0.00 0.00 0.00 0.00 0.00 0.00 0.00 0.00 0.00 0.00 0.00 0.00 0.00 0.00 0.00 0.03 0.06 0.07 0.25
0.00 0.00 0.00 0.00 0.00 0.00 0.00 0.00 0.00 0.00 0.00 0.00 0.00 0.00 0.00 0.00 0.00 0.00 0.00 0.00 0.00 0.00 0.00 0.00 0.00 0.00 0.00 0.00 0.00 0.00 0.00 0.00 0.00 0.00 0.00 0.00 0.00 0.00 0.00 0.00 0.00 0.00 0.01 0.07
0.00 0.00 0.00 0.00 0.00 0.00 0.00 0.00 0.00 0.00 0.00 0.00 0.00 0.00 0.00 0.00 0.00 0.00 0.00 0.00 0.00 0.02 0.01 0.00 0.00 0.00 0.00 0.00 0.00 0.00 0.00 0.00 0.00 0.00 0.00 0.00 0.00 0.00 0.00 0.00 0.00 0.00 0.00 0.02
0.00 0.00 0.00 0.00 0.00 0.00 0.00 0.00 0.00 0.00 0.00 0.00 0.00 0.00 0.00 0.00 0.00 0.00 0.01 0.00 0.01 0.02 0.01 0.02 0.02 0.01 0.01 0.00 0.00 0.00 0.00 0.00 0.00 0.00 0.00 0.00 0.00 0.00 0.00 0.00 0.00 0.00 0.00 0.00
0.00 0.00 0.00 0.00 0.00 0.00 0.00 0.00 0.00 0.00 0.00 0.01 0.00 0.00 0.00 0.00 0.01 0.03 0.05 0.02 0.01 0.01 0.01 0.01 0.02 0.02 0.01 0.00 0.00 0.00 0.00 0.00 0.00 0.00 0.00 0.00 0.00 0.00 0.00 0.00 0.00 0.00 0.00 0.01
0.00 0.00 0.00 0.00 0.01 0.00 0.01 0.03 0.08 0.05 0.01 0.01 0.00 0.00 0.00 0.04 0.07 0.11 0.11 0.07 0.03 0.03 0.04 0.06 0.09 0.06 0.03 0.02 0.01 0.00 0.00 0.00 0.00 0.00 0.00 0.00 0.00 0.00 0.00 0.00 0.01 0.02 0.03 0.04
0.03 0.03 0.00 0.01 0.00 0.01 0.01 0.03 0.13 0.10 0.03 0.02 0.02 0.03 0.15 0.26 0.24 0.31 0.27 0.20 0.16 0.19 0.24 0.25 0.18 0.10 0.08 0.05 0.03 0.01 0.00 0.00 0.00 0.00 0.00 0.00 0.00 0.00 0.00 0.00 0.00 0.02 0.02 0.02
0.01 0.02 0.00 0.01 0.01 0.00 0.00 0.01 0.03 0.11 0.04 0.02 0.01 0.07 0.47 0.69 0.45 0.71 0.81 0.57 0.50 0.48 0.40 0.24 0.13 0.08 0.06 0.03 0.02 0.01 0.01 0.01 0.00 0.00 0.00 0.00 0.00 0.00 0.00 0.00 0.00 0.00 0.03 0.05
0.00 0.04 0.01 0.00 0.00 0.00 0.00 0.00 0.03 0.11 0.12 0.04 0.00 0.02 0.20 0.31 0.26 0.20 0.16 0.18 0.18 0.16 0.14 0.11 0.08 0.05 0.02 0.01 0.01 0.01 0.01 0.02 0.02 0.01 0.01 0.01 0.02 0.03 0.01 0.01 0.02 0.02 0.02 0.05
0.00 0.02 0.03 0.00 0.00 0.00 0.00 0.01 0.01 0.08 0.08 0.08 0.03 0.04 0.09 0.11 0.07 0.02 0.00 0.00 0.00 0.00 0.00 0.00 0.00 0.00 0.00 0.00 0.00 0.00 0.00 0.01 0.02 0.02 0.01 0.01 0.04 0.11 0.18 0.19 0.15 0.13 0.10 0.10
0.02 0.02 0.02 0.00 0.00 0.00 0.00 0.00 0.03 0.10 0.07 0.06 0.06 0.02 0.07 0.08 0.04 0.01 0.00 0.00 0.00 0.00 0.00 0.00 0.00 0.00 0.00 0.00 0.00 0.00 0.01 0.09 0.23 0.20 0.10 0.05 0.04 0.08 0.23 0.38 0.34 0.37 0.28 0.31
0.06 0.09 0.08 0.05 0.01 0.01 0.02 0.01 0.02 0.04 0.09 0.07 0.11 0.04 0.06 0.06 0.02 0.01 0.00 0.00 0.00 0.00 0.00 0.00 0.00 0.00 0.00 0.00 0.00 0.00 0.02 0.07 0.16 0.23 0.16 0.12 0.09 0.10 0.13 0.30 0.60 0.57 0.45 0.35
0.07 0.03 0.06 0.06 0.02 0.03 0.02 0.01 0.02 0.05 0.07 0.04 0.01 0.00 0.01 0.05 0.01 0.00 0.00 0.00 0.00 0.00 0.00 0.00 0.00 0.00 0.00 0.00 0.00 0.00 0.01 0.03 0.06 0.13 0.15 0.15 0.23 0.27 0.30 0.31 0.36 0.49 0.61 0.52
0.05 0.02 0.01 0.01 0.01 0.01 0.01 0.00 0.00 0.01 0.01 0.05 0.01 0.00 0.00 0.00 0.00 0.00 0.00 0.00 0.00 0.00 0.00 0.00 0.00 0.00 0.00 0.00 0.00 0.01 0.04 0.04 0.04 0.06 0.16 0.33 0.43 0.49 0.48 0.47 0.49 0.51 0.64 0.84
0.02 0.02 0.01 0.00 0.00 0.01 0.00 0.00 0.00 0.00 0.00 0.00 0.00 0.00 0.00 0.00 0.00 0.00 0.00 0.00 0.00 0.00 0.00 0.00 0.01 0.02 0.03 0.04 0.04 0.06 0.10 0.15 0.17 0.16 0.24 0.44 0.52 0.59 0.61 0.70 0.63 0.42 0.30 0.48
0.05 0.06 0.10 0.10 0.02 0.06 0.06 0.00 0.00 0.00 0.00 0.00 0.00 0.00 0.00 0.01 0.01 0.00 0.00 0.00 0.00 0.01 0.03 0.04 0.06 0.09 0.11 0.12 0.11 0.11 0.18 0.20 0.22 0.28 0.37 0.48 0.56 0.55 0.67 0.56 0.53 0.52 0.50 0.48
0.03 0.06 0.18 0.15 0.08 0.11 0.01 0.00 0.00 0.00 0.00 0.00 0.00 0.00 0.00 0.01 0.01 0.00 0.00 0.01 0.02 0.04 0.06 0.11 0.15 0.15 0.16 0.16 0.14 0.19 0.24 0.25 0.27 0.31 0.40 0.38 0.37 0.48 0.41 0.48 0.54 0.61 0.75 0.78
0.02 0.05 0.13 0.12 0.06 0.02 0.00 0.00 0.00 0.00 0.01 0.00 0.00 0.00 0.00 0.00 0.00 0.03 0.02 0.03 0.06 0.08 0.12 0.19 0.22 0.21 0.19 0.16 0.17 0.20 0.23 0.22 0.18 0.24 0.29 0.31 0.29 0.25 0.19 0.22 0.30 0.55 0.57 0.73
0.06 0.08 0.17 0.14 0.07 0.02 0.04 0.00 0.00 0.02 0.03 0.01 0.00 0.01 0.03 0.03 0.10 0.09 0.08 0.08 0.11 0.14 0.20 0.24 0.22 0.15 0.11 0.08 0.07 0.06 0.05 0.04 0.09 0.17 0.22 0.18 0.15 0.12 0.18 0.18 0.22 0.38 0.44 0.62
0.14 0.21 0.22 0.11 0.11 0.06 0.01 0.00 0.01 0.05 0.05 0.01 0.01 0.03 0.08 0.08 0.10 0.10 0.10 0.13 0.16 0.21 0.26 0.21 0.09 0.06 0.04 0.02 0.01 0.01 0.01 0.05 0.07 0.04 0.04 0.04 0.04 0.08 0.13 0.10 0.11 0.17 0.26 0.32
0.08 0.18 0.21 0.23 0.28 0.17 0.01 0.01 0.05 0.09 0.03 0.02 0.08 0.11 0.06 0.10 0.12 0.11 0.13 0.17 0.22 0.24 0.20 0.11 0.07 0.07 0.07 0.03 0.01 0.02 0.03 0.03 0.00 0.00 0.00 0.00 0.00 0.00 0.01 0.02 0.04 0.06 0.10 0.16
0.04 0.09 0.24 0.10 0.14 0.03 0.01 0.02 0.04 0.04 0.05 0.07 0.09 0.13 0.10 0.14 0.17 0.19 0.23 0.25 0.25 0.18 0.12 0.10 0.09 0.12 0.11 0.03 0.02 0.02 0.01 0.00 0.00 0.00 0.00 0.00 0.00 0.00 0.00 0.00 0.01 0.01 0.01 0.03
0.01 0.00 0.02 0.05 0.04 0.03 0.03 0.02 0.03 0.04 0.05 0.07 0.10 0.10 0.11 0.14 0.17 0.23 0.24 0.25 0.20 0.14 0.13 0.10 0.09 0.08 0.04 0.01 0.01 0.00 0.00 0.00 0.00 0.00 0.00 0.00 0.00 0.00 0.00 0.00 0.00 0.00 0.01 0.01
0.03 0.03 0.04 0.06 0.03 0.04 0.04 0.02 0.03 0.05 0.06 0.08 0.12 0.11 0.10 0.11 0.17 0.17 0.20 0.19 0.12 0.10 0.09 0.05 0.03 0.02 0.00 0.00 0.00 0.00 0.00 0.00 0.00 0.00 0.00 0.00 0.00 0.00 0.00 0.00 0.00 0.00 0.01 0.01
0.01 0.02 0.06 0.10 0.01 0.03 0.03 0.03 0.03 0.05 0.08 0.08 0.08 0.14 0.15 0.09 0.14 0.13 0.15 0.11 0.06 0.04 0.02 0.01 0.00 0.00 0.00 0.00 0.00 0.00 0.00 0.00 0.00 0.00 0.00 0.00 0.00 0.00 0.00 0.00 0.00 0.00 0.00 0.00

GFSCGP_prec_precacc24_135.txt.gz
Total_Precipitation_Accumulation
0.00 0.00 0.00 0.00 0.00 0.00 0.00 0.00 0.00 0.00 0.00 0.00 0.00 0.00 0.00 0.00 0.00 0.00 0.00 0.00 0.00 0.00 0.00 0.00 0.00 0.00 0.00 0.00 0.00 0.00 0.00 0.00 0.00 0.00 0.00 0.00 0.00 0.00 0.00 0.02 0.09 0.13 0.27 0.45
0.00 0.00 0.00 0.00 0.00 0.00 0.00 0.00 0.00 0.00 0.00 0.00 0.00 0.00 0.00 0.00 0.00 0.00 0.00 0.00 0.00 0.00 0.00 0.00 0.00 0.00 0.00 0.00 0.00 0.00 0.00 0.00 0.00 0.00 0.00 0.00 0.00 0.00 0.00 0.00 0.03 0.06 0.07 0.25
0.00 0.00 0.00 0.00 0.00 0.00 0.00 0.00 0.00 0.00 0.00 0.00 0.00 0.00 0.00 0.00 0.00 0.00 0.00 0.00 0.00 0.00 0.00 0.00 0.00 0.00 0.00 0.00 0.00 0.00 0.00 0.00 0.00 0.00 0.00 0.00 0.00 0.00 0.00 0.00 0.00 0.00 0.01 0.07
0.00 0.00 0.00 0.00 0.00 0.00 0.00 0.00 0.00 0.00 0.00 0.00 0.00 0.00 0.00 0.00 0.00 0.00 0.00 0.00 0.00 0.02 0.01 0.00 0.00 0.00 0.00 0.00 0.00 0.00 0.00 0.00 0.00 0.00 0.00 0.00 0.00 0.00 0.00 0.00 0.00 0.00 0.00 0.01
0.00 0.00 0.00 0.00 0.00 0.00 0.00 0.00 0.00 0.00 0.00 0.00 0.00 0.00 0.00 0.00 0.00 0.00 0.01 0.00 0.01 0.02 0.01 0.02 0.02 0.01 0.01 0.00 0.00 0.00 0.00 0.00 0.00 0.00 0.00 0.00 0.00 0.00 0.00 0.00 0.00 0.00 0.00 0.00
0.00 0.00 0.00 0.00 0.00 0.00 0.00 0.00 0.00 0.00 0.00 0.01 0.00 0.00 0.00 0.00 0.01 0.03 0.05 0.02 0.01 0.01 0.01 0.01 0.02 0.02 0.01 0.00 0.00 0.00 0.00 0.00 0.00 0.00 0.00 0.00 0.00 0.00 0.00 0.00 0.00 0.00 0.00 0.00
0.00 0.00 0.00 0.00 0.01 0.00 0.01 0.03 0.08 0.05 0.01 0.01 0.00 0.00 0.00 0.04 0.07 0.11 0.11 0.07 0.03 0.03 0.04 0.06 0.09 0.06 0.03 0.02 0.01 0.00 0.00 0.00 0.00 0.00 0.00 0.00 0.00 0.00 0.00 0.00 0.00 0.00 0.00 0.03
0.01 0.01 0.00 0.01 0.00 0.00 0.01 0.03 0.12 0.09 0.02 0.02 0.02 0.03 0.15 0.26 0.24 0.31 0.27 0.20 0.16 0.19 0.24 0.25 0.18 0.10 0.08 0.05 0.03 0.01 0.00 0.00 0.00 0.00 0.00 0.00 0.00 0.00 0.00 0.00 0.00 0.00 0.00 0.01
0.00 0.00 0.00 0.01 0.01 0.00 0.00 0.01 0.03 0.11 0.04 0.02 0.00 0.06 0.46 0.69 0.45 0.71 0.81 0.57 0.50 0.48 0.40 0.24 0.13 0.08 0.06 0.03 0.02 0.01 0.01 0.01 0.00 0.00 0.00 0.00 0.00 0.00 0.00 0.00 0.00 0.00 0.00 0.01
0.00 0.02 0.00 0.00 0.00 0.00 0.00 0.00 0.03 0.12 0.15 0.04 0.00 0.02 0.17 0.29 0.25 0.20 0.16 0.18 0.18 0.16 0.14 0.11 0.08 0.05 0.02 0.01 0.01 0.01 0.01 0.01 0.01 0.00 0.00 0.00 0.00 0.00 0.01 0.01 0.00 0.00 0.00 0.01
0.00 0.02 0.02 0.00 0.00 0.00 0.00 0.01 0.02 0.10 0.09 0.09 0.04 0.03 0.06 0.10 0.07 0.02 0.00 0.00 0.00 0.00 0.00 0.00 0.00 0.00 0.00 0.00 0.00 0.00 0.00 0.00 0.00 0.00 0.00 0.00 0.00 0.01 0.02 0.02 0.03 0.04 0.03 0.04
0.01 0.02 0.02 0.00 0.00 0.00 0.00 0.00 0.04 0.16 0.11 0.10 0.13 0.06 0.07 0.08 0.04 0.01 0.00 0.00 0.00 0.00 0.00 0.00 0.00 0.00 0.00 0.00 0.00 0.00 0.00 0.00 0.00 0.01 0.04 0.03 0.01 0.01 0.02 0.02 0.04 0.09 0.11 0.14
0.06 0.09 0.08 0.05 0.01 0.01 0.02 0.02 0.02 0.06 0.14 0.13 0.19 0.08 0.06 0.06 0.02 0.01 0.00 0.00 0.00 0.00 0.00 0.00 0.00 0.00 0.00 0.00 0.00 0.00 0.00 0.00 0.00 0.05 0.11 0.09 0.07 0.05 0.04 0.05 0.06 0.23 0.24 0.22
0.07 0.03 0.06 0.06 0.02 0.03 0.03 0.03 0.03 0.10 0.15 0.08 0.03 0.00 0.01 0.04 0.02 0.01 0.01 0.00 0.00 0.00 0.00 0.00 0.00 0.00 0.00 0.00 0.00 0.00 0.01 0.01 0.01 0.03 0.09 0.06 0.09 0.15 0.17 0.20 0.21 0.27 0.52 0.45
0.05 0.02 0.02 0.01 0.01 0.01 0.01 0.00 0.00 0.01 0.01 0.07 0.01 0.01 0.00 0.00 0.00 0.01 0.01 0.01 0.00 0.00 0.00 0.00 0.00 0.00 0.00 0.00 0.00 0.01 0.03 0.03 0.03 0.04 0.06 0.12 0.23 0.29 0.27 0.27 0.42 0.46 0.55 0.75
0.03 0.02 0.01 0.00 0.00 0.01 0.00 0.00 0.00 0.00 0.00 0.00 0.00 0.00 0.00 0.00 0.00 0.00 0.00 0.01 0.00 0.00 0.00 0.00 0.00 0.01 0.02 0.03 0.03 0.03 0.07 0.10 0.12 0.14 0.19 0.22 0.24 0.31 0.44 0.42 0.40 0.38 0.29 0.43
0.07 0.08 0.12 0.11 0.02 0.07 0.07 0.00 0.00 0.00 0.00 0.00 0.01 0.00 0.00 0.01 0.03 0.01 0.00 0.00 0.00 0.01 0.01 0.02 0.03 0.06 0.08 0.10 0.08 0.08 0.13 0.15 0.17 0.23 0.31 0.41 0.34 0.31 0.40 0.34 0.27 0.32 0.42 0.41
0.03 0.07 0.19 0.15 0.09 0.15 0.01 0.00 0.00 0.00 0.00 0.00 0.00 0.00 0.00 0.01 0.02 0.01 0.00 0.00 0.01 0.01 0.03 0.05 0.09 0.11 0.12 0.13 0.11 0.14 0.18 0.20 0.20 0.23 0.30 0.33 0.30 0.35 0.31 0.27 0.36 0.47 0.59 0.56
0.02 0.06 0.15 0.13 0.07 0.02 0.00 0.00 0.00 0.00 0.00 0.00 0.00 0.00 0.00 0.00 0.00 0.02 0.01 0.00 0.02 0.04 0.07 0.12 0.16 0.17 0.16 0.14 0.14 0.18 0.20 0.19 0.15 0.20 0.26 0.26 0.25 0.23 0.17 0.20 0.22 0.38 0.40 0.46
0.06 0.08 0.19 0.14 0.07 0.02 0.02 0.00 0.00 0.00 0.01 0.00 0.00 0.01 0.02 0.01 0.05 0.05 0.03 0.02 0.06 0.09 0.15 0.18 0.18 0.11 0.09 0.06 0.06 0.06 0.05 0.04 0.06 0.11 0.14 0.14 0.12 0.10 0.15 0.15 0.15 0.19 0.20 0.29
0.18 0.26 0.26 0.13 0.14 0.05 0.01 0.00 0.00 0.02 0.02 0.00 0.00 0.01 0.05 0.03 0.03 0.03 0.04 0.08 0.11 0.16 0.21 0.18 0.07 0.06 0.03 0.01 0.01 0.01 0.01 0.03 0.03 0.02 0.02 0.02 0.03 0.05 0.09 0.08 0.07 0.08 0.10 0.08
0.07 0.19 0.23 0.26 0.31 0.17 0.02 0.01 0.01 0.04 0.01 0.00 0.03 0.05 0.03 0.05 0.05 0.07 0.09 0.13 0.17 0.20 0.18 0.11 0.07 0.08 0.07 0.03 0.01 0.02 0.03 0.02 0.00 0.00 0.00 0.00 0.00 0.00 0.01 0.01 0.01 0.02 0.03 0.04
0.03 0.07 0.20 0.11 0.14 0.05 0.02 0.01 0.01 0.01 0.01 0.03 0.05 0.08 0.07 0.09 0.13 0.14 0.16 0.19 0.21 0.16 0.12 0.10 0.09 0.12 0.11 0.03 0.02 0.02 0.01 0.00 0.00 0.00 0.00 0.00 0.00 0.00 0.00 0.00 0.01 0.00 0.00 0.00
0.04 0.03 0.04 0.06 0.04 0.02 0.02 0.01 0.01 0.01 0.02 0.03 0.06 0.06 0.07 0.09 0.12 0.17 0.19 0.21 0.19 0.14 0.13 0.10 0.09 0.09 0.04 0.01 0.01 0.00 0.00 0.00 0.00 0.00 0.00 0.00 0.00 0.00 0.00 0.00 0.00 0.00 0.00 0.01
0.06 0.05 0.06 0.07 0.03 0.03 0.03 0.02 0.03 0.03 0.03 0.04 0.07 0.06 0.07 0.07 0.12 0.13 0.16 0.18 0.13 0.11 0.09 0.05 0.03 0.02 0.00 0.00 0.00 0.00 0.00 0.00 0.00 0.00 0.00 0.00 0.00 0.00 0.00 0.00 0.00 0.00 0.00 0.01
0.02 0.03 0.05 0.08 0.01 0.02 0.02 0.01 0.01 0.02 0.04 0.04 0.05 0.10 0.11 0.06 0.11 0.11 0.14 0.11 0.06 0.04 0.02 0.01 0.00 0.00 0.00 0.00 0.00 0.00 0.00 0.00 0.00 0.00 0.00 0.00 0.00 0.00 0.00 0.00 0.00 0.00 0.00 0.00

GFSCGP_prec_precacc24_138.txt.gz
Total_Precipitation_Accumulation
0.00 0.00 0.00 0.00 0.00 0.00 0.00 0.00 0.00 0.00 0.00 0.00 0.00 0.00 0.00 0.00 0.00 0.00 0.00 0.00 0.00 0.00 0.00 0.00 0.00 0.00 0.00 0.00 0.00 0.00 0.00 0.00 0.00 0.00 0.00 0.00 0.00 0.00 0.00 0.02 0.09 0.13 0.27 0.45
0.00 0.00 0.00 0.00 0.00 0.00 0.00 0.00 0.00 0.00 0.00 0.00 0.00 0.00 0.00 0.00 0.00 0.00 0.00 0.00 0.00 0.00 0.00 0.00 0.00 0.00 0.00 0.00 0.00 0.00 0.00 0.00 0.00 0.00 0.00 0.00 0.00 0.00 0.00 0.00 0.03 0.06 0.07 0.23
0.00 0.00 0.00 0.00 0.00 0.00 0.00 0.00 0.00 0.00 0.00 0.00 0.00 0.00 0.00 0.00 0.00 0.00 0.00 0.00 0.00 0.00 0.00 0.00 0.00 0.00 0.00 0.00 0.00 0.00 0.00 0.00 0.00 0.00 0.00 0.00 0.00 0.00 0.00 0.00 0.00 0.00 0.01 0.04
0.00 0.00 0.00 0.00 0.00 0.00 0.00 0.00 0.00 0.00 0.00 0.00 0.00 0.00 0.00 0.00 0.00 0.00 0.00 0.00 0.00 0.02 0.01 0.00 0.00 0.00 0.00 0.00 0.00 0.00 0.00 0.00 0.00 0.00 0.00 0.00 0.00 0.00 0.00 0.00 0.00 0.00 0.00 0.00
0.00 0.00 0.00 0.00 0.00 0.00 0.00 0.00 0.00 0.00 0.00 0.00 0.00 0.00 0.00 0.00 0.00 0.00 0.01 0.00 0.01 0.02 0.01 0.02 0.02 0.01 0.01 0.00 0.00 0.00 0.00 0.00 0.00 0.00 0.00 0.00 0.00 0.00 0.00 0.00 0.00 0.00 0.00 0.00
0.00 0.00 0.00 0.00 0.00 0.00 0.00 0.00 0.00 0.00 0.00 0.01 0.00 0.00 0.00 0.00 0.01 0.03 0.05 0.02 0.01 0.01 0.01 0.01 0.02 0.02 0.01 0.00 0.00 0.00 0.00 0.00 0.00 0.00 0.00 0.00 0.00 0.00 0.00 0.00 0.00 0.00 0.00 0.00
0.00 0.00 0.00 0.00 0.01 0.00 0.01 0.02 0.06 0.02 0.00 0.00 0.00 0.00 0.00 0.03 0.07 0.10 0.10 0.07 0.03 0.03 0.04 0.06 0.09 0.06 0.03 0.02 0.01 0.00 0.00 0.00 0.00 0.00 0.00 0.00 0.00 0.00 0.00 0.00 0.00 0.00 0.00 0.00
0.00 0.00 0.00 0.01 0.00 0.00 0.01 0.02 0.09 0.05 0.00 0.00 0.00 0.02 0.10 0.25 0.22 0.28 0.26 0.20 0.16 0.19 0.24 0.25 0.18 0.10 0.08 0.05 0.03 0.01 0.00 0.00 0.00 0.00 0.00 0.00 0.00 0.00 0.00 0.00 0.00 0.00 0.00 0.00
0.00 0.00 0.00 0.01 0.01 0.00 0.00 0.00 0.02 0.08 0.02 0.01 0.00 0.02 0.38 0.68 0.45 0.70 0.81 0.57 0.50 0.48 0.40 0.24 0.13 0.08 0.06 0.03 0.02 0.01 0.01 0.01 0.00 0.00 0.00 0.00 0.00 0.00 0.00 0.00 0.00 0.00 0.00 0.00
0.00 0.00 0.00 0.00 0.00 0.00 0.00 0.00 0.02 0.09 0.13 0.04 0.00 0.01 0.10 0.20 0.25 0.20 0.16 0.18 0.18 0.16 0.14 0.11 0.08 0.05 0.02 0.01 0.01 0.01 0.01 0.01 0.01 0.00 0.00 0.00 0.00 0.00 0.00 0.00 0.00 0.00 0.00 0.00
0.00 0.00 0.00 0.00 0.00 0.00 0.00 0.01 0.02 0.10 0.08 0.09 0.04 0.01 0.02 0.05 0.05 0.02 0.03 0.04 0.03 0.00 0.00 0.00 0.00 0.00 0.00 0.00 0.00 0.00 0.00 0.00 0.00 0.00 0.00 0.00 0.00 0.00 0.00 0.00 0.01 0.01 0.01 0.01
0.01 0.01 0.01 0.00 0.00 0.00 0.00 0.00 0.04 0.20 0.15 0.12 0.17 0.11 0.03 0.06 0.04 0.01 0.01 0.02 0.03 0.06 0.03 0.00 0.00 0.00 0.00 0.00 0.00 0.00 0.00 0.00 0.00 0.00 0.00 0.00 0.01 0.01 0.01 0.01 0.02 0.03 0.03 0.03
0.06 0.06 0.04 0.02 0.01 0.01 0.02 0.02 0.02 0.07 0.15 0.13 0.21 0.08 0.05 0.06 0.02 0.01 0.02 0.01 0.01 0.05 0.06 0.01 0.00 0.00 0.00 0.00 0.00 0.00 0.00 0.00 0.00 0.00 0.00 0.01 0.02 0.03 0.03 0.03 0.04 0.03 0.02 0.01
0.07 0.03 0.04 0.03 0.01 0.03 0.04 0.03 0.03 0.11 0.21 0.13 0.05 0.02 0.01 0.04 0.03 0.02 0.02 0.02 0.03 0.12 0.13 0.01 0.00 0.00 0.00 0.00 0.00 0.00 0.00 0.00 0.00 0.00 0.01 0.02 0.03 0.04 0.05 0.06 0.06 0.04 0.05 0.04
0.05 0.02 0.02 0.01 0.01 0.01 0.01 0.00 0.00 0.02 0.02 0.10 0.02 0.02 0.00 0.00 0.00 0.02 0.04 0.05 0.10 0.14 0.08 0.02 0.00 0.00 0.00 0.00 0.00 0.00 0.00 0.01 0.01 0.02 0.05 0.08 0.10 0.10 0.10 0.11 0.14 0.13 0.19 0.26
0.03 0.02 0.01 0.01 0.00 0.01 0.00 0.00 0.00 0.00 0.00 0.00 0.00 0.00 0.00 0.00 0.00 0.00 0.00 0.03 0.06 0.07 0.02 0.00 0.00 0.01 0.01 0.01 0.01 0.01 0.02 0.05 0.06 0.10 0.15 0.18 0.21 0.25 0.27 0.25 0.25 0.20 0.17 0.35
0.07 0.10 0.14 0.12 0.03 0.08 0.07 0.00 0.00 0.00 0.00 0.00 0.01 0.00 0.00 0.01 0.03 0.02 0.01 0.01 0.04 0.05 0.03 0.01 0.01 0.03 0.04 0.04 0.04 0.04 0.06 0.09 0.11 0.15 0.22 0.31 0.30 0.26 0.27 0.25 0.18 0.18 0.26 0.32
0.03 0.08 0.22 0.17 0.11 0.19 0.02 0.00 0.00 0.00 0.00 0.00 0.00 0.00 0.00 0.01 0.02 0.02 0.02 0.02 0.03 0.01 0.02 0.02 0.03 0.05 0.06 0.06 0.05 0.07 0.10 0.13 0.15 0.16 0.21 0.23 0.24 0.29 0.26 0.18 0.20 0.30 0.38 0.39
0.02 0.06 0.16 0.15 0.07 0.03 0.00 0.00 0.00 0.00 0.00 0.00 0.00 0.00 0.00 0.01 0.02 0.03 0.01 0.00 0.01 0.02 0.03 0.05 0.08 0.09 0.08 0.06 0.07 0.09 0.13 0.14 0.13 0.16 0.20 0.20 0.17 0.18 0.16 0.17 0.18 0.26 0.26 0.28
0.06 0.08 0.20 0.15 0.08 0.01 0.00 0.00 0.00 0.00 0.01 0.00 0.00 0.00 0.01 0.02 0.03 0.04 0.01 0.01 0.02 0.04 0.07 0.11 0.12 0.06 0.03 0.02 0.02 0.04 0.04 0.04 0.04 0.05 0.07 0.07 0.07 0.07 0.09 0.10 0.10 0.11 0.12 0.16
0.20 0.30 0.29 0.14 0.16 0.03 0.00 0.00 0.00 0.02 0.01 0.00 0.00 0.00 0.03 0.02 0.01 0.01 0.01 0.03 0.05 0.09 0.13 0.13 0.07 0.05 0.03 0.01 0.01 0.01 0.01 0.02 0.01 0.00 0.00 0.00 0.01 0.01 0.03 0.03 0.03 0.04 0.04 0.01
0.06 0.20 0.25 0.31 0.34 0.16 0.01 0.01 0.02 0.03 0.01 0.00 0.01 0.01 0.03 0.05 0.04 0.04 0.05 0.08 0.11 0.14 0.16 0.11 0.08 0.08 0.08 0.03 0.01 0.02 0.03 0.01 0.00 0.00 0.00 0.00 0.00 0.00 0.00 0.00 0.00 0.00 0.01 0.01
0.04 0.05 0.11 0.11 0.13 0.06 0.03 0.02 0.01 0.00 0.00 0.01 0.02 0.04 0.05 0.08 0.10 0.11 0.12 0.14 0.15 0.13 0.12 0.10 0.10 0.13 0.12 0.04 0.02 0.02 0.01 0.00 0.00 0.00 0.00 0.00 0.00 0.00 0.00 0.00 0.00 0.00 0.00 0.00
0.07 0.05 0.07 0.09 0.04 0.02 0.03 0.02 0.02 0.01 0.01 0.02 0.03 0.03 0.04 0.07 0.09 0.13 0.14 0.16 0.16 0.14 0.13 0.11 0.10 0.09 0.04 0.01 0.01 0.00 0.00 0.00 0.00 0.00 0.00 0.00 0.00 0.00 0.00 0.00 0.00 0.00 0.00 0.01
0.11 0.12 0.10 0.12 0.09 0.08 0.09 0.04 0.03 0.02 0.02 0.02 0.04 0.04 0.04 0.04 0.08 0.08 0.12 0.14 0.12 0.11 0.10 0.05 0.03 0.02 0.00 0.00 0.00 0.00 0.00 0.00 0.00 0.00 0.00 0.00 0.00 0.00 0.00 0.00 0.00 0.00 0.00 0.01
0.03 0.06 0.07 0.07 0.05 0.04 0.05 0.02 0.00 0.01 0.02 0.02 0.03 0.07 0.08 0.04 0.06 0.08 0.11 0.10 0.07 0.04 0.02 0.01 0.00 0.00 0.00 0.00 0.00 0.00 0.00 0.00 0.00 0.00 0.00 0.00 0.00 0.00 0.00 0.00 0.00 0.00 0.00 0.00

GFSCGP_prec_precacc24_141.txt.gz
Total_Precipitation_Accumulation
0.00 0.00 0.00 0.00 0.00 0.00 0.00 0.00 0.00 0.00 0.00 0.00 0.00 0.00 0.00 0.00 0.00 0.00 0.00 0.00 0.00 0.00 0.00 0.00 0.00 0.00 0.00 0.00 0.00 0.00 0.00 0.00 0.00 0.00 0.00 0.00 0.00 0.00 0.00 0.00 0.00 0.03 0.16 0.37
0.00 0.00 0.00 0.00 0.00 0.00 0.00 0.00 0.00 0.00 0.00 0.00 0.00 0.00 0.00 0.00 0.00 0.00 0.00 0.00 0.00 0.00 0.00 0.00 0.00 0.00 0.00 0.00 0.00 0.00 0.00 0.00 0.00 0.00 0.00 0.00 0.00 0.00 0.00 0.00 0.00 0.00 0.01 0.03
0.00 0.00 0.00 0.00 0.00 0.00 0.00 0.00 0.00 0.00 0.00 0.00 0.00 0.00 0.00 0.00 0.00 0.00 0.00 0.00 0.00 0.00 0.00 0.00 0.00 0.00 0.00 0.00 0.00 0.00 0.00 0.00 0.00 0.00 0.00 0.00 0.00 0.00 0.00 0.00 0.00 0.00 0.00 0.00
0.00 0.00 0.00 0.00 0.00 0.00 0.00 0.00 0.00 0.00 0.00 0.00 0.00 0.00 0.00 0.00 0.00 0.00 0.00 0.00 0.00 0.01 0.00 0.00 0.00 0.00 0.00 0.00 0.00 0.00 0.00 0.00 0.00 0.00 0.00 0.00 0.00 0.00 0.00 0.00 0.00 0.00 0.00 0.00
0.00 0.00 0.00 0.00 0.00 0.00 0.00 0.00 0.00 0.00 0.00 0.00 0.00 0.00 0.00 0.00 0.00 0.00 0.00 0.00 0.00 0.01 0.01 0.02 0.02 0.01 0.01 0.00 0.00 0.00 0.00 0.00 0.00 0.00 0.00 0.00 0.00 0.00 0.00 0.00 0.00 0.00 0.00 0.00
0.00 0.00 0.00 0.00 0.00 0.00 0.00 0.00 0.00 0.00 0.00 0.00 0.00 0.00 0.00 0.00 0.01 0.01 0.02 0.01 0.01 0.01 0.01 0.01 0.02 0.02 0.01 0.00 0.00 0.00 0.00 0.00 0.00 0.00 0.00 0.00 0.00 0.00 0.00 0.00 0.00 0.00 0.00 0.00
0.00 0.00 0.00 0.00 0.00 0.00 0.01 0.02 0.06 0.02 0.00 0.00 0.00 0.00 0.00 0.01 0.02 0.06 0.08 0.06 0.03 0.03 0.04 0.06 0.09 0.06 0.03 0.02 0.01 0.00 0.00 0.00 0.00 0.00 0.00 0.00 0.00 0.00 0.00 0.00 0.00 0.00 0.00 0.00
0.00 0.00 0.00 0.00 0.00 0.00 0.00 0.02 0.08 0.04 0.00 0.00 0.00 0.00 0.00 0.07 0.11 0.13 0.22 0.20 0.16 0.19 0.24 0.25 0.18 0.10 0.08 0.05 0.03 0.01 0.00 0.00 0.00 0.00 0.00 0.00 0.00 0.00 0.00 0.00 0.00 0.00 0.00 0.00
0.00 0.00 0.00 0.00 0.00 0.00 0.00 0.00 0.02 0.05 0.01 0.01 0.00 0.00 0.00 0.05 0.25 0.42 0.58 0.48 0.46 0.46 0.39 0.24 0.13 0.08 0.06 0.03 0.02 0.01 0.01 0.01 0.00 0.00 0.00 0.00 0.00 0.00 0.00 0.00 0.00 0.00 0.00 0.00
0.00 0.00 0.00 0.00 0.00 0.00 0.00 0.00 0.02 0.07 0.09 0.02 0.00 0.00 0.01 0.03 0.08 0.10 0.09 0.14 0.20 0.18 0.14 0.11 0.08 0.05 0.02 0.01 0.01 0.01 0.01 0.01 0.01 0.00 0.00 0.00 0.00 0.00 0.00 0.00 0.00 0.00 0.00 0.00
0.00 0.00 0.00 0.00 0.00 0.00 0.00 0.01 0.02 0.09 0.06 0.07 0.03 0.00 0.00 0.02 0.01 0.01 0.03 0.06 0.08 0.16 0.15 0.11 0.02 0.00 0.00 0.00 0.00 0.00 0.00 0.00 0.00 0.00 0.00 0.00 0.00 0.00 0.00 0.00 0.00 0.01 0.01 0.01
0.01 0.01 0.00 0.00 0.00 0.00 0.00 0.00 0.04 0.20 0.15 0.13 0.18 0.12 0.00 0.03 0.03 0.02 0.01 0.02 0.03 0.10 0.16 0.11 0.05 0.03 0.01 0.00 0.00 0.00 0.00 0.00 0.00 0.00 0.00 0.00 0.01 0.00 0.01 0.01 0.01 0.01 0.01 0.00
0.06 0.06 0.04 0.01 0.01 0.01 0.02 0.02 0.02 0.07 0.16 0.14 0.22 0.07 0.02 0.04 0.02 0.01 0.02 0.01 0.01 0.11 0.18 0.14 0.08 0.05 0.04 0.01 0.00 0.00 0.00 0.00 0.00 0.00 0.00 0.01 0.01 0.01 0.01 0.01 0.02 0.02 0.01 0.01
0.07 0.03 0.04 0.02 0.00 0.02 0.04 0.03 0.03 0.11 0.22 0.13 0.06 0.03 0.00 0.02 0.03 0.01 0.02 0.02 0.03 0.12 0.18 0.12 0.11 0.09 0.08 0.04 0.00 0.00 0.00 0.00 0.00 0.00 0.00 0.01 0.02 0.03 0.03 0.03 0.02 0.02 0.01 0.01
0.05 0.02 0.02 0.01 0.01 0.00 0.01 0.00 0.00 0.02 0.02 0.11 0.02 0.02 0.00 0.00 0.00 0.02 0.04 0.05 0.10 0.14 0.09 0.05 0.05 0.05 0.03 0.01 0.00 0.00 0.00 0.00 0.00 0.01 0.02 0.04 0.07 0.08 0.08 0.09 0.09 0.08 0.05 0.03
0.03 0.02 0.01 0.01 0.00 0.01 0.00 0.00 0.00 0.00 0.00 0.00 0.00 0.00 0.00 0.00 0.00 0.00 0.00 0.04 0.07 0.09 0.05 0.03 0.02 0.02 0.01 0.01 0.00 0.00 0.00 0.01 0.01 0.03 0.07 0.10 0.13 0.21 0.25 0.25 0.23 0.16 0.09 0.12
0.09 0.12 0.16 0.13 0.03 0.09 0.08 0.00 0.00 0.00 0.00 0.00 0.01 0.00 0.00 0.01 0.03 0.02 0.01 0.02 0.06 0.09 0.07 0.03 0.01 0.02 0.02 0.01 0.01 0.02 0.02 0.02 0.04 0.06 0.09 0.18 0.21 0.21 0.23 0.22 0.15 0.14 0.19 0.18
0.03 0.08 0.25 0.18 0.12 0.21 0.02 0.00 0.00 0.00 0.00 0.00 0.00 0.00 0.00 0.01 0.02 0.02 0.02 0.03 0.08 0.10 0.05 0.03 0.02 0.02 0.01 0.01 0.01 0.02 0.01 0.02 0.04 0.06 0.10 0.14 0.16 0.20 0.21 0.16 0.17 0.22 0.30 0.26
0.02 0.06 0.16 0.15 0.08 0.03 0.00 0.00 0.00 0.00 0.00 0.00 0.00 0.00 0.00 0.01 0.02 0.02 0.01 0.02 0.03 0.02 0.02 0.03 0.03 0.02 0.01 0.01 0.01 0.00 0.02 0.02 0.03 0.05 0.08 0.10 0.09 0.11 0.11 0.13 0.15 0.19 0.20 0.21
0.06 0.08 0.20 0.15 0.08 0.02 0.00 0.00 0.00 0.01 0.02 0.00 0.00 0.00 0.00 0.03 0.05 0.04 0.03 0.01 0.01 0.02 0.03 0.05 0.05 0.02 0.01 0.00 0.00 0.01 0.01 0.01 0.02 0.02 0.01 0.01 0.00 0.01 0.02 0.04 0.05 0.06 0.08 0.11
0.20 0.30 0.30 0.15 0.17 0.03 0.00 0.00 0.01 0.02 0.01 0.00 0.00 0.00 0.00 0.02 0.01 0.01 0.00 0.02 0.02 0.03 0.05 0.07 0.06 0.04 0.03 0.01 0.01 0.01 0.01 0.02 0.01 0.00 0.00 0.00 0.00 0.00 0.00 0.01 0.00 0.00 0.00 0.00
0.06 0.21 0.27 0.35 0.39 0.20 0.01 0.01 0.04 0.04 0.03 0.01 0.01 0.00 0.01 0.03 0.02 0.02 0.03 0.04 0.06 0.09 0.11 0.09 0.07 0.08 0.08 0.03 0.01 0.02 0.03 0.01 0.00 0.00 0.00 0.00 0.00 0.00 0.00 0.00 0.00 0.00 0.00 0.00
0.05 0.06 0.06 0.12 0.12 0.06 0.03 0.02 0.01 0.00 0.01 0.00 0.00 0.01 0.02 0.06 0.08 0.08 0.09 0.10 0.10 0.10 0.10 0.09 0.09 0.13 0.12 0.04 0.02 0.02 0.01 0.00 0.00 0.00 0.00 0.00 0.00 0.00 0.00 0.00 0.00 0.00 0.00 0.00
0.07 0.06 0.10 0.13 0.06 0.04 0.05 0.03 0.04 0.02 0.02 0.01 0.00 0.00 0.01 0.04 0.05 0.09 0.10 0.11 0.11 0.12 0.12 0.10 0.10 0.09 0.04 0.01 0.01 0.00 0.00 0.00 0.00 0.00 0.00 0.00 0.00 0.00 0.00 0.00 0.00 0.00 0.00 0.01
0.11 0.13 0.14 0.18 0.14 0.11 0.13 0.12 0.14 0.07 0.03 0.01 0.01 0.01 0.01 0.01 0.05 0.05 0.08 0.10 0.09 0.10 0.09 0.05 0.03 0.02 0.00 0.00 0.00 0.00 0.00 0.00 0.00 0.00 0.00 0.00 0.00 0.00 0.00 0.00 0.00 0.00 0.00 0.01
0.03 0.06 0.10 0.13 0.13 0.08 0.08 0.05 0.02 0.01 0.00 0.00 0.01 0.04 0.04 0.02 0.04 0.05 0.07 0.08 0.06 0.05 0.02 0.01 0.00 0.00 0.00 0.00 0.00 0.00 0.00 0.00 0.00 0.00 0.00 0.00 0.00 0.00 0.00 0.00 0.00 0.00 0.00 0.00

GFSCGP_prec_precacc24_144.txt.gz
Total_Precipitation_Accumulation
0.00 0.00 0.00 0.00 0.00 0.00 0.00 0.00 0.00 0.00 0.00 0.00 0.00 0.00 0.00 0.00 0.00 0.00 0.00 0.00 0.00 0.00 0.00 0.00 0.00 0.00 0.00 0.00 0.00 0.00 0.00 0.00 0.00 0.00 0.00 0.00 0.00 0.00 0.00 0.00 0.00 0.00 0.01 0.07
0.00 0.00 0.00 0.00 0.00 0.00 0.00 0.00 0.00 0.00 0.00 0.00 0.00 0.00 0.00 0.00 0.00 0.00 0.00 0.00 0.00 0.00 0.00 0.00 0.00 0.00 0.00 0.00 0.00 0.00 0.00 0.00 0.00 0.00 0.00 0.00 0.00 0.00 0.00 0.00 0.00 0.00 0.00 0.00
0.00 0.00 0.00 0.00 0.00 0.00 0.00 0.00 0.00 0.00 0.00 0.00 0.00 0.00 0.00 0.00 0.00 0.00 0.00 0.00 0.00 0.00 0.00 0.00 0.00 0.00 0.00 0.00 0.00 0.00 0.00 0.00 0.00 0.00 0.00 0.00 0.00 0.00 0.00 0.00 0.00 0.00 0.00 0.00
0.00 0.00 0.00 0.00 0.00 0.00 0.00 0.00 0.00 0.00 0.00 0.00 0.00 0.00 0.00 0.00 0.00 0.00 0.00 0.00 0.00 0.00 0.00 0.00 0.00 0.00 0.00 0.00 0.00 0.00 0.00 0.00 0.00 0.00 0.00 0.00 0.00 0.00 0.00 0.00 0.00 0.00 0.00 0.00
0.00 0.00 0.00 0.00 0.00 0.00 0.00 0.00 0.00 0.00 0.00 0.00 0.00 0.00 0.00 0.00 0.00 0.00 0.00 0.00 0.00 0.00 0.01 0.01 0.01 0.01 0.01 0.00 0.00 0.00 0.00 0.00 0.00 0.00 0.00 0.00 0.00 0.00 0.00 0.00 0.00 0.00 0.00 0.00
0.00 0.00 0.00 0.00 0.00 0.00 0.00 0.00 0.00 0.00 0.00 0.00 0.00 0.00 0.00 0.00 0.00 0.00 0.00 0.00 0.00 0.00 0.00 0.01 0.01 0.02 0.01 0.00 0.00 0.00 0.00 0.00 0.00 0.00 0.00 0.00 0.00 0.00 0.00 0.00 0.00 0.00 0.00 0.00
0.00 0.00 0.00 0.00 0.00 0.00 0.00 0.00 0.03 0.01 0.00 0.00 0.00 0.00 0.00 0.00 0.00 0.00 0.00 0.00 0.01 0.02 0.04 0.06 0.08 0.06 0.03 0.02 0.01 0.00 0.00 0.00 0.00 0.00 0.00 0.00 0.00 0.00 0.00 0.00 0.00 0.00 0.00 0.00
0.00 0.00 0.00 0.00 0.00 0.00 0.00 0.01 0.04 0.03 0.00 0.00 0.00 0.00 0.00 0.00 0.00 0.00 0.04 0.07 0.09 0.16 0.23 0.23 0.16 0.09 0.08 0.05 0.03 0.01 0.00 0.00 0.00 0.00 0.00 0.00 0.00 0.00 0.00 0.00 0.00 0.00 0.00 0.00
0.00 0.00 0.00 0.00 0.00 0.00 0.00 0.00 0.02 0.05 0.01 0.01 0.00 0.00 0.00 0.00 0.00 0.01 0.08 0.15 0.16 0.22 0.30 0.20 0.12 0.08 0.06 0.03 0.02 0.01 0.01 0.01 0.00 0.00 0.00 0.00 0.00 0.00 0.00 0.00 0.00 0.00 0.00 0.00
0.00 0.00 0.00 0.00 0.00 0.00 0.00 0.00 0.02 0.07 0.09 0.02 0.00 0.00 0.00 0.00 0.00 0.01 0.02 0.05 0.08 0.07 0.05 0.04 0.02 0.01 0.01 0.01 0.01 0.01 0.01 0.01 0.01 0.00 0.00 0.00 0.00 0.00 0.00 0.00 0.00 0.00 0.00 0.00
0.00 0.00 0.00 0.00 0.00 0.00 0.00 0.01 0.02 0.09 0.06 0.07 0.03 0.00 0.00 0.01 0.00 0.01 0.03 0.06 0.10 0.16 0.18 0.15 0.07 0.04 0.03 0.02 0.00 0.00 0.00 0.00 0.00 0.00 0.00 0.00 0.00 0.00 0.00 0.00 0.00 0.01 0.00 0.01
0.01 0.01 0.00 0.00 0.00 0.00 0.00 0.00 0.04 0.20 0.15 0.13 0.19 0.12 0.00 0.00 0.01 0.02 0.01 0.02 0.04 0.10 0.16 0.11 0.06 0.04 0.03 0.02 0.00 0.00 0.00 0.00 0.00 0.00 0.00 0.00 0.00 0.00 0.01 0.01 0.01 0.01 0.01 0.00
0.06 0.07 0.04 0.01 0.01 0.02 0.03 0.03 0.04 0.07 0.15 0.13 0.23 0.07 0.02 0.02 0.02 0.01 0.02 0.01 0.01 0.11 0.18 0.14 0.08 0.05 0.05 0.04 0.04 0.04 0.01 0.00 0.00 0.00 0.00 0.00 0.01 0.01 0.01 0.01 0.01 0.01 0.01 0.01
0.07 0.03 0.04 0.02 0.01 0.04 0.06 0.04 0.04 0.11 0.21 0.13 0.06 0.03 0.00 0.01 0.03 0.01 0.02 0.02 0.03 0.12 0.18 0.12 0.11 0.10 0.08 0.07 0.06 0.04 0.00 0.00 0.00 0.00 0.00 0.00 0.01 0.02 0.02 0.02 0.02 0.02 0.01 0.01
0.05 0.02 0.02 0.01 0.01 0.01 0.02 0.02 0.01 0.02 0.03 0.11 0.02 0.02 0.00 0.00 0.00 0.02 0.04 0.05 0.10 0.15 0.10 0.06 0.06 0.06 0.04 0.03 0.01 0.01 0.00 0.00 0.00 0.00 0.00 0.01 0.02 0.03 0.03 0.04 0.06 0.07 0.04 0.02
0.03 0.03 0.01 0.01 0.00 0.01 0.00 0.00 0.00 0.00 0.00 0.00 0.00 0.00 0.00 0.00 0.00 0.00 0.00 0.04 0.07 0.09 0.07 0.04 0.04 0.03 0.02 0.01 0.00 0.00 0.00 0.00 0.00 0.01 0.02 0.03 0.05 0.07 0.10 0.14 0.17 0.13 0.07 0.08
0.09 0.12 0.17 0.14 0.03 0.09 0.08 0.00 0.00 0.00 0.00 0.00 0.01 0.00 0.00 0.01 0.03 0.02 0.01 0.02 0.06 0.10 0.08 0.05 0.03 0.02 0.02 0.01 0.00 0.00 0.00 0.00 0.00 0.00 0.01 0.03 0.05 0.05 0.08 0.10 0.07 0.07 0.10 0.12
0.03 0.08 0.26 0.20 0.13 0.25 0.02 0.00 0.00 0.00 0.00 0.00 0.00 0.00 0.00 0.01 0.02 0.02 0.02 0.02 0.10 0.12 0.07 0.04 0.03 0.02 0.00 0.00 0.00 0.00 0.00 0.00 0.00 0.00 0.01 0.02 0.03 0.05 0.07 0.07 0.08 0.10 0.15 0.15
0.02 0.07 0.17 0.16 0.08 0.03 0.00 0.00 0.00 0.00 0.00 0.00 0.00 0.00 0.00 0.01 0.02 0.02 0.01 0.02 0.05 0.04 0.03 0.03 0.02 0.01 0.00 0.00 0.00 0.00 0.00 0.00 0.00 0.01 0.02 0.02 0.01 0.01 0.02 0.03 0.06 0.08 0.09 0.09
0.06 0.08 0.21 0.15 0.08 0.02 0.00 0.00 0.00 0.01 0.02 0.00 0.00 0.00 0.01 0.04 0.05 0.04 0.03 0.01 0.01 0.02 0.03 0.03 0.03 0.01 0.01 0.00 0.00 0.00 0.00 0.00 0.01 0.01 0.01 0.00 0.00 0.00 0.00 0.00 0.00 0.01 0.01 0.03
0.20 0.30 0.30 0.15 0.17 0.03 0.00 0.00 0.01 0.02 0.01 0.00 0.00 0.00 0.00 0.02 0.02 0.01 0.00 0.01 0.01 0.02 0.03 0.05 0.04 0.04 0.03 0.01 0.01 0.01 0.01 0.02 0.01 0.00 0.00 0.00 0.00 0.00 0.00 0.00 0.00 0.00 0.00 0.00
0.06 0.21 0.27 0.35 0.40 0.21 0.02 0.02 0.05 0.05 0.04 0.01 0.01 0.01 0.01 0.01 0.02 0.02 0.02 0.03 0.05 0.06 0.08 0.08 0.07 0.08 0.08 0.03 0.01 0.02 0.03 0.01 0.00 0.00 0.00 0.00 0.00 0.00 0.00 0.00 0.00 0.00 0.00 0.00
0.05 0.06 0.07 0.13 0.13 0.06 0.04 0.03 0.02 0.01 0.01 0.00 0.00 0.00 0.00 0.02 0.06 0.06 0.06 0.07 0.08 0.08 0.08 0.09 0.09 0.12 0.12 0.04 0.02 0.02 0.01 0.00 0.00 0.00 0.00 0.00 0.00 0.00 0.00 0.00 0.00 0.00 0.00 0.00
0.07 0.07 0.11 0.13 0.06 0.04 0.05 0.03 0.04 0.02 0.03 0.01 0.00 0.00 0.00 0.02 0.03 0.07 0.08 0.08 0.08 0.09 0.10 0.10 0.09 0.09 0.05 0.01 0.01 0.00 0.00 0.00 0.00 0.00 0.00 0.00 0.00 0.00 0.00 0.00 0.00 0.00 0.00 0.01
0.11 0.13 0.14 0.18 0.15 0.15 0.16 0.16 0.16 0.07 0.03 0.01 0.00 0.00 0.00 0.00 0.02 0.02 0.04 0.06 0.06 0.08 0.08 0.04 0.03 0.02 0.01 0.00 0.00 0.00 0.00 0.00 0.00 0.00 0.00 0.00 0.00 0.00 0.00 0.00 0.00 0.00 0.00 0.00
0.03 0.06 0.10 0.13 0.14 0.14 0.15 0.12 0.05 0.01 0.00 0.00 0.00 0.01 0.01 0.00 0.01 0.02 0.04 0.05 0.05 0.05 0.02 0.01 0.00 0.00 0.00 0.00 0.00 0.00 0.00 0.00 0.00 0.00 0.00 0.00 0.00 0.00 0.00 0.00 0.00 0.00 0.00 0.00

GFSCGP_prec_precacc24_147.txt.gz
Total_Precipitation_Accumulation
0.00 0.00 0.00 0.00 0.00 0.00 0.00 0.00 0.00 0.00 0.00 0.00 0.00 0.00 0.00 0.00 0.00 0.00 0.00 0.00 0.00 0.00 0.00 0.00 0.00 0.00 0.00 0.00 0.00 0.00 0.00 0.00 0.00 0.00 0.00 0.00 0.00 0.00 0.00 0.00 0.00 0.00 0.00 0.00
0.00 0.00 0.00 0.00 0.00 0.00 0.00 0.00 0.00 0.00 0.00 0.00 0.00 0.00 0.00 0.00 0.00 0.00 0.00 0.00 0.00 0.00 0.00 0.00 0.00 0.00 0.00 0.00 0.00 0.00 0.00 0.00 0.00 0.00 0.00 0.00 0.00 0.00 0.00 0.00 0.00 0.00 0.00 0.00
0.00 0.00 0.00 0.00 0.00 0.00 0.00 0.00 0.00 0.00 0.00 0.00 0.00 0.00 0.00 0.00 0.00 0.00 0.00 0.00 0.00 0.00 0.00 0.00 0.00 0.00 0.00 0.00 0.00 0.00 0.00 0.00 0.00 0.00 0.00 0.00 0.00 0.00 0.00 0.00 0.00 0.00 0.00 0.00
0.00 0.00 0.00 0.00 0.00 0.00 0.00 0.00 0.00 0.00 0.00 0.00 0.00 0.00 0.00 0.00 0.00 0.00 0.00 0.00 0.00 0.00 0.00 0.00 0.00 0.00 0.00 0.00 0.00 0.00 0.00 0.00 0.00 0.00 0.00 0.00 0.00 0.00 0.00 0.00 0.00 0.00 0.00 0.00
0.00 0.00 0.00 0.00 0.00 0.00 0.00 0.00 0.00 0.00 0.00 0.00 0.00 0.00 0.00 0.00 0.00 0.00 0.00 0.00 0.00 0.00 0.00 0.00 0.00 0.00 0.00 0.00 0.00 0.00 0.00 0.00 0.00 0.00 0.00 0.00 0.00 0.00 0.00 0.00 0.00 0.00 0.00 0.00
0.00 0.00 0.00 0.00 0.00 0.00 0.00 0.00 0.00 0.00 0.00 0.00 0.00 0.00 0.00 0.00 0.00 0.00 0.00 0.00 0.00 0.00 0.00 0.00 0.00 0.00 0.00 0.00 0.00 0.00 0.00 0.00 0.00 0.00 0.00 0.00 0.00 0.00 0.00 0.00 0.00 0.00 0.00 0.00
0.00 0.00 0.00 0.00 0.00 0.00 0.00 0.00 0.00 0.00 0.00 0.00 0.00 0.00 0.00 0.00 0.00 0.00 0.00 0.00 0.00 0.00 0.03 0.05 0.08 0.05 0.03 0.01 0.01 0.00 0.00 0.00 0.00 0.00 0.00 0.00 0.00 0.00 0.00 0.00 0.00 0.00 0.00 0.00
0.00 0.00 0.00 0.00 0.00 0.00 0.00 0.00 0.01 0.01 0.00 0.00 0.00 0.00 0.00 0.00 0.00 0.00 0.00 0.00 0.00 0.01 0.04 0.07 0.07 0.04 0.05 0.04 0.02 0.01 0.00 0.00 0.00 0.00 0.00 0.00 0.00 0.00 0.00 0.00 0.00 0.00 0.00 0.00
0.00 0.00 0.00 0.00 0.00 0.00 0.00 0.00 0.00 0.03 0.01 0.01 0.00 0.00 0.00 0.00 0.00 0.00 0.00 0.00 0.00 0.00 0.01 0.01 0.00 0.00 0.01 0.01 0.01 0.01 0.01 0.01 0.00 0.00 0.00 0.00 0.00 0.00 0.00 0.00 0.00 0.00 0.00 0.00
0.00 0.00 0.00 0.00 0.00 0.00 0.00 0.00 0.02 0.07 0.09 0.02 0.00 0.00 0.00 0.00 0.00 0.01 0.01 0.03 0.06 0.06 0.04 0.03 0.00 0.00 0.00 0.00 0.01 0.00 0.00 0.01 0.01 0.00 0.00 0.00 0.00 0.00 0.00 0.00 0.00 0.00 0.00 0.00
0.00 0.00 0.00 0.00 0.00 0.00 0.00 0.01 0.02 0.09 0.06 0.07 0.03 0.00 0.00 0.01 0.00 0.01 0.03 0.06 0.10 0.16 0.18 0.15 0.07 0.04 0.03 0.02 0.00 0.00 0.00 0.00 0.00 0.00 0.00 0.00 0.00 0.00 0.00 0.00 0.00 0.01 0.00 0.01
0.01 0.01 0.00 0.00 0.00 0.00 0.00 0.00 0.04 0.20 0.15 0.13 0.19 0.12 0.00 0.00 0.01 0.02 0.01 0.02 0.04 0.10 0.16 0.11 0.06 0.04 0.03 0.02 0.00 0.01 0.01 0.00 0.00 0.00 0.00 0.00 0.00 0.00 0.00 0.01 0.01 0.01 0.01 0.00
0.05 0.08 0.04 0.01 0.01 0.02 0.04 0.03 0.04 0.07 0.15 0.13 0.25 0.09 0.01 0.01 0.01 0.01 0.02 0.01 0.01 0.11 0.18 0.14 0.08 0.05 0.05 0.04 0.04 0.06 0.03 0.00 0.00 0.00 0.00 0.00 0.00 0.00 0.01 0.01 0.01 0.01 0.01 0.01
0.06 0.03 0.05 0.02 0.01 0.04 0.08 0.05 0.04 0.11 0.20 0.13 0.07 0.03 0.00 0.00 0.03 0.01 0.02 0.02 0.03 0.12 0.18 0.13 0.13 0.13 0.11 0.08 0.07 0.06 0.05 0.03 0.00 0.00 0.00 0.00 0.01 0.01 0.01 0.01 0.01 0.01 0.01 0.01
0.05 0.02 0.02 0.01 0.01 0.01 0.05 0.05 0.02 0.03 0.05 0.13 0.04 0.04 0.01 0.00 0.00 0.02 0.04 0.05 0.10 0.15 0.10 0.07 0.09 0.10 0.06 0.04 0.02 0.01 0.00 0.00 0.00 0.00 0.00 0.01 0.02 0.02 0.01 0.01 0.02 0.03 0.02 0.01
0.03 0.04 0.01 0.01 0.00 0.01 0.01 0.01 0.00 0.00 0.03 0.04 0.04 0.02 0.00 0.00 0.00 0.00 0.00 0.04 0.07 0.09 0.07 0.05 0.05 0.04 0.02 0.01 0.00 0.00 0.00 0.01 0.00 0.00 0.00 0.01 0.01 0.03 0.03 0.05 0.08 0.06 0.03 0.05
0.09 0.12 0.16 0.12 0.03 0.10 0.08 0.00 0.00 0.00 0.00 0.00 0.01 0.00 0.00 0.01 0.03 0.02 0.01 0.02 0.06 0.10 0.08 0.04 0.02 0.01 0.02 0.01 0.00 0.01 0.01 0.00 0.00 0.00 0.00 0.00 0.00 0.00 0.01 0.03 0.02 0.02 0.04 0.05
0.03 0.08 0.25 0.20 0.13 0.27 0.03 0.00 0.00 0.00 0.00 0.00 0.00 0.00 0.00 0.01 0.02 0.02 0.02 0.02 0.10 0.12 0.06 0.02 0.01 0.01 0.00 0.00 0.00 0.00 0.00 0.00 0.00 0.00 0.00 0.00 0.00 0.00 0.00 0.00 0.00 0.01 0.02 0.02
0.01 0.06 0.17 0.16 0.08 0.04 0.00 0.00 0.00 0.00 0.00 0.00 0.00 0.00 0.00 0.01 0.02 0.01 0.01 0.02 0.04 0.03 0.02 0.01 0.02 0.01 0.00 0.00 0.00 0.00 0.00 0.00 0.00 0.00 0.00 0.00 0.00 0.00 0.00 0.00 0.00 0.00 0.00 0.01
0.06 0.09 0.23 0.15 0.09 0.02 0.00 0.00 0.00 0.01 0.02 0.00 0.00 0.00 0.01 0.04 0.05 0.04 0.02 0.01 0.00 0.01 0.01 0.02 0.02 0.01 0.01 0.00 0.00 0.00 0.00 0.00 0.00 0.00 0.00 0.00 0.00 0.00 0.00 0.00 0.00 0.00 0.00 0.00
0.20 0.30 0.30 0.15 0.17 0.03 0.00 0.00 0.01 0.02 0.01 0.00 0.00 0.00 0.00 0.02 0.02 0.01 0.00 0.01 0.01 0.01 0.01 0.03 0.03 0.04 0.03 0.01 0.01 0.01 0.01 0.01 0.01 0.00 0.00 0.00 0.00 0.00 0.00 0.01 0.01 0.01 0.00 0.00
0.06 0.21 0.27 0.35 0.40 0.21 0.02 0.02 0.06 0.05 0.04 0.01 0.01 0.01 0.01 0.01 0.01 0.01 0.01 0.02 0.02 0.03 0.04 0.04 0.06 0.07 0.07 0.03 0.01 0.02 0.03 0.01 0.00 0.00 0.00 0.00 0.00 0.00 0.00 0.00 0.01 0.01 0.00 0.00
0.05 0.06 0.07 0.13 0.13 0.06 0.04 0.03 0.02 0.01 0.01 0.00 0.00 0.00 0.00 0.00 0.02 0.03 0.04 0.04 0.05 0.04 0.04 0.06 0.08 0.11 0.11 0.03 0.02 0.02 0.01 0.00 0.00 0.00 0.00 0.00 0.00 0.00 0.00 0.00 0.01 0.00 0.00 0.00
0.07 0.07 0.11 0.13 0.06 0.04 0.05 0.03 0.04 0.02 0.03 0.01 0.01 0.00 0.00 0.01 0.02 0.05 0.05 0.05 0.05 0.05 0.06 0.07 0.07 0.08 0.04 0.01 0.01 0.00 0.00 0.00 0.00 0.00 0.00 0.00 0.00 0.00 0.00 0.00 0.00 0.00 0.00 0.00
0.11 0.13 0.14 0.18 0.14 0.15 0.16 0.17 0.19 0.09 0.03 0.01 0.00 0.00 0.00 0.00 0.01 0.01 0.03 0.03 0.03 0.04 0.06 0.03 0.02 0.02 0.01 0.00 0.00 0.00 0.00 0.00 0.00 0.00 0.00 0.00 0.00 0.00 0.00 0.00 0.00 0.00 0.00 0.00
0.03 0.06 0.10 0.13 0.14 0.14 0.15 0.12 0.07 0.03 0.01 0.00 0.00 0.01 0.01 0.00 0.00 0.01 0.02 0.02 0.02 0.04 0.02 0.01 0.01 0.00 0.00 0.00 0.00 0.00 0.00 0.00 0.00 0.00 0.00 0.00 0.00 0.00 0.00 0.00 0.00 0.00 0.00 0.00

GFSCGP_prec_precacc24_153.txt.gz
Total_Precipitation_Accumulation
0.00 0.00 0.00 0.00 0.00 0.00 0.00 0.00 0.00 0.00 0.00 0.00 0.00 0.00 0.00 0.00 0.00 0.00 0.00 0.00 0.00 0.00 0.00 0.00 0.00 0.00 0.00 0.00 0.00 0.00 0.00 0.00 0.00 0.00 0.00 0.00 0.00 0.00 0.00 0.00 0.00 0.00 0.00 0.00
0.00 0.00 0.00 0.00 0.00 0.00 0.00 0.00 0.00 0.00 0.00 0.00 0.00 0.00 0.00 0.00 0.00 0.00 0.00 0.00 0.00 0.00 0.00 0.00 0.00 0.00 0.00 0.00 0.00 0.00 0.00 0.00 0.00 0.00 0.00 0.00 0.00 0.00 0.00 0.00 0.00 0.00 0.00 0.00
0.00 0.00 0.00 0.00 0.00 0.00 0.00 0.00 0.00 0.00 0.00 0.00 0.00 0.00 0.00 0.00 0.00 0.00 0.00 0.00 0.00 0.00 0.00 0.00 0.00 0.00 0.00 0.00 0.00 0.00 0.00 0.00 0.00 0.00 0.00 0.00 0.00 0.00 0.00 0.00 0.00 0.00 0.00 0.00
0.00 0.00 0.00 0.00 0.00 0.00 0.00 0.00 0.00 0.00 0.00 0.00 0.00 0.00 0.00 0.00 0.00 0.00 0.00 0.00 0.00 0.00 0.00 0.00 0.00 0.00 0.00 0.00 0.00 0.00 0.00 0.00 0.00 0.00 0.00 0.00 0.00 0.00 0.00 0.00 0.00 0.00 0.00 0.00
0.00 0.00 0.00 0.00 0.00 0.00 0.00 0.00 0.00 0.00 0.00 0.00 0.00 0.00 0.00 0.00 0.00 0.00 0.00 0.00 0.00 0.00 0.00 0.00 0.00 0.00 0.00 0.00 0.00 0.00 0.00 0.00 0.00 0.00 0.00 0.00 0.00 0.00 0.00 0.00 0.00 0.00 0.00 0.00
0.00 0.00 0.00 0.00 0.00 0.00 0.00 0.00 0.00 0.00 0.00 0.00 0.00 0.00 0.00 0.00 0.00 0.00 0.00 0.00 0.00 0.00 0.00 0.00 0.00 0.00 0.00 0.00 0.00 0.00 0.00 0.00 0.00 0.00 0.00 0.00 0.00 0.00 0.00 0.00 0.00 0.00 0.00 0.00
0.00 0.00 0.00 0.00 0.00 0.00 0.00 0.00 0.00 0.00 0.00 0.00 0.00 0.00 0.00 0.00 0.00 0.00 0.00 0.00 0.00 0.00 0.00 0.00 0.00 0.00 0.00 0.00 0.00 0.00 0.00 0.00 0.00 0.00 0.00 0.00 0.00 0.00 0.00 0.00 0.00 0.00 0.00 0.00
0.00 0.00 0.00 0.00 0.00 0.00 0.00 0.00 0.00 0.00 0.00 0.00 0.00 0.00 0.00 0.00 0.00 0.00 0.00 0.00 0.00 0.00 0.00 0.00 0.00 0.00 0.00 0.00 0.00 0.00 0.00 0.00 0.00 0.00 0.00 0.00 0.00 0.00 0.00 0.00 0.00 0.00 0.00 0.00
0.00 0.00 0.00 0.00 0.00 0.00 0.00 0.00 0.00 0.01 0.00 0.01 0.00 0.00 0.00 0.00 0.00 0.00 0.00 0.00 0.00 0.00 0.00 0.00 0.00 0.00 0.00 0.00 0.01 0.01 0.00 0.00 0.00 0.00 0.00 0.00 0.00 0.00 0.00 0.00 0.00 0.00 0.00 0.00
0.00 0.00 0.00 0.00 0.00 0.00 0.00 0.00 0.01 0.05 0.07 0.02 0.00 0.00 0.00 0.00 0.00 0.01 0.01 0.03 0.06 0.06 0.04 0.03 0.00 0.00 0.00 0.00 0.01 0.00 0.00 0.00 0.00 0.00 0.00 0.00 0.00 0.00 0.00 0.00 0.00 0.00 0.00 0.00
0.00 0.00 0.00 0.00 0.00 0.00 0.00 0.01 0.01 0.06 0.05 0.05 0.02 0.00 0.00 0.01 0.00 0.01 0.03 0.06 0.10 0.16 0.18 0.15 0.07 0.04 0.03 0.02 0.00 0.00 0.00 0.00 0.00 0.00 0.00 0.00 0.00 0.00 0.00 0.00 0.00 0.00 0.00 0.00
0.00 0.00 0.00 0.00 0.00 0.00 0.00 0.00 0.03 0.17 0.13 0.12 0.18 0.12 0.00 0.00 0.00 0.01 0.01 0.02 0.04 0.10 0.16 0.11 0.06 0.04 0.03 0.02 0.00 0.01 0.01 0.00 0.00 0.00 0.00 0.00 0.00 0.00 0.00 0.00 0.00 0.00 0.00 0.00
0.01 0.07 0.00 0.00 0.00 0.01 0.02 0.03 0.04 0.07 0.14 0.12 0.22 0.09 0.00 0.00 0.00 0.00 0.02 0.01 0.01 0.11 0.18 0.14 0.08 0.05 0.05 0.04 0.05 0.07 0.04 0.01 0.00 0.00 0.00 0.00 0.00 0.00 0.00 0.00 0.00 0.00 0.00 0.00
0.02 0.03 0.05 0.04 0.07 0.08 0.11 0.07 0.06 0.17 0.26 0.17 0.09 0.04 0.00 0.00 0.03 0.03 0.02 0.02 0.03 0.12 0.18 0.13 0.13 0.13 0.12 0.11 0.09 0.08 0.06 0.03 0.01 0.00 0.00 0.00 0.00 0.00 0.00 0.00 0.00 0.01 0.00 0.00
0.01 0.01 0.01 0.01 0.02 0.04 0.08 0.07 0.04 0.14 0.20 0.37 0.10 0.11 0.02 0.00 0.05 0.11 0.04 0.05 0.10 0.15 0.10 0.07 0.10 0.12 0.09 0.06 0.04 0.02 0.01 0.00 0.00 0.00 0.00 0.00 0.00 0.00 0.00 0.00 0.00 0.00 0.00 0.00
0.02 0.06 0.01 0.02 0.00 0.02 0.08 0.02 0.00 0.01 0.04 0.06 0.05 0.02 0.00 0.00 0.00 0.01 0.00 0.04 0.07 0.09 0.07 0.05 0.06 0.04 0.03 0.01 0.01 0.00 0.00 0.01 0.01 0.01 0.01 0.00 0.00 0.00 0.00 0.00 0.00 0.00 0.00 0.00
0.05 0.07 0.09 0.05 0.01 0.06 0.07 0.00 0.00 0.00 0.00 0.00 0.01 0.00 0.00 0.01 0.03 0.02 0.01 0.02 0.06 0.10 0.08 0.04 0.03 0.01 0.01 0.01 0.01 0.01 0.01 0.01 0.02 0.03 0.04 0.01 0.00 0.00 0.00 0.00 0.00 0.00 0.00 0.00
0.01 0.05 0.15 0.10 0.10 0.26 0.02 0.00 0.00 0.00 0.00 0.00 0.00 0.00 0.00 0.01 0.02 0.02 0.02 0.03 0.11 0.12 0.07 0.03 0.01 0.01 0.01 0.01 0.00 0.00 0.01 0.03 0.06 0.07 0.04 0.01 0.00 0.00 0.00 0.00 0.00 0.00 0.01 0.00
0.00 0.03 0.09 0.10 0.05 0.03 0.00 0.00 0.00 0.00 0.00 0.00 0.00 0.00 0.00 0.01 0.01 0.01 0.01 0.02 0.04 0.03 0.02 0.01 0.01 0.00 0.00 0.00 0.00 0.01 0.04 0.07 0.09 0.08 0.03 0.01 0.00 0.00 0.00 0.00 0.00 0.00 0.00 0.00
0.01 0.03 0.14 0.05 0.06 0.02 0.00 0.00 0.00 0.01 0.02 0.00 0.00 0.00 0.00 0.03 0.05 0.04 0.02 0.01 0.00 0.01 0.00 0.00 0.01 0.00 0.00 0.00 0.01 0.05 0.10 0.12 0.11 0.09 0.04 0.01 0.00 0.00 0.00 0.00 0.00 0.00 0.00 0.00
0.10 0.14 0.17 0.09 0.16 0.03 0.00 0.00 0.01 0.02 0.01 0.00 0.00 0.00 0.01 0.02 0.02 0.01 0.00 0.01 0.01 0.00 0.00 0.00 0.00 0.00 0.00 0.00 0.00 0.03 0.05 0.07 0.07 0.05 0.01 0.00 0.00 0.00 0.00 0.01 0.01 0.01 0.00 0.00
0.02 0.12 0.15 0.24 0.32 0.18 0.02 0.02 0.06 0.05 0.04 0.01 0.01 0.01 0.01 0.01 0.01 0.01 0.01 0.01 0.01 0.01 0.01 0.01 0.01 0.01 0.01 0.01 0.01 0.02 0.03 0.04 0.02 0.00 0.00 0.00 0.00 0.00 0.01 0.01 0.02 0.01 0.00 0.00
0.05 0.04 0.05 0.12 0.11 0.06 0.04 0.03 0.02 0.01 0.01 0.00 0.00 0.00 0.00 0.00 0.00 0.00 0.01 0.01 0.02 0.01 0.01 0.01 0.01 0.01 0.02 0.01 0.03 0.06 0.06 0.03 0.00 0.00 0.00 0.00 0.01 0.01 0.00 0.00 0.01 0.00 0.00 0.00
0.07 0.07 0.11 0.13 0.06 0.04 0.05 0.03 0.04 0.02 0.03 0.01 0.01 0.00 0.00 0.00 0.00 0.01 0.01 0.02 0.02 0.02 0.01 0.01 0.01 0.02 0.02 0.02 0.05 0.06 0.04 0.01 0.00 0.00 0.00 0.00 0.01 0.01 0.01 0.01 0.00 0.00 0.00 0.00
0.10 0.13 0.14 0.17 0.14 0.15 0.16 0.17 0.19 0.09 0.03 0.01 0.00 0.00 0.00 0.00 0.01 0.00 0.02 0.02 0.01 0.01 0.02 0.00 0.01 0.00 0.01 0.01 0.03 0.03 0.02 0.01 0.01 0.01 0.00 0.01 0.01 0.00 0.01 0.01 0.00 0.00 0.00 0.00
0.02 0.06 0.10 0.13 0.14 0.14 0.15 0.12 0.07 0.03 0.01 0.00 0.00 0.00 0.00 0.00 0.00 0.01 0.01 0.00 0.01 0.02 0.01 0.01 0.01 0.00 0.00 0.01 0.02 0.01 0.01 0.00 0.01 0.01 0.01 0.01 0.00 0.00 0.00 0.00 0.00 0.00 0.00 0.00